<?xml version="1.0" encoding="UTF-8" standalone="no" ?>
<gpx xmlns="http://www.topografix.com/GPX/1/1" xmlns:xsi="http://www.w3.org/2001/XMLSchema-instance" xsi:schemaLocation="http://www.topografix.com/GPX/1/1 http://www.topografix.com/GPX/1/1/gpx.xsd" version="1.1" creator="VisuGPX - https://www.visugpx.com">
  <metadata>
    <name>Trou de la mouche</name>
    <desc><![CDATA[2022-02-19 14:57]]></desc>
  </metadata>
  <trk>
    <name><![CDATA[SkiTouring_2022-02-19T10_46_09]]></name>
    <desc><![CDATA[2022-02-19 14:57]]></desc>
    <extensions>
      <line xmlns="http://www.topografix.com/GPX/gpx_style/0/2">
        <color>0000FF</color>
        <width>4</width>
      </line>
    </extensions>
    <trkseg>
      <trkpt lat="45.92327" lon="6.48385">
        <ele>1436.6</ele>
        <time>2022-02-19T09:46:09Z</time>
      </trkpt>
      <trkpt lat="45.92326" lon="6.48385">
        <ele>1456</ele>
        <time>2022-02-19T09:46:10Z</time>
      </trkpt>
      <trkpt lat="45.92324" lon="6.48386">
        <ele>1456</ele>
        <time>2022-02-19T09:46:11Z</time>
      </trkpt>
      <trkpt lat="45.92322" lon="6.48387">
        <ele>1456</ele>
        <time>2022-02-19T09:46:13Z</time>
      </trkpt>
      <trkpt lat="45.92319" lon="6.48388">
        <ele>1455</ele>
        <time>2022-02-19T09:46:15Z</time>
      </trkpt>
      <trkpt lat="45.92317" lon="6.48389">
        <ele>1455</ele>
        <time>2022-02-19T09:46:17Z</time>
      </trkpt>
      <trkpt lat="45.92315" lon="6.4839">
        <ele>1455</ele>
        <time>2022-02-19T09:46:19Z</time>
      </trkpt>
      <trkpt lat="45.92313" lon="6.4839">
        <ele>1455</ele>
        <time>2022-02-19T09:46:21Z</time>
      </trkpt>
      <trkpt lat="45.92311" lon="6.48391">
        <ele>1455</ele>
        <time>2022-02-19T09:46:23Z</time>
      </trkpt>
      <trkpt lat="45.92308" lon="6.48391">
        <ele>1455</ele>
        <time>2022-02-19T09:46:25Z</time>
      </trkpt>
      <trkpt lat="45.92306" lon="6.48392">
        <ele>1456</ele>
        <time>2022-02-19T09:46:27Z</time>
      </trkpt>
      <trkpt lat="45.92303" lon="6.48394">
        <ele>1456</ele>
        <time>2022-02-19T09:46:29Z</time>
      </trkpt>
      <trkpt lat="45.92301" lon="6.48396">
        <ele>1456</ele>
        <time>2022-02-19T09:46:31Z</time>
      </trkpt>
      <trkpt lat="45.92298" lon="6.48397">
        <ele>1456</ele>
        <time>2022-02-19T09:46:33Z</time>
      </trkpt>
      <trkpt lat="45.92296" lon="6.48398">
        <ele>1456</ele>
        <time>2022-02-19T09:46:35Z</time>
      </trkpt>
      <trkpt lat="45.92294" lon="6.484">
        <ele>1455</ele>
        <time>2022-02-19T09:46:38Z</time>
      </trkpt>
      <trkpt lat="45.92292" lon="6.48402">
        <ele>1456</ele>
        <time>2022-02-19T09:46:40Z</time>
      </trkpt>
      <trkpt lat="45.9229" lon="6.48403">
        <ele>1456</ele>
        <time>2022-02-19T09:46:42Z</time>
      </trkpt>
      <trkpt lat="45.92288" lon="6.48404">
        <ele>1456</ele>
        <time>2022-02-19T09:46:44Z</time>
      </trkpt>
      <trkpt lat="45.92286" lon="6.48405">
        <ele>1456</ele>
        <time>2022-02-19T09:46:46Z</time>
      </trkpt>
      <trkpt lat="45.92284" lon="6.48406">
        <ele>1456</ele>
        <time>2022-02-19T09:46:48Z</time>
      </trkpt>
      <trkpt lat="45.92282" lon="6.48407">
        <ele>1456</ele>
        <time>2022-02-19T09:46:50Z</time>
      </trkpt>
      <trkpt lat="45.9228" lon="6.48408">
        <ele>1456</ele>
        <time>2022-02-19T09:46:52Z</time>
      </trkpt>
      <trkpt lat="45.92278" lon="6.48409">
        <ele>1456</ele>
        <time>2022-02-19T09:46:54Z</time>
      </trkpt>
      <trkpt lat="45.92276" lon="6.48411">
        <ele>1456</ele>
        <time>2022-02-19T09:46:56Z</time>
      </trkpt>
      <trkpt lat="45.92274" lon="6.48412">
        <ele>1456</ele>
        <time>2022-02-19T09:46:58Z</time>
      </trkpt>
      <trkpt lat="45.92272" lon="6.48413">
        <ele>1456</ele>
        <time>2022-02-19T09:47:00Z</time>
      </trkpt>
      <trkpt lat="45.9227" lon="6.48414">
        <ele>1457</ele>
        <time>2022-02-19T09:47:02Z</time>
      </trkpt>
      <trkpt lat="45.92269" lon="6.48416">
        <ele>1457</ele>
        <time>2022-02-19T09:47:04Z</time>
      </trkpt>
      <trkpt lat="45.92267" lon="6.48417">
        <ele>1457</ele>
        <time>2022-02-19T09:47:06Z</time>
      </trkpt>
      <trkpt lat="45.92265" lon="6.48419">
        <ele>1457</ele>
        <time>2022-02-19T09:47:08Z</time>
      </trkpt>
      <trkpt lat="45.92263" lon="6.4842">
        <ele>1457</ele>
        <time>2022-02-19T09:47:10Z</time>
      </trkpt>
      <trkpt lat="45.92261" lon="6.48422">
        <ele>1457</ele>
        <time>2022-02-19T09:47:13Z</time>
      </trkpt>
      <trkpt lat="45.92259" lon="6.48424">
        <ele>1457</ele>
        <time>2022-02-19T09:47:15Z</time>
      </trkpt>
      <trkpt lat="45.92258" lon="6.48427">
        <ele>1457</ele>
        <time>2022-02-19T09:47:17Z</time>
      </trkpt>
      <trkpt lat="45.92255" lon="6.48429">
        <ele>1456</ele>
        <time>2022-02-19T09:47:20Z</time>
      </trkpt>
      <trkpt lat="45.92253" lon="6.4843">
        <ele>1456</ele>
        <time>2022-02-19T09:47:23Z</time>
      </trkpt>
      <trkpt lat="45.9225" lon="6.48431">
        <ele>1456</ele>
        <time>2022-02-19T09:47:26Z</time>
      </trkpt>
      <trkpt lat="45.92248" lon="6.48431">
        <ele>1457</ele>
        <time>2022-02-19T09:47:29Z</time>
      </trkpt>
      <trkpt lat="45.92246" lon="6.48432">
        <ele>1457</ele>
        <time>2022-02-19T09:47:31Z</time>
      </trkpt>
      <trkpt lat="45.92244" lon="6.48434">
        <ele>1457</ele>
        <time>2022-02-19T09:47:33Z</time>
      </trkpt>
      <trkpt lat="45.92242" lon="6.48435">
        <ele>1457</ele>
        <time>2022-02-19T09:47:35Z</time>
      </trkpt>
      <trkpt lat="45.92241" lon="6.48437">
        <ele>1457</ele>
        <time>2022-02-19T09:47:37Z</time>
      </trkpt>
      <trkpt lat="45.92239" lon="6.48439">
        <ele>1457</ele>
        <time>2022-02-19T09:47:39Z</time>
      </trkpt>
      <trkpt lat="45.92237" lon="6.48441">
        <ele>1457</ele>
        <time>2022-02-19T09:47:41Z</time>
      </trkpt>
      <trkpt lat="45.92234" lon="6.48443">
        <ele>1457</ele>
        <time>2022-02-19T09:47:43Z</time>
      </trkpt>
      <trkpt lat="45.92232" lon="6.48444">
        <ele>1457</ele>
        <time>2022-02-19T09:47:45Z</time>
      </trkpt>
      <trkpt lat="45.92229" lon="6.48446">
        <ele>1457</ele>
        <time>2022-02-19T09:47:47Z</time>
      </trkpt>
      <trkpt lat="45.92227" lon="6.48449">
        <ele>1457</ele>
        <time>2022-02-19T09:47:49Z</time>
      </trkpt>
      <trkpt lat="45.92225" lon="6.48451">
        <ele>1456</ele>
        <time>2022-02-19T09:47:51Z</time>
      </trkpt>
      <trkpt lat="45.92222" lon="6.48454">
        <ele>1456</ele>
        <time>2022-02-19T09:47:53Z</time>
      </trkpt>
      <trkpt lat="45.92221" lon="6.48456">
        <ele>1456</ele>
        <time>2022-02-19T09:47:55Z</time>
      </trkpt>
      <trkpt lat="45.9222" lon="6.48458">
        <ele>1456</ele>
        <time>2022-02-19T09:47:57Z</time>
      </trkpt>
      <trkpt lat="45.92218" lon="6.4846">
        <ele>1456</ele>
        <time>2022-02-19T09:47:59Z</time>
      </trkpt>
      <trkpt lat="45.92216" lon="6.48462">
        <ele>1456</ele>
        <time>2022-02-19T09:48:02Z</time>
      </trkpt>
      <trkpt lat="45.92214" lon="6.48464">
        <ele>1456</ele>
        <time>2022-02-19T09:48:05Z</time>
      </trkpt>
      <trkpt lat="45.92212" lon="6.48467">
        <ele>1457</ele>
        <time>2022-02-19T09:48:08Z</time>
      </trkpt>
      <trkpt lat="45.9221" lon="6.48469">
        <ele>1457</ele>
        <time>2022-02-19T09:48:11Z</time>
      </trkpt>
      <trkpt lat="45.92209" lon="6.48472">
        <ele>1457</ele>
        <time>2022-02-19T09:48:14Z</time>
      </trkpt>
      <trkpt lat="45.92207" lon="6.48474">
        <ele>1457</ele>
        <time>2022-02-19T09:48:16Z</time>
      </trkpt>
      <trkpt lat="45.92206" lon="6.48476">
        <ele>1457</ele>
        <time>2022-02-19T09:48:18Z</time>
      </trkpt>
      <trkpt lat="45.92204" lon="6.48478">
        <ele>1457</ele>
        <time>2022-02-19T09:48:20Z</time>
      </trkpt>
      <trkpt lat="45.92203" lon="6.4848">
        <ele>1457</ele>
        <time>2022-02-19T09:48:22Z</time>
      </trkpt>
      <trkpt lat="45.92201" lon="6.48483">
        <ele>1458</ele>
        <time>2022-02-19T09:48:25Z</time>
      </trkpt>
      <trkpt lat="45.922" lon="6.48486">
        <ele>1458</ele>
        <time>2022-02-19T09:48:28Z</time>
      </trkpt>
      <trkpt lat="45.92198" lon="6.48489">
        <ele>1458</ele>
        <time>2022-02-19T09:48:31Z</time>
      </trkpt>
      <trkpt lat="45.92197" lon="6.48491">
        <ele>1459</ele>
        <time>2022-02-19T09:48:33Z</time>
      </trkpt>
      <trkpt lat="45.92195" lon="6.48494">
        <ele>1459</ele>
        <time>2022-02-19T09:48:36Z</time>
      </trkpt>
      <trkpt lat="45.92194" lon="6.48497">
        <ele>1459</ele>
        <time>2022-02-19T09:48:39Z</time>
      </trkpt>
      <trkpt lat="45.92193" lon="6.48499">
        <ele>1459</ele>
        <time>2022-02-19T09:48:41Z</time>
      </trkpt>
      <trkpt lat="45.92192" lon="6.48502">
        <ele>1459</ele>
        <time>2022-02-19T09:48:44Z</time>
      </trkpt>
      <trkpt lat="45.9219" lon="6.48505">
        <ele>1460</ele>
        <time>2022-02-19T09:48:47Z</time>
      </trkpt>
      <trkpt lat="45.92189" lon="6.48508">
        <ele>1460</ele>
        <time>2022-02-19T09:48:50Z</time>
      </trkpt>
      <trkpt lat="45.92188" lon="6.4851">
        <ele>1460</ele>
        <time>2022-02-19T09:48:53Z</time>
      </trkpt>
      <trkpt lat="45.92187" lon="6.48513">
        <ele>1460</ele>
        <time>2022-02-19T09:48:56Z</time>
      </trkpt>
      <trkpt lat="45.92185" lon="6.48516">
        <ele>1461</ele>
        <time>2022-02-19T09:48:59Z</time>
      </trkpt>
      <trkpt lat="45.92184" lon="6.48519">
        <ele>1461</ele>
        <time>2022-02-19T09:49:02Z</time>
      </trkpt>
      <trkpt lat="45.92183" lon="6.48522">
        <ele>1461</ele>
        <time>2022-02-19T09:49:05Z</time>
      </trkpt>
      <trkpt lat="45.92182" lon="6.48526">
        <ele>1461</ele>
        <time>2022-02-19T09:49:08Z</time>
      </trkpt>
      <trkpt lat="45.92181" lon="6.48529">
        <ele>1461</ele>
        <time>2022-02-19T09:49:11Z</time>
      </trkpt>
      <trkpt lat="45.9218" lon="6.48532">
        <ele>1462</ele>
        <time>2022-02-19T09:49:14Z</time>
      </trkpt>
      <trkpt lat="45.92178" lon="6.48535">
        <ele>1462</ele>
        <time>2022-02-19T09:49:17Z</time>
      </trkpt>
      <trkpt lat="45.92177" lon="6.48538">
        <ele>1461</ele>
        <time>2022-02-19T09:49:20Z</time>
      </trkpt>
      <trkpt lat="45.92176" lon="6.48541">
        <ele>1461</ele>
        <time>2022-02-19T09:49:23Z</time>
      </trkpt>
      <trkpt lat="45.92175" lon="6.48544">
        <ele>1462</ele>
        <time>2022-02-19T09:49:26Z</time>
      </trkpt>
      <trkpt lat="45.92173" lon="6.48547">
        <ele>1462</ele>
        <time>2022-02-19T09:49:29Z</time>
      </trkpt>
      <trkpt lat="45.92172" lon="6.4855">
        <ele>1462</ele>
        <time>2022-02-19T09:49:32Z</time>
      </trkpt>
      <trkpt lat="45.9217" lon="6.48553">
        <ele>1463</ele>
        <time>2022-02-19T09:49:35Z</time>
      </trkpt>
      <trkpt lat="45.92169" lon="6.48555">
        <ele>1463</ele>
        <time>2022-02-19T09:49:39Z</time>
      </trkpt>
      <trkpt lat="45.92168" lon="6.48558">
        <ele>1463</ele>
        <time>2022-02-19T09:49:42Z</time>
      </trkpt>
      <trkpt lat="45.92166" lon="6.4856">
        <ele>1463</ele>
        <time>2022-02-19T09:49:45Z</time>
      </trkpt>
      <trkpt lat="45.92165" lon="6.48563">
        <ele>1464</ele>
        <time>2022-02-19T09:49:48Z</time>
      </trkpt>
      <trkpt lat="45.92164" lon="6.48566">
        <ele>1464</ele>
        <time>2022-02-19T09:49:51Z</time>
      </trkpt>
      <trkpt lat="45.92162" lon="6.48569">
        <ele>1464</ele>
        <time>2022-02-19T09:49:54Z</time>
      </trkpt>
      <trkpt lat="45.92161" lon="6.48572">
        <ele>1464</ele>
        <time>2022-02-19T09:49:57Z</time>
      </trkpt>
      <trkpt lat="45.92159" lon="6.48574">
        <ele>1465</ele>
        <time>2022-02-19T09:50:00Z</time>
      </trkpt>
      <trkpt lat="45.92158" lon="6.48576">
        <ele>1466</ele>
        <time>2022-02-19T09:50:03Z</time>
      </trkpt>
      <trkpt lat="45.92157" lon="6.48578">
        <ele>1467</ele>
        <time>2022-02-19T09:50:06Z</time>
      </trkpt>
      <trkpt lat="45.92156" lon="6.48581">
        <ele>1467</ele>
        <time>2022-02-19T09:50:09Z</time>
      </trkpt>
      <trkpt lat="45.92155" lon="6.48584">
        <ele>1467</ele>
        <time>2022-02-19T09:50:12Z</time>
      </trkpt>
      <trkpt lat="45.92155" lon="6.48586">
        <ele>1467</ele>
        <time>2022-02-19T09:50:15Z</time>
      </trkpt>
      <trkpt lat="45.92154" lon="6.48589">
        <ele>1467</ele>
        <time>2022-02-19T09:50:18Z</time>
      </trkpt>
      <trkpt lat="45.92153" lon="6.48591">
        <ele>1467</ele>
        <time>2022-02-19T09:50:21Z</time>
      </trkpt>
      <trkpt lat="45.92152" lon="6.48594">
        <ele>1467</ele>
        <time>2022-02-19T09:50:24Z</time>
      </trkpt>
      <trkpt lat="45.92151" lon="6.48596">
        <ele>1467</ele>
        <time>2022-02-19T09:50:27Z</time>
      </trkpt>
      <trkpt lat="45.9215" lon="6.48599">
        <ele>1467</ele>
        <time>2022-02-19T09:50:30Z</time>
      </trkpt>
      <trkpt lat="45.92149" lon="6.48602">
        <ele>1467</ele>
        <time>2022-02-19T09:50:34Z</time>
      </trkpt>
      <trkpt lat="45.92147" lon="6.48605">
        <ele>1467</ele>
        <time>2022-02-19T09:50:37Z</time>
      </trkpt>
      <trkpt lat="45.92146" lon="6.48608">
        <ele>1467</ele>
        <time>2022-02-19T09:50:40Z</time>
      </trkpt>
      <trkpt lat="45.92145" lon="6.48611">
        <ele>1467</ele>
        <time>2022-02-19T09:50:43Z</time>
      </trkpt>
      <trkpt lat="45.92143" lon="6.48613">
        <ele>1467</ele>
        <time>2022-02-19T09:50:46Z</time>
      </trkpt>
      <trkpt lat="45.92142" lon="6.48616">
        <ele>1468</ele>
        <time>2022-02-19T09:50:49Z</time>
      </trkpt>
      <trkpt lat="45.92141" lon="6.48619">
        <ele>1467</ele>
        <time>2022-02-19T09:50:52Z</time>
      </trkpt>
      <trkpt lat="45.9214" lon="6.48622">
        <ele>1467</ele>
        <time>2022-02-19T09:50:55Z</time>
      </trkpt>
      <trkpt lat="45.92138" lon="6.48625">
        <ele>1467</ele>
        <time>2022-02-19T09:50:58Z</time>
      </trkpt>
      <trkpt lat="45.92137" lon="6.48628">
        <ele>1467</ele>
        <time>2022-02-19T09:51:01Z</time>
      </trkpt>
      <trkpt lat="45.92135" lon="6.48629">
        <ele>1467</ele>
        <time>2022-02-19T09:51:12Z</time>
      </trkpt>
      <trkpt lat="45.92134" lon="6.48632">
        <ele>1467</ele>
        <time>2022-02-19T09:51:15Z</time>
      </trkpt>
      <trkpt lat="45.92133" lon="6.48635">
        <ele>1467</ele>
        <time>2022-02-19T09:51:18Z</time>
      </trkpt>
      <trkpt lat="45.92132" lon="6.48637">
        <ele>1468</ele>
        <time>2022-02-19T09:51:22Z</time>
      </trkpt>
      <trkpt lat="45.92131" lon="6.48641">
        <ele>1468</ele>
        <time>2022-02-19T09:51:26Z</time>
      </trkpt>
      <trkpt lat="45.92129" lon="6.48644">
        <ele>1468</ele>
        <time>2022-02-19T09:51:29Z</time>
      </trkpt>
      <trkpt lat="45.92128" lon="6.48647">
        <ele>1468</ele>
        <time>2022-02-19T09:51:32Z</time>
      </trkpt>
      <trkpt lat="45.92127" lon="6.48649">
        <ele>1468</ele>
        <time>2022-02-19T09:51:35Z</time>
      </trkpt>
      <trkpt lat="45.92127" lon="6.48652">
        <ele>1469</ele>
        <time>2022-02-19T09:51:38Z</time>
      </trkpt>
      <trkpt lat="45.92127" lon="6.48655">
        <ele>1469</ele>
        <time>2022-02-19T09:51:41Z</time>
      </trkpt>
      <trkpt lat="45.92128" lon="6.48659">
        <ele>1469</ele>
        <time>2022-02-19T09:51:44Z</time>
      </trkpt>
      <trkpt lat="45.92129" lon="6.48661">
        <ele>1469</ele>
        <time>2022-02-19T09:51:46Z</time>
      </trkpt>
      <trkpt lat="45.92129" lon="6.48665">
        <ele>1469</ele>
        <time>2022-02-19T09:51:49Z</time>
      </trkpt>
      <trkpt lat="45.9213" lon="6.48668">
        <ele>1469</ele>
        <time>2022-02-19T09:51:52Z</time>
      </trkpt>
      <trkpt lat="45.92131" lon="6.4867">
        <ele>1470</ele>
        <time>2022-02-19T09:51:55Z</time>
      </trkpt>
      <trkpt lat="45.92133" lon="6.48673">
        <ele>1471</ele>
        <time>2022-02-19T09:51:58Z</time>
      </trkpt>
      <trkpt lat="45.92134" lon="6.48676">
        <ele>1471</ele>
        <time>2022-02-19T09:52:01Z</time>
      </trkpt>
      <trkpt lat="45.92135" lon="6.48679">
        <ele>1471</ele>
        <time>2022-02-19T09:52:04Z</time>
      </trkpt>
      <trkpt lat="45.92137" lon="6.48682">
        <ele>1471</ele>
        <time>2022-02-19T09:52:07Z</time>
      </trkpt>
      <trkpt lat="45.92138" lon="6.48684">
        <ele>1471</ele>
        <time>2022-02-19T09:52:09Z</time>
      </trkpt>
      <trkpt lat="45.9214" lon="6.48687">
        <ele>1472</ele>
        <time>2022-02-19T09:52:12Z</time>
      </trkpt>
      <trkpt lat="45.92141" lon="6.4869">
        <ele>1472</ele>
        <time>2022-02-19T09:52:15Z</time>
      </trkpt>
      <trkpt lat="45.92143" lon="6.48693">
        <ele>1473</ele>
        <time>2022-02-19T09:52:18Z</time>
      </trkpt>
      <trkpt lat="45.92144" lon="6.48696">
        <ele>1473</ele>
        <time>2022-02-19T09:52:21Z</time>
      </trkpt>
      <trkpt lat="45.92145" lon="6.487">
        <ele>1474</ele>
        <time>2022-02-19T09:52:24Z</time>
      </trkpt>
      <trkpt lat="45.92147" lon="6.48703">
        <ele>1474</ele>
        <time>2022-02-19T09:52:26Z</time>
      </trkpt>
      <trkpt lat="45.92148" lon="6.48705">
        <ele>1474</ele>
        <time>2022-02-19T09:52:28Z</time>
      </trkpt>
      <trkpt lat="45.9215" lon="6.48708">
        <ele>1474</ele>
        <time>2022-02-19T09:52:31Z</time>
      </trkpt>
      <trkpt lat="45.92152" lon="6.48711">
        <ele>1473</ele>
        <time>2022-02-19T09:52:34Z</time>
      </trkpt>
      <trkpt lat="45.92153" lon="6.48715">
        <ele>1473</ele>
        <time>2022-02-19T09:52:36Z</time>
      </trkpt>
      <trkpt lat="45.92154" lon="6.48717">
        <ele>1473</ele>
        <time>2022-02-19T09:52:38Z</time>
      </trkpt>
      <trkpt lat="45.92155" lon="6.4872">
        <ele>1473</ele>
        <time>2022-02-19T09:52:40Z</time>
      </trkpt>
      <trkpt lat="45.92157" lon="6.48723">
        <ele>1473</ele>
        <time>2022-02-19T09:52:43Z</time>
      </trkpt>
      <trkpt lat="45.92157" lon="6.48726">
        <ele>1473</ele>
        <time>2022-02-19T09:52:45Z</time>
      </trkpt>
      <trkpt lat="45.92158" lon="6.48728">
        <ele>1473</ele>
        <time>2022-02-19T09:52:47Z</time>
      </trkpt>
      <trkpt lat="45.9216" lon="6.48731">
        <ele>1473</ele>
        <time>2022-02-19T09:52:49Z</time>
      </trkpt>
      <trkpt lat="45.92161" lon="6.48734">
        <ele>1472</ele>
        <time>2022-02-19T09:52:52Z</time>
      </trkpt>
      <trkpt lat="45.92161" lon="6.48737">
        <ele>1472</ele>
        <time>2022-02-19T09:52:54Z</time>
      </trkpt>
      <trkpt lat="45.92162" lon="6.4874">
        <ele>1472</ele>
        <time>2022-02-19T09:52:56Z</time>
      </trkpt>
      <trkpt lat="45.92163" lon="6.48743">
        <ele>1472</ele>
        <time>2022-02-19T09:52:58Z</time>
      </trkpt>
      <trkpt lat="45.92164" lon="6.48747">
        <ele>1471</ele>
        <time>2022-02-19T09:53:00Z</time>
      </trkpt>
      <trkpt lat="45.92165" lon="6.4875">
        <ele>1471</ele>
        <time>2022-02-19T09:53:02Z</time>
      </trkpt>
      <trkpt lat="45.92166" lon="6.48754">
        <ele>1471</ele>
        <time>2022-02-19T09:53:04Z</time>
      </trkpt>
      <trkpt lat="45.92168" lon="6.48759">
        <ele>1470</ele>
        <time>2022-02-19T09:53:06Z</time>
      </trkpt>
      <trkpt lat="45.92168" lon="6.48761">
        <ele>1470</ele>
        <time>2022-02-19T09:53:07Z</time>
      </trkpt>
      <trkpt lat="45.92169" lon="6.48764">
        <ele>1470</ele>
        <time>2022-02-19T09:53:08Z</time>
      </trkpt>
      <trkpt lat="45.9217" lon="6.48769">
        <ele>1470</ele>
        <time>2022-02-19T09:53:10Z</time>
      </trkpt>
      <trkpt lat="45.92171" lon="6.48771">
        <ele>1470</ele>
        <time>2022-02-19T09:53:11Z</time>
      </trkpt>
      <trkpt lat="45.92172" lon="6.48774">
        <ele>1470</ele>
        <time>2022-02-19T09:53:12Z</time>
      </trkpt>
      <trkpt lat="45.92173" lon="6.48777">
        <ele>1469</ele>
        <time>2022-02-19T09:53:14Z</time>
      </trkpt>
      <trkpt lat="45.92174" lon="6.48781">
        <ele>1469</ele>
        <time>2022-02-19T09:53:16Z</time>
      </trkpt>
      <trkpt lat="45.92175" lon="6.48784">
        <ele>1469</ele>
        <time>2022-02-19T09:53:18Z</time>
      </trkpt>
      <trkpt lat="45.92176" lon="6.48788">
        <ele>1468</ele>
        <time>2022-02-19T09:53:20Z</time>
      </trkpt>
      <trkpt lat="45.92177" lon="6.48791">
        <ele>1468</ele>
        <time>2022-02-19T09:53:22Z</time>
      </trkpt>
      <trkpt lat="45.92178" lon="6.48795">
        <ele>1468</ele>
        <time>2022-02-19T09:53:24Z</time>
      </trkpt>
      <trkpt lat="45.92179" lon="6.48799">
        <ele>1468</ele>
        <time>2022-02-19T09:53:26Z</time>
      </trkpt>
      <trkpt lat="45.92179" lon="6.48802">
        <ele>1468</ele>
        <time>2022-02-19T09:53:28Z</time>
      </trkpt>
      <trkpt lat="45.9218" lon="6.48807">
        <ele>1468</ele>
        <time>2022-02-19T09:53:30Z</time>
      </trkpt>
      <trkpt lat="45.9218" lon="6.48809">
        <ele>1468</ele>
        <time>2022-02-19T09:53:32Z</time>
      </trkpt>
      <trkpt lat="45.9218" lon="6.48813">
        <ele>1468</ele>
        <time>2022-02-19T09:53:34Z</time>
      </trkpt>
      <trkpt lat="45.92181" lon="6.48817">
        <ele>1468</ele>
        <time>2022-02-19T09:53:36Z</time>
      </trkpt>
      <trkpt lat="45.92181" lon="6.4882">
        <ele>1467</ele>
        <time>2022-02-19T09:53:38Z</time>
      </trkpt>
      <trkpt lat="45.9218" lon="6.48824">
        <ele>1466</ele>
        <time>2022-02-19T09:53:41Z</time>
      </trkpt>
      <trkpt lat="45.9218" lon="6.48827">
        <ele>1466</ele>
        <time>2022-02-19T09:53:43Z</time>
      </trkpt>
      <trkpt lat="45.92179" lon="6.48829">
        <ele>1466</ele>
        <time>2022-02-19T09:53:45Z</time>
      </trkpt>
      <trkpt lat="45.92177" lon="6.48832">
        <ele>1465</ele>
        <time>2022-02-19T09:53:47Z</time>
      </trkpt>
      <trkpt lat="45.92176" lon="6.48835">
        <ele>1465</ele>
        <time>2022-02-19T09:53:49Z</time>
      </trkpt>
      <trkpt lat="45.92174" lon="6.48838">
        <ele>1465</ele>
        <time>2022-02-19T09:53:51Z</time>
      </trkpt>
      <trkpt lat="45.92173" lon="6.48842">
        <ele>1465</ele>
        <time>2022-02-19T09:53:53Z</time>
      </trkpt>
      <trkpt lat="45.92171" lon="6.48845">
        <ele>1465</ele>
        <time>2022-02-19T09:53:55Z</time>
      </trkpt>
      <trkpt lat="45.9217" lon="6.48849">
        <ele>1463</ele>
        <time>2022-02-19T09:53:57Z</time>
      </trkpt>
      <trkpt lat="45.92169" lon="6.48852">
        <ele>1463</ele>
        <time>2022-02-19T09:53:59Z</time>
      </trkpt>
      <trkpt lat="45.92168" lon="6.48856">
        <ele>1463</ele>
        <time>2022-02-19T09:54:01Z</time>
      </trkpt>
      <trkpt lat="45.92167" lon="6.4886">
        <ele>1463</ele>
        <time>2022-02-19T09:54:03Z</time>
      </trkpt>
      <trkpt lat="45.92166" lon="6.48866">
        <ele>1463</ele>
        <time>2022-02-19T09:54:05Z</time>
      </trkpt>
      <trkpt lat="45.92167" lon="6.48869">
        <ele>1463</ele>
        <time>2022-02-19T09:54:06Z</time>
      </trkpt>
      <trkpt lat="45.92167" lon="6.48873">
        <ele>1462</ele>
        <time>2022-02-19T09:54:07Z</time>
      </trkpt>
      <trkpt lat="45.92168" lon="6.48876">
        <ele>1461</ele>
        <time>2022-02-19T09:54:08Z</time>
      </trkpt>
      <trkpt lat="45.92169" lon="6.4888">
        <ele>1461</ele>
        <time>2022-02-19T09:54:11Z</time>
      </trkpt>
      <trkpt lat="45.9217" lon="6.48883">
        <ele>1461</ele>
        <time>2022-02-19T09:54:14Z</time>
      </trkpt>
      <trkpt lat="45.92171" lon="6.48886">
        <ele>1462</ele>
        <time>2022-02-19T09:54:17Z</time>
      </trkpt>
      <trkpt lat="45.92172" lon="6.48889">
        <ele>1462</ele>
        <time>2022-02-19T09:54:20Z</time>
      </trkpt>
      <trkpt lat="45.92174" lon="6.48892">
        <ele>1461</ele>
        <time>2022-02-19T09:54:23Z</time>
      </trkpt>
      <trkpt lat="45.92175" lon="6.48894">
        <ele>1461</ele>
        <time>2022-02-19T09:54:25Z</time>
      </trkpt>
      <trkpt lat="45.92177" lon="6.48896">
        <ele>1462</ele>
        <time>2022-02-19T09:54:27Z</time>
      </trkpt>
      <trkpt lat="45.92178" lon="6.48898">
        <ele>1462</ele>
        <time>2022-02-19T09:54:29Z</time>
      </trkpt>
      <trkpt lat="45.9218" lon="6.489">
        <ele>1462</ele>
        <time>2022-02-19T09:54:31Z</time>
      </trkpt>
      <trkpt lat="45.92182" lon="6.48902">
        <ele>1462</ele>
        <time>2022-02-19T09:54:33Z</time>
      </trkpt>
      <trkpt lat="45.92183" lon="6.48904">
        <ele>1462</ele>
        <time>2022-02-19T09:54:35Z</time>
      </trkpt>
      <trkpt lat="45.92185" lon="6.48906">
        <ele>1462</ele>
        <time>2022-02-19T09:54:37Z</time>
      </trkpt>
      <trkpt lat="45.92187" lon="6.48907">
        <ele>1462</ele>
        <time>2022-02-19T09:54:39Z</time>
      </trkpt>
      <trkpt lat="45.92189" lon="6.48909">
        <ele>1462</ele>
        <time>2022-02-19T09:54:41Z</time>
      </trkpt>
      <trkpt lat="45.9219" lon="6.4891">
        <ele>1462</ele>
        <time>2022-02-19T09:54:43Z</time>
      </trkpt>
      <trkpt lat="45.92192" lon="6.48912">
        <ele>1462</ele>
        <time>2022-02-19T09:54:45Z</time>
      </trkpt>
      <trkpt lat="45.92193" lon="6.48914">
        <ele>1462</ele>
        <time>2022-02-19T09:54:47Z</time>
      </trkpt>
      <trkpt lat="45.92195" lon="6.48916">
        <ele>1462</ele>
        <time>2022-02-19T09:54:50Z</time>
      </trkpt>
      <trkpt lat="45.92197" lon="6.48918">
        <ele>1462</ele>
        <time>2022-02-19T09:54:52Z</time>
      </trkpt>
      <trkpt lat="45.92198" lon="6.4892">
        <ele>1462</ele>
        <time>2022-02-19T09:54:54Z</time>
      </trkpt>
      <trkpt lat="45.922" lon="6.48921">
        <ele>1463</ele>
        <time>2022-02-19T09:54:56Z</time>
      </trkpt>
      <trkpt lat="45.92201" lon="6.48923">
        <ele>1463</ele>
        <time>2022-02-19T09:54:58Z</time>
      </trkpt>
      <trkpt lat="45.92203" lon="6.48925">
        <ele>1463</ele>
        <time>2022-02-19T09:55:00Z</time>
      </trkpt>
      <trkpt lat="45.92204" lon="6.48926">
        <ele>1464</ele>
        <time>2022-02-19T09:55:02Z</time>
      </trkpt>
      <trkpt lat="45.92206" lon="6.48928">
        <ele>1464</ele>
        <time>2022-02-19T09:55:04Z</time>
      </trkpt>
      <trkpt lat="45.92208" lon="6.4893">
        <ele>1464</ele>
        <time>2022-02-19T09:55:06Z</time>
      </trkpt>
      <trkpt lat="45.92209" lon="6.48932">
        <ele>1464</ele>
        <time>2022-02-19T09:55:08Z</time>
      </trkpt>
      <trkpt lat="45.92211" lon="6.48934">
        <ele>1464</ele>
        <time>2022-02-19T09:55:10Z</time>
      </trkpt>
      <trkpt lat="45.92212" lon="6.48936">
        <ele>1464</ele>
        <time>2022-02-19T09:55:12Z</time>
      </trkpt>
      <trkpt lat="45.92214" lon="6.48938">
        <ele>1464</ele>
        <time>2022-02-19T09:55:14Z</time>
      </trkpt>
      <trkpt lat="45.92216" lon="6.4894">
        <ele>1464</ele>
        <time>2022-02-19T09:55:16Z</time>
      </trkpt>
      <trkpt lat="45.92217" lon="6.48942">
        <ele>1464</ele>
        <time>2022-02-19T09:55:18Z</time>
      </trkpt>
      <trkpt lat="45.92219" lon="6.48944">
        <ele>1464</ele>
        <time>2022-02-19T09:55:20Z</time>
      </trkpt>
      <trkpt lat="45.9222" lon="6.48946">
        <ele>1464</ele>
        <time>2022-02-19T09:55:22Z</time>
      </trkpt>
      <trkpt lat="45.92222" lon="6.48948">
        <ele>1464</ele>
        <time>2022-02-19T09:55:24Z</time>
      </trkpt>
      <trkpt lat="45.92223" lon="6.48949">
        <ele>1464</ele>
        <time>2022-02-19T09:55:26Z</time>
      </trkpt>
      <trkpt lat="45.92225" lon="6.48951">
        <ele>1465</ele>
        <time>2022-02-19T09:55:28Z</time>
      </trkpt>
      <trkpt lat="45.92227" lon="6.48953">
        <ele>1465</ele>
        <time>2022-02-19T09:55:30Z</time>
      </trkpt>
      <trkpt lat="45.92228" lon="6.48955">
        <ele>1465</ele>
        <time>2022-02-19T09:55:33Z</time>
      </trkpt>
      <trkpt lat="45.9223" lon="6.48958">
        <ele>1465</ele>
        <time>2022-02-19T09:55:36Z</time>
      </trkpt>
      <trkpt lat="45.92232" lon="6.4896">
        <ele>1466</ele>
        <time>2022-02-19T09:55:38Z</time>
      </trkpt>
      <trkpt lat="45.92233" lon="6.48962">
        <ele>1466</ele>
        <time>2022-02-19T09:55:41Z</time>
      </trkpt>
      <trkpt lat="45.92234" lon="6.48965">
        <ele>1466</ele>
        <time>2022-02-19T09:55:43Z</time>
      </trkpt>
      <trkpt lat="45.92235" lon="6.48967">
        <ele>1466</ele>
        <time>2022-02-19T09:55:45Z</time>
      </trkpt>
      <trkpt lat="45.92236" lon="6.4897">
        <ele>1466</ele>
        <time>2022-02-19T09:55:48Z</time>
      </trkpt>
      <trkpt lat="45.92238" lon="6.48974">
        <ele>1466</ele>
        <time>2022-02-19T09:55:51Z</time>
      </trkpt>
      <trkpt lat="45.92239" lon="6.48976">
        <ele>1467</ele>
        <time>2022-02-19T09:55:53Z</time>
      </trkpt>
      <trkpt lat="45.92239" lon="6.48978">
        <ele>1467</ele>
        <time>2022-02-19T09:55:55Z</time>
      </trkpt>
      <trkpt lat="45.9224" lon="6.48981">
        <ele>1467</ele>
        <time>2022-02-19T09:55:57Z</time>
      </trkpt>
      <trkpt lat="45.92242" lon="6.48984">
        <ele>1468</ele>
        <time>2022-02-19T09:56:00Z</time>
      </trkpt>
      <trkpt lat="45.92243" lon="6.48987">
        <ele>1468</ele>
        <time>2022-02-19T09:56:03Z</time>
      </trkpt>
      <trkpt lat="45.92246" lon="6.48989">
        <ele>1469</ele>
        <time>2022-02-19T09:56:06Z</time>
      </trkpt>
      <trkpt lat="45.92247" lon="6.4899">
        <ele>1469</ele>
        <time>2022-02-19T09:56:08Z</time>
      </trkpt>
      <trkpt lat="45.92249" lon="6.48992">
        <ele>1469</ele>
        <time>2022-02-19T09:56:10Z</time>
      </trkpt>
      <trkpt lat="45.9225" lon="6.48993">
        <ele>1469</ele>
        <time>2022-02-19T09:56:12Z</time>
      </trkpt>
      <trkpt lat="45.92252" lon="6.48995">
        <ele>1469</ele>
        <time>2022-02-19T09:56:14Z</time>
      </trkpt>
      <trkpt lat="45.92254" lon="6.48997">
        <ele>1469</ele>
        <time>2022-02-19T09:56:17Z</time>
      </trkpt>
      <trkpt lat="45.92255" lon="6.48999">
        <ele>1470</ele>
        <time>2022-02-19T09:56:19Z</time>
      </trkpt>
      <trkpt lat="45.92257" lon="6.49001">
        <ele>1470</ele>
        <time>2022-02-19T09:56:21Z</time>
      </trkpt>
      <trkpt lat="45.92259" lon="6.49004">
        <ele>1470</ele>
        <time>2022-02-19T09:56:24Z</time>
      </trkpt>
      <trkpt lat="45.9226" lon="6.49007">
        <ele>1471</ele>
        <time>2022-02-19T09:56:27Z</time>
      </trkpt>
      <trkpt lat="45.92262" lon="6.49008">
        <ele>1471</ele>
        <time>2022-02-19T09:56:29Z</time>
      </trkpt>
      <trkpt lat="45.92263" lon="6.4901">
        <ele>1471</ele>
        <time>2022-02-19T09:56:31Z</time>
      </trkpt>
      <trkpt lat="45.92265" lon="6.49012">
        <ele>1471</ele>
        <time>2022-02-19T09:56:33Z</time>
      </trkpt>
      <trkpt lat="45.92266" lon="6.49014">
        <ele>1471</ele>
        <time>2022-02-19T09:56:35Z</time>
      </trkpt>
      <trkpt lat="45.92268" lon="6.49017">
        <ele>1472</ele>
        <time>2022-02-19T09:56:38Z</time>
      </trkpt>
      <trkpt lat="45.92269" lon="6.49019">
        <ele>1472</ele>
        <time>2022-02-19T09:56:40Z</time>
      </trkpt>
      <trkpt lat="45.92271" lon="6.49021">
        <ele>1472</ele>
        <time>2022-02-19T09:56:43Z</time>
      </trkpt>
      <trkpt lat="45.92273" lon="6.49024">
        <ele>1472</ele>
        <time>2022-02-19T09:56:46Z</time>
      </trkpt>
      <trkpt lat="45.92274" lon="6.49026">
        <ele>1472</ele>
        <time>2022-02-19T09:56:48Z</time>
      </trkpt>
      <trkpt lat="45.92276" lon="6.49029">
        <ele>1473</ele>
        <time>2022-02-19T09:56:51Z</time>
      </trkpt>
      <trkpt lat="45.92278" lon="6.49031">
        <ele>1473</ele>
        <time>2022-02-19T09:56:54Z</time>
      </trkpt>
      <trkpt lat="45.92279" lon="6.49034">
        <ele>1473</ele>
        <time>2022-02-19T09:56:57Z</time>
      </trkpt>
      <trkpt lat="45.92281" lon="6.49036">
        <ele>1474</ele>
        <time>2022-02-19T09:57:00Z</time>
      </trkpt>
      <trkpt lat="45.92282" lon="6.49039">
        <ele>1475</ele>
        <time>2022-02-19T09:57:03Z</time>
      </trkpt>
      <trkpt lat="45.92284" lon="6.49041">
        <ele>1475</ele>
        <time>2022-02-19T09:57:06Z</time>
      </trkpt>
      <trkpt lat="45.92286" lon="6.49044">
        <ele>1475</ele>
        <time>2022-02-19T09:57:09Z</time>
      </trkpt>
      <trkpt lat="45.92288" lon="6.49047">
        <ele>1475</ele>
        <time>2022-02-19T09:57:12Z</time>
      </trkpt>
      <trkpt lat="45.92289" lon="6.49048">
        <ele>1475</ele>
        <time>2022-02-19T09:57:14Z</time>
      </trkpt>
      <trkpt lat="45.92291" lon="6.4905">
        <ele>1475</ele>
        <time>2022-02-19T09:57:16Z</time>
      </trkpt>
      <trkpt lat="45.92293" lon="6.49052">
        <ele>1476</ele>
        <time>2022-02-19T09:57:18Z</time>
      </trkpt>
      <trkpt lat="45.92295" lon="6.49055">
        <ele>1476</ele>
        <time>2022-02-19T09:57:21Z</time>
      </trkpt>
      <trkpt lat="45.92297" lon="6.49057">
        <ele>1476</ele>
        <time>2022-02-19T09:57:24Z</time>
      </trkpt>
      <trkpt lat="45.92299" lon="6.49058">
        <ele>1477</ele>
        <time>2022-02-19T09:57:27Z</time>
      </trkpt>
      <trkpt lat="45.923" lon="6.4906">
        <ele>1478</ele>
        <time>2022-02-19T09:57:30Z</time>
      </trkpt>
      <trkpt lat="45.92302" lon="6.49061">
        <ele>1478</ele>
        <time>2022-02-19T09:57:32Z</time>
      </trkpt>
      <trkpt lat="45.92304" lon="6.49062">
        <ele>1478</ele>
        <time>2022-02-19T09:57:35Z</time>
      </trkpt>
      <trkpt lat="45.92306" lon="6.49063">
        <ele>1479</ele>
        <time>2022-02-19T09:57:38Z</time>
      </trkpt>
      <trkpt lat="45.92309" lon="6.49064">
        <ele>1480</ele>
        <time>2022-02-19T09:57:41Z</time>
      </trkpt>
      <trkpt lat="45.92311" lon="6.49065">
        <ele>1480</ele>
        <time>2022-02-19T09:57:43Z</time>
      </trkpt>
      <trkpt lat="45.92312" lon="6.49066">
        <ele>1480</ele>
        <time>2022-02-19T09:57:45Z</time>
      </trkpt>
      <trkpt lat="45.92315" lon="6.49067">
        <ele>1480</ele>
        <time>2022-02-19T09:57:48Z</time>
      </trkpt>
      <trkpt lat="45.92317" lon="6.49067">
        <ele>1480</ele>
        <time>2022-02-19T09:57:50Z</time>
      </trkpt>
      <trkpt lat="45.92319" lon="6.49068">
        <ele>1480</ele>
        <time>2022-02-19T09:57:53Z</time>
      </trkpt>
      <trkpt lat="45.92322" lon="6.49069">
        <ele>1481</ele>
        <time>2022-02-19T09:57:56Z</time>
      </trkpt>
      <trkpt lat="45.92324" lon="6.49069">
        <ele>1481</ele>
        <time>2022-02-19T09:57:59Z</time>
      </trkpt>
      <trkpt lat="45.92326" lon="6.49071">
        <ele>1482</ele>
        <time>2022-02-19T09:58:02Z</time>
      </trkpt>
      <trkpt lat="45.92328" lon="6.49072">
        <ele>1482</ele>
        <time>2022-02-19T09:58:05Z</time>
      </trkpt>
      <trkpt lat="45.9233" lon="6.49072">
        <ele>1482</ele>
        <time>2022-02-19T09:58:08Z</time>
      </trkpt>
      <trkpt lat="45.92332" lon="6.49073">
        <ele>1483</ele>
        <time>2022-02-19T09:58:10Z</time>
      </trkpt>
      <trkpt lat="45.92333" lon="6.49074">
        <ele>1483</ele>
        <time>2022-02-19T09:58:12Z</time>
      </trkpt>
      <trkpt lat="45.92336" lon="6.49076">
        <ele>1483</ele>
        <time>2022-02-19T09:58:15Z</time>
      </trkpt>
      <trkpt lat="45.92338" lon="6.49078">
        <ele>1483</ele>
        <time>2022-02-19T09:58:17Z</time>
      </trkpt>
      <trkpt lat="45.9234" lon="6.49079">
        <ele>1484</ele>
        <time>2022-02-19T09:58:20Z</time>
      </trkpt>
      <trkpt lat="45.92342" lon="6.49081">
        <ele>1484</ele>
        <time>2022-02-19T09:58:23Z</time>
      </trkpt>
      <trkpt lat="45.92343" lon="6.49083">
        <ele>1484</ele>
        <time>2022-02-19T09:58:26Z</time>
      </trkpt>
      <trkpt lat="45.92345" lon="6.49085">
        <ele>1485</ele>
        <time>2022-02-19T09:58:28Z</time>
      </trkpt>
      <trkpt lat="45.92347" lon="6.49087">
        <ele>1486</ele>
        <time>2022-02-19T09:58:30Z</time>
      </trkpt>
      <trkpt lat="45.92349" lon="6.49089">
        <ele>1486</ele>
        <time>2022-02-19T09:58:32Z</time>
      </trkpt>
      <trkpt lat="45.92351" lon="6.49091">
        <ele>1486</ele>
        <time>2022-02-19T09:58:36Z</time>
      </trkpt>
      <trkpt lat="45.92353" lon="6.49093">
        <ele>1486</ele>
        <time>2022-02-19T09:58:39Z</time>
      </trkpt>
      <trkpt lat="45.92355" lon="6.49096">
        <ele>1486</ele>
        <time>2022-02-19T09:58:42Z</time>
      </trkpt>
      <trkpt lat="45.92356" lon="6.49098">
        <ele>1486</ele>
        <time>2022-02-19T09:58:45Z</time>
      </trkpt>
      <trkpt lat="45.92358" lon="6.491">
        <ele>1487</ele>
        <time>2022-02-19T09:58:48Z</time>
      </trkpt>
      <trkpt lat="45.9236" lon="6.49102">
        <ele>1487</ele>
        <time>2022-02-19T09:58:51Z</time>
      </trkpt>
      <trkpt lat="45.92362" lon="6.49104">
        <ele>1488</ele>
        <time>2022-02-19T09:58:54Z</time>
      </trkpt>
      <trkpt lat="45.92364" lon="6.49106">
        <ele>1488</ele>
        <time>2022-02-19T09:58:56Z</time>
      </trkpt>
      <trkpt lat="45.92366" lon="6.49108">
        <ele>1488</ele>
        <time>2022-02-19T09:58:59Z</time>
      </trkpt>
      <trkpt lat="45.92368" lon="6.49109">
        <ele>1488</ele>
        <time>2022-02-19T09:59:02Z</time>
      </trkpt>
      <trkpt lat="45.9237" lon="6.49111">
        <ele>1489</ele>
        <time>2022-02-19T09:59:05Z</time>
      </trkpt>
      <trkpt lat="45.92373" lon="6.49113">
        <ele>1489</ele>
        <time>2022-02-19T09:59:08Z</time>
      </trkpt>
      <trkpt lat="45.92375" lon="6.49114">
        <ele>1490</ele>
        <time>2022-02-19T09:59:11Z</time>
      </trkpt>
      <trkpt lat="45.92377" lon="6.49116">
        <ele>1490</ele>
        <time>2022-02-19T09:59:14Z</time>
      </trkpt>
      <trkpt lat="45.92379" lon="6.49117">
        <ele>1490</ele>
        <time>2022-02-19T09:59:17Z</time>
      </trkpt>
      <trkpt lat="45.92381" lon="6.49117">
        <ele>1491</ele>
        <time>2022-02-19T09:59:20Z</time>
      </trkpt>
      <trkpt lat="45.92383" lon="6.49118">
        <ele>1491</ele>
        <time>2022-02-19T09:59:23Z</time>
      </trkpt>
      <trkpt lat="45.92386" lon="6.49118">
        <ele>1492</ele>
        <time>2022-02-19T09:59:26Z</time>
      </trkpt>
      <trkpt lat="45.92388" lon="6.49118">
        <ele>1492</ele>
        <time>2022-02-19T09:59:29Z</time>
      </trkpt>
      <trkpt lat="45.9239" lon="6.49118">
        <ele>1493</ele>
        <time>2022-02-19T09:59:32Z</time>
      </trkpt>
      <trkpt lat="45.92392" lon="6.49117">
        <ele>1493</ele>
        <time>2022-02-19T09:59:35Z</time>
      </trkpt>
      <trkpt lat="45.92394" lon="6.49117">
        <ele>1494</ele>
        <time>2022-02-19T09:59:38Z</time>
      </trkpt>
      <trkpt lat="45.92397" lon="6.49116">
        <ele>1494</ele>
        <time>2022-02-19T09:59:41Z</time>
      </trkpt>
      <trkpt lat="45.92399" lon="6.49116">
        <ele>1494</ele>
        <time>2022-02-19T09:59:44Z</time>
      </trkpt>
      <trkpt lat="45.92401" lon="6.49116">
        <ele>1495</ele>
        <time>2022-02-19T09:59:47Z</time>
      </trkpt>
      <trkpt lat="45.92403" lon="6.49115">
        <ele>1495</ele>
        <time>2022-02-19T09:59:49Z</time>
      </trkpt>
      <trkpt lat="45.92405" lon="6.49115">
        <ele>1495</ele>
        <time>2022-02-19T09:59:52Z</time>
      </trkpt>
      <trkpt lat="45.92407" lon="6.49115">
        <ele>1497</ele>
        <time>2022-02-19T09:59:55Z</time>
      </trkpt>
      <trkpt lat="45.9241" lon="6.49114">
        <ele>1496</ele>
        <time>2022-02-19T09:59:58Z</time>
      </trkpt>
      <trkpt lat="45.92411" lon="6.49114">
        <ele>1497</ele>
        <time>2022-02-19T10:00:00Z</time>
      </trkpt>
      <trkpt lat="45.92413" lon="6.49114">
        <ele>1497</ele>
        <time>2022-02-19T10:00:02Z</time>
      </trkpt>
      <trkpt lat="45.92415" lon="6.49114">
        <ele>1497</ele>
        <time>2022-02-19T10:00:04Z</time>
      </trkpt>
      <trkpt lat="45.92418" lon="6.49114">
        <ele>1497</ele>
        <time>2022-02-19T10:00:07Z</time>
      </trkpt>
      <trkpt lat="45.9242" lon="6.49114">
        <ele>1498</ele>
        <time>2022-02-19T10:00:10Z</time>
      </trkpt>
      <trkpt lat="45.92422" lon="6.49113">
        <ele>1498</ele>
        <time>2022-02-19T10:00:13Z</time>
      </trkpt>
      <trkpt lat="45.92425" lon="6.49112">
        <ele>1499</ele>
        <time>2022-02-19T10:00:16Z</time>
      </trkpt>
      <trkpt lat="45.92427" lon="6.49112">
        <ele>1499</ele>
        <time>2022-02-19T10:00:18Z</time>
      </trkpt>
      <trkpt lat="45.92429" lon="6.49111">
        <ele>1499</ele>
        <time>2022-02-19T10:00:20Z</time>
      </trkpt>
      <trkpt lat="45.92431" lon="6.49111">
        <ele>1499</ele>
        <time>2022-02-19T10:00:23Z</time>
      </trkpt>
      <trkpt lat="45.92434" lon="6.49111">
        <ele>1500</ele>
        <time>2022-02-19T10:00:26Z</time>
      </trkpt>
      <trkpt lat="45.92436" lon="6.49112">
        <ele>1500</ele>
        <time>2022-02-19T10:00:29Z</time>
      </trkpt>
      <trkpt lat="45.92438" lon="6.49113">
        <ele>1500</ele>
        <time>2022-02-19T10:00:32Z</time>
      </trkpt>
      <trkpt lat="45.9244" lon="6.49114">
        <ele>1500</ele>
        <time>2022-02-19T10:00:35Z</time>
      </trkpt>
      <trkpt lat="45.92442" lon="6.49116">
        <ele>1501</ele>
        <time>2022-02-19T10:00:38Z</time>
      </trkpt>
      <trkpt lat="45.92444" lon="6.49117">
        <ele>1501</ele>
        <time>2022-02-19T10:00:40Z</time>
      </trkpt>
      <trkpt lat="45.92446" lon="6.49119">
        <ele>1502</ele>
        <time>2022-02-19T10:00:43Z</time>
      </trkpt>
      <trkpt lat="45.92447" lon="6.49121">
        <ele>1502</ele>
        <time>2022-02-19T10:00:46Z</time>
      </trkpt>
      <trkpt lat="45.92449" lon="6.49122">
        <ele>1503</ele>
        <time>2022-02-19T10:00:48Z</time>
      </trkpt>
      <trkpt lat="45.9245" lon="6.49125">
        <ele>1503</ele>
        <time>2022-02-19T10:00:51Z</time>
      </trkpt>
      <trkpt lat="45.92452" lon="6.49127">
        <ele>1504</ele>
        <time>2022-02-19T10:00:54Z</time>
      </trkpt>
      <trkpt lat="45.92454" lon="6.4913">
        <ele>1504</ele>
        <time>2022-02-19T10:00:57Z</time>
      </trkpt>
      <trkpt lat="45.92455" lon="6.49132">
        <ele>1504</ele>
        <time>2022-02-19T10:01:00Z</time>
      </trkpt>
      <trkpt lat="45.92457" lon="6.49135">
        <ele>1505</ele>
        <time>2022-02-19T10:01:02Z</time>
      </trkpt>
      <trkpt lat="45.92458" lon="6.49138">
        <ele>1505</ele>
        <time>2022-02-19T10:01:05Z</time>
      </trkpt>
      <trkpt lat="45.9246" lon="6.4914">
        <ele>1506</ele>
        <time>2022-02-19T10:01:08Z</time>
      </trkpt>
      <trkpt lat="45.92461" lon="6.49142">
        <ele>1507</ele>
        <time>2022-02-19T10:01:10Z</time>
      </trkpt>
      <trkpt lat="45.92463" lon="6.49145">
        <ele>1507</ele>
        <time>2022-02-19T10:01:13Z</time>
      </trkpt>
      <trkpt lat="45.92464" lon="6.49148">
        <ele>1507</ele>
        <time>2022-02-19T10:01:16Z</time>
      </trkpt>
      <trkpt lat="45.92466" lon="6.49151">
        <ele>1507</ele>
        <time>2022-02-19T10:01:19Z</time>
      </trkpt>
      <trkpt lat="45.92467" lon="6.49153">
        <ele>1506</ele>
        <time>2022-02-19T10:01:22Z</time>
      </trkpt>
      <trkpt lat="45.92469" lon="6.49156">
        <ele>1506</ele>
        <time>2022-02-19T10:01:25Z</time>
      </trkpt>
      <trkpt lat="45.9247" lon="6.49158">
        <ele>1507</ele>
        <time>2022-02-19T10:01:27Z</time>
      </trkpt>
      <trkpt lat="45.92472" lon="6.49161">
        <ele>1507</ele>
        <time>2022-02-19T10:01:30Z</time>
      </trkpt>
      <trkpt lat="45.92474" lon="6.49163">
        <ele>1507</ele>
        <time>2022-02-19T10:01:33Z</time>
      </trkpt>
      <trkpt lat="45.92475" lon="6.49166">
        <ele>1507</ele>
        <time>2022-02-19T10:01:36Z</time>
      </trkpt>
      <trkpt lat="45.92476" lon="6.49168">
        <ele>1507</ele>
        <time>2022-02-19T10:01:48Z</time>
      </trkpt>
      <trkpt lat="45.92477" lon="6.4917">
        <ele>1508</ele>
        <time>2022-02-19T10:02:40Z</time>
      </trkpt>
      <trkpt lat="45.92475" lon="6.4917">
        <ele>1507</ele>
        <time>2022-02-19T10:03:30Z</time>
      </trkpt>
      <trkpt lat="45.92476" lon="6.49173">
        <ele>1507</ele>
        <time>2022-02-19T10:04:21Z</time>
      </trkpt>
      <trkpt lat="45.92477" lon="6.49175">
        <ele>1507</ele>
        <time>2022-02-19T10:04:23Z</time>
      </trkpt>
      <trkpt lat="45.9248" lon="6.49177">
        <ele>1507</ele>
        <time>2022-02-19T10:04:25Z</time>
      </trkpt>
      <trkpt lat="45.92482" lon="6.49179">
        <ele>1507</ele>
        <time>2022-02-19T10:04:27Z</time>
      </trkpt>
      <trkpt lat="45.92483" lon="6.49181">
        <ele>1507</ele>
        <time>2022-02-19T10:04:29Z</time>
      </trkpt>
      <trkpt lat="45.92485" lon="6.49183">
        <ele>1507</ele>
        <time>2022-02-19T10:04:32Z</time>
      </trkpt>
      <trkpt lat="45.92487" lon="6.49185">
        <ele>1507</ele>
        <time>2022-02-19T10:04:34Z</time>
      </trkpt>
      <trkpt lat="45.92489" lon="6.49188">
        <ele>1507</ele>
        <time>2022-02-19T10:04:36Z</time>
      </trkpt>
      <trkpt lat="45.92491" lon="6.4919">
        <ele>1507</ele>
        <time>2022-02-19T10:04:38Z</time>
      </trkpt>
      <trkpt lat="45.92493" lon="6.49193">
        <ele>1507</ele>
        <time>2022-02-19T10:04:40Z</time>
      </trkpt>
      <trkpt lat="45.92495" lon="6.49195">
        <ele>1507</ele>
        <time>2022-02-19T10:04:41Z</time>
      </trkpt>
      <trkpt lat="45.92497" lon="6.49196">
        <ele>1507</ele>
        <time>2022-02-19T10:04:42Z</time>
      </trkpt>
      <trkpt lat="45.92498" lon="6.49198">
        <ele>1506</ele>
        <time>2022-02-19T10:04:43Z</time>
      </trkpt>
      <trkpt lat="45.925" lon="6.49199">
        <ele>1506</ele>
        <time>2022-02-19T10:04:44Z</time>
      </trkpt>
      <trkpt lat="45.92502" lon="6.492">
        <ele>1505</ele>
        <time>2022-02-19T10:04:45Z</time>
      </trkpt>
      <trkpt lat="45.92503" lon="6.49201">
        <ele>1505</ele>
        <time>2022-02-19T10:04:46Z</time>
      </trkpt>
      <trkpt lat="45.92506" lon="6.49202">
        <ele>1505</ele>
        <time>2022-02-19T10:04:48Z</time>
      </trkpt>
      <trkpt lat="45.92509" lon="6.49203">
        <ele>1505</ele>
        <time>2022-02-19T10:04:50Z</time>
      </trkpt>
      <trkpt lat="45.92512" lon="6.49203">
        <ele>1505</ele>
        <time>2022-02-19T10:04:52Z</time>
      </trkpt>
      <trkpt lat="45.92514" lon="6.49204">
        <ele>1505</ele>
        <time>2022-02-19T10:04:54Z</time>
      </trkpt>
      <trkpt lat="45.92517" lon="6.49205">
        <ele>1505</ele>
        <time>2022-02-19T10:04:56Z</time>
      </trkpt>
      <trkpt lat="45.92519" lon="6.49206">
        <ele>1505</ele>
        <time>2022-02-19T10:04:58Z</time>
      </trkpt>
      <trkpt lat="45.92522" lon="6.49206">
        <ele>1505</ele>
        <time>2022-02-19T10:05:01Z</time>
      </trkpt>
      <trkpt lat="45.92524" lon="6.49207">
        <ele>1504</ele>
        <time>2022-02-19T10:05:03Z</time>
      </trkpt>
      <trkpt lat="45.92526" lon="6.49208">
        <ele>1505</ele>
        <time>2022-02-19T10:05:05Z</time>
      </trkpt>
      <trkpt lat="45.92527" lon="6.49209">
        <ele>1505</ele>
        <time>2022-02-19T10:05:07Z</time>
      </trkpt>
      <trkpt lat="45.92529" lon="6.49211">
        <ele>1505</ele>
        <time>2022-02-19T10:05:09Z</time>
      </trkpt>
      <trkpt lat="45.92532" lon="6.49213">
        <ele>1505</ele>
        <time>2022-02-19T10:05:12Z</time>
      </trkpt>
      <trkpt lat="45.92534" lon="6.49215">
        <ele>1505</ele>
        <time>2022-02-19T10:05:14Z</time>
      </trkpt>
      <trkpt lat="45.92536" lon="6.49216">
        <ele>1504</ele>
        <time>2022-02-19T10:05:16Z</time>
      </trkpt>
      <trkpt lat="45.92538" lon="6.49218">
        <ele>1504</ele>
        <time>2022-02-19T10:05:18Z</time>
      </trkpt>
      <trkpt lat="45.9254" lon="6.4922">
        <ele>1504</ele>
        <time>2022-02-19T10:05:20Z</time>
      </trkpt>
      <trkpt lat="45.92542" lon="6.49221">
        <ele>1504</ele>
        <time>2022-02-19T10:05:22Z</time>
      </trkpt>
      <trkpt lat="45.92545" lon="6.49222">
        <ele>1504</ele>
        <time>2022-02-19T10:05:25Z</time>
      </trkpt>
      <trkpt lat="45.92547" lon="6.49222">
        <ele>1504</ele>
        <time>2022-02-19T10:05:28Z</time>
      </trkpt>
      <trkpt lat="45.9255" lon="6.49223">
        <ele>1504</ele>
        <time>2022-02-19T10:05:30Z</time>
      </trkpt>
      <trkpt lat="45.92553" lon="6.49223">
        <ele>1503</ele>
        <time>2022-02-19T10:05:32Z</time>
      </trkpt>
      <trkpt lat="45.92555" lon="6.49223">
        <ele>1503</ele>
        <time>2022-02-19T10:05:35Z</time>
      </trkpt>
      <trkpt lat="45.92558" lon="6.49223">
        <ele>1503</ele>
        <time>2022-02-19T10:05:38Z</time>
      </trkpt>
      <trkpt lat="45.92559" lon="6.49223">
        <ele>1503</ele>
        <time>2022-02-19T10:05:40Z</time>
      </trkpt>
      <trkpt lat="45.92562" lon="6.49223">
        <ele>1502</ele>
        <time>2022-02-19T10:05:43Z</time>
      </trkpt>
      <trkpt lat="45.92564" lon="6.49224">
        <ele>1502</ele>
        <time>2022-02-19T10:05:46Z</time>
      </trkpt>
      <trkpt lat="45.92567" lon="6.49224">
        <ele>1502</ele>
        <time>2022-02-19T10:05:49Z</time>
      </trkpt>
      <trkpt lat="45.92569" lon="6.49224">
        <ele>1502</ele>
        <time>2022-02-19T10:05:51Z</time>
      </trkpt>
      <trkpt lat="45.92571" lon="6.49224">
        <ele>1502</ele>
        <time>2022-02-19T10:05:54Z</time>
      </trkpt>
      <trkpt lat="45.92573" lon="6.49224">
        <ele>1502</ele>
        <time>2022-02-19T10:05:56Z</time>
      </trkpt>
      <trkpt lat="45.92576" lon="6.49224">
        <ele>1502</ele>
        <time>2022-02-19T10:05:59Z</time>
      </trkpt>
      <trkpt lat="45.92578" lon="6.49225">
        <ele>1502</ele>
        <time>2022-02-19T10:06:02Z</time>
      </trkpt>
      <trkpt lat="45.9258" lon="6.49226">
        <ele>1501</ele>
        <time>2022-02-19T10:06:04Z</time>
      </trkpt>
      <trkpt lat="45.92582" lon="6.49227">
        <ele>1501</ele>
        <time>2022-02-19T10:06:06Z</time>
      </trkpt>
      <trkpt lat="45.92585" lon="6.49228">
        <ele>1501</ele>
        <time>2022-02-19T10:06:08Z</time>
      </trkpt>
      <trkpt lat="45.92587" lon="6.49228">
        <ele>1500</ele>
        <time>2022-02-19T10:06:10Z</time>
      </trkpt>
      <trkpt lat="45.92589" lon="6.4923">
        <ele>1500</ele>
        <time>2022-02-19T10:06:13Z</time>
      </trkpt>
      <trkpt lat="45.92592" lon="6.49231">
        <ele>1500</ele>
        <time>2022-02-19T10:06:16Z</time>
      </trkpt>
      <trkpt lat="45.92594" lon="6.49231">
        <ele>1501</ele>
        <time>2022-02-19T10:06:18Z</time>
      </trkpt>
      <trkpt lat="45.92596" lon="6.49231">
        <ele>1501</ele>
        <time>2022-02-19T10:06:20Z</time>
      </trkpt>
      <trkpt lat="45.92598" lon="6.49231">
        <ele>1501</ele>
        <time>2022-02-19T10:06:22Z</time>
      </trkpt>
      <trkpt lat="45.926" lon="6.49231">
        <ele>1500</ele>
        <time>2022-02-19T10:06:25Z</time>
      </trkpt>
      <trkpt lat="45.92602" lon="6.49232">
        <ele>1500</ele>
        <time>2022-02-19T10:06:27Z</time>
      </trkpt>
      <trkpt lat="45.92604" lon="6.49233">
        <ele>1499</ele>
        <time>2022-02-19T10:06:29Z</time>
      </trkpt>
      <trkpt lat="45.92607" lon="6.49233">
        <ele>1499</ele>
        <time>2022-02-19T10:06:31Z</time>
      </trkpt>
      <trkpt lat="45.92608" lon="6.49234">
        <ele>1499</ele>
        <time>2022-02-19T10:06:33Z</time>
      </trkpt>
      <trkpt lat="45.9261" lon="6.49235">
        <ele>1499</ele>
        <time>2022-02-19T10:06:35Z</time>
      </trkpt>
      <trkpt lat="45.92612" lon="6.49235">
        <ele>1498</ele>
        <time>2022-02-19T10:06:37Z</time>
      </trkpt>
      <trkpt lat="45.92614" lon="6.49236">
        <ele>1498</ele>
        <time>2022-02-19T10:06:39Z</time>
      </trkpt>
      <trkpt lat="45.92616" lon="6.49237">
        <ele>1498</ele>
        <time>2022-02-19T10:06:42Z</time>
      </trkpt>
      <trkpt lat="45.92619" lon="6.49238">
        <ele>1497</ele>
        <time>2022-02-19T10:06:45Z</time>
      </trkpt>
      <trkpt lat="45.92621" lon="6.49239">
        <ele>1497</ele>
        <time>2022-02-19T10:06:48Z</time>
      </trkpt>
      <trkpt lat="45.92622" lon="6.49242">
        <ele>1497</ele>
        <time>2022-02-19T10:06:51Z</time>
      </trkpt>
      <trkpt lat="45.92624" lon="6.49244">
        <ele>1497</ele>
        <time>2022-02-19T10:06:54Z</time>
      </trkpt>
      <trkpt lat="45.92626" lon="6.49246">
        <ele>1497</ele>
        <time>2022-02-19T10:06:56Z</time>
      </trkpt>
      <trkpt lat="45.92627" lon="6.49248">
        <ele>1497</ele>
        <time>2022-02-19T10:06:59Z</time>
      </trkpt>
      <trkpt lat="45.92628" lon="6.4925">
        <ele>1497</ele>
        <time>2022-02-19T10:07:02Z</time>
      </trkpt>
      <trkpt lat="45.9263" lon="6.49252">
        <ele>1497</ele>
        <time>2022-02-19T10:07:05Z</time>
      </trkpt>
      <trkpt lat="45.92632" lon="6.49255">
        <ele>1496</ele>
        <time>2022-02-19T10:07:08Z</time>
      </trkpt>
      <trkpt lat="45.92634" lon="6.49257">
        <ele>1496</ele>
        <time>2022-02-19T10:07:11Z</time>
      </trkpt>
      <trkpt lat="45.92636" lon="6.49259">
        <ele>1496</ele>
        <time>2022-02-19T10:07:14Z</time>
      </trkpt>
      <trkpt lat="45.92638" lon="6.49261">
        <ele>1496</ele>
        <time>2022-02-19T10:07:17Z</time>
      </trkpt>
      <trkpt lat="45.92639" lon="6.49263">
        <ele>1496</ele>
        <time>2022-02-19T10:07:19Z</time>
      </trkpt>
      <trkpt lat="45.92642" lon="6.49264">
        <ele>1496</ele>
        <time>2022-02-19T10:07:21Z</time>
      </trkpt>
      <trkpt lat="45.92644" lon="6.49265">
        <ele>1495</ele>
        <time>2022-02-19T10:07:23Z</time>
      </trkpt>
      <trkpt lat="45.92646" lon="6.49266">
        <ele>1495</ele>
        <time>2022-02-19T10:07:25Z</time>
      </trkpt>
      <trkpt lat="45.92648" lon="6.49266">
        <ele>1494</ele>
        <time>2022-02-19T10:07:27Z</time>
      </trkpt>
      <trkpt lat="45.9265" lon="6.49266">
        <ele>1494</ele>
        <time>2022-02-19T10:07:29Z</time>
      </trkpt>
      <trkpt lat="45.92652" lon="6.49266">
        <ele>1494</ele>
        <time>2022-02-19T10:07:31Z</time>
      </trkpt>
      <trkpt lat="45.92655" lon="6.49267">
        <ele>1493</ele>
        <time>2022-02-19T10:07:34Z</time>
      </trkpt>
      <trkpt lat="45.92657" lon="6.49269">
        <ele>1493</ele>
        <time>2022-02-19T10:07:37Z</time>
      </trkpt>
      <trkpt lat="45.9266" lon="6.4927">
        <ele>1493</ele>
        <time>2022-02-19T10:07:39Z</time>
      </trkpt>
      <trkpt lat="45.92662" lon="6.49271">
        <ele>1493</ele>
        <time>2022-02-19T10:07:41Z</time>
      </trkpt>
      <trkpt lat="45.92664" lon="6.49272">
        <ele>1493</ele>
        <time>2022-02-19T10:07:43Z</time>
      </trkpt>
      <trkpt lat="45.92667" lon="6.49273">
        <ele>1493</ele>
        <time>2022-02-19T10:07:45Z</time>
      </trkpt>
      <trkpt lat="45.92669" lon="6.49274">
        <ele>1492</ele>
        <time>2022-02-19T10:07:47Z</time>
      </trkpt>
      <trkpt lat="45.92672" lon="6.49276">
        <ele>1492</ele>
        <time>2022-02-19T10:07:49Z</time>
      </trkpt>
      <trkpt lat="45.92675" lon="6.49277">
        <ele>1492</ele>
        <time>2022-02-19T10:07:51Z</time>
      </trkpt>
      <trkpt lat="45.92677" lon="6.49278">
        <ele>1492</ele>
        <time>2022-02-19T10:07:53Z</time>
      </trkpt>
      <trkpt lat="45.92679" lon="6.49279">
        <ele>1492</ele>
        <time>2022-02-19T10:07:55Z</time>
      </trkpt>
      <trkpt lat="45.92682" lon="6.4928">
        <ele>1492</ele>
        <time>2022-02-19T10:07:57Z</time>
      </trkpt>
      <trkpt lat="45.92683" lon="6.49282">
        <ele>1491</ele>
        <time>2022-02-19T10:07:59Z</time>
      </trkpt>
      <trkpt lat="45.92685" lon="6.49283">
        <ele>1491</ele>
        <time>2022-02-19T10:08:01Z</time>
      </trkpt>
      <trkpt lat="45.92687" lon="6.49285">
        <ele>1491</ele>
        <time>2022-02-19T10:08:03Z</time>
      </trkpt>
      <trkpt lat="45.92689" lon="6.49287">
        <ele>1492</ele>
        <time>2022-02-19T10:08:05Z</time>
      </trkpt>
      <trkpt lat="45.9269" lon="6.49289">
        <ele>1492</ele>
        <time>2022-02-19T10:08:07Z</time>
      </trkpt>
      <trkpt lat="45.92692" lon="6.49291">
        <ele>1492</ele>
        <time>2022-02-19T10:08:09Z</time>
      </trkpt>
      <trkpt lat="45.92694" lon="6.49292">
        <ele>1492</ele>
        <time>2022-02-19T10:08:11Z</time>
      </trkpt>
      <trkpt lat="45.92696" lon="6.49294">
        <ele>1492</ele>
        <time>2022-02-19T10:08:13Z</time>
      </trkpt>
      <trkpt lat="45.92697" lon="6.49297">
        <ele>1492</ele>
        <time>2022-02-19T10:08:15Z</time>
      </trkpt>
      <trkpt lat="45.92699" lon="6.49299">
        <ele>1492</ele>
        <time>2022-02-19T10:08:17Z</time>
      </trkpt>
      <trkpt lat="45.927" lon="6.493">
        <ele>1492</ele>
        <time>2022-02-19T10:08:19Z</time>
      </trkpt>
      <trkpt lat="45.92702" lon="6.49302">
        <ele>1492</ele>
        <time>2022-02-19T10:08:21Z</time>
      </trkpt>
      <trkpt lat="45.92703" lon="6.49304">
        <ele>1493</ele>
        <time>2022-02-19T10:08:23Z</time>
      </trkpt>
      <trkpt lat="45.92704" lon="6.49307">
        <ele>1493</ele>
        <time>2022-02-19T10:08:26Z</time>
      </trkpt>
      <trkpt lat="45.92705" lon="6.4931">
        <ele>1493</ele>
        <time>2022-02-19T10:08:29Z</time>
      </trkpt>
      <trkpt lat="45.92706" lon="6.49313">
        <ele>1493</ele>
        <time>2022-02-19T10:08:31Z</time>
      </trkpt>
      <trkpt lat="45.92707" lon="6.49315">
        <ele>1494</ele>
        <time>2022-02-19T10:08:33Z</time>
      </trkpt>
      <trkpt lat="45.92708" lon="6.49318">
        <ele>1494</ele>
        <time>2022-02-19T10:08:35Z</time>
      </trkpt>
      <trkpt lat="45.92708" lon="6.49321">
        <ele>1494</ele>
        <time>2022-02-19T10:08:37Z</time>
      </trkpt>
      <trkpt lat="45.92709" lon="6.49324">
        <ele>1494</ele>
        <time>2022-02-19T10:08:39Z</time>
      </trkpt>
      <trkpt lat="45.92709" lon="6.49326">
        <ele>1494</ele>
        <time>2022-02-19T10:08:41Z</time>
      </trkpt>
      <trkpt lat="45.9271" lon="6.4933">
        <ele>1494</ele>
        <time>2022-02-19T10:08:43Z</time>
      </trkpt>
      <trkpt lat="45.9271" lon="6.49333">
        <ele>1494</ele>
        <time>2022-02-19T10:08:45Z</time>
      </trkpt>
      <trkpt lat="45.9271" lon="6.49336">
        <ele>1494</ele>
        <time>2022-02-19T10:08:47Z</time>
      </trkpt>
      <trkpt lat="45.92711" lon="6.4934">
        <ele>1495</ele>
        <time>2022-02-19T10:08:50Z</time>
      </trkpt>
      <trkpt lat="45.92711" lon="6.49342">
        <ele>1496</ele>
        <time>2022-02-19T10:08:52Z</time>
      </trkpt>
      <trkpt lat="45.92712" lon="6.49345">
        <ele>1496</ele>
        <time>2022-02-19T10:08:54Z</time>
      </trkpt>
      <trkpt lat="45.92713" lon="6.49348">
        <ele>1496</ele>
        <time>2022-02-19T10:08:56Z</time>
      </trkpt>
      <trkpt lat="45.92713" lon="6.4935">
        <ele>1496</ele>
        <time>2022-02-19T10:08:58Z</time>
      </trkpt>
      <trkpt lat="45.92714" lon="6.49354">
        <ele>1496</ele>
        <time>2022-02-19T10:09:01Z</time>
      </trkpt>
      <trkpt lat="45.92715" lon="6.49357">
        <ele>1496</ele>
        <time>2022-02-19T10:09:03Z</time>
      </trkpt>
      <trkpt lat="45.92716" lon="6.49359">
        <ele>1496</ele>
        <time>2022-02-19T10:09:05Z</time>
      </trkpt>
      <trkpt lat="45.92716" lon="6.49362">
        <ele>1497</ele>
        <time>2022-02-19T10:09:07Z</time>
      </trkpt>
      <trkpt lat="45.92717" lon="6.49365">
        <ele>1496</ele>
        <time>2022-02-19T10:09:10Z</time>
      </trkpt>
      <trkpt lat="45.92719" lon="6.49367">
        <ele>1498</ele>
        <time>2022-02-19T10:09:13Z</time>
      </trkpt>
      <trkpt lat="45.92721" lon="6.4937">
        <ele>1498</ele>
        <time>2022-02-19T10:09:16Z</time>
      </trkpt>
      <trkpt lat="45.92722" lon="6.49374">
        <ele>1498</ele>
        <time>2022-02-19T10:09:19Z</time>
      </trkpt>
      <trkpt lat="45.92723" lon="6.49376">
        <ele>1498</ele>
        <time>2022-02-19T10:09:22Z</time>
      </trkpt>
      <trkpt lat="45.92725" lon="6.49379">
        <ele>1498</ele>
        <time>2022-02-19T10:09:25Z</time>
      </trkpt>
      <trkpt lat="45.92725" lon="6.49382">
        <ele>1498</ele>
        <time>2022-02-19T10:09:27Z</time>
      </trkpt>
      <trkpt lat="45.92726" lon="6.49385">
        <ele>1499</ele>
        <time>2022-02-19T10:09:29Z</time>
      </trkpt>
      <trkpt lat="45.92727" lon="6.49388">
        <ele>1499</ele>
        <time>2022-02-19T10:09:32Z</time>
      </trkpt>
      <trkpt lat="45.92728" lon="6.49391">
        <ele>1499</ele>
        <time>2022-02-19T10:09:34Z</time>
      </trkpt>
      <trkpt lat="45.92729" lon="6.49394">
        <ele>1499</ele>
        <time>2022-02-19T10:09:37Z</time>
      </trkpt>
      <trkpt lat="45.92729" lon="6.49397">
        <ele>1499</ele>
        <time>2022-02-19T10:09:39Z</time>
      </trkpt>
      <trkpt lat="45.92729" lon="6.494">
        <ele>1499</ele>
        <time>2022-02-19T10:09:41Z</time>
      </trkpt>
      <trkpt lat="45.9273" lon="6.49404">
        <ele>1499</ele>
        <time>2022-02-19T10:09:44Z</time>
      </trkpt>
      <trkpt lat="45.92731" lon="6.49406">
        <ele>1499</ele>
        <time>2022-02-19T10:09:46Z</time>
      </trkpt>
      <trkpt lat="45.92731" lon="6.49409">
        <ele>1499</ele>
        <time>2022-02-19T10:09:48Z</time>
      </trkpt>
      <trkpt lat="45.92732" lon="6.49411">
        <ele>1499</ele>
        <time>2022-02-19T10:09:50Z</time>
      </trkpt>
      <trkpt lat="45.92733" lon="6.49414">
        <ele>1499</ele>
        <time>2022-02-19T10:09:52Z</time>
      </trkpt>
      <trkpt lat="45.92735" lon="6.49418">
        <ele>1500</ele>
        <time>2022-02-19T10:09:55Z</time>
      </trkpt>
      <trkpt lat="45.92735" lon="6.4942">
        <ele>1500</ele>
        <time>2022-02-19T10:09:57Z</time>
      </trkpt>
      <trkpt lat="45.92736" lon="6.49423">
        <ele>1500</ele>
        <time>2022-02-19T10:09:59Z</time>
      </trkpt>
      <trkpt lat="45.92737" lon="6.49426">
        <ele>1500</ele>
        <time>2022-02-19T10:10:01Z</time>
      </trkpt>
      <trkpt lat="45.92738" lon="6.49429">
        <ele>1500</ele>
        <time>2022-02-19T10:10:03Z</time>
      </trkpt>
      <trkpt lat="45.92739" lon="6.49431">
        <ele>1500</ele>
        <time>2022-02-19T10:10:05Z</time>
      </trkpt>
      <trkpt lat="45.9274" lon="6.49434">
        <ele>1500</ele>
        <time>2022-02-19T10:10:07Z</time>
      </trkpt>
      <trkpt lat="45.92741" lon="6.49436">
        <ele>1500</ele>
        <time>2022-02-19T10:10:09Z</time>
      </trkpt>
      <trkpt lat="45.92742" lon="6.49438">
        <ele>1500</ele>
        <time>2022-02-19T10:10:11Z</time>
      </trkpt>
      <trkpt lat="45.92743" lon="6.49441">
        <ele>1500</ele>
        <time>2022-02-19T10:10:13Z</time>
      </trkpt>
      <trkpt lat="45.92744" lon="6.49444">
        <ele>1500</ele>
        <time>2022-02-19T10:10:15Z</time>
      </trkpt>
      <trkpt lat="45.92745" lon="6.49446">
        <ele>1500</ele>
        <time>2022-02-19T10:10:17Z</time>
      </trkpt>
      <trkpt lat="45.92747" lon="6.49449">
        <ele>1500</ele>
        <time>2022-02-19T10:10:19Z</time>
      </trkpt>
      <trkpt lat="45.92748" lon="6.49451">
        <ele>1500</ele>
        <time>2022-02-19T10:10:21Z</time>
      </trkpt>
      <trkpt lat="45.92749" lon="6.49454">
        <ele>1500</ele>
        <time>2022-02-19T10:10:23Z</time>
      </trkpt>
      <trkpt lat="45.9275" lon="6.49456">
        <ele>1500</ele>
        <time>2022-02-19T10:10:25Z</time>
      </trkpt>
      <trkpt lat="45.92751" lon="6.49458">
        <ele>1501</ele>
        <time>2022-02-19T10:10:27Z</time>
      </trkpt>
      <trkpt lat="45.92752" lon="6.49461">
        <ele>1501</ele>
        <time>2022-02-19T10:10:29Z</time>
      </trkpt>
      <trkpt lat="45.92753" lon="6.49463">
        <ele>1501</ele>
        <time>2022-02-19T10:10:31Z</time>
      </trkpt>
      <trkpt lat="45.92754" lon="6.49465">
        <ele>1501</ele>
        <time>2022-02-19T10:10:33Z</time>
      </trkpt>
      <trkpt lat="45.92756" lon="6.49466">
        <ele>1501</ele>
        <time>2022-02-19T10:10:35Z</time>
      </trkpt>
      <trkpt lat="45.92758" lon="6.49467">
        <ele>1501</ele>
        <time>2022-02-19T10:10:37Z</time>
      </trkpt>
      <trkpt lat="45.9276" lon="6.49469">
        <ele>1501</ele>
        <time>2022-02-19T10:10:39Z</time>
      </trkpt>
      <trkpt lat="45.92762" lon="6.49473">
        <ele>1500</ele>
        <time>2022-02-19T10:10:41Z</time>
      </trkpt>
      <trkpt lat="45.92764" lon="6.49476">
        <ele>1500</ele>
        <time>2022-02-19T10:10:43Z</time>
      </trkpt>
      <trkpt lat="45.92766" lon="6.49479">
        <ele>1499</ele>
        <time>2022-02-19T10:10:45Z</time>
      </trkpt>
      <trkpt lat="45.92768" lon="6.49481">
        <ele>1499</ele>
        <time>2022-02-19T10:10:47Z</time>
      </trkpt>
      <trkpt lat="45.9277" lon="6.49483">
        <ele>1498</ele>
        <time>2022-02-19T10:10:49Z</time>
      </trkpt>
      <trkpt lat="45.92771" lon="6.49485">
        <ele>1498</ele>
        <time>2022-02-19T10:10:51Z</time>
      </trkpt>
      <trkpt lat="45.92773" lon="6.49487">
        <ele>1498</ele>
        <time>2022-02-19T10:10:53Z</time>
      </trkpt>
      <trkpt lat="45.92775" lon="6.49488">
        <ele>1498</ele>
        <time>2022-02-19T10:10:55Z</time>
      </trkpt>
      <trkpt lat="45.92777" lon="6.4949">
        <ele>1498</ele>
        <time>2022-02-19T10:10:57Z</time>
      </trkpt>
      <trkpt lat="45.92779" lon="6.49491">
        <ele>1498</ele>
        <time>2022-02-19T10:10:59Z</time>
      </trkpt>
      <trkpt lat="45.92781" lon="6.49492">
        <ele>1498</ele>
        <time>2022-02-19T10:11:01Z</time>
      </trkpt>
      <trkpt lat="45.92782" lon="6.49494">
        <ele>1497</ele>
        <time>2022-02-19T10:11:03Z</time>
      </trkpt>
      <trkpt lat="45.92784" lon="6.49495">
        <ele>1495</ele>
        <time>2022-02-19T10:11:05Z</time>
      </trkpt>
      <trkpt lat="45.92787" lon="6.49497">
        <ele>1495</ele>
        <time>2022-02-19T10:11:07Z</time>
      </trkpt>
      <trkpt lat="45.92789" lon="6.49498">
        <ele>1494</ele>
        <time>2022-02-19T10:11:09Z</time>
      </trkpt>
      <trkpt lat="45.92792" lon="6.49498">
        <ele>1494</ele>
        <time>2022-02-19T10:11:12Z</time>
      </trkpt>
      <trkpt lat="45.92795" lon="6.495">
        <ele>1494</ele>
        <time>2022-02-19T10:11:14Z</time>
      </trkpt>
      <trkpt lat="45.92798" lon="6.49501">
        <ele>1493</ele>
        <time>2022-02-19T10:11:16Z</time>
      </trkpt>
      <trkpt lat="45.928" lon="6.49501">
        <ele>1493</ele>
        <time>2022-02-19T10:11:17Z</time>
      </trkpt>
      <trkpt lat="45.92802" lon="6.49502">
        <ele>1493</ele>
        <time>2022-02-19T10:11:18Z</time>
      </trkpt>
      <trkpt lat="45.92805" lon="6.49503">
        <ele>1493</ele>
        <time>2022-02-19T10:11:20Z</time>
      </trkpt>
      <trkpt lat="45.92807" lon="6.49504">
        <ele>1493</ele>
        <time>2022-02-19T10:11:22Z</time>
      </trkpt>
      <trkpt lat="45.92809" lon="6.49505">
        <ele>1492</ele>
        <time>2022-02-19T10:11:24Z</time>
      </trkpt>
      <trkpt lat="45.92812" lon="6.49507">
        <ele>1491</ele>
        <time>2022-02-19T10:11:26Z</time>
      </trkpt>
      <trkpt lat="45.92814" lon="6.49509">
        <ele>1491</ele>
        <time>2022-02-19T10:11:27Z</time>
      </trkpt>
      <trkpt lat="45.92816" lon="6.4951">
        <ele>1491</ele>
        <time>2022-02-19T10:11:28Z</time>
      </trkpt>
      <trkpt lat="45.92819" lon="6.49511">
        <ele>1491</ele>
        <time>2022-02-19T10:11:29Z</time>
      </trkpt>
      <trkpt lat="45.92821" lon="6.49513">
        <ele>1490</ele>
        <time>2022-02-19T10:11:30Z</time>
      </trkpt>
      <trkpt lat="45.92822" lon="6.49515">
        <ele>1490</ele>
        <time>2022-02-19T10:11:33Z</time>
      </trkpt>
      <trkpt lat="45.92823" lon="6.49517">
        <ele>1489</ele>
        <time>2022-02-19T10:11:36Z</time>
      </trkpt>
      <trkpt lat="45.92823" lon="6.49521">
        <ele>1489</ele>
        <time>2022-02-19T10:11:39Z</time>
      </trkpt>
      <trkpt lat="45.92823" lon="6.49524">
        <ele>1489</ele>
        <time>2022-02-19T10:11:42Z</time>
      </trkpt>
      <trkpt lat="45.92823" lon="6.49527">
        <ele>1489</ele>
        <time>2022-02-19T10:11:45Z</time>
      </trkpt>
      <trkpt lat="45.92824" lon="6.4953">
        <ele>1490</ele>
        <time>2022-02-19T10:11:48Z</time>
      </trkpt>
      <trkpt lat="45.92825" lon="6.49532">
        <ele>1490</ele>
        <time>2022-02-19T10:11:50Z</time>
      </trkpt>
      <trkpt lat="45.92827" lon="6.49534">
        <ele>1490</ele>
        <time>2022-02-19T10:11:52Z</time>
      </trkpt>
      <trkpt lat="45.92829" lon="6.49536">
        <ele>1490</ele>
        <time>2022-02-19T10:11:55Z</time>
      </trkpt>
      <trkpt lat="45.92831" lon="6.49538">
        <ele>1489</ele>
        <time>2022-02-19T10:11:57Z</time>
      </trkpt>
      <trkpt lat="45.92832" lon="6.4954">
        <ele>1489</ele>
        <time>2022-02-19T10:11:59Z</time>
      </trkpt>
      <trkpt lat="45.92834" lon="6.49542">
        <ele>1489</ele>
        <time>2022-02-19T10:12:01Z</time>
      </trkpt>
      <trkpt lat="45.92835" lon="6.49544">
        <ele>1488</ele>
        <time>2022-02-19T10:12:03Z</time>
      </trkpt>
      <trkpt lat="45.92836" lon="6.49546">
        <ele>1488</ele>
        <time>2022-02-19T10:12:05Z</time>
      </trkpt>
      <trkpt lat="45.92838" lon="6.49548">
        <ele>1488</ele>
        <time>2022-02-19T10:12:07Z</time>
      </trkpt>
      <trkpt lat="45.9284" lon="6.4955">
        <ele>1487</ele>
        <time>2022-02-19T10:12:10Z</time>
      </trkpt>
      <trkpt lat="45.92841" lon="6.49552">
        <ele>1487</ele>
        <time>2022-02-19T10:12:13Z</time>
      </trkpt>
      <trkpt lat="45.92843" lon="6.49554">
        <ele>1487</ele>
        <time>2022-02-19T10:12:16Z</time>
      </trkpt>
      <trkpt lat="45.92845" lon="6.49556">
        <ele>1486</ele>
        <time>2022-02-19T10:12:18Z</time>
      </trkpt>
      <trkpt lat="45.92847" lon="6.49558">
        <ele>1486</ele>
        <time>2022-02-19T10:12:20Z</time>
      </trkpt>
      <trkpt lat="45.92848" lon="6.49561">
        <ele>1485</ele>
        <time>2022-02-19T10:12:22Z</time>
      </trkpt>
      <trkpt lat="45.9285" lon="6.49563">
        <ele>1485</ele>
        <time>2022-02-19T10:12:24Z</time>
      </trkpt>
      <trkpt lat="45.92851" lon="6.49566">
        <ele>1485</ele>
        <time>2022-02-19T10:12:26Z</time>
      </trkpt>
      <trkpt lat="45.92852" lon="6.49569">
        <ele>1484</ele>
        <time>2022-02-19T10:12:28Z</time>
      </trkpt>
      <trkpt lat="45.92853" lon="6.49571">
        <ele>1484</ele>
        <time>2022-02-19T10:12:29Z</time>
      </trkpt>
      <trkpt lat="45.92853" lon="6.49574">
        <ele>1483</ele>
        <time>2022-02-19T10:12:30Z</time>
      </trkpt>
      <trkpt lat="45.92854" lon="6.49577">
        <ele>1481</ele>
        <time>2022-02-19T10:12:34Z</time>
      </trkpt>
      <trkpt lat="45.92855" lon="6.49578">
        <ele>1479</ele>
        <time>2022-02-19T10:12:46Z</time>
      </trkpt>
      <trkpt lat="45.92856" lon="6.49581">
        <ele>1479</ele>
        <time>2022-02-19T10:12:51Z</time>
      </trkpt>
      <trkpt lat="45.92857" lon="6.49586">
        <ele>1478</ele>
        <time>2022-02-19T10:12:53Z</time>
      </trkpt>
      <trkpt lat="45.92857" lon="6.4959">
        <ele>1478</ele>
        <time>2022-02-19T10:12:55Z</time>
      </trkpt>
      <trkpt lat="45.92856" lon="6.49593">
        <ele>1477</ele>
        <time>2022-02-19T10:12:57Z</time>
      </trkpt>
      <trkpt lat="45.92856" lon="6.49596">
        <ele>1477</ele>
        <time>2022-02-19T10:12:58Z</time>
      </trkpt>
      <trkpt lat="45.92856" lon="6.49599">
        <ele>1475</ele>
        <time>2022-02-19T10:13:01Z</time>
      </trkpt>
      <trkpt lat="45.92855" lon="6.49602">
        <ele>1475</ele>
        <time>2022-02-19T10:13:03Z</time>
      </trkpt>
      <trkpt lat="45.92854" lon="6.49606">
        <ele>1475</ele>
        <time>2022-02-19T10:13:06Z</time>
      </trkpt>
      <trkpt lat="45.92855" lon="6.49608">
        <ele>1475</ele>
        <time>2022-02-19T10:13:08Z</time>
      </trkpt>
      <trkpt lat="45.92857" lon="6.49612">
        <ele>1474</ele>
        <time>2022-02-19T10:13:12Z</time>
      </trkpt>
      <trkpt lat="45.92858" lon="6.49614">
        <ele>1473</ele>
        <time>2022-02-19T10:13:13Z</time>
      </trkpt>
      <trkpt lat="45.92859" lon="6.49617">
        <ele>1473</ele>
        <time>2022-02-19T10:13:14Z</time>
      </trkpt>
      <trkpt lat="45.9286" lon="6.4962">
        <ele>1473</ele>
        <time>2022-02-19T10:13:15Z</time>
      </trkpt>
      <trkpt lat="45.92862" lon="6.49623">
        <ele>1473</ele>
        <time>2022-02-19T10:13:16Z</time>
      </trkpt>
      <trkpt lat="45.92863" lon="6.49626">
        <ele>1472</ele>
        <time>2022-02-19T10:13:17Z</time>
      </trkpt>
      <trkpt lat="45.92864" lon="6.4963">
        <ele>1471</ele>
        <time>2022-02-19T10:13:19Z</time>
      </trkpt>
      <trkpt lat="45.92864" lon="6.49635">
        <ele>1470</ele>
        <time>2022-02-19T10:13:21Z</time>
      </trkpt>
      <trkpt lat="45.92864" lon="6.49637">
        <ele>1470</ele>
        <time>2022-02-19T10:13:22Z</time>
      </trkpt>
      <trkpt lat="45.92865" lon="6.4964">
        <ele>1469</ele>
        <time>2022-02-19T10:13:23Z</time>
      </trkpt>
      <trkpt lat="45.92865" lon="6.49645">
        <ele>1468</ele>
        <time>2022-02-19T10:13:25Z</time>
      </trkpt>
      <trkpt lat="45.92865" lon="6.49648">
        <ele>1467</ele>
        <time>2022-02-19T10:13:26Z</time>
      </trkpt>
      <trkpt lat="45.92865" lon="6.49651">
        <ele>1466</ele>
        <time>2022-02-19T10:13:27Z</time>
      </trkpt>
      <trkpt lat="45.92865" lon="6.49654">
        <ele>1467</ele>
        <time>2022-02-19T10:13:28Z</time>
      </trkpt>
      <trkpt lat="45.92866" lon="6.49657">
        <ele>1467</ele>
        <time>2022-02-19T10:13:29Z</time>
      </trkpt>
      <trkpt lat="45.92865" lon="6.49659">
        <ele>1467</ele>
        <time>2022-02-19T10:13:30Z</time>
      </trkpt>
      <trkpt lat="45.92865" lon="6.49663">
        <ele>1466</ele>
        <time>2022-02-19T10:13:32Z</time>
      </trkpt>
      <trkpt lat="45.92864" lon="6.49666">
        <ele>1466</ele>
        <time>2022-02-19T10:13:34Z</time>
      </trkpt>
      <trkpt lat="45.92864" lon="6.49669">
        <ele>1465</ele>
        <time>2022-02-19T10:13:36Z</time>
      </trkpt>
      <trkpt lat="45.92864" lon="6.49673">
        <ele>1465</ele>
        <time>2022-02-19T10:13:38Z</time>
      </trkpt>
      <trkpt lat="45.92863" lon="6.49676">
        <ele>1465</ele>
        <time>2022-02-19T10:13:40Z</time>
      </trkpt>
      <trkpt lat="45.92863" lon="6.49681">
        <ele>1465</ele>
        <time>2022-02-19T10:13:42Z</time>
      </trkpt>
      <trkpt lat="45.92863" lon="6.49685">
        <ele>1465</ele>
        <time>2022-02-19T10:13:44Z</time>
      </trkpt>
      <trkpt lat="45.92862" lon="6.49689">
        <ele>1465</ele>
        <time>2022-02-19T10:13:47Z</time>
      </trkpt>
      <trkpt lat="45.92862" lon="6.49693">
        <ele>1465</ele>
        <time>2022-02-19T10:13:48Z</time>
      </trkpt>
      <trkpt lat="45.92862" lon="6.49698">
        <ele>1465</ele>
        <time>2022-02-19T10:13:50Z</time>
      </trkpt>
      <trkpt lat="45.92861" lon="6.49702">
        <ele>1465</ele>
        <time>2022-02-19T10:13:52Z</time>
      </trkpt>
      <trkpt lat="45.92861" lon="6.49705">
        <ele>1464</ele>
        <time>2022-02-19T10:13:53Z</time>
      </trkpt>
      <trkpt lat="45.92861" lon="6.49709">
        <ele>1464</ele>
        <time>2022-02-19T10:13:55Z</time>
      </trkpt>
      <trkpt lat="45.92861" lon="6.49712">
        <ele>1464</ele>
        <time>2022-02-19T10:13:57Z</time>
      </trkpt>
      <trkpt lat="45.92861" lon="6.49715">
        <ele>1464</ele>
        <time>2022-02-19T10:13:59Z</time>
      </trkpt>
      <trkpt lat="45.9286" lon="6.49718">
        <ele>1464</ele>
        <time>2022-02-19T10:14:01Z</time>
      </trkpt>
      <trkpt lat="45.9286" lon="6.49721">
        <ele>1464</ele>
        <time>2022-02-19T10:14:03Z</time>
      </trkpt>
      <trkpt lat="45.92859" lon="6.49723">
        <ele>1464</ele>
        <time>2022-02-19T10:14:05Z</time>
      </trkpt>
      <trkpt lat="45.92858" lon="6.49726">
        <ele>1465</ele>
        <time>2022-02-19T10:14:08Z</time>
      </trkpt>
      <trkpt lat="45.92859" lon="6.49729">
        <ele>1465</ele>
        <time>2022-02-19T10:14:30Z</time>
      </trkpt>
      <trkpt lat="45.92858" lon="6.49731">
        <ele>1465</ele>
        <time>2022-02-19T10:14:33Z</time>
      </trkpt>
      <trkpt lat="45.92857" lon="6.49734">
        <ele>1465</ele>
        <time>2022-02-19T10:14:37Z</time>
      </trkpt>
      <trkpt lat="45.92856" lon="6.49737">
        <ele>1466</ele>
        <time>2022-02-19T10:14:41Z</time>
      </trkpt>
      <trkpt lat="45.92856" lon="6.4974">
        <ele>1466</ele>
        <time>2022-02-19T10:14:44Z</time>
      </trkpt>
      <trkpt lat="45.92855" lon="6.49743">
        <ele>1467</ele>
        <time>2022-02-19T10:14:47Z</time>
      </trkpt>
      <trkpt lat="45.92855" lon="6.49747">
        <ele>1467</ele>
        <time>2022-02-19T10:14:51Z</time>
      </trkpt>
      <trkpt lat="45.92854" lon="6.4975">
        <ele>1468</ele>
        <time>2022-02-19T10:14:54Z</time>
      </trkpt>
      <trkpt lat="45.92853" lon="6.49753">
        <ele>1468</ele>
        <time>2022-02-19T10:14:57Z</time>
      </trkpt>
      <trkpt lat="45.92853" lon="6.49757">
        <ele>1468</ele>
        <time>2022-02-19T10:15:00Z</time>
      </trkpt>
      <trkpt lat="45.92852" lon="6.49759">
        <ele>1468</ele>
        <time>2022-02-19T10:15:02Z</time>
      </trkpt>
      <trkpt lat="45.92852" lon="6.49762">
        <ele>1470</ele>
        <time>2022-02-19T10:15:05Z</time>
      </trkpt>
      <trkpt lat="45.92851" lon="6.49766">
        <ele>1470</ele>
        <time>2022-02-19T10:15:08Z</time>
      </trkpt>
      <trkpt lat="45.9285" lon="6.49769">
        <ele>1470</ele>
        <time>2022-02-19T10:15:11Z</time>
      </trkpt>
      <trkpt lat="45.9285" lon="6.49772">
        <ele>1470</ele>
        <time>2022-02-19T10:15:14Z</time>
      </trkpt>
      <trkpt lat="45.92849" lon="6.49775">
        <ele>1470</ele>
        <time>2022-02-19T10:15:17Z</time>
      </trkpt>
      <trkpt lat="45.92849" lon="6.49778">
        <ele>1472</ele>
        <time>2022-02-19T10:15:20Z</time>
      </trkpt>
      <trkpt lat="45.92848" lon="6.49782">
        <ele>1472</ele>
        <time>2022-02-19T10:15:23Z</time>
      </trkpt>
      <trkpt lat="45.92847" lon="6.49785">
        <ele>1472</ele>
        <time>2022-02-19T10:15:26Z</time>
      </trkpt>
      <trkpt lat="45.92846" lon="6.49787">
        <ele>1472</ele>
        <time>2022-02-19T10:15:52Z</time>
      </trkpt>
      <trkpt lat="45.92845" lon="6.4979">
        <ele>1473</ele>
        <time>2022-02-19T10:15:55Z</time>
      </trkpt>
      <trkpt lat="45.92844" lon="6.49793">
        <ele>1474</ele>
        <time>2022-02-19T10:15:58Z</time>
      </trkpt>
      <trkpt lat="45.92844" lon="6.49796">
        <ele>1474</ele>
        <time>2022-02-19T10:16:01Z</time>
      </trkpt>
      <trkpt lat="45.92843" lon="6.49799">
        <ele>1474</ele>
        <time>2022-02-19T10:16:05Z</time>
      </trkpt>
      <trkpt lat="45.92842" lon="6.49802">
        <ele>1475</ele>
        <time>2022-02-19T10:16:08Z</time>
      </trkpt>
      <trkpt lat="45.92842" lon="6.49805">
        <ele>1476</ele>
        <time>2022-02-19T10:16:12Z</time>
      </trkpt>
      <trkpt lat="45.92841" lon="6.49808">
        <ele>1476</ele>
        <time>2022-02-19T10:16:15Z</time>
      </trkpt>
      <trkpt lat="45.92841" lon="6.49811">
        <ele>1476</ele>
        <time>2022-02-19T10:16:18Z</time>
      </trkpt>
      <trkpt lat="45.92841" lon="6.49814">
        <ele>1477</ele>
        <time>2022-02-19T10:16:21Z</time>
      </trkpt>
      <trkpt lat="45.9284" lon="6.49817">
        <ele>1477</ele>
        <time>2022-02-19T10:16:25Z</time>
      </trkpt>
      <trkpt lat="45.9284" lon="6.4982">
        <ele>1478</ele>
        <time>2022-02-19T10:16:28Z</time>
      </trkpt>
      <trkpt lat="45.92839" lon="6.49823">
        <ele>1478</ele>
        <time>2022-02-19T10:16:31Z</time>
      </trkpt>
      <trkpt lat="45.92839" lon="6.49826">
        <ele>1479</ele>
        <time>2022-02-19T10:16:34Z</time>
      </trkpt>
      <trkpt lat="45.92839" lon="6.49828">
        <ele>1480</ele>
        <time>2022-02-19T10:16:37Z</time>
      </trkpt>
      <trkpt lat="45.92839" lon="6.49831">
        <ele>1480</ele>
        <time>2022-02-19T10:16:40Z</time>
      </trkpt>
      <trkpt lat="45.92838" lon="6.49834">
        <ele>1481</ele>
        <time>2022-02-19T10:16:43Z</time>
      </trkpt>
      <trkpt lat="45.92838" lon="6.49837">
        <ele>1482</ele>
        <time>2022-02-19T10:16:46Z</time>
      </trkpt>
      <trkpt lat="45.92838" lon="6.49839">
        <ele>1481</ele>
        <time>2022-02-19T10:16:49Z</time>
      </trkpt>
      <trkpt lat="45.92838" lon="6.49843">
        <ele>1482</ele>
        <time>2022-02-19T10:16:52Z</time>
      </trkpt>
      <trkpt lat="45.92837" lon="6.49845">
        <ele>1482</ele>
        <time>2022-02-19T10:16:55Z</time>
      </trkpt>
      <trkpt lat="45.92837" lon="6.49848">
        <ele>1483</ele>
        <time>2022-02-19T10:16:58Z</time>
      </trkpt>
      <trkpt lat="45.92837" lon="6.49851">
        <ele>1484</ele>
        <time>2022-02-19T10:17:02Z</time>
      </trkpt>
      <trkpt lat="45.92837" lon="6.49854">
        <ele>1484</ele>
        <time>2022-02-19T10:17:05Z</time>
      </trkpt>
      <trkpt lat="45.92837" lon="6.49857">
        <ele>1484</ele>
        <time>2022-02-19T10:17:08Z</time>
      </trkpt>
      <trkpt lat="45.92838" lon="6.49859">
        <ele>1485</ele>
        <time>2022-02-19T10:17:11Z</time>
      </trkpt>
      <trkpt lat="45.9284" lon="6.49861">
        <ele>1485</ele>
        <time>2022-02-19T10:17:14Z</time>
      </trkpt>
      <trkpt lat="45.92841" lon="6.49863">
        <ele>1486</ele>
        <time>2022-02-19T10:17:17Z</time>
      </trkpt>
      <trkpt lat="45.92843" lon="6.49864">
        <ele>1486</ele>
        <time>2022-02-19T10:17:20Z</time>
      </trkpt>
      <trkpt lat="45.92845" lon="6.49865">
        <ele>1486</ele>
        <time>2022-02-19T10:17:22Z</time>
      </trkpt>
      <trkpt lat="45.92847" lon="6.49866">
        <ele>1487</ele>
        <time>2022-02-19T10:17:25Z</time>
      </trkpt>
      <trkpt lat="45.92848" lon="6.49868">
        <ele>1488</ele>
        <time>2022-02-19T10:17:28Z</time>
      </trkpt>
      <trkpt lat="45.92849" lon="6.49871">
        <ele>1488</ele>
        <time>2022-02-19T10:17:32Z</time>
      </trkpt>
      <trkpt lat="45.92848" lon="6.49874">
        <ele>1490</ele>
        <time>2022-02-19T10:17:36Z</time>
      </trkpt>
      <trkpt lat="45.92847" lon="6.49876">
        <ele>1490</ele>
        <time>2022-02-19T10:17:40Z</time>
      </trkpt>
      <trkpt lat="45.92845" lon="6.49878">
        <ele>1490</ele>
        <time>2022-02-19T10:17:43Z</time>
      </trkpt>
      <trkpt lat="45.92843" lon="6.4988">
        <ele>1491</ele>
        <time>2022-02-19T10:17:46Z</time>
      </trkpt>
      <trkpt lat="45.92842" lon="6.49883">
        <ele>1492</ele>
        <time>2022-02-19T10:17:50Z</time>
      </trkpt>
      <trkpt lat="45.92841" lon="6.49886">
        <ele>1492</ele>
        <time>2022-02-19T10:17:53Z</time>
      </trkpt>
      <trkpt lat="45.9284" lon="6.4989">
        <ele>1493</ele>
        <time>2022-02-19T10:17:56Z</time>
      </trkpt>
      <trkpt lat="45.9284" lon="6.49894">
        <ele>1493</ele>
        <time>2022-02-19T10:17:59Z</time>
      </trkpt>
      <trkpt lat="45.9284" lon="6.49897">
        <ele>1493</ele>
        <time>2022-02-19T10:18:02Z</time>
      </trkpt>
      <trkpt lat="45.9284" lon="6.499">
        <ele>1493</ele>
        <time>2022-02-19T10:18:05Z</time>
      </trkpt>
      <trkpt lat="45.92839" lon="6.49903">
        <ele>1494</ele>
        <time>2022-02-19T10:18:08Z</time>
      </trkpt>
      <trkpt lat="45.92839" lon="6.49907">
        <ele>1494</ele>
        <time>2022-02-19T10:18:11Z</time>
      </trkpt>
      <trkpt lat="45.92839" lon="6.4991">
        <ele>1494</ele>
        <time>2022-02-19T10:18:13Z</time>
      </trkpt>
      <trkpt lat="45.92839" lon="6.49913">
        <ele>1494</ele>
        <time>2022-02-19T10:18:15Z</time>
      </trkpt>
      <trkpt lat="45.92839" lon="6.49916">
        <ele>1494</ele>
        <time>2022-02-19T10:18:18Z</time>
      </trkpt>
      <trkpt lat="45.92839" lon="6.49919">
        <ele>1494</ele>
        <time>2022-02-19T10:18:21Z</time>
      </trkpt>
      <trkpt lat="45.92839" lon="6.49922">
        <ele>1494</ele>
        <time>2022-02-19T10:18:23Z</time>
      </trkpt>
      <trkpt lat="45.92838" lon="6.49925">
        <ele>1495</ele>
        <time>2022-02-19T10:18:26Z</time>
      </trkpt>
      <trkpt lat="45.92838" lon="6.49928">
        <ele>1495</ele>
        <time>2022-02-19T10:18:29Z</time>
      </trkpt>
      <trkpt lat="45.92838" lon="6.49931">
        <ele>1495</ele>
        <time>2022-02-19T10:18:51Z</time>
      </trkpt>
      <trkpt lat="45.92838" lon="6.49934">
        <ele>1496</ele>
        <time>2022-02-19T10:18:54Z</time>
      </trkpt>
      <trkpt lat="45.92837" lon="6.49938">
        <ele>1496</ele>
        <time>2022-02-19T10:18:57Z</time>
      </trkpt>
      <trkpt lat="45.92837" lon="6.49941">
        <ele>1497</ele>
        <time>2022-02-19T10:19:00Z</time>
      </trkpt>
      <trkpt lat="45.92836" lon="6.49943">
        <ele>1497</ele>
        <time>2022-02-19T10:19:03Z</time>
      </trkpt>
      <trkpt lat="45.92835" lon="6.49946">
        <ele>1497</ele>
        <time>2022-02-19T10:19:06Z</time>
      </trkpt>
      <trkpt lat="45.92834" lon="6.49948">
        <ele>1498</ele>
        <time>2022-02-19T10:19:09Z</time>
      </trkpt>
      <trkpt lat="45.92833" lon="6.49951">
        <ele>1499</ele>
        <time>2022-02-19T10:19:12Z</time>
      </trkpt>
      <trkpt lat="45.92833" lon="6.49954">
        <ele>1499</ele>
        <time>2022-02-19T10:19:15Z</time>
      </trkpt>
      <trkpt lat="45.92832" lon="6.49956">
        <ele>1499</ele>
        <time>2022-02-19T10:19:18Z</time>
      </trkpt>
      <trkpt lat="45.92831" lon="6.49959">
        <ele>1500</ele>
        <time>2022-02-19T10:19:21Z</time>
      </trkpt>
      <trkpt lat="45.9283" lon="6.49962">
        <ele>1501</ele>
        <time>2022-02-19T10:19:24Z</time>
      </trkpt>
      <trkpt lat="45.9283" lon="6.49964">
        <ele>1501</ele>
        <time>2022-02-19T10:19:27Z</time>
      </trkpt>
      <trkpt lat="45.92828" lon="6.49966">
        <ele>1501</ele>
        <time>2022-02-19T10:19:30Z</time>
      </trkpt>
      <trkpt lat="45.92827" lon="6.49968">
        <ele>1501</ele>
        <time>2022-02-19T10:19:33Z</time>
      </trkpt>
      <trkpt lat="45.92826" lon="6.49971">
        <ele>1502</ele>
        <time>2022-02-19T10:19:36Z</time>
      </trkpt>
      <trkpt lat="45.92824" lon="6.49974">
        <ele>1502</ele>
        <time>2022-02-19T10:19:39Z</time>
      </trkpt>
      <trkpt lat="45.92823" lon="6.49976">
        <ele>1502</ele>
        <time>2022-02-19T10:19:42Z</time>
      </trkpt>
      <trkpt lat="45.92822" lon="6.49979">
        <ele>1502</ele>
        <time>2022-02-19T10:19:46Z</time>
      </trkpt>
      <trkpt lat="45.92821" lon="6.49982">
        <ele>1503</ele>
        <time>2022-02-19T10:19:49Z</time>
      </trkpt>
      <trkpt lat="45.9282" lon="6.49984">
        <ele>1504</ele>
        <time>2022-02-19T10:19:52Z</time>
      </trkpt>
      <trkpt lat="45.92819" lon="6.49987">
        <ele>1504</ele>
        <time>2022-02-19T10:19:55Z</time>
      </trkpt>
      <trkpt lat="45.92818" lon="6.49989">
        <ele>1505</ele>
        <time>2022-02-19T10:19:58Z</time>
      </trkpt>
      <trkpt lat="45.92817" lon="6.49992">
        <ele>1506</ele>
        <time>2022-02-19T10:20:01Z</time>
      </trkpt>
      <trkpt lat="45.92816" lon="6.49994">
        <ele>1506</ele>
        <time>2022-02-19T10:20:04Z</time>
      </trkpt>
      <trkpt lat="45.92815" lon="6.49997">
        <ele>1506</ele>
        <time>2022-02-19T10:20:07Z</time>
      </trkpt>
      <trkpt lat="45.92814" lon="6.49999">
        <ele>1506</ele>
        <time>2022-02-19T10:20:10Z</time>
      </trkpt>
      <trkpt lat="45.92813" lon="6.50002">
        <ele>1507</ele>
        <time>2022-02-19T10:20:14Z</time>
      </trkpt>
      <trkpt lat="45.92811" lon="6.50004">
        <ele>1508</ele>
        <time>2022-02-19T10:20:25Z</time>
      </trkpt>
      <trkpt lat="45.9281" lon="6.50007">
        <ele>1509</ele>
        <time>2022-02-19T10:20:29Z</time>
      </trkpt>
      <trkpt lat="45.92808" lon="6.50008">
        <ele>1509</ele>
        <time>2022-02-19T10:20:32Z</time>
      </trkpt>
      <trkpt lat="45.92806" lon="6.50008">
        <ele>1509</ele>
        <time>2022-02-19T10:20:52Z</time>
      </trkpt>
      <trkpt lat="45.92804" lon="6.50008">
        <ele>1509</ele>
        <time>2022-02-19T10:20:56Z</time>
      </trkpt>
      <trkpt lat="45.92802" lon="6.50006">
        <ele>1509</ele>
        <time>2022-02-19T10:21:00Z</time>
      </trkpt>
      <trkpt lat="45.928" lon="6.50005">
        <ele>1509</ele>
        <time>2022-02-19T10:21:04Z</time>
      </trkpt>
      <trkpt lat="45.92798" lon="6.50005">
        <ele>1509</ele>
        <time>2022-02-19T10:21:07Z</time>
      </trkpt>
      <trkpt lat="45.92796" lon="6.50004">
        <ele>1510</ele>
        <time>2022-02-19T10:21:10Z</time>
      </trkpt>
      <trkpt lat="45.92794" lon="6.50004">
        <ele>1511</ele>
        <time>2022-02-19T10:21:14Z</time>
      </trkpt>
      <trkpt lat="45.92792" lon="6.50003">
        <ele>1512</ele>
        <time>2022-02-19T10:21:21Z</time>
      </trkpt>
      <trkpt lat="45.9279" lon="6.50003">
        <ele>1513</ele>
        <time>2022-02-19T10:21:29Z</time>
      </trkpt>
      <trkpt lat="45.92788" lon="6.50002">
        <ele>1514</ele>
        <time>2022-02-19T10:21:33Z</time>
      </trkpt>
      <trkpt lat="45.92786" lon="6.50001">
        <ele>1514</ele>
        <time>2022-02-19T10:21:38Z</time>
      </trkpt>
      <trkpt lat="45.92783" lon="6.50001">
        <ele>1516</ele>
        <time>2022-02-19T10:21:43Z</time>
      </trkpt>
      <trkpt lat="45.92782" lon="6.50001">
        <ele>1516</ele>
        <time>2022-02-19T10:22:02Z</time>
      </trkpt>
      <trkpt lat="45.9278" lon="6.50001">
        <ele>1516</ele>
        <time>2022-02-19T10:22:19Z</time>
      </trkpt>
      <trkpt lat="45.92778" lon="6.50001">
        <ele>1517</ele>
        <time>2022-02-19T10:22:23Z</time>
      </trkpt>
      <trkpt lat="45.92776" lon="6.50001">
        <ele>1517</ele>
        <time>2022-02-19T10:22:32Z</time>
      </trkpt>
      <trkpt lat="45.92774" lon="6.50001">
        <ele>1517</ele>
        <time>2022-02-19T10:22:41Z</time>
      </trkpt>
      <trkpt lat="45.92772" lon="6.5">
        <ele>1518</ele>
        <time>2022-02-19T10:22:50Z</time>
      </trkpt>
      <trkpt lat="45.92772" lon="6.50003">
        <ele>1518</ele>
        <time>2022-02-19T10:22:58Z</time>
      </trkpt>
      <trkpt lat="45.92774" lon="6.50005">
        <ele>1518</ele>
        <time>2022-02-19T10:23:01Z</time>
      </trkpt>
      <trkpt lat="45.92776" lon="6.50007">
        <ele>1518</ele>
        <time>2022-02-19T10:23:04Z</time>
      </trkpt>
      <trkpt lat="45.92778" lon="6.50009">
        <ele>1519</ele>
        <time>2022-02-19T10:23:08Z</time>
      </trkpt>
      <trkpt lat="45.92778" lon="6.50012">
        <ele>1520</ele>
        <time>2022-02-19T10:23:13Z</time>
      </trkpt>
      <trkpt lat="45.92777" lon="6.50013">
        <ele>1520</ele>
        <time>2022-02-19T10:23:16Z</time>
      </trkpt>
      <trkpt lat="45.92774" lon="6.50015">
        <ele>1521</ele>
        <time>2022-02-19T10:23:20Z</time>
      </trkpt>
      <trkpt lat="45.92772" lon="6.50014">
        <ele>1522</ele>
        <time>2022-02-19T10:23:24Z</time>
      </trkpt>
      <trkpt lat="45.9277" lon="6.50012">
        <ele>1522</ele>
        <time>2022-02-19T10:23:28Z</time>
      </trkpt>
      <trkpt lat="45.92768" lon="6.50012">
        <ele>1523</ele>
        <time>2022-02-19T10:23:32Z</time>
      </trkpt>
      <trkpt lat="45.92766" lon="6.50012">
        <ele>1523</ele>
        <time>2022-02-19T10:23:35Z</time>
      </trkpt>
      <trkpt lat="45.92764" lon="6.5001">
        <ele>1524</ele>
        <time>2022-02-19T10:23:39Z</time>
      </trkpt>
      <trkpt lat="45.92762" lon="6.5001">
        <ele>1525</ele>
        <time>2022-02-19T10:23:43Z</time>
      </trkpt>
      <trkpt lat="45.9276" lon="6.50011">
        <ele>1526</ele>
        <time>2022-02-19T10:23:47Z</time>
      </trkpt>
      <trkpt lat="45.92758" lon="6.5001">
        <ele>1526</ele>
        <time>2022-02-19T10:23:51Z</time>
      </trkpt>
      <trkpt lat="45.92755" lon="6.50009">
        <ele>1527</ele>
        <time>2022-02-19T10:23:54Z</time>
      </trkpt>
      <trkpt lat="45.92753" lon="6.50008">
        <ele>1527</ele>
        <time>2022-02-19T10:23:58Z</time>
      </trkpt>
      <trkpt lat="45.92752" lon="6.50007">
        <ele>1527</ele>
        <time>2022-02-19T10:24:01Z</time>
      </trkpt>
      <trkpt lat="45.9275" lon="6.50006">
        <ele>1527</ele>
        <time>2022-02-19T10:24:04Z</time>
      </trkpt>
      <trkpt lat="45.92748" lon="6.50006">
        <ele>1527</ele>
        <time>2022-02-19T10:24:07Z</time>
      </trkpt>
      <trkpt lat="45.92746" lon="6.50007">
        <ele>1528</ele>
        <time>2022-02-19T10:24:13Z</time>
      </trkpt>
      <trkpt lat="45.92744" lon="6.50006">
        <ele>1528</ele>
        <time>2022-02-19T10:24:18Z</time>
      </trkpt>
      <trkpt lat="45.92742" lon="6.50006">
        <ele>1529</ele>
        <time>2022-02-19T10:24:22Z</time>
      </trkpt>
      <trkpt lat="45.9274" lon="6.50007">
        <ele>1531</ele>
        <time>2022-02-19T10:24:26Z</time>
      </trkpt>
      <trkpt lat="45.92738" lon="6.50007">
        <ele>1531</ele>
        <time>2022-02-19T10:24:30Z</time>
      </trkpt>
      <trkpt lat="45.92736" lon="6.50007">
        <ele>1532</ele>
        <time>2022-02-19T10:24:34Z</time>
      </trkpt>
      <trkpt lat="45.92734" lon="6.50007">
        <ele>1532</ele>
        <time>2022-02-19T10:24:38Z</time>
      </trkpt>
      <trkpt lat="45.92732" lon="6.50007">
        <ele>1533</ele>
        <time>2022-02-19T10:24:42Z</time>
      </trkpt>
      <trkpt lat="45.9273" lon="6.50006">
        <ele>1533</ele>
        <time>2022-02-19T10:24:46Z</time>
      </trkpt>
      <trkpt lat="45.92729" lon="6.50004">
        <ele>1534</ele>
        <time>2022-02-19T10:24:51Z</time>
      </trkpt>
      <trkpt lat="45.92728" lon="6.50001">
        <ele>1535</ele>
        <time>2022-02-19T10:25:05Z</time>
      </trkpt>
      <trkpt lat="45.92727" lon="6.49999">
        <ele>1535</ele>
        <time>2022-02-19T10:25:13Z</time>
      </trkpt>
      <trkpt lat="45.92725" lon="6.50001">
        <ele>1536</ele>
        <time>2022-02-19T10:25:18Z</time>
      </trkpt>
      <trkpt lat="45.92724" lon="6.50003">
        <ele>1537</ele>
        <time>2022-02-19T10:25:22Z</time>
      </trkpt>
      <trkpt lat="45.92724" lon="6.50006">
        <ele>1537</ele>
        <time>2022-02-19T10:25:30Z</time>
      </trkpt>
      <trkpt lat="45.92722" lon="6.50006">
        <ele>1538</ele>
        <time>2022-02-19T10:25:45Z</time>
      </trkpt>
      <trkpt lat="45.9272" lon="6.50004">
        <ele>1538</ele>
        <time>2022-02-19T10:25:48Z</time>
      </trkpt>
      <trkpt lat="45.92719" lon="6.50002">
        <ele>1539</ele>
        <time>2022-02-19T10:25:51Z</time>
      </trkpt>
      <trkpt lat="45.92717" lon="6.50001">
        <ele>1540</ele>
        <time>2022-02-19T10:25:54Z</time>
      </trkpt>
      <trkpt lat="45.92715" lon="6.5">
        <ele>1540</ele>
        <time>2022-02-19T10:25:58Z</time>
      </trkpt>
      <trkpt lat="45.92713" lon="6.49999">
        <ele>1542</ele>
        <time>2022-02-19T10:26:03Z</time>
      </trkpt>
      <trkpt lat="45.92712" lon="6.49997">
        <ele>1542</ele>
        <time>2022-02-19T10:26:06Z</time>
      </trkpt>
      <trkpt lat="45.9271" lon="6.49996">
        <ele>1543</ele>
        <time>2022-02-19T10:26:13Z</time>
      </trkpt>
      <trkpt lat="45.92708" lon="6.49995">
        <ele>1543</ele>
        <time>2022-02-19T10:26:17Z</time>
      </trkpt>
      <trkpt lat="45.92706" lon="6.49996">
        <ele>1544</ele>
        <time>2022-02-19T10:26:21Z</time>
      </trkpt>
      <trkpt lat="45.92704" lon="6.49997">
        <ele>1544</ele>
        <time>2022-02-19T10:26:25Z</time>
      </trkpt>
      <trkpt lat="45.92704" lon="6.5">
        <ele>1545</ele>
        <time>2022-02-19T10:26:29Z</time>
      </trkpt>
      <trkpt lat="45.92702" lon="6.50002">
        <ele>1546</ele>
        <time>2022-02-19T10:26:34Z</time>
      </trkpt>
      <trkpt lat="45.927" lon="6.50001">
        <ele>1547</ele>
        <time>2022-02-19T10:26:39Z</time>
      </trkpt>
      <trkpt lat="45.92698" lon="6.50001">
        <ele>1548</ele>
        <time>2022-02-19T10:26:43Z</time>
      </trkpt>
      <trkpt lat="45.92697" lon="6.50003">
        <ele>1549</ele>
        <time>2022-02-19T10:26:47Z</time>
      </trkpt>
      <trkpt lat="45.92697" lon="6.50006">
        <ele>1549</ele>
        <time>2022-02-19T10:26:56Z</time>
      </trkpt>
      <trkpt lat="45.92694" lon="6.50007">
        <ele>1550</ele>
        <time>2022-02-19T10:27:13Z</time>
      </trkpt>
      <trkpt lat="45.92692" lon="6.50007">
        <ele>1552</ele>
        <time>2022-02-19T10:27:20Z</time>
      </trkpt>
      <trkpt lat="45.92692" lon="6.5001">
        <ele>1553</ele>
        <time>2022-02-19T10:27:25Z</time>
      </trkpt>
      <trkpt lat="45.92692" lon="6.50013">
        <ele>1553</ele>
        <time>2022-02-19T10:27:35Z</time>
      </trkpt>
      <trkpt lat="45.92692" lon="6.50016">
        <ele>1553</ele>
        <time>2022-02-19T10:27:38Z</time>
      </trkpt>
      <trkpt lat="45.92693" lon="6.50019">
        <ele>1554</ele>
        <time>2022-02-19T10:27:42Z</time>
      </trkpt>
      <trkpt lat="45.92694" lon="6.50021">
        <ele>1555</ele>
        <time>2022-02-19T10:27:49Z</time>
      </trkpt>
      <trkpt lat="45.92692" lon="6.50022">
        <ele>1555</ele>
        <time>2022-02-19T10:28:04Z</time>
      </trkpt>
      <trkpt lat="45.9269" lon="6.50023">
        <ele>1556</ele>
        <time>2022-02-19T10:28:07Z</time>
      </trkpt>
      <trkpt lat="45.92688" lon="6.50023">
        <ele>1556</ele>
        <time>2022-02-19T10:28:10Z</time>
      </trkpt>
      <trkpt lat="45.92686" lon="6.50023">
        <ele>1557</ele>
        <time>2022-02-19T10:28:14Z</time>
      </trkpt>
      <trkpt lat="45.92684" lon="6.50023">
        <ele>1557</ele>
        <time>2022-02-19T10:28:17Z</time>
      </trkpt>
      <trkpt lat="45.92682" lon="6.50023">
        <ele>1558</ele>
        <time>2022-02-19T10:28:20Z</time>
      </trkpt>
      <trkpt lat="45.9268" lon="6.50024">
        <ele>1559</ele>
        <time>2022-02-19T10:28:24Z</time>
      </trkpt>
      <trkpt lat="45.92681" lon="6.50027">
        <ele>1559</ele>
        <time>2022-02-19T10:28:28Z</time>
      </trkpt>
      <trkpt lat="45.92681" lon="6.5003">
        <ele>1559</ele>
        <time>2022-02-19T10:28:32Z</time>
      </trkpt>
      <trkpt lat="45.92682" lon="6.50033">
        <ele>1560</ele>
        <time>2022-02-19T10:28:36Z</time>
      </trkpt>
      <trkpt lat="45.92683" lon="6.50036">
        <ele>1561</ele>
        <time>2022-02-19T10:28:40Z</time>
      </trkpt>
      <trkpt lat="45.92684" lon="6.50039">
        <ele>1562</ele>
        <time>2022-02-19T10:28:44Z</time>
      </trkpt>
      <trkpt lat="45.92686" lon="6.50041">
        <ele>1562</ele>
        <time>2022-02-19T10:28:48Z</time>
      </trkpt>
      <trkpt lat="45.92687" lon="6.50043">
        <ele>1563</ele>
        <time>2022-02-19T10:28:51Z</time>
      </trkpt>
      <trkpt lat="45.92689" lon="6.50045">
        <ele>1564</ele>
        <time>2022-02-19T10:28:54Z</time>
      </trkpt>
      <trkpt lat="45.9269" lon="6.50047">
        <ele>1564</ele>
        <time>2022-02-19T10:28:58Z</time>
      </trkpt>
      <trkpt lat="45.92692" lon="6.50049">
        <ele>1564</ele>
        <time>2022-02-19T10:29:01Z</time>
      </trkpt>
      <trkpt lat="45.92693" lon="6.50052">
        <ele>1565</ele>
        <time>2022-02-19T10:29:05Z</time>
      </trkpt>
      <trkpt lat="45.92695" lon="6.50054">
        <ele>1567</ele>
        <time>2022-02-19T10:29:09Z</time>
      </trkpt>
      <trkpt lat="45.92695" lon="6.50057">
        <ele>1567</ele>
        <time>2022-02-19T10:29:12Z</time>
      </trkpt>
      <trkpt lat="45.92696" lon="6.50059">
        <ele>1567</ele>
        <time>2022-02-19T10:29:15Z</time>
      </trkpt>
      <trkpt lat="45.92697" lon="6.50062">
        <ele>1568</ele>
        <time>2022-02-19T10:29:19Z</time>
      </trkpt>
      <trkpt lat="45.92697" lon="6.50065">
        <ele>1568</ele>
        <time>2022-02-19T10:29:22Z</time>
      </trkpt>
      <trkpt lat="45.92698" lon="6.50068">
        <ele>1569</ele>
        <time>2022-02-19T10:29:26Z</time>
      </trkpt>
      <trkpt lat="45.92699" lon="6.5007">
        <ele>1570</ele>
        <time>2022-02-19T10:29:30Z</time>
      </trkpt>
      <trkpt lat="45.927" lon="6.50073">
        <ele>1571</ele>
        <time>2022-02-19T10:29:34Z</time>
      </trkpt>
      <trkpt lat="45.92699" lon="6.50076">
        <ele>1572</ele>
        <time>2022-02-19T10:29:37Z</time>
      </trkpt>
      <trkpt lat="45.92697" lon="6.50078">
        <ele>1572</ele>
        <time>2022-02-19T10:29:42Z</time>
      </trkpt>
      <trkpt lat="45.92696" lon="6.5008">
        <ele>1573</ele>
        <time>2022-02-19T10:29:45Z</time>
      </trkpt>
      <trkpt lat="45.92695" lon="6.50082">
        <ele>1574</ele>
        <time>2022-02-19T10:29:48Z</time>
      </trkpt>
      <trkpt lat="45.92695" lon="6.50086">
        <ele>1575</ele>
        <time>2022-02-19T10:29:53Z</time>
      </trkpt>
      <trkpt lat="45.92695" lon="6.50088">
        <ele>1575</ele>
        <time>2022-02-19T10:29:57Z</time>
      </trkpt>
      <trkpt lat="45.92694" lon="6.50092">
        <ele>1575</ele>
        <time>2022-02-19T10:30:02Z</time>
      </trkpt>
      <trkpt lat="45.92694" lon="6.50094">
        <ele>1575</ele>
        <time>2022-02-19T10:30:05Z</time>
      </trkpt>
      <trkpt lat="45.92695" lon="6.50097">
        <ele>1576</ele>
        <time>2022-02-19T10:30:08Z</time>
      </trkpt>
      <trkpt lat="45.92695" lon="6.50099">
        <ele>1577</ele>
        <time>2022-02-19T10:30:11Z</time>
      </trkpt>
      <trkpt lat="45.92697" lon="6.50102">
        <ele>1577</ele>
        <time>2022-02-19T10:30:14Z</time>
      </trkpt>
      <trkpt lat="45.92698" lon="6.50104">
        <ele>1577</ele>
        <time>2022-02-19T10:30:17Z</time>
      </trkpt>
      <trkpt lat="45.92699" lon="6.50106">
        <ele>1577</ele>
        <time>2022-02-19T10:30:20Z</time>
      </trkpt>
      <trkpt lat="45.92701" lon="6.50108">
        <ele>1577</ele>
        <time>2022-02-19T10:30:23Z</time>
      </trkpt>
      <trkpt lat="45.92703" lon="6.50108">
        <ele>1578</ele>
        <time>2022-02-19T10:30:30Z</time>
      </trkpt>
      <trkpt lat="45.92703" lon="6.50111">
        <ele>1580</ele>
        <time>2022-02-19T10:30:46Z</time>
      </trkpt>
      <trkpt lat="45.92702" lon="6.50113">
        <ele>1581</ele>
        <time>2022-02-19T10:30:50Z</time>
      </trkpt>
      <trkpt lat="45.92701" lon="6.50116">
        <ele>1582</ele>
        <time>2022-02-19T10:30:53Z</time>
      </trkpt>
      <trkpt lat="45.927" lon="6.50118">
        <ele>1582</ele>
        <time>2022-02-19T10:30:57Z</time>
      </trkpt>
      <trkpt lat="45.92699" lon="6.50121">
        <ele>1582</ele>
        <time>2022-02-19T10:31:01Z</time>
      </trkpt>
      <trkpt lat="45.92698" lon="6.50123">
        <ele>1583</ele>
        <time>2022-02-19T10:31:05Z</time>
      </trkpt>
      <trkpt lat="45.92697" lon="6.50126">
        <ele>1584</ele>
        <time>2022-02-19T10:31:09Z</time>
      </trkpt>
      <trkpt lat="45.92695" lon="6.50128">
        <ele>1585</ele>
        <time>2022-02-19T10:31:13Z</time>
      </trkpt>
      <trkpt lat="45.92694" lon="6.50129">
        <ele>1586</ele>
        <time>2022-02-19T10:31:17Z</time>
      </trkpt>
      <trkpt lat="45.92692" lon="6.50132">
        <ele>1586</ele>
        <time>2022-02-19T10:31:21Z</time>
      </trkpt>
      <trkpt lat="45.92691" lon="6.50134">
        <ele>1586</ele>
        <time>2022-02-19T10:31:25Z</time>
      </trkpt>
      <trkpt lat="45.92689" lon="6.50136">
        <ele>1587</ele>
        <time>2022-02-19T10:31:31Z</time>
      </trkpt>
      <trkpt lat="45.9269" lon="6.50139">
        <ele>1588</ele>
        <time>2022-02-19T10:31:34Z</time>
      </trkpt>
      <trkpt lat="45.92692" lon="6.50141">
        <ele>1589</ele>
        <time>2022-02-19T10:31:37Z</time>
      </trkpt>
      <trkpt lat="45.92694" lon="6.50142">
        <ele>1589</ele>
        <time>2022-02-19T10:31:40Z</time>
      </trkpt>
      <trkpt lat="45.92696" lon="6.50143">
        <ele>1590</ele>
        <time>2022-02-19T10:31:43Z</time>
      </trkpt>
      <trkpt lat="45.92697" lon="6.50145">
        <ele>1590</ele>
        <time>2022-02-19T10:31:46Z</time>
      </trkpt>
      <trkpt lat="45.92699" lon="6.50147">
        <ele>1591</ele>
        <time>2022-02-19T10:31:51Z</time>
      </trkpt>
      <trkpt lat="45.92699" lon="6.5015">
        <ele>1591</ele>
        <time>2022-02-19T10:31:55Z</time>
      </trkpt>
      <trkpt lat="45.92699" lon="6.50153">
        <ele>1592</ele>
        <time>2022-02-19T10:31:59Z</time>
      </trkpt>
      <trkpt lat="45.92699" lon="6.50156">
        <ele>1593</ele>
        <time>2022-02-19T10:32:03Z</time>
      </trkpt>
      <trkpt lat="45.92699" lon="6.50159">
        <ele>1594</ele>
        <time>2022-02-19T10:32:07Z</time>
      </trkpt>
      <trkpt lat="45.927" lon="6.50162">
        <ele>1595</ele>
        <time>2022-02-19T10:32:11Z</time>
      </trkpt>
      <trkpt lat="45.927" lon="6.50165">
        <ele>1595</ele>
        <time>2022-02-19T10:32:15Z</time>
      </trkpt>
      <trkpt lat="45.927" lon="6.50168">
        <ele>1596</ele>
        <time>2022-02-19T10:32:19Z</time>
      </trkpt>
      <trkpt lat="45.927" lon="6.50171">
        <ele>1597</ele>
        <time>2022-02-19T10:32:34Z</time>
      </trkpt>
      <trkpt lat="45.92699" lon="6.50174">
        <ele>1597</ele>
        <time>2022-02-19T10:32:42Z</time>
      </trkpt>
      <trkpt lat="45.927" lon="6.50177">
        <ele>1597</ele>
        <time>2022-02-19T10:32:47Z</time>
      </trkpt>
      <trkpt lat="45.927" lon="6.5018">
        <ele>1598</ele>
        <time>2022-02-19T10:32:51Z</time>
      </trkpt>
      <trkpt lat="45.92701" lon="6.50183">
        <ele>1600</ele>
        <time>2022-02-19T10:32:55Z</time>
      </trkpt>
      <trkpt lat="45.92701" lon="6.50186">
        <ele>1600</ele>
        <time>2022-02-19T10:32:59Z</time>
      </trkpt>
      <trkpt lat="45.92702" lon="6.50188">
        <ele>1600</ele>
        <time>2022-02-19T10:33:03Z</time>
      </trkpt>
      <trkpt lat="45.92703" lon="6.50191">
        <ele>1601</ele>
        <time>2022-02-19T10:33:07Z</time>
      </trkpt>
      <trkpt lat="45.92704" lon="6.50194">
        <ele>1601</ele>
        <time>2022-02-19T10:33:12Z</time>
      </trkpt>
      <trkpt lat="45.92705" lon="6.50196">
        <ele>1602</ele>
        <time>2022-02-19T10:33:16Z</time>
      </trkpt>
      <trkpt lat="45.92706" lon="6.50199">
        <ele>1603</ele>
        <time>2022-02-19T10:33:20Z</time>
      </trkpt>
      <trkpt lat="45.92707" lon="6.50202">
        <ele>1604</ele>
        <time>2022-02-19T10:33:24Z</time>
      </trkpt>
      <trkpt lat="45.92708" lon="6.50204">
        <ele>1605</ele>
        <time>2022-02-19T10:33:28Z</time>
      </trkpt>
      <trkpt lat="45.92709" lon="6.50206">
        <ele>1605</ele>
        <time>2022-02-19T10:33:32Z</time>
      </trkpt>
      <trkpt lat="45.92711" lon="6.50208">
        <ele>1605</ele>
        <time>2022-02-19T10:33:36Z</time>
      </trkpt>
      <trkpt lat="45.92713" lon="6.5021">
        <ele>1607</ele>
        <time>2022-02-19T10:33:40Z</time>
      </trkpt>
      <trkpt lat="45.92713" lon="6.50213">
        <ele>1607</ele>
        <time>2022-02-19T10:33:43Z</time>
      </trkpt>
      <trkpt lat="45.92713" lon="6.50216">
        <ele>1608</ele>
        <time>2022-02-19T10:33:46Z</time>
      </trkpt>
      <trkpt lat="45.92714" lon="6.50219">
        <ele>1608</ele>
        <time>2022-02-19T10:33:50Z</time>
      </trkpt>
      <trkpt lat="45.92715" lon="6.50221">
        <ele>1609</ele>
        <time>2022-02-19T10:33:53Z</time>
      </trkpt>
      <trkpt lat="45.92716" lon="6.50223">
        <ele>1609</ele>
        <time>2022-02-19T10:33:57Z</time>
      </trkpt>
      <trkpt lat="45.92718" lon="6.50225">
        <ele>1610</ele>
        <time>2022-02-19T10:34:01Z</time>
      </trkpt>
      <trkpt lat="45.92717" lon="6.50228">
        <ele>1611</ele>
        <time>2022-02-19T10:34:16Z</time>
      </trkpt>
      <trkpt lat="45.92718" lon="6.5023">
        <ele>1611</ele>
        <time>2022-02-19T10:34:26Z</time>
      </trkpt>
      <trkpt lat="45.9272" lon="6.50231">
        <ele>1612</ele>
        <time>2022-02-19T10:34:32Z</time>
      </trkpt>
      <trkpt lat="45.92722" lon="6.50233">
        <ele>1612</ele>
        <time>2022-02-19T10:34:38Z</time>
      </trkpt>
      <trkpt lat="45.9272" lon="6.50234">
        <ele>1615</ele>
        <time>2022-02-19T10:35:03Z</time>
      </trkpt>
      <trkpt lat="45.92718" lon="6.50236">
        <ele>1615</ele>
        <time>2022-02-19T10:35:06Z</time>
      </trkpt>
      <trkpt lat="45.92717" lon="6.50237">
        <ele>1616</ele>
        <time>2022-02-19T10:35:09Z</time>
      </trkpt>
      <trkpt lat="45.92715" lon="6.50239">
        <ele>1616</ele>
        <time>2022-02-19T10:35:12Z</time>
      </trkpt>
      <trkpt lat="45.92713" lon="6.5024">
        <ele>1618</ele>
        <time>2022-02-19T10:35:16Z</time>
      </trkpt>
      <trkpt lat="45.92712" lon="6.5024">
        <ele>1618</ele>
        <time>2022-02-19T10:35:19Z</time>
      </trkpt>
      <trkpt lat="45.9271" lon="6.50242">
        <ele>1619</ele>
        <time>2022-02-19T10:35:23Z</time>
      </trkpt>
      <trkpt lat="45.92709" lon="6.50244">
        <ele>1620</ele>
        <time>2022-02-19T10:35:29Z</time>
      </trkpt>
      <trkpt lat="45.92707" lon="6.50243">
        <ele>1620</ele>
        <time>2022-02-19T10:35:41Z</time>
      </trkpt>
      <trkpt lat="45.92705" lon="6.50244">
        <ele>1621</ele>
        <time>2022-02-19T10:35:54Z</time>
      </trkpt>
      <trkpt lat="45.92704" lon="6.50247">
        <ele>1622</ele>
        <time>2022-02-19T10:36:04Z</time>
      </trkpt>
      <trkpt lat="45.92706" lon="6.50249">
        <ele>1623</ele>
        <time>2022-02-19T10:36:15Z</time>
      </trkpt>
      <trkpt lat="45.92707" lon="6.50251">
        <ele>1623</ele>
        <time>2022-02-19T10:36:20Z</time>
      </trkpt>
      <trkpt lat="45.92709" lon="6.50252">
        <ele>1625</ele>
        <time>2022-02-19T10:36:36Z</time>
      </trkpt>
      <trkpt lat="45.92711" lon="6.50254">
        <ele>1625</ele>
        <time>2022-02-19T10:37:06Z</time>
      </trkpt>
      <trkpt lat="45.92709" lon="6.50255">
        <ele>1625</ele>
        <time>2022-02-19T10:37:15Z</time>
      </trkpt>
      <trkpt lat="45.92707" lon="6.50257">
        <ele>1626</ele>
        <time>2022-02-19T10:37:19Z</time>
      </trkpt>
      <trkpt lat="45.92705" lon="6.50257">
        <ele>1627</ele>
        <time>2022-02-19T10:37:23Z</time>
      </trkpt>
      <trkpt lat="45.92703" lon="6.50258">
        <ele>1627</ele>
        <time>2022-02-19T10:37:43Z</time>
      </trkpt>
      <trkpt lat="45.92701" lon="6.50258">
        <ele>1628</ele>
        <time>2022-02-19T10:37:52Z</time>
      </trkpt>
      <trkpt lat="45.92699" lon="6.50257">
        <ele>1629</ele>
        <time>2022-02-19T10:37:56Z</time>
      </trkpt>
      <trkpt lat="45.92697" lon="6.50258">
        <ele>1629</ele>
        <time>2022-02-19T10:38:29Z</time>
      </trkpt>
      <trkpt lat="45.92698" lon="6.5026">
        <ele>1630</ele>
        <time>2022-02-19T10:39:26Z</time>
      </trkpt>
      <trkpt lat="45.92698" lon="6.50262">
        <ele>1632</ele>
        <time>2022-02-19T10:39:40Z</time>
      </trkpt>
      <trkpt lat="45.927" lon="6.50265">
        <ele>1632</ele>
        <time>2022-02-19T10:39:53Z</time>
      </trkpt>
      <trkpt lat="45.92701" lon="6.50267">
        <ele>1633</ele>
        <time>2022-02-19T10:39:56Z</time>
      </trkpt>
      <trkpt lat="45.92702" lon="6.50269">
        <ele>1633</ele>
        <time>2022-02-19T10:40:16Z</time>
      </trkpt>
      <trkpt lat="45.92704" lon="6.50271">
        <ele>1633</ele>
        <time>2022-02-19T10:40:20Z</time>
      </trkpt>
      <trkpt lat="45.92706" lon="6.50272">
        <ele>1634</ele>
        <time>2022-02-19T10:40:34Z</time>
      </trkpt>
      <trkpt lat="45.92704" lon="6.50273">
        <ele>1634</ele>
        <time>2022-02-19T10:40:45Z</time>
      </trkpt>
      <trkpt lat="45.92702" lon="6.50274">
        <ele>1635</ele>
        <time>2022-02-19T10:41:02Z</time>
      </trkpt>
      <trkpt lat="45.927" lon="6.50274">
        <ele>1636</ele>
        <time>2022-02-19T10:41:36Z</time>
      </trkpt>
      <trkpt lat="45.927" lon="6.50271">
        <ele>1637</ele>
        <time>2022-02-19T10:41:57Z</time>
      </trkpt>
      <trkpt lat="45.92702" lon="6.5027">
        <ele>1635</ele>
        <time>2022-02-19T10:42:39Z</time>
      </trkpt>
      <trkpt lat="45.92701" lon="6.50272">
        <ele>1635</ele>
        <time>2022-02-19T10:42:58Z</time>
      </trkpt>
      <trkpt lat="45.92699" lon="6.50269">
        <ele>1636</ele>
        <time>2022-02-19T10:43:25Z</time>
      </trkpt>
      <trkpt lat="45.92699" lon="6.50272">
        <ele>1636</ele>
        <time>2022-02-19T10:44:15Z</time>
      </trkpt>
      <trkpt lat="45.927" lon="6.50275">
        <ele>1636</ele>
        <time>2022-02-19T10:44:37Z</time>
      </trkpt>
      <trkpt lat="45.92701" lon="6.50277">
        <ele>1637</ele>
        <time>2022-02-19T10:44:42Z</time>
      </trkpt>
      <trkpt lat="45.92703" lon="6.50279">
        <ele>1637</ele>
        <time>2022-02-19T10:44:45Z</time>
      </trkpt>
      <trkpt lat="45.92704" lon="6.50281">
        <ele>1637</ele>
        <time>2022-02-19T10:44:49Z</time>
      </trkpt>
      <trkpt lat="45.92706" lon="6.50282">
        <ele>1637</ele>
        <time>2022-02-19T10:44:52Z</time>
      </trkpt>
      <trkpt lat="45.92708" lon="6.50283">
        <ele>1639</ele>
        <time>2022-02-19T10:44:57Z</time>
      </trkpt>
      <trkpt lat="45.9271" lon="6.50283">
        <ele>1639</ele>
        <time>2022-02-19T10:45:02Z</time>
      </trkpt>
      <trkpt lat="45.92712" lon="6.50284">
        <ele>1639</ele>
        <time>2022-02-19T10:45:05Z</time>
      </trkpt>
      <trkpt lat="45.92714" lon="6.50285">
        <ele>1641</ele>
        <time>2022-02-19T10:45:08Z</time>
      </trkpt>
      <trkpt lat="45.92716" lon="6.50285">
        <ele>1641</ele>
        <time>2022-02-19T10:45:11Z</time>
      </trkpt>
      <trkpt lat="45.92718" lon="6.50286">
        <ele>1642</ele>
        <time>2022-02-19T10:45:16Z</time>
      </trkpt>
      <trkpt lat="45.9272" lon="6.50286">
        <ele>1642</ele>
        <time>2022-02-19T10:45:18Z</time>
      </trkpt>
      <trkpt lat="45.92722" lon="6.50286">
        <ele>1642</ele>
        <time>2022-02-19T10:45:21Z</time>
      </trkpt>
      <trkpt lat="45.92724" lon="6.50285">
        <ele>1643</ele>
        <time>2022-02-19T10:45:25Z</time>
      </trkpt>
      <trkpt lat="45.92726" lon="6.50286">
        <ele>1644</ele>
        <time>2022-02-19T10:45:29Z</time>
      </trkpt>
      <trkpt lat="45.92726" lon="6.50288">
        <ele>1643</ele>
        <time>2022-02-19T10:46:02Z</time>
      </trkpt>
      <trkpt lat="45.92724" lon="6.50289">
        <ele>1643</ele>
        <time>2022-02-19T10:47:56Z</time>
      </trkpt>
      <trkpt lat="45.92723" lon="6.50292">
        <ele>1643</ele>
        <time>2022-02-19T10:48:00Z</time>
      </trkpt>
      <trkpt lat="45.92724" lon="6.50294">
        <ele>1644</ele>
        <time>2022-02-19T10:48:06Z</time>
      </trkpt>
      <trkpt lat="45.92725" lon="6.50297">
        <ele>1644</ele>
        <time>2022-02-19T10:48:10Z</time>
      </trkpt>
      <trkpt lat="45.92724" lon="6.503">
        <ele>1645</ele>
        <time>2022-02-19T10:48:14Z</time>
      </trkpt>
      <trkpt lat="45.92722" lon="6.50302">
        <ele>1645</ele>
        <time>2022-02-19T10:48:56Z</time>
      </trkpt>
      <trkpt lat="45.92721" lon="6.50305">
        <ele>1646</ele>
        <time>2022-02-19T10:49:00Z</time>
      </trkpt>
      <trkpt lat="45.9272" lon="6.50307">
        <ele>1647</ele>
        <time>2022-02-19T10:49:04Z</time>
      </trkpt>
      <trkpt lat="45.92719" lon="6.5031">
        <ele>1648</ele>
        <time>2022-02-19T10:49:08Z</time>
      </trkpt>
      <trkpt lat="45.92718" lon="6.50312">
        <ele>1648</ele>
        <time>2022-02-19T10:49:12Z</time>
      </trkpt>
      <trkpt lat="45.92717" lon="6.50315">
        <ele>1649</ele>
        <time>2022-02-19T10:49:16Z</time>
      </trkpt>
      <trkpt lat="45.92715" lon="6.50317">
        <ele>1651</ele>
        <time>2022-02-19T10:49:21Z</time>
      </trkpt>
      <trkpt lat="45.92714" lon="6.50319">
        <ele>1652</ele>
        <time>2022-02-19T10:49:27Z</time>
      </trkpt>
      <trkpt lat="45.92712" lon="6.50321">
        <ele>1652</ele>
        <time>2022-02-19T10:49:31Z</time>
      </trkpt>
      <trkpt lat="45.92711" lon="6.50323">
        <ele>1653</ele>
        <time>2022-02-19T10:49:35Z</time>
      </trkpt>
      <trkpt lat="45.92709" lon="6.50324">
        <ele>1654</ele>
        <time>2022-02-19T10:49:39Z</time>
      </trkpt>
      <trkpt lat="45.92711" lon="6.50326">
        <ele>1655</ele>
        <time>2022-02-19T10:49:48Z</time>
      </trkpt>
      <trkpt lat="45.92713" lon="6.50327">
        <ele>1655</ele>
        <time>2022-02-19T10:49:51Z</time>
      </trkpt>
      <trkpt lat="45.92715" lon="6.50329">
        <ele>1656</ele>
        <time>2022-02-19T10:49:55Z</time>
      </trkpt>
      <trkpt lat="45.92716" lon="6.5033">
        <ele>1656</ele>
        <time>2022-02-19T10:49:58Z</time>
      </trkpt>
      <trkpt lat="45.92718" lon="6.5033">
        <ele>1657</ele>
        <time>2022-02-19T10:50:01Z</time>
      </trkpt>
      <trkpt lat="45.9272" lon="6.50331">
        <ele>1658</ele>
        <time>2022-02-19T10:50:04Z</time>
      </trkpt>
      <trkpt lat="45.92722" lon="6.50332">
        <ele>1658</ele>
        <time>2022-02-19T10:50:08Z</time>
      </trkpt>
      <trkpt lat="45.92725" lon="6.50333">
        <ele>1658</ele>
        <time>2022-02-19T10:50:12Z</time>
      </trkpt>
      <trkpt lat="45.92727" lon="6.50335">
        <ele>1659</ele>
        <time>2022-02-19T10:50:16Z</time>
      </trkpt>
      <trkpt lat="45.92729" lon="6.50337">
        <ele>1659</ele>
        <time>2022-02-19T10:50:20Z</time>
      </trkpt>
      <trkpt lat="45.9273" lon="6.50339">
        <ele>1659</ele>
        <time>2022-02-19T10:50:24Z</time>
      </trkpt>
      <trkpt lat="45.92732" lon="6.50341">
        <ele>1659</ele>
        <time>2022-02-19T10:50:28Z</time>
      </trkpt>
      <trkpt lat="45.92731" lon="6.50343">
        <ele>1661</ele>
        <time>2022-02-19T10:50:39Z</time>
      </trkpt>
      <trkpt lat="45.92729" lon="6.50345">
        <ele>1662</ele>
        <time>2022-02-19T10:50:43Z</time>
      </trkpt>
      <trkpt lat="45.92727" lon="6.50348">
        <ele>1663</ele>
        <time>2022-02-19T10:50:47Z</time>
      </trkpt>
      <trkpt lat="45.92726" lon="6.5035">
        <ele>1663</ele>
        <time>2022-02-19T10:50:51Z</time>
      </trkpt>
      <trkpt lat="45.92725" lon="6.50352">
        <ele>1664</ele>
        <time>2022-02-19T10:50:57Z</time>
      </trkpt>
      <trkpt lat="45.92723" lon="6.50354">
        <ele>1666</ele>
        <time>2022-02-19T10:51:03Z</time>
      </trkpt>
      <trkpt lat="45.92721" lon="6.50355">
        <ele>1666</ele>
        <time>2022-02-19T10:51:07Z</time>
      </trkpt>
      <trkpt lat="45.92719" lon="6.50356">
        <ele>1667</ele>
        <time>2022-02-19T10:51:11Z</time>
      </trkpt>
      <trkpt lat="45.92717" lon="6.50358">
        <ele>1668</ele>
        <time>2022-02-19T10:51:15Z</time>
      </trkpt>
      <trkpt lat="45.92716" lon="6.5036">
        <ele>1668</ele>
        <time>2022-02-19T10:51:21Z</time>
      </trkpt>
      <trkpt lat="45.92715" lon="6.50363">
        <ele>1669</ele>
        <time>2022-02-19T10:51:26Z</time>
      </trkpt>
      <trkpt lat="45.92715" lon="6.50365">
        <ele>1670</ele>
        <time>2022-02-19T10:51:30Z</time>
      </trkpt>
      <trkpt lat="45.92716" lon="6.50368">
        <ele>1671</ele>
        <time>2022-02-19T10:51:34Z</time>
      </trkpt>
      <trkpt lat="45.92717" lon="6.50371">
        <ele>1672</ele>
        <time>2022-02-19T10:51:38Z</time>
      </trkpt>
      <trkpt lat="45.92718" lon="6.50374">
        <ele>1672</ele>
        <time>2022-02-19T10:51:42Z</time>
      </trkpt>
      <trkpt lat="45.92719" lon="6.50376">
        <ele>1673</ele>
        <time>2022-02-19T10:51:45Z</time>
      </trkpt>
      <trkpt lat="45.9272" lon="6.50379">
        <ele>1673</ele>
        <time>2022-02-19T10:51:49Z</time>
      </trkpt>
      <trkpt lat="45.92721" lon="6.50381">
        <ele>1674</ele>
        <time>2022-02-19T10:51:53Z</time>
      </trkpt>
      <trkpt lat="45.92722" lon="6.50383">
        <ele>1674</ele>
        <time>2022-02-19T10:51:57Z</time>
      </trkpt>
      <trkpt lat="45.92723" lon="6.50386">
        <ele>1675</ele>
        <time>2022-02-19T10:52:01Z</time>
      </trkpt>
      <trkpt lat="45.92724" lon="6.50388">
        <ele>1676</ele>
        <time>2022-02-19T10:52:05Z</time>
      </trkpt>
      <trkpt lat="45.92725" lon="6.5039">
        <ele>1676</ele>
        <time>2022-02-19T10:52:09Z</time>
      </trkpt>
      <trkpt lat="45.92726" lon="6.50393">
        <ele>1677</ele>
        <time>2022-02-19T10:52:13Z</time>
      </trkpt>
      <trkpt lat="45.92727" lon="6.50395">
        <ele>1677</ele>
        <time>2022-02-19T10:52:17Z</time>
      </trkpt>
      <trkpt lat="45.92728" lon="6.50397">
        <ele>1678</ele>
        <time>2022-02-19T10:52:21Z</time>
      </trkpt>
      <trkpt lat="45.9273" lon="6.504">
        <ele>1678</ele>
        <time>2022-02-19T10:52:25Z</time>
      </trkpt>
      <trkpt lat="45.92731" lon="6.50401">
        <ele>1678</ele>
        <time>2022-02-19T10:52:29Z</time>
      </trkpt>
      <trkpt lat="45.92733" lon="6.50403">
        <ele>1679</ele>
        <time>2022-02-19T10:52:32Z</time>
      </trkpt>
      <trkpt lat="45.92735" lon="6.50404">
        <ele>1680</ele>
        <time>2022-02-19T10:52:35Z</time>
      </trkpt>
      <trkpt lat="45.92736" lon="6.50406">
        <ele>1680</ele>
        <time>2022-02-19T10:52:39Z</time>
      </trkpt>
      <trkpt lat="45.92737" lon="6.50409">
        <ele>1681</ele>
        <time>2022-02-19T10:52:43Z</time>
      </trkpt>
      <trkpt lat="45.92737" lon="6.50412">
        <ele>1682</ele>
        <time>2022-02-19T10:52:47Z</time>
      </trkpt>
      <trkpt lat="45.92736" lon="6.50415">
        <ele>1682</ele>
        <time>2022-02-19T10:52:50Z</time>
      </trkpt>
      <trkpt lat="45.92736" lon="6.50418">
        <ele>1682</ele>
        <time>2022-02-19T10:52:53Z</time>
      </trkpt>
      <trkpt lat="45.92735" lon="6.50421">
        <ele>1683</ele>
        <time>2022-02-19T10:52:57Z</time>
      </trkpt>
      <trkpt lat="45.92735" lon="6.50424">
        <ele>1684</ele>
        <time>2022-02-19T10:53:00Z</time>
      </trkpt>
      <trkpt lat="45.92734" lon="6.50426">
        <ele>1684</ele>
        <time>2022-02-19T10:53:03Z</time>
      </trkpt>
      <trkpt lat="45.92732" lon="6.50428">
        <ele>1685</ele>
        <time>2022-02-19T10:53:08Z</time>
      </trkpt>
      <trkpt lat="45.9273" lon="6.50428">
        <ele>1685</ele>
        <time>2022-02-19T10:53:12Z</time>
      </trkpt>
      <trkpt lat="45.92728" lon="6.50429">
        <ele>1685</ele>
        <time>2022-02-19T10:53:15Z</time>
      </trkpt>
      <trkpt lat="45.92726" lon="6.50429">
        <ele>1685</ele>
        <time>2022-02-19T10:53:19Z</time>
      </trkpt>
      <trkpt lat="45.92724" lon="6.5043">
        <ele>1686</ele>
        <time>2022-02-19T10:53:23Z</time>
      </trkpt>
      <trkpt lat="45.92722" lon="6.50431">
        <ele>1687</ele>
        <time>2022-02-19T10:53:27Z</time>
      </trkpt>
      <trkpt lat="45.9272" lon="6.50431">
        <ele>1688</ele>
        <time>2022-02-19T10:53:31Z</time>
      </trkpt>
      <trkpt lat="45.92718" lon="6.50432">
        <ele>1688</ele>
        <time>2022-02-19T10:53:34Z</time>
      </trkpt>
      <trkpt lat="45.92716" lon="6.50433">
        <ele>1689</ele>
        <time>2022-02-19T10:53:38Z</time>
      </trkpt>
      <trkpt lat="45.92715" lon="6.50435">
        <ele>1689</ele>
        <time>2022-02-19T10:53:41Z</time>
      </trkpt>
      <trkpt lat="45.92713" lon="6.50437">
        <ele>1690</ele>
        <time>2022-02-19T10:53:44Z</time>
      </trkpt>
      <trkpt lat="45.92712" lon="6.50439">
        <ele>1690</ele>
        <time>2022-02-19T10:53:48Z</time>
      </trkpt>
      <trkpt lat="45.9271" lon="6.50439">
        <ele>1691</ele>
        <time>2022-02-19T10:53:52Z</time>
      </trkpt>
      <trkpt lat="45.92708" lon="6.5044">
        <ele>1692</ele>
        <time>2022-02-19T10:53:56Z</time>
      </trkpt>
      <trkpt lat="45.92706" lon="6.50439">
        <ele>1692</ele>
        <time>2022-02-19T10:54:00Z</time>
      </trkpt>
      <trkpt lat="45.92703" lon="6.50439">
        <ele>1693</ele>
        <time>2022-02-19T10:54:04Z</time>
      </trkpt>
      <trkpt lat="45.92702" lon="6.50439">
        <ele>1693</ele>
        <time>2022-02-19T10:54:07Z</time>
      </trkpt>
      <trkpt lat="45.927" lon="6.50439">
        <ele>1693</ele>
        <time>2022-02-19T10:54:10Z</time>
      </trkpt>
      <trkpt lat="45.92698" lon="6.50438">
        <ele>1694</ele>
        <time>2022-02-19T10:54:14Z</time>
      </trkpt>
      <trkpt lat="45.92696" lon="6.50438">
        <ele>1694</ele>
        <time>2022-02-19T10:54:17Z</time>
      </trkpt>
      <trkpt lat="45.92693" lon="6.50437">
        <ele>1695</ele>
        <time>2022-02-19T10:54:21Z</time>
      </trkpt>
      <trkpt lat="45.92691" lon="6.50436">
        <ele>1696</ele>
        <time>2022-02-19T10:54:25Z</time>
      </trkpt>
      <trkpt lat="45.92689" lon="6.50435">
        <ele>1698</ele>
        <time>2022-02-19T10:54:29Z</time>
      </trkpt>
      <trkpt lat="45.92688" lon="6.50434">
        <ele>1698</ele>
        <time>2022-02-19T10:54:35Z</time>
      </trkpt>
      <trkpt lat="45.92686" lon="6.50432">
        <ele>1698</ele>
        <time>2022-02-19T10:54:38Z</time>
      </trkpt>
      <trkpt lat="45.92684" lon="6.50431">
        <ele>1699</ele>
        <time>2022-02-19T10:54:41Z</time>
      </trkpt>
      <trkpt lat="45.92683" lon="6.50429">
        <ele>1700</ele>
        <time>2022-02-19T10:54:44Z</time>
      </trkpt>
      <trkpt lat="45.9268" lon="6.50428">
        <ele>1701</ele>
        <time>2022-02-19T10:54:48Z</time>
      </trkpt>
      <trkpt lat="45.92678" lon="6.50427">
        <ele>1701</ele>
        <time>2022-02-19T10:54:52Z</time>
      </trkpt>
      <trkpt lat="45.92676" lon="6.50426">
        <ele>1702</ele>
        <time>2022-02-19T10:54:56Z</time>
      </trkpt>
      <trkpt lat="45.92674" lon="6.50425">
        <ele>1702</ele>
        <time>2022-02-19T10:55:00Z</time>
      </trkpt>
      <trkpt lat="45.92672" lon="6.50424">
        <ele>1703</ele>
        <time>2022-02-19T10:55:04Z</time>
      </trkpt>
      <trkpt lat="45.9267" lon="6.50422">
        <ele>1703</ele>
        <time>2022-02-19T10:55:07Z</time>
      </trkpt>
      <trkpt lat="45.92668" lon="6.50421">
        <ele>1704</ele>
        <time>2022-02-19T10:55:11Z</time>
      </trkpt>
      <trkpt lat="45.92666" lon="6.50419">
        <ele>1704</ele>
        <time>2022-02-19T10:55:15Z</time>
      </trkpt>
      <trkpt lat="45.92665" lon="6.50417">
        <ele>1705</ele>
        <time>2022-02-19T10:55:18Z</time>
      </trkpt>
      <trkpt lat="45.92663" lon="6.50417">
        <ele>1706</ele>
        <time>2022-02-19T10:55:22Z</time>
      </trkpt>
      <trkpt lat="45.92661" lon="6.50416">
        <ele>1707</ele>
        <time>2022-02-19T10:55:26Z</time>
      </trkpt>
      <trkpt lat="45.92659" lon="6.50416">
        <ele>1708</ele>
        <time>2022-02-19T10:55:30Z</time>
      </trkpt>
      <trkpt lat="45.92657" lon="6.50416">
        <ele>1708</ele>
        <time>2022-02-19T10:55:34Z</time>
      </trkpt>
      <trkpt lat="45.92655" lon="6.50416">
        <ele>1709</ele>
        <time>2022-02-19T10:55:38Z</time>
      </trkpt>
      <trkpt lat="45.92652" lon="6.50415">
        <ele>1709</ele>
        <time>2022-02-19T10:55:42Z</time>
      </trkpt>
      <trkpt lat="45.9265" lon="6.50415">
        <ele>1711</ele>
        <time>2022-02-19T10:55:47Z</time>
      </trkpt>
      <trkpt lat="45.92648" lon="6.50416">
        <ele>1711</ele>
        <time>2022-02-19T10:55:51Z</time>
      </trkpt>
      <trkpt lat="45.92647" lon="6.50418">
        <ele>1712</ele>
        <time>2022-02-19T10:55:55Z</time>
      </trkpt>
      <trkpt lat="45.92646" lon="6.50421">
        <ele>1712</ele>
        <time>2022-02-19T10:55:59Z</time>
      </trkpt>
      <trkpt lat="45.92646" lon="6.50424">
        <ele>1712</ele>
        <time>2022-02-19T10:56:03Z</time>
      </trkpt>
      <trkpt lat="45.92645" lon="6.50427">
        <ele>1713</ele>
        <time>2022-02-19T10:56:06Z</time>
      </trkpt>
      <trkpt lat="45.92645" lon="6.5043">
        <ele>1713</ele>
        <time>2022-02-19T10:56:10Z</time>
      </trkpt>
      <trkpt lat="45.92645" lon="6.50433">
        <ele>1714</ele>
        <time>2022-02-19T10:56:14Z</time>
      </trkpt>
      <trkpt lat="45.92644" lon="6.50436">
        <ele>1715</ele>
        <time>2022-02-19T10:56:18Z</time>
      </trkpt>
      <trkpt lat="45.92643" lon="6.50439">
        <ele>1715</ele>
        <time>2022-02-19T10:56:22Z</time>
      </trkpt>
      <trkpt lat="45.92643" lon="6.50442">
        <ele>1716</ele>
        <time>2022-02-19T10:56:26Z</time>
      </trkpt>
      <trkpt lat="45.92643" lon="6.50445">
        <ele>1716</ele>
        <time>2022-02-19T10:56:30Z</time>
      </trkpt>
      <trkpt lat="45.92643" lon="6.50448">
        <ele>1718</ele>
        <time>2022-02-19T10:56:34Z</time>
      </trkpt>
      <trkpt lat="45.92643" lon="6.50452">
        <ele>1719</ele>
        <time>2022-02-19T10:56:38Z</time>
      </trkpt>
      <trkpt lat="45.92641" lon="6.50451">
        <ele>1720</ele>
        <time>2022-02-19T10:56:50Z</time>
      </trkpt>
      <trkpt lat="45.92639" lon="6.5045">
        <ele>1721</ele>
        <time>2022-02-19T10:56:54Z</time>
      </trkpt>
      <trkpt lat="45.92637" lon="6.5045">
        <ele>1721</ele>
        <time>2022-02-19T10:56:58Z</time>
      </trkpt>
      <trkpt lat="45.92635" lon="6.5045">
        <ele>1721</ele>
        <time>2022-02-19T10:57:01Z</time>
      </trkpt>
      <trkpt lat="45.92633" lon="6.5045">
        <ele>1722</ele>
        <time>2022-02-19T10:57:05Z</time>
      </trkpt>
      <trkpt lat="45.92631" lon="6.50451">
        <ele>1723</ele>
        <time>2022-02-19T10:57:09Z</time>
      </trkpt>
      <trkpt lat="45.9263" lon="6.50453">
        <ele>1724</ele>
        <time>2022-02-19T10:57:13Z</time>
      </trkpt>
      <trkpt lat="45.92631" lon="6.50456">
        <ele>1725</ele>
        <time>2022-02-19T10:57:17Z</time>
      </trkpt>
      <trkpt lat="45.92631" lon="6.50459">
        <ele>1725</ele>
        <time>2022-02-19T10:57:21Z</time>
      </trkpt>
      <trkpt lat="45.92631" lon="6.50462">
        <ele>1726</ele>
        <time>2022-02-19T10:57:25Z</time>
      </trkpt>
      <trkpt lat="45.92632" lon="6.50466">
        <ele>1727</ele>
        <time>2022-02-19T10:57:29Z</time>
      </trkpt>
      <trkpt lat="45.92633" lon="6.50468">
        <ele>1727</ele>
        <time>2022-02-19T10:57:32Z</time>
      </trkpt>
      <trkpt lat="45.92634" lon="6.5047">
        <ele>1727</ele>
        <time>2022-02-19T10:57:35Z</time>
      </trkpt>
      <trkpt lat="45.92635" lon="6.50473">
        <ele>1728</ele>
        <time>2022-02-19T10:57:39Z</time>
      </trkpt>
      <trkpt lat="45.92636" lon="6.50476">
        <ele>1728</ele>
        <time>2022-02-19T10:57:43Z</time>
      </trkpt>
      <trkpt lat="45.92637" lon="6.50479">
        <ele>1729</ele>
        <time>2022-02-19T10:57:48Z</time>
      </trkpt>
      <trkpt lat="45.92638" lon="6.50482">
        <ele>1730</ele>
        <time>2022-02-19T10:57:52Z</time>
      </trkpt>
      <trkpt lat="45.92636" lon="6.50481">
        <ele>1731</ele>
        <time>2022-02-19T10:58:03Z</time>
      </trkpt>
      <trkpt lat="45.92634" lon="6.5048">
        <ele>1731</ele>
        <time>2022-02-19T10:58:07Z</time>
      </trkpt>
      <trkpt lat="45.92632" lon="6.5048">
        <ele>1731</ele>
        <time>2022-02-19T10:58:11Z</time>
      </trkpt>
      <trkpt lat="45.9263" lon="6.5048">
        <ele>1732</ele>
        <time>2022-02-19T10:58:15Z</time>
      </trkpt>
      <trkpt lat="45.92628" lon="6.50479">
        <ele>1733</ele>
        <time>2022-02-19T10:58:18Z</time>
      </trkpt>
      <trkpt lat="45.92625" lon="6.50478">
        <ele>1733</ele>
        <time>2022-02-19T10:58:22Z</time>
      </trkpt>
      <trkpt lat="45.92624" lon="6.50477">
        <ele>1733</ele>
        <time>2022-02-19T10:58:27Z</time>
      </trkpt>
      <trkpt lat="45.92622" lon="6.50476">
        <ele>1734</ele>
        <time>2022-02-19T10:58:32Z</time>
      </trkpt>
      <trkpt lat="45.9262" lon="6.50475">
        <ele>1735</ele>
        <time>2022-02-19T10:58:35Z</time>
      </trkpt>
      <trkpt lat="45.92618" lon="6.50474">
        <ele>1736</ele>
        <time>2022-02-19T10:58:37Z</time>
      </trkpt>
      <trkpt lat="45.92616" lon="6.50473">
        <ele>1737</ele>
        <time>2022-02-19T10:58:45Z</time>
      </trkpt>
      <trkpt lat="45.92614" lon="6.50471">
        <ele>1738</ele>
        <time>2022-02-19T10:58:50Z</time>
      </trkpt>
      <trkpt lat="45.92612" lon="6.5047">
        <ele>1738</ele>
        <time>2022-02-19T10:58:56Z</time>
      </trkpt>
      <trkpt lat="45.9261" lon="6.50469">
        <ele>1739</ele>
        <time>2022-02-19T10:59:03Z</time>
      </trkpt>
      <trkpt lat="45.92609" lon="6.50469">
        <ele>1740</ele>
        <time>2022-02-19T10:59:06Z</time>
      </trkpt>
      <trkpt lat="45.92607" lon="6.50469">
        <ele>1740</ele>
        <time>2022-02-19T10:59:08Z</time>
      </trkpt>
      <trkpt lat="45.92605" lon="6.50469">
        <ele>1740</ele>
        <time>2022-02-19T10:59:13Z</time>
      </trkpt>
      <trkpt lat="45.92603" lon="6.5047">
        <ele>1742</ele>
        <time>2022-02-19T10:59:19Z</time>
      </trkpt>
      <trkpt lat="45.92601" lon="6.50471">
        <ele>1742</ele>
        <time>2022-02-19T10:59:22Z</time>
      </trkpt>
      <trkpt lat="45.92599" lon="6.50472">
        <ele>1743</ele>
        <time>2022-02-19T10:59:25Z</time>
      </trkpt>
      <trkpt lat="45.92597" lon="6.50472">
        <ele>1744</ele>
        <time>2022-02-19T10:59:31Z</time>
      </trkpt>
      <trkpt lat="45.92594" lon="6.50471">
        <ele>1745</ele>
        <time>2022-02-19T10:59:35Z</time>
      </trkpt>
      <trkpt lat="45.92592" lon="6.50472">
        <ele>1745</ele>
        <time>2022-02-19T10:59:40Z</time>
      </trkpt>
      <trkpt lat="45.9259" lon="6.50472">
        <ele>1746</ele>
        <time>2022-02-19T10:59:44Z</time>
      </trkpt>
      <trkpt lat="45.92588" lon="6.50472">
        <ele>1747</ele>
        <time>2022-02-19T10:59:49Z</time>
      </trkpt>
      <trkpt lat="45.92586" lon="6.50472">
        <ele>1748</ele>
        <time>2022-02-19T10:59:53Z</time>
      </trkpt>
      <trkpt lat="45.92584" lon="6.50472">
        <ele>1749</ele>
        <time>2022-02-19T11:00:00Z</time>
      </trkpt>
      <trkpt lat="45.92582" lon="6.50473">
        <ele>1750</ele>
        <time>2022-02-19T11:00:05Z</time>
      </trkpt>
      <trkpt lat="45.92582" lon="6.50476">
        <ele>1751</ele>
        <time>2022-02-19T11:00:11Z</time>
      </trkpt>
      <trkpt lat="45.92582" lon="6.50479">
        <ele>1751</ele>
        <time>2022-02-19T11:00:15Z</time>
      </trkpt>
      <trkpt lat="45.92583" lon="6.50482">
        <ele>1751</ele>
        <time>2022-02-19T11:00:19Z</time>
      </trkpt>
      <trkpt lat="45.92584" lon="6.50485">
        <ele>1752</ele>
        <time>2022-02-19T11:00:23Z</time>
      </trkpt>
      <trkpt lat="45.92585" lon="6.50488">
        <ele>1753</ele>
        <time>2022-02-19T11:00:27Z</time>
      </trkpt>
      <trkpt lat="45.92586" lon="6.5049">
        <ele>1754</ele>
        <time>2022-02-19T11:00:31Z</time>
      </trkpt>
      <trkpt lat="45.92587" lon="6.50493">
        <ele>1754</ele>
        <time>2022-02-19T11:00:35Z</time>
      </trkpt>
      <trkpt lat="45.92587" lon="6.50496">
        <ele>1755</ele>
        <time>2022-02-19T11:00:40Z</time>
      </trkpt>
      <trkpt lat="45.92587" lon="6.50499">
        <ele>1755</ele>
        <time>2022-02-19T11:00:44Z</time>
      </trkpt>
      <trkpt lat="45.92587" lon="6.50502">
        <ele>1756</ele>
        <time>2022-02-19T11:00:48Z</time>
      </trkpt>
      <trkpt lat="45.92587" lon="6.50505">
        <ele>1758</ele>
        <time>2022-02-19T11:00:52Z</time>
      </trkpt>
      <trkpt lat="45.92587" lon="6.50508">
        <ele>1758</ele>
        <time>2022-02-19T11:00:56Z</time>
      </trkpt>
      <trkpt lat="45.92586" lon="6.50511">
        <ele>1759</ele>
        <time>2022-02-19T11:01:00Z</time>
      </trkpt>
      <trkpt lat="45.92585" lon="6.50513">
        <ele>1759</ele>
        <time>2022-02-19T11:01:11Z</time>
      </trkpt>
      <trkpt lat="45.92583" lon="6.50512">
        <ele>1760</ele>
        <time>2022-02-19T11:01:16Z</time>
      </trkpt>
      <trkpt lat="45.92581" lon="6.50512">
        <ele>1760</ele>
        <time>2022-02-19T11:01:21Z</time>
      </trkpt>
      <trkpt lat="45.92579" lon="6.50512">
        <ele>1762</ele>
        <time>2022-02-19T11:01:28Z</time>
      </trkpt>
      <trkpt lat="45.92577" lon="6.50512">
        <ele>1762</ele>
        <time>2022-02-19T11:01:32Z</time>
      </trkpt>
      <trkpt lat="45.92575" lon="6.50512">
        <ele>1763</ele>
        <time>2022-02-19T11:01:36Z</time>
      </trkpt>
      <trkpt lat="45.92574" lon="6.50512">
        <ele>1764</ele>
        <time>2022-02-19T11:01:41Z</time>
      </trkpt>
      <trkpt lat="45.92572" lon="6.50511">
        <ele>1764</ele>
        <time>2022-02-19T11:01:46Z</time>
      </trkpt>
      <trkpt lat="45.9257" lon="6.50511">
        <ele>1765</ele>
        <time>2022-02-19T11:01:50Z</time>
      </trkpt>
      <trkpt lat="45.92568" lon="6.5051">
        <ele>1767</ele>
        <time>2022-02-19T11:01:56Z</time>
      </trkpt>
      <trkpt lat="45.92566" lon="6.5051">
        <ele>1767</ele>
        <time>2022-02-19T11:02:00Z</time>
      </trkpt>
      <trkpt lat="45.92564" lon="6.50509">
        <ele>1767</ele>
        <time>2022-02-19T11:02:04Z</time>
      </trkpt>
      <trkpt lat="45.92562" lon="6.50508">
        <ele>1769</ele>
        <time>2022-02-19T11:02:09Z</time>
      </trkpt>
      <trkpt lat="45.9256" lon="6.50506">
        <ele>1769</ele>
        <time>2022-02-19T11:02:17Z</time>
      </trkpt>
      <trkpt lat="45.92558" lon="6.50505">
        <ele>1770</ele>
        <time>2022-02-19T11:02:21Z</time>
      </trkpt>
      <trkpt lat="45.92556" lon="6.50504">
        <ele>1771</ele>
        <time>2022-02-19T11:02:25Z</time>
      </trkpt>
      <trkpt lat="45.92554" lon="6.50503">
        <ele>1770</ele>
        <time>2022-02-19T11:02:29Z</time>
      </trkpt>
      <trkpt lat="45.92552" lon="6.50501">
        <ele>1771</ele>
        <time>2022-02-19T11:02:33Z</time>
      </trkpt>
      <trkpt lat="45.92551" lon="6.505">
        <ele>1772</ele>
        <time>2022-02-19T11:02:36Z</time>
      </trkpt>
      <trkpt lat="45.92549" lon="6.50498">
        <ele>1773</ele>
        <time>2022-02-19T11:02:40Z</time>
      </trkpt>
      <trkpt lat="45.92547" lon="6.50497">
        <ele>1773</ele>
        <time>2022-02-19T11:02:44Z</time>
      </trkpt>
      <trkpt lat="45.92545" lon="6.50495">
        <ele>1774</ele>
        <time>2022-02-19T11:02:48Z</time>
      </trkpt>
      <trkpt lat="45.92544" lon="6.50493">
        <ele>1775</ele>
        <time>2022-02-19T11:02:52Z</time>
      </trkpt>
      <trkpt lat="45.92542" lon="6.50491">
        <ele>1776</ele>
        <time>2022-02-19T11:02:57Z</time>
      </trkpt>
      <trkpt lat="45.9254" lon="6.50491">
        <ele>1777</ele>
        <time>2022-02-19T11:03:07Z</time>
      </trkpt>
      <trkpt lat="45.92538" lon="6.5049">
        <ele>1777</ele>
        <time>2022-02-19T11:03:12Z</time>
      </trkpt>
      <trkpt lat="45.92537" lon="6.50488">
        <ele>1778</ele>
        <time>2022-02-19T11:03:18Z</time>
      </trkpt>
      <trkpt lat="45.92535" lon="6.50488">
        <ele>1779</ele>
        <time>2022-02-19T11:03:24Z</time>
      </trkpt>
      <trkpt lat="45.92532" lon="6.50486">
        <ele>1781</ele>
        <time>2022-02-19T11:03:32Z</time>
      </trkpt>
      <trkpt lat="45.92531" lon="6.50484">
        <ele>1782</ele>
        <time>2022-02-19T11:03:40Z</time>
      </trkpt>
      <trkpt lat="45.92528" lon="6.50483">
        <ele>1782</ele>
        <time>2022-02-19T11:03:45Z</time>
      </trkpt>
      <trkpt lat="45.92527" lon="6.50481">
        <ele>1782</ele>
        <time>2022-02-19T11:03:51Z</time>
      </trkpt>
      <trkpt lat="45.92525" lon="6.5048">
        <ele>1783</ele>
        <time>2022-02-19T11:03:55Z</time>
      </trkpt>
      <trkpt lat="45.92523" lon="6.50478">
        <ele>1784</ele>
        <time>2022-02-19T11:04:02Z</time>
      </trkpt>
      <trkpt lat="45.92521" lon="6.50477">
        <ele>1785</ele>
        <time>2022-02-19T11:04:07Z</time>
      </trkpt>
      <trkpt lat="45.92519" lon="6.50476">
        <ele>1785</ele>
        <time>2022-02-19T11:04:11Z</time>
      </trkpt>
      <trkpt lat="45.92517" lon="6.50474">
        <ele>1786</ele>
        <time>2022-02-19T11:04:17Z</time>
      </trkpt>
      <trkpt lat="45.92515" lon="6.50473">
        <ele>1787</ele>
        <time>2022-02-19T11:04:23Z</time>
      </trkpt>
      <trkpt lat="45.92513" lon="6.50472">
        <ele>1788</ele>
        <time>2022-02-19T11:04:27Z</time>
      </trkpt>
      <trkpt lat="45.92512" lon="6.50474">
        <ele>1789</ele>
        <time>2022-02-19T11:04:35Z</time>
      </trkpt>
      <trkpt lat="45.92513" lon="6.50477">
        <ele>1790</ele>
        <time>2022-02-19T11:04:39Z</time>
      </trkpt>
      <trkpt lat="45.92513" lon="6.5048">
        <ele>1790</ele>
        <time>2022-02-19T11:04:43Z</time>
      </trkpt>
      <trkpt lat="45.92513" lon="6.50483">
        <ele>1790</ele>
        <time>2022-02-19T11:04:47Z</time>
      </trkpt>
      <trkpt lat="45.92513" lon="6.50486">
        <ele>1791</ele>
        <time>2022-02-19T11:04:52Z</time>
      </trkpt>
      <trkpt lat="45.92513" lon="6.50489">
        <ele>1791</ele>
        <time>2022-02-19T11:04:56Z</time>
      </trkpt>
      <trkpt lat="45.92512" lon="6.50491">
        <ele>1792</ele>
        <time>2022-02-19T11:05:01Z</time>
      </trkpt>
      <trkpt lat="45.9251" lon="6.50491">
        <ele>1793</ele>
        <time>2022-02-19T11:05:08Z</time>
      </trkpt>
      <trkpt lat="45.92509" lon="6.50489">
        <ele>1793</ele>
        <time>2022-02-19T11:06:31Z</time>
      </trkpt>
      <trkpt lat="45.92507" lon="6.50487">
        <ele>1793</ele>
        <time>2022-02-19T11:07:50Z</time>
      </trkpt>
      <trkpt lat="45.92506" lon="6.50488">
        <ele>1793</ele>
        <time>2022-02-19T11:07:54Z</time>
      </trkpt>
      <trkpt lat="45.92504" lon="6.50489">
        <ele>1794</ele>
        <time>2022-02-19T11:07:59Z</time>
      </trkpt>
      <trkpt lat="45.92502" lon="6.50491">
        <ele>1795</ele>
        <time>2022-02-19T11:08:03Z</time>
      </trkpt>
      <trkpt lat="45.92501" lon="6.50492">
        <ele>1796</ele>
        <time>2022-02-19T11:08:07Z</time>
      </trkpt>
      <trkpt lat="45.92499" lon="6.50493">
        <ele>1796</ele>
        <time>2022-02-19T11:08:11Z</time>
      </trkpt>
      <trkpt lat="45.92497" lon="6.50494">
        <ele>1797</ele>
        <time>2022-02-19T11:08:15Z</time>
      </trkpt>
      <trkpt lat="45.92495" lon="6.50496">
        <ele>1798</ele>
        <time>2022-02-19T11:08:20Z</time>
      </trkpt>
      <trkpt lat="45.92494" lon="6.50498">
        <ele>1798</ele>
        <time>2022-02-19T11:08:24Z</time>
      </trkpt>
      <trkpt lat="45.92493" lon="6.50499">
        <ele>1799</ele>
        <time>2022-02-19T11:08:27Z</time>
      </trkpt>
      <trkpt lat="45.92491" lon="6.50502">
        <ele>1799</ele>
        <time>2022-02-19T11:08:31Z</time>
      </trkpt>
      <trkpt lat="45.9249" lon="6.50504">
        <ele>1801</ele>
        <time>2022-02-19T11:08:34Z</time>
      </trkpt>
      <trkpt lat="45.92488" lon="6.50506">
        <ele>1801</ele>
        <time>2022-02-19T11:08:37Z</time>
      </trkpt>
      <trkpt lat="45.92487" lon="6.50508">
        <ele>1801</ele>
        <time>2022-02-19T11:08:41Z</time>
      </trkpt>
      <trkpt lat="45.92486" lon="6.50511">
        <ele>1801</ele>
        <time>2022-02-19T11:08:45Z</time>
      </trkpt>
      <trkpt lat="45.92484" lon="6.50512">
        <ele>1802</ele>
        <time>2022-02-19T11:08:49Z</time>
      </trkpt>
      <trkpt lat="45.92482" lon="6.50514">
        <ele>1803</ele>
        <time>2022-02-19T11:08:53Z</time>
      </trkpt>
      <trkpt lat="45.9248" lon="6.50515">
        <ele>1804</ele>
        <time>2022-02-19T11:08:59Z</time>
      </trkpt>
      <trkpt lat="45.92478" lon="6.50515">
        <ele>1804</ele>
        <time>2022-02-19T11:09:03Z</time>
      </trkpt>
      <trkpt lat="45.92476" lon="6.50515">
        <ele>1806</ele>
        <time>2022-02-19T11:09:07Z</time>
      </trkpt>
      <trkpt lat="45.92474" lon="6.50515">
        <ele>1806</ele>
        <time>2022-02-19T11:09:11Z</time>
      </trkpt>
      <trkpt lat="45.92472" lon="6.50515">
        <ele>1807</ele>
        <time>2022-02-19T11:09:15Z</time>
      </trkpt>
      <trkpt lat="45.9247" lon="6.50517">
        <ele>1807</ele>
        <time>2022-02-19T11:09:19Z</time>
      </trkpt>
      <trkpt lat="45.92468" lon="6.50518">
        <ele>1808</ele>
        <time>2022-02-19T11:09:23Z</time>
      </trkpt>
      <trkpt lat="45.92467" lon="6.5052">
        <ele>1809</ele>
        <time>2022-02-19T11:09:27Z</time>
      </trkpt>
      <trkpt lat="45.92465" lon="6.50521">
        <ele>1809</ele>
        <time>2022-02-19T11:09:31Z</time>
      </trkpt>
      <trkpt lat="45.92463" lon="6.50524">
        <ele>1810</ele>
        <time>2022-02-19T11:09:36Z</time>
      </trkpt>
      <trkpt lat="45.92462" lon="6.50525">
        <ele>1811</ele>
        <time>2022-02-19T11:09:40Z</time>
      </trkpt>
      <trkpt lat="45.9246" lon="6.50528">
        <ele>1811</ele>
        <time>2022-02-19T11:09:44Z</time>
      </trkpt>
      <trkpt lat="45.92458" lon="6.5053">
        <ele>1812</ele>
        <time>2022-02-19T11:09:49Z</time>
      </trkpt>
      <trkpt lat="45.92457" lon="6.50531">
        <ele>1813</ele>
        <time>2022-02-19T11:09:56Z</time>
      </trkpt>
      <trkpt lat="45.92455" lon="6.50532">
        <ele>1814</ele>
        <time>2022-02-19T11:09:59Z</time>
      </trkpt>
      <trkpt lat="45.92453" lon="6.50533">
        <ele>1814</ele>
        <time>2022-02-19T11:10:02Z</time>
      </trkpt>
      <trkpt lat="45.92452" lon="6.50534">
        <ele>1815</ele>
        <time>2022-02-19T11:10:05Z</time>
      </trkpt>
      <trkpt lat="45.9245" lon="6.50535">
        <ele>1815</ele>
        <time>2022-02-19T11:10:08Z</time>
      </trkpt>
      <trkpt lat="45.92448" lon="6.50536">
        <ele>1816</ele>
        <time>2022-02-19T11:10:12Z</time>
      </trkpt>
      <trkpt lat="45.92446" lon="6.50537">
        <ele>1816</ele>
        <time>2022-02-19T11:10:16Z</time>
      </trkpt>
      <trkpt lat="45.92444" lon="6.50538">
        <ele>1817</ele>
        <time>2022-02-19T11:10:20Z</time>
      </trkpt>
      <trkpt lat="45.92442" lon="6.50539">
        <ele>1817</ele>
        <time>2022-02-19T11:10:24Z</time>
      </trkpt>
      <trkpt lat="45.9244" lon="6.5054">
        <ele>1818</ele>
        <time>2022-02-19T11:10:28Z</time>
      </trkpt>
      <trkpt lat="45.92438" lon="6.50541">
        <ele>1819</ele>
        <time>2022-02-19T11:10:32Z</time>
      </trkpt>
      <trkpt lat="45.92436" lon="6.50543">
        <ele>1819</ele>
        <time>2022-02-19T11:10:36Z</time>
      </trkpt>
      <trkpt lat="45.92434" lon="6.50543">
        <ele>1820</ele>
        <time>2022-02-19T11:10:40Z</time>
      </trkpt>
      <trkpt lat="45.92432" lon="6.50545">
        <ele>1821</ele>
        <time>2022-02-19T11:10:44Z</time>
      </trkpt>
      <trkpt lat="45.92431" lon="6.50548">
        <ele>1822</ele>
        <time>2022-02-19T11:10:48Z</time>
      </trkpt>
      <trkpt lat="45.92432" lon="6.50551">
        <ele>1822</ele>
        <time>2022-02-19T11:10:52Z</time>
      </trkpt>
      <trkpt lat="45.92432" lon="6.50554">
        <ele>1823</ele>
        <time>2022-02-19T11:10:56Z</time>
      </trkpt>
      <trkpt lat="45.92433" lon="6.50558">
        <ele>1823</ele>
        <time>2022-02-19T11:11:00Z</time>
      </trkpt>
      <trkpt lat="45.92434" lon="6.5056">
        <ele>1823</ele>
        <time>2022-02-19T11:11:04Z</time>
      </trkpt>
      <trkpt lat="45.92435" lon="6.50562">
        <ele>1824</ele>
        <time>2022-02-19T11:11:09Z</time>
      </trkpt>
      <trkpt lat="45.92435" lon="6.50565">
        <ele>1825</ele>
        <time>2022-02-19T11:11:13Z</time>
      </trkpt>
      <trkpt lat="45.92435" lon="6.50569">
        <ele>1826</ele>
        <time>2022-02-19T11:11:17Z</time>
      </trkpt>
      <trkpt lat="45.92435" lon="6.50571">
        <ele>1826</ele>
        <time>2022-02-19T11:11:21Z</time>
      </trkpt>
      <trkpt lat="45.92435" lon="6.50574">
        <ele>1827</ele>
        <time>2022-02-19T11:11:25Z</time>
      </trkpt>
      <trkpt lat="45.92436" lon="6.50577">
        <ele>1828</ele>
        <time>2022-02-19T11:11:29Z</time>
      </trkpt>
      <trkpt lat="45.92437" lon="6.5058">
        <ele>1829</ele>
        <time>2022-02-19T11:11:33Z</time>
      </trkpt>
      <trkpt lat="45.92438" lon="6.50583">
        <ele>1830</ele>
        <time>2022-02-19T11:11:37Z</time>
      </trkpt>
      <trkpt lat="45.92438" lon="6.50586">
        <ele>1830</ele>
        <time>2022-02-19T11:11:41Z</time>
      </trkpt>
      <trkpt lat="45.92439" lon="6.50588">
        <ele>1830</ele>
        <time>2022-02-19T11:11:45Z</time>
      </trkpt>
      <trkpt lat="45.9244" lon="6.50592">
        <ele>1831</ele>
        <time>2022-02-19T11:11:50Z</time>
      </trkpt>
      <trkpt lat="45.9244" lon="6.50594">
        <ele>1833</ele>
        <time>2022-02-19T11:11:53Z</time>
      </trkpt>
      <trkpt lat="45.92439" lon="6.50597">
        <ele>1833</ele>
        <time>2022-02-19T11:11:56Z</time>
      </trkpt>
      <trkpt lat="45.92439" lon="6.506">
        <ele>1833</ele>
        <time>2022-02-19T11:12:00Z</time>
      </trkpt>
      <trkpt lat="45.92439" lon="6.50603">
        <ele>1834</ele>
        <time>2022-02-19T11:12:04Z</time>
      </trkpt>
      <trkpt lat="45.92439" lon="6.50606">
        <ele>1835</ele>
        <time>2022-02-19T11:12:08Z</time>
      </trkpt>
      <trkpt lat="45.92438" lon="6.50609">
        <ele>1835</ele>
        <time>2022-02-19T11:12:12Z</time>
      </trkpt>
      <trkpt lat="45.92437" lon="6.50612">
        <ele>1836</ele>
        <time>2022-02-19T11:12:16Z</time>
      </trkpt>
      <trkpt lat="45.92436" lon="6.50615">
        <ele>1836</ele>
        <time>2022-02-19T11:12:20Z</time>
      </trkpt>
      <trkpt lat="45.92435" lon="6.50618">
        <ele>1837</ele>
        <time>2022-02-19T11:12:24Z</time>
      </trkpt>
      <trkpt lat="45.92434" lon="6.5062">
        <ele>1838</ele>
        <time>2022-02-19T11:12:26Z</time>
      </trkpt>
      <trkpt lat="45.92433" lon="6.50623">
        <ele>1838</ele>
        <time>2022-02-19T11:12:29Z</time>
      </trkpt>
      <trkpt lat="45.92433" lon="6.50626">
        <ele>1838</ele>
        <time>2022-02-19T11:12:33Z</time>
      </trkpt>
      <trkpt lat="45.92433" lon="6.50629">
        <ele>1839</ele>
        <time>2022-02-19T11:12:39Z</time>
      </trkpt>
      <trkpt lat="45.92432" lon="6.50632">
        <ele>1840</ele>
        <time>2022-02-19T11:12:44Z</time>
      </trkpt>
      <trkpt lat="45.92431" lon="6.50635">
        <ele>1841</ele>
        <time>2022-02-19T11:12:48Z</time>
      </trkpt>
      <trkpt lat="45.9243" lon="6.50638">
        <ele>1841</ele>
        <time>2022-02-19T11:12:52Z</time>
      </trkpt>
      <trkpt lat="45.9243" lon="6.5064">
        <ele>1842</ele>
        <time>2022-02-19T11:12:57Z</time>
      </trkpt>
      <trkpt lat="45.9243" lon="6.50643">
        <ele>1843</ele>
        <time>2022-02-19T11:13:01Z</time>
      </trkpt>
      <trkpt lat="45.92429" lon="6.50646">
        <ele>1844</ele>
        <time>2022-02-19T11:13:05Z</time>
      </trkpt>
      <trkpt lat="45.92427" lon="6.50649">
        <ele>1844</ele>
        <time>2022-02-19T11:13:08Z</time>
      </trkpt>
      <trkpt lat="45.92426" lon="6.50651">
        <ele>1845</ele>
        <time>2022-02-19T11:13:10Z</time>
      </trkpt>
      <trkpt lat="45.92425" lon="6.50653">
        <ele>1845</ele>
        <time>2022-02-19T11:13:13Z</time>
      </trkpt>
      <trkpt lat="45.92424" lon="6.50656">
        <ele>1846</ele>
        <time>2022-02-19T11:13:18Z</time>
      </trkpt>
      <trkpt lat="45.92422" lon="6.50658">
        <ele>1846</ele>
        <time>2022-02-19T11:13:23Z</time>
      </trkpt>
      <trkpt lat="45.92421" lon="6.5066">
        <ele>1847</ele>
        <time>2022-02-19T11:13:27Z</time>
      </trkpt>
      <trkpt lat="45.9242" lon="6.50663">
        <ele>1848</ele>
        <time>2022-02-19T11:13:31Z</time>
      </trkpt>
      <trkpt lat="45.92419" lon="6.50665">
        <ele>1848</ele>
        <time>2022-02-19T11:13:35Z</time>
      </trkpt>
      <trkpt lat="45.92419" lon="6.50668">
        <ele>1849</ele>
        <time>2022-02-19T11:13:42Z</time>
      </trkpt>
      <trkpt lat="45.92417" lon="6.50674">
        <ele>1851</ele>
        <time>2022-02-19T11:13:49Z</time>
      </trkpt>
      <trkpt lat="45.92415" lon="6.50676">
        <ele>1851</ele>
        <time>2022-02-19T11:13:52Z</time>
      </trkpt>
      <trkpt lat="45.92408" lon="6.50683">
        <ele>1854</ele>
        <time>2022-02-19T11:14:13Z</time>
      </trkpt>
      <trkpt lat="45.92406" lon="6.50683">
        <ele>1855</ele>
        <time>2022-02-19T11:14:17Z</time>
      </trkpt>
      <trkpt lat="45.92404" lon="6.50682">
        <ele>1855</ele>
        <time>2022-02-19T11:14:21Z</time>
      </trkpt>
      <trkpt lat="45.92402" lon="6.50681">
        <ele>1856</ele>
        <time>2022-02-19T11:14:25Z</time>
      </trkpt>
      <trkpt lat="45.924" lon="6.50681">
        <ele>1857</ele>
        <time>2022-02-19T11:14:29Z</time>
      </trkpt>
      <trkpt lat="45.92398" lon="6.50682">
        <ele>1858</ele>
        <time>2022-02-19T11:14:33Z</time>
      </trkpt>
      <trkpt lat="45.92396" lon="6.50681">
        <ele>1858</ele>
        <time>2022-02-19T11:14:37Z</time>
      </trkpt>
      <trkpt lat="45.92394" lon="6.5068">
        <ele>1859</ele>
        <time>2022-02-19T11:14:41Z</time>
      </trkpt>
      <trkpt lat="45.92392" lon="6.50679">
        <ele>1859</ele>
        <time>2022-02-19T11:14:45Z</time>
      </trkpt>
      <trkpt lat="45.9239" lon="6.50678">
        <ele>1860</ele>
        <time>2022-02-19T11:14:49Z</time>
      </trkpt>
      <trkpt lat="45.92388" lon="6.50678">
        <ele>1862</ele>
        <time>2022-02-19T11:14:53Z</time>
      </trkpt>
      <trkpt lat="45.92387" lon="6.50681">
        <ele>1862</ele>
        <time>2022-02-19T11:14:58Z</time>
      </trkpt>
      <trkpt lat="45.92388" lon="6.50684">
        <ele>1863</ele>
        <time>2022-02-19T11:15:03Z</time>
      </trkpt>
      <trkpt lat="45.92388" lon="6.50687">
        <ele>1863</ele>
        <time>2022-02-19T11:15:05Z</time>
      </trkpt>
      <trkpt lat="45.92387" lon="6.50689">
        <ele>1864</ele>
        <time>2022-02-19T11:15:08Z</time>
      </trkpt>
      <trkpt lat="45.92385" lon="6.50695">
        <ele>1864</ele>
        <time>2022-02-19T11:15:14Z</time>
      </trkpt>
      <trkpt lat="45.92384" lon="6.50696">
        <ele>1867</ele>
        <time>2022-02-19T11:15:28Z</time>
      </trkpt>
      <trkpt lat="45.92383" lon="6.50699">
        <ele>1867</ele>
        <time>2022-02-19T11:15:32Z</time>
      </trkpt>
      <trkpt lat="45.92383" lon="6.50702">
        <ele>1868</ele>
        <time>2022-02-19T11:15:37Z</time>
      </trkpt>
      <trkpt lat="45.92383" lon="6.50704">
        <ele>1869</ele>
        <time>2022-02-19T11:15:41Z</time>
      </trkpt>
      <trkpt lat="45.92382" lon="6.50707">
        <ele>1870</ele>
        <time>2022-02-19T11:15:45Z</time>
      </trkpt>
      <trkpt lat="45.9238" lon="6.50707">
        <ele>1871</ele>
        <time>2022-02-19T11:15:54Z</time>
      </trkpt>
      <trkpt lat="45.92379" lon="6.50705">
        <ele>1871</ele>
        <time>2022-02-19T11:15:58Z</time>
      </trkpt>
      <trkpt lat="45.92377" lon="6.50704">
        <ele>1872</ele>
        <time>2022-02-19T11:16:02Z</time>
      </trkpt>
      <trkpt lat="45.92375" lon="6.50703">
        <ele>1872</ele>
        <time>2022-02-19T11:16:06Z</time>
      </trkpt>
      <trkpt lat="45.92373" lon="6.50701">
        <ele>1872</ele>
        <time>2022-02-19T11:16:10Z</time>
      </trkpt>
      <trkpt lat="45.92372" lon="6.507">
        <ele>1873</ele>
        <time>2022-02-19T11:16:14Z</time>
      </trkpt>
      <trkpt lat="45.9237" lon="6.50699">
        <ele>1874</ele>
        <time>2022-02-19T11:16:18Z</time>
      </trkpt>
      <trkpt lat="45.92368" lon="6.50699">
        <ele>1874</ele>
        <time>2022-02-19T11:16:22Z</time>
      </trkpt>
      <trkpt lat="45.92366" lon="6.50698">
        <ele>1875</ele>
        <time>2022-02-19T11:16:26Z</time>
      </trkpt>
      <trkpt lat="45.92364" lon="6.50697">
        <ele>1876</ele>
        <time>2022-02-19T11:16:30Z</time>
      </trkpt>
      <trkpt lat="45.92362" lon="6.50695">
        <ele>1876</ele>
        <time>2022-02-19T11:16:34Z</time>
      </trkpt>
      <trkpt lat="45.9236" lon="6.50694">
        <ele>1877</ele>
        <time>2022-02-19T11:16:38Z</time>
      </trkpt>
      <trkpt lat="45.92358" lon="6.50693">
        <ele>1877</ele>
        <time>2022-02-19T11:16:42Z</time>
      </trkpt>
      <trkpt lat="45.92356" lon="6.50693">
        <ele>1878</ele>
        <time>2022-02-19T11:16:46Z</time>
      </trkpt>
      <trkpt lat="45.92354" lon="6.50692">
        <ele>1879</ele>
        <time>2022-02-19T11:16:52Z</time>
      </trkpt>
      <trkpt lat="45.92353" lon="6.50694">
        <ele>1880</ele>
        <time>2022-02-19T11:16:59Z</time>
      </trkpt>
      <trkpt lat="45.92352" lon="6.50696">
        <ele>1881</ele>
        <time>2022-02-19T11:17:02Z</time>
      </trkpt>
      <trkpt lat="45.92351" lon="6.50699">
        <ele>1881</ele>
        <time>2022-02-19T11:17:05Z</time>
      </trkpt>
      <trkpt lat="45.92351" lon="6.50702">
        <ele>1882</ele>
        <time>2022-02-19T11:17:09Z</time>
      </trkpt>
      <trkpt lat="45.92349" lon="6.50705">
        <ele>1883</ele>
        <time>2022-02-19T11:17:12Z</time>
      </trkpt>
      <trkpt lat="45.92348" lon="6.50707">
        <ele>1883</ele>
        <time>2022-02-19T11:17:16Z</time>
      </trkpt>
      <trkpt lat="45.92348" lon="6.5071">
        <ele>1884</ele>
        <time>2022-02-19T11:17:19Z</time>
      </trkpt>
      <trkpt lat="45.92346" lon="6.50713">
        <ele>1884</ele>
        <time>2022-02-19T11:17:22Z</time>
      </trkpt>
      <trkpt lat="45.92346" lon="6.50715">
        <ele>1885</ele>
        <time>2022-02-19T11:17:26Z</time>
      </trkpt>
      <trkpt lat="45.92345" lon="6.50718">
        <ele>1885</ele>
        <time>2022-02-19T11:17:31Z</time>
      </trkpt>
      <trkpt lat="45.92344" lon="6.50721">
        <ele>1886</ele>
        <time>2022-02-19T11:17:35Z</time>
      </trkpt>
      <trkpt lat="45.92343" lon="6.50723">
        <ele>1887</ele>
        <time>2022-02-19T11:17:40Z</time>
      </trkpt>
      <trkpt lat="45.92342" lon="6.50726">
        <ele>1887</ele>
        <time>2022-02-19T11:17:44Z</time>
      </trkpt>
      <trkpt lat="45.92342" lon="6.50729">
        <ele>1888</ele>
        <time>2022-02-19T11:17:50Z</time>
      </trkpt>
      <trkpt lat="45.92341" lon="6.50731">
        <ele>1889</ele>
        <time>2022-02-19T11:17:55Z</time>
      </trkpt>
      <trkpt lat="45.9234" lon="6.50734">
        <ele>1890</ele>
        <time>2022-02-19T11:17:59Z</time>
      </trkpt>
      <trkpt lat="45.92339" lon="6.50736">
        <ele>1890</ele>
        <time>2022-02-19T11:18:03Z</time>
      </trkpt>
      <trkpt lat="45.92338" lon="6.50739">
        <ele>1891</ele>
        <time>2022-02-19T11:18:15Z</time>
      </trkpt>
      <trkpt lat="45.92338" lon="6.50735">
        <ele>1893</ele>
        <time>2022-02-19T11:18:31Z</time>
      </trkpt>
      <trkpt lat="45.92337" lon="6.50734">
        <ele>1894</ele>
        <time>2022-02-19T11:18:36Z</time>
      </trkpt>
      <trkpt lat="45.92335" lon="6.50732">
        <ele>1894</ele>
        <time>2022-02-19T11:18:39Z</time>
      </trkpt>
      <trkpt lat="45.92333" lon="6.50731">
        <ele>1895</ele>
        <time>2022-02-19T11:18:43Z</time>
      </trkpt>
      <trkpt lat="45.92332" lon="6.50729">
        <ele>1895</ele>
        <time>2022-02-19T11:18:47Z</time>
      </trkpt>
      <trkpt lat="45.9233" lon="6.50727">
        <ele>1896</ele>
        <time>2022-02-19T11:18:52Z</time>
      </trkpt>
      <trkpt lat="45.92325" lon="6.50738">
        <ele>1901</ele>
        <time>2022-02-19T11:19:22Z</time>
      </trkpt>
      <trkpt lat="45.92316" lon="6.50733">
        <ele>1906</ele>
        <time>2022-02-19T11:20:05Z</time>
      </trkpt>
      <trkpt lat="45.9231" lon="6.50744">
        <ele>1909</ele>
        <time>2022-02-19T11:20:34Z</time>
      </trkpt>
      <trkpt lat="45.92311" lon="6.50757">
        <ele>1913</ele>
        <time>2022-02-19T11:20:53Z</time>
      </trkpt>
      <trkpt lat="45.92303" lon="6.50751">
        <ele>1918</ele>
        <time>2022-02-19T11:21:31Z</time>
      </trkpt>
      <trkpt lat="45.92296" lon="6.50743">
        <ele>1921</ele>
        <time>2022-02-19T11:21:53Z</time>
      </trkpt>
      <trkpt lat="45.92294" lon="6.50756">
        <ele>1923</ele>
        <time>2022-02-19T11:22:43Z</time>
      </trkpt>
      <trkpt lat="45.92293" lon="6.50769">
        <ele>1926</ele>
        <time>2022-02-19T11:22:59Z</time>
      </trkpt>
      <trkpt lat="45.92297" lon="6.50782">
        <ele>1929</ele>
        <time>2022-02-19T11:23:18Z</time>
      </trkpt>
      <trkpt lat="45.923" lon="6.50795">
        <ele>1932</ele>
        <time>2022-02-19T11:23:39Z</time>
      </trkpt>
      <trkpt lat="45.92299" lon="6.50808">
        <ele>1935</ele>
        <time>2022-02-19T11:23:57Z</time>
      </trkpt>
      <trkpt lat="45.92305" lon="6.50818">
        <ele>1938</ele>
        <time>2022-02-19T11:24:15Z</time>
      </trkpt>
      <trkpt lat="45.92303" lon="6.50831">
        <ele>1940</ele>
        <time>2022-02-19T11:24:29Z</time>
      </trkpt>
      <trkpt lat="45.92301" lon="6.50844">
        <ele>1944</ele>
        <time>2022-02-19T11:24:53Z</time>
      </trkpt>
      <trkpt lat="45.92297" lon="6.50857">
        <ele>1946</ele>
        <time>2022-02-19T11:25:08Z</time>
      </trkpt>
      <trkpt lat="45.92295" lon="6.50869">
        <ele>1950</ele>
        <time>2022-02-19T11:25:30Z</time>
      </trkpt>
      <trkpt lat="45.92296" lon="6.50878">
        <ele>1953</ele>
        <time>2022-02-19T11:25:52Z</time>
      </trkpt>
      <trkpt lat="45.92294" lon="6.50876">
        <ele>1954</ele>
        <time>2022-02-19T11:25:58Z</time>
      </trkpt>
      <trkpt lat="45.92293" lon="6.50874">
        <ele>1955</ele>
        <time>2022-02-19T11:26:03Z</time>
      </trkpt>
      <trkpt lat="45.92292" lon="6.50871">
        <ele>1955</ele>
        <time>2022-02-19T11:26:08Z</time>
      </trkpt>
      <trkpt lat="45.9229" lon="6.50871">
        <ele>1956</ele>
        <time>2022-02-19T11:26:13Z</time>
      </trkpt>
      <trkpt lat="45.92288" lon="6.5087">
        <ele>1957</ele>
        <time>2022-02-19T11:26:17Z</time>
      </trkpt>
      <trkpt lat="45.92286" lon="6.5087">
        <ele>1957</ele>
        <time>2022-02-19T11:26:21Z</time>
      </trkpt>
      <trkpt lat="45.92284" lon="6.50869">
        <ele>1958</ele>
        <time>2022-02-19T11:26:25Z</time>
      </trkpt>
      <trkpt lat="45.92282" lon="6.50869">
        <ele>1959</ele>
        <time>2022-02-19T11:26:29Z</time>
      </trkpt>
      <trkpt lat="45.9228" lon="6.50868">
        <ele>1959</ele>
        <time>2022-02-19T11:26:32Z</time>
      </trkpt>
      <trkpt lat="45.92278" lon="6.50867">
        <ele>1959</ele>
        <time>2022-02-19T11:26:36Z</time>
      </trkpt>
      <trkpt lat="45.92276" lon="6.50865">
        <ele>1960</ele>
        <time>2022-02-19T11:26:40Z</time>
      </trkpt>
      <trkpt lat="45.92269" lon="6.50864">
        <ele>1965</ele>
        <time>2022-02-19T11:27:04Z</time>
      </trkpt>
      <trkpt lat="45.9226" lon="6.5086">
        <ele>1967</ele>
        <time>2022-02-19T11:27:26Z</time>
      </trkpt>
      <trkpt lat="45.92256" lon="6.50872">
        <ele>1970</ele>
        <time>2022-02-19T11:27:40Z</time>
      </trkpt>
      <trkpt lat="45.92253" lon="6.50885">
        <ele>1974</ele>
        <time>2022-02-19T11:28:01Z</time>
      </trkpt>
      <trkpt lat="45.9225" lon="6.50897">
        <ele>1976</ele>
        <time>2022-02-19T11:28:18Z</time>
      </trkpt>
      <trkpt lat="45.92253" lon="6.5091">
        <ele>1978</ele>
        <time>2022-02-19T11:28:40Z</time>
      </trkpt>
      <trkpt lat="45.92248" lon="6.50921">
        <ele>1980</ele>
        <time>2022-02-19T11:28:53Z</time>
      </trkpt>
      <trkpt lat="45.9225" lon="6.50935">
        <ele>1984</ele>
        <time>2022-02-19T11:29:12Z</time>
      </trkpt>
      <trkpt lat="45.9225" lon="6.50948">
        <ele>1986</ele>
        <time>2022-02-19T11:29:31Z</time>
      </trkpt>
      <trkpt lat="45.92248" lon="6.50947">
        <ele>1989</ele>
        <time>2022-02-19T11:29:55Z</time>
      </trkpt>
      <trkpt lat="45.92239" lon="6.50944">
        <ele>1992</ele>
        <time>2022-02-19T11:30:15Z</time>
      </trkpt>
      <trkpt lat="45.92234" lon="6.50941">
        <ele>1996</ele>
        <time>2022-02-19T11:30:31Z</time>
      </trkpt>
      <trkpt lat="45.92232" lon="6.5094">
        <ele>1996</ele>
        <time>2022-02-19T11:30:37Z</time>
      </trkpt>
      <trkpt lat="45.92223" lon="6.50939">
        <ele>1999</ele>
        <time>2022-02-19T11:31:01Z</time>
      </trkpt>
      <trkpt lat="45.92224" lon="6.50941">
        <ele>2001</ele>
        <time>2022-02-19T11:31:07Z</time>
      </trkpt>
      <trkpt lat="45.92222" lon="6.50943">
        <ele>2001</ele>
        <time>2022-02-19T11:31:09Z</time>
      </trkpt>
      <trkpt lat="45.9222" lon="6.50944">
        <ele>2002</ele>
        <time>2022-02-19T11:31:12Z</time>
      </trkpt>
      <trkpt lat="45.92218" lon="6.50946">
        <ele>2002</ele>
        <time>2022-02-19T11:31:15Z</time>
      </trkpt>
      <trkpt lat="45.92218" lon="6.50949">
        <ele>2003</ele>
        <time>2022-02-19T11:31:20Z</time>
      </trkpt>
      <trkpt lat="45.92212" lon="6.50958">
        <ele>2005</ele>
        <time>2022-02-19T11:31:38Z</time>
      </trkpt>
      <trkpt lat="45.9221" lon="6.50959">
        <ele>2006</ele>
        <time>2022-02-19T11:31:41Z</time>
      </trkpt>
      <trkpt lat="45.92208" lon="6.50961">
        <ele>2006</ele>
        <time>2022-02-19T11:31:44Z</time>
      </trkpt>
      <trkpt lat="45.9221" lon="6.50961">
        <ele>2007</ele>
        <time>2022-02-19T11:32:09Z</time>
      </trkpt>
      <trkpt lat="45.92212" lon="6.50959">
        <ele>2007</ele>
        <time>2022-02-19T11:32:16Z</time>
      </trkpt>
      <trkpt lat="45.92214" lon="6.50958">
        <ele>2007</ele>
        <time>2022-02-19T11:32:27Z</time>
      </trkpt>
      <trkpt lat="45.92218" lon="6.50958">
        <ele>2008</ele>
        <time>2022-02-19T11:33:09Z</time>
      </trkpt>
      <trkpt lat="45.92216" lon="6.50961">
        <ele>2009</ele>
        <time>2022-02-19T11:33:16Z</time>
      </trkpt>
      <trkpt lat="45.92214" lon="6.50961">
        <ele>2008</ele>
        <time>2022-02-19T11:33:21Z</time>
      </trkpt>
      <trkpt lat="45.92212" lon="6.50963">
        <ele>2008</ele>
        <time>2022-02-19T11:33:36Z</time>
      </trkpt>
      <trkpt lat="45.9221" lon="6.50962">
        <ele>2008</ele>
        <time>2022-02-19T11:33:41Z</time>
      </trkpt>
      <trkpt lat="45.92208" lon="6.50964">
        <ele>2008</ele>
        <time>2022-02-19T11:33:44Z</time>
      </trkpt>
      <trkpt lat="45.92206" lon="6.50965">
        <ele>2009</ele>
        <time>2022-02-19T11:33:46Z</time>
      </trkpt>
      <trkpt lat="45.92204" lon="6.50966">
        <ele>2009</ele>
        <time>2022-02-19T11:33:48Z</time>
      </trkpt>
      <trkpt lat="45.92202" lon="6.50967">
        <ele>2009</ele>
        <time>2022-02-19T11:33:51Z</time>
      </trkpt>
      <trkpt lat="45.922" lon="6.50967">
        <ele>2010</ele>
        <time>2022-02-19T11:33:57Z</time>
      </trkpt>
      <trkpt lat="45.92198" lon="6.50967">
        <ele>2011</ele>
        <time>2022-02-19T11:34:02Z</time>
      </trkpt>
      <trkpt lat="45.92196" lon="6.50966">
        <ele>2012</ele>
        <time>2022-02-19T11:34:18Z</time>
      </trkpt>
      <trkpt lat="45.92194" lon="6.50965">
        <ele>2014</ele>
        <time>2022-02-19T11:34:24Z</time>
      </trkpt>
      <trkpt lat="45.92192" lon="6.50962">
        <ele>2014</ele>
        <time>2022-02-19T11:34:32Z</time>
      </trkpt>
      <trkpt lat="45.92191" lon="6.5096">
        <ele>2016</ele>
        <time>2022-02-19T11:34:39Z</time>
      </trkpt>
      <trkpt lat="45.92189" lon="6.50958">
        <ele>2016</ele>
        <time>2022-02-19T11:34:44Z</time>
      </trkpt>
      <trkpt lat="45.92189" lon="6.50955">
        <ele>2017</ele>
        <time>2022-02-19T11:34:48Z</time>
      </trkpt>
      <trkpt lat="45.92186" lon="6.50954">
        <ele>2018</ele>
        <time>2022-02-19T11:34:54Z</time>
      </trkpt>
      <trkpt lat="45.92185" lon="6.50951">
        <ele>2019</ele>
        <time>2022-02-19T11:34:57Z</time>
      </trkpt>
      <trkpt lat="45.92183" lon="6.5095">
        <ele>2021</ele>
        <time>2022-02-19T11:35:05Z</time>
      </trkpt>
      <trkpt lat="45.92182" lon="6.50948">
        <ele>2022</ele>
        <time>2022-02-19T11:35:12Z</time>
      </trkpt>
      <trkpt lat="45.92181" lon="6.50946">
        <ele>2023</ele>
        <time>2022-02-19T11:35:23Z</time>
      </trkpt>
      <trkpt lat="45.92179" lon="6.50943">
        <ele>2024</ele>
        <time>2022-02-19T11:35:30Z</time>
      </trkpt>
      <trkpt lat="45.92178" lon="6.50941">
        <ele>2025</ele>
        <time>2022-02-19T11:35:34Z</time>
      </trkpt>
      <trkpt lat="45.92176" lon="6.5094">
        <ele>2027</ele>
        <time>2022-02-19T11:35:42Z</time>
      </trkpt>
      <trkpt lat="45.92175" lon="6.50938">
        <ele>2028</ele>
        <time>2022-02-19T11:35:47Z</time>
      </trkpt>
      <trkpt lat="45.92174" lon="6.50935">
        <ele>2029</ele>
        <time>2022-02-19T11:35:51Z</time>
      </trkpt>
      <trkpt lat="45.92172" lon="6.50933">
        <ele>2029</ele>
        <time>2022-02-19T11:35:56Z</time>
      </trkpt>
      <trkpt lat="45.92171" lon="6.50931">
        <ele>2030</ele>
        <time>2022-02-19T11:36:02Z</time>
      </trkpt>
      <trkpt lat="45.9217" lon="6.50929">
        <ele>2030</ele>
        <time>2022-02-19T11:36:06Z</time>
      </trkpt>
      <trkpt lat="45.92168" lon="6.50923">
        <ele>2031</ele>
        <time>2022-02-19T11:36:15Z</time>
      </trkpt>
      <trkpt lat="45.92167" lon="6.50925">
        <ele>2032</ele>
        <time>2022-02-19T11:36:20Z</time>
      </trkpt>
      <trkpt lat="45.92166" lon="6.50931">
        <ele>2032</ele>
        <time>2022-02-19T11:36:27Z</time>
      </trkpt>
      <trkpt lat="45.92164" lon="6.50935">
        <ele>2033</ele>
        <time>2022-02-19T11:36:32Z</time>
      </trkpt>
      <trkpt lat="45.92162" lon="6.50938">
        <ele>2032</ele>
        <time>2022-02-19T11:36:37Z</time>
      </trkpt>
      <trkpt lat="45.92161" lon="6.50941">
        <ele>2033</ele>
        <time>2022-02-19T11:36:41Z</time>
      </trkpt>
      <trkpt lat="45.92159" lon="6.50943">
        <ele>2034</ele>
        <time>2022-02-19T11:36:45Z</time>
      </trkpt>
      <trkpt lat="45.92158" lon="6.50946">
        <ele>2034</ele>
        <time>2022-02-19T11:36:49Z</time>
      </trkpt>
      <trkpt lat="45.92157" lon="6.50948">
        <ele>2036</ele>
        <time>2022-02-19T11:36:54Z</time>
      </trkpt>
      <trkpt lat="45.92156" lon="6.50951">
        <ele>2036</ele>
        <time>2022-02-19T11:36:57Z</time>
      </trkpt>
      <trkpt lat="45.92154" lon="6.50953">
        <ele>2036</ele>
        <time>2022-02-19T11:37:01Z</time>
      </trkpt>
      <trkpt lat="45.92153" lon="6.50956">
        <ele>2036</ele>
        <time>2022-02-19T11:37:05Z</time>
      </trkpt>
      <trkpt lat="45.92152" lon="6.50958">
        <ele>2037</ele>
        <time>2022-02-19T11:37:09Z</time>
      </trkpt>
      <trkpt lat="45.92151" lon="6.50961">
        <ele>2038</ele>
        <time>2022-02-19T11:37:13Z</time>
      </trkpt>
      <trkpt lat="45.9215" lon="6.50964">
        <ele>2038</ele>
        <time>2022-02-19T11:37:16Z</time>
      </trkpt>
      <trkpt lat="45.92149" lon="6.50966">
        <ele>2038</ele>
        <time>2022-02-19T11:37:20Z</time>
      </trkpt>
      <trkpt lat="45.92147" lon="6.50968">
        <ele>2040</ele>
        <time>2022-02-19T11:37:24Z</time>
      </trkpt>
      <trkpt lat="45.92145" lon="6.50969">
        <ele>2040</ele>
        <time>2022-02-19T11:37:26Z</time>
      </trkpt>
      <trkpt lat="45.92145" lon="6.50966">
        <ele>2040</ele>
        <time>2022-02-19T11:37:34Z</time>
      </trkpt>
      <trkpt lat="45.92144" lon="6.50964">
        <ele>2041</ele>
        <time>2022-02-19T11:37:37Z</time>
      </trkpt>
      <trkpt lat="45.92143" lon="6.50959">
        <ele>2042</ele>
        <time>2022-02-19T11:37:44Z</time>
      </trkpt>
      <trkpt lat="45.92147" lon="6.5096">
        <ele>2042</ele>
        <time>2022-02-19T11:38:08Z</time>
      </trkpt>
      <trkpt lat="45.92147" lon="6.50957">
        <ele>2043</ele>
        <time>2022-02-19T11:38:41Z</time>
      </trkpt>
      <trkpt lat="45.92145" lon="6.50956">
        <ele>2043</ele>
        <time>2022-02-19T11:38:46Z</time>
      </trkpt>
      <trkpt lat="45.92144" lon="6.50953">
        <ele>2044</ele>
        <time>2022-02-19T11:38:51Z</time>
      </trkpt>
      <trkpt lat="45.92142" lon="6.5095">
        <ele>2045</ele>
        <time>2022-02-19T11:38:58Z</time>
      </trkpt>
      <trkpt lat="45.92135" lon="6.50939">
        <ele>2046</ele>
        <time>2022-02-19T11:39:21Z</time>
      </trkpt>
      <trkpt lat="45.92131" lon="6.50948">
        <ele>2048</ele>
        <time>2022-02-19T11:39:38Z</time>
      </trkpt>
      <trkpt lat="45.9213" lon="6.5095">
        <ele>2048</ele>
        <time>2022-02-19T11:39:41Z</time>
      </trkpt>
      <trkpt lat="45.92129" lon="6.50952">
        <ele>2050</ele>
        <time>2022-02-19T11:39:45Z</time>
      </trkpt>
      <trkpt lat="45.92126" lon="6.50955">
        <ele>2051</ele>
        <time>2022-02-19T11:39:53Z</time>
      </trkpt>
      <trkpt lat="45.92125" lon="6.50957">
        <ele>2051</ele>
        <time>2022-02-19T11:39:57Z</time>
      </trkpt>
      <trkpt lat="45.92124" lon="6.5096">
        <ele>2052</ele>
        <time>2022-02-19T11:40:04Z</time>
      </trkpt>
      <trkpt lat="45.92122" lon="6.50961">
        <ele>2053</ele>
        <time>2022-02-19T11:40:19Z</time>
      </trkpt>
      <trkpt lat="45.92125" lon="6.50963">
        <ele>2053</ele>
        <time>2022-02-19T11:40:33Z</time>
      </trkpt>
      <trkpt lat="45.92125" lon="6.5096">
        <ele>2054</ele>
        <time>2022-02-19T11:40:37Z</time>
      </trkpt>
      <trkpt lat="45.92121" lon="6.50956">
        <ele>2055</ele>
        <time>2022-02-19T11:40:54Z</time>
      </trkpt>
      <trkpt lat="45.9212" lon="6.50953">
        <ele>2056</ele>
        <time>2022-02-19T11:41:02Z</time>
      </trkpt>
      <trkpt lat="45.92119" lon="6.5095">
        <ele>2056</ele>
        <time>2022-02-19T11:41:06Z</time>
      </trkpt>
      <trkpt lat="45.92119" lon="6.50946">
        <ele>2057</ele>
        <time>2022-02-19T11:41:11Z</time>
      </trkpt>
      <trkpt lat="45.92118" lon="6.50944">
        <ele>2058</ele>
        <time>2022-02-19T11:41:16Z</time>
      </trkpt>
      <trkpt lat="45.92117" lon="6.50941">
        <ele>2059</ele>
        <time>2022-02-19T11:41:20Z</time>
      </trkpt>
      <trkpt lat="45.92114" lon="6.50929">
        <ele>2060</ele>
        <time>2022-02-19T11:41:36Z</time>
      </trkpt>
      <trkpt lat="45.92105" lon="6.5093">
        <ele>2064</ele>
        <time>2022-02-19T11:42:17Z</time>
      </trkpt>
      <trkpt lat="45.92104" lon="6.50936">
        <ele>2064</ele>
        <time>2022-02-19T11:42:27Z</time>
      </trkpt>
      <trkpt lat="45.92105" lon="6.50933">
        <ele>2066</ele>
        <time>2022-02-19T11:42:43Z</time>
      </trkpt>
      <trkpt lat="45.92104" lon="6.50931">
        <ele>2067</ele>
        <time>2022-02-19T11:42:48Z</time>
      </trkpt>
      <trkpt lat="45.921" lon="6.50922">
        <ele>2069</ele>
        <time>2022-02-19T11:43:03Z</time>
      </trkpt>
      <trkpt lat="45.92097" lon="6.50918">
        <ele>2070</ele>
        <time>2022-02-19T11:43:11Z</time>
      </trkpt>
      <trkpt lat="45.92097" lon="6.50915">
        <ele>2070</ele>
        <time>2022-02-19T11:43:16Z</time>
      </trkpt>
      <trkpt lat="45.92097" lon="6.50912">
        <ele>2071</ele>
        <time>2022-02-19T11:43:29Z</time>
      </trkpt>
      <trkpt lat="45.92092" lon="6.50921">
        <ele>2073</ele>
        <time>2022-02-19T11:43:54Z</time>
      </trkpt>
      <trkpt lat="45.9209" lon="6.50925">
        <ele>2074</ele>
        <time>2022-02-19T11:44:01Z</time>
      </trkpt>
      <trkpt lat="45.92088" lon="6.50928">
        <ele>2076</ele>
        <time>2022-02-19T11:44:08Z</time>
      </trkpt>
      <trkpt lat="45.92085" lon="6.5094">
        <ele>2079</ele>
        <time>2022-02-19T11:44:56Z</time>
      </trkpt>
      <trkpt lat="45.92079" lon="6.50951">
        <ele>2081</ele>
        <time>2022-02-19T11:45:20Z</time>
      </trkpt>
      <trkpt lat="45.92075" lon="6.50963">
        <ele>2084</ele>
        <time>2022-02-19T11:45:41Z</time>
      </trkpt>
      <trkpt lat="45.92069" lon="6.50973">
        <ele>2087</ele>
        <time>2022-02-19T11:46:07Z</time>
      </trkpt>
      <trkpt lat="45.92067" lon="6.5098">
        <ele>2088</ele>
        <time>2022-02-19T11:46:19Z</time>
      </trkpt>
      <trkpt lat="45.92065" lon="6.50982">
        <ele>2089</ele>
        <time>2022-02-19T11:46:21Z</time>
      </trkpt>
      <trkpt lat="45.92064" lon="6.50984">
        <ele>2089</ele>
        <time>2022-02-19T11:46:24Z</time>
      </trkpt>
      <trkpt lat="45.92063" lon="6.50986">
        <ele>2089</ele>
        <time>2022-02-19T11:46:28Z</time>
      </trkpt>
      <trkpt lat="45.92053" lon="6.50989">
        <ele>2092</ele>
        <time>2022-02-19T11:46:42Z</time>
      </trkpt>
      <trkpt lat="45.9206" lon="6.50997">
        <ele>2093</ele>
        <time>2022-02-19T11:47:00Z</time>
      </trkpt>
      <trkpt lat="45.92068" lon="6.51009">
        <ele>2093</ele>
        <time>2022-02-19T11:47:44Z</time>
      </trkpt>
      <trkpt lat="45.92062" lon="6.50999">
        <ele>2093</ele>
        <time>2022-02-19T11:48:01Z</time>
      </trkpt>
      <trkpt lat="45.92073" lon="6.50993">
        <ele>2093</ele>
        <time>2022-02-19T11:48:19Z</time>
      </trkpt>
      <trkpt lat="45.92082" lon="6.50999">
        <ele>2093</ele>
        <time>2022-02-19T11:48:27Z</time>
      </trkpt>
      <trkpt lat="45.92073" lon="6.50999">
        <ele>2093</ele>
        <time>2022-02-19T11:48:33Z</time>
      </trkpt>
      <trkpt lat="45.92065" lon="6.50996">
        <ele>2093</ele>
        <time>2022-02-19T11:48:46Z</time>
      </trkpt>
      <trkpt lat="45.92056" lon="6.50999">
        <ele>2093</ele>
        <time>2022-02-19T11:48:57Z</time>
      </trkpt>
      <trkpt lat="45.92054" lon="6.51002">
        <ele>2092</ele>
        <time>2022-02-19T11:48:59Z</time>
      </trkpt>
      <trkpt lat="45.9206" lon="6.50992">
        <ele>2093</ele>
        <time>2022-02-19T11:50:42Z</time>
      </trkpt>
      <trkpt lat="45.92071" lon="6.50994">
        <ele>2092</ele>
        <time>2022-02-19T11:51:13Z</time>
      </trkpt>
      <trkpt lat="45.92063" lon="6.50999">
        <ele>2093</ele>
        <time>2022-02-19T11:51:42Z</time>
      </trkpt>
      <trkpt lat="45.92073" lon="6.51002">
        <ele>2093</ele>
        <time>2022-02-19T11:52:42Z</time>
      </trkpt>
      <trkpt lat="45.92064" lon="6.50999">
        <ele>2093</ele>
        <time>2022-02-19T11:52:51Z</time>
      </trkpt>
      <trkpt lat="45.92055" lon="6.50995">
        <ele>2093</ele>
        <time>2022-02-19T11:54:11Z</time>
      </trkpt>
      <trkpt lat="45.92046" lon="6.50992">
        <ele>2095</ele>
        <time>2022-02-19T11:54:23Z</time>
      </trkpt>
      <trkpt lat="45.92037" lon="6.50985">
        <ele>2096</ele>
        <time>2022-02-19T11:54:33Z</time>
      </trkpt>
      <trkpt lat="45.92032" lon="6.50996">
        <ele>2100</ele>
        <time>2022-02-19T11:54:51Z</time>
      </trkpt>
      <trkpt lat="45.92023" lon="6.51">
        <ele>2103</ele>
        <time>2022-02-19T11:55:09Z</time>
      </trkpt>
      <trkpt lat="45.9202" lon="6.51012">
        <ele>2106</ele>
        <time>2022-02-19T11:55:26Z</time>
      </trkpt>
      <trkpt lat="45.92025" lon="6.51024">
        <ele>2107</ele>
        <time>2022-02-19T11:55:36Z</time>
      </trkpt>
      <trkpt lat="45.92026" lon="6.51027">
        <ele>2108</ele>
        <time>2022-02-19T11:55:40Z</time>
      </trkpt>
      <trkpt lat="45.92027" lon="6.5103">
        <ele>2108</ele>
        <time>2022-02-19T11:55:44Z</time>
      </trkpt>
      <trkpt lat="45.92027" lon="6.51033">
        <ele>2109</ele>
        <time>2022-02-19T11:55:47Z</time>
      </trkpt>
      <trkpt lat="45.92027" lon="6.51037">
        <ele>2109</ele>
        <time>2022-02-19T11:55:51Z</time>
      </trkpt>
      <trkpt lat="45.92027" lon="6.5104">
        <ele>2110</ele>
        <time>2022-02-19T11:55:55Z</time>
      </trkpt>
      <trkpt lat="45.92027" lon="6.51042">
        <ele>2110</ele>
        <time>2022-02-19T11:55:59Z</time>
      </trkpt>
      <trkpt lat="45.92026" lon="6.51045">
        <ele>2111</ele>
        <time>2022-02-19T11:56:03Z</time>
      </trkpt>
      <trkpt lat="45.92027" lon="6.51048">
        <ele>2112</ele>
        <time>2022-02-19T11:56:12Z</time>
      </trkpt>
      <trkpt lat="45.92026" lon="6.5105">
        <ele>2112</ele>
        <time>2022-02-19T11:56:18Z</time>
      </trkpt>
      <trkpt lat="45.92026" lon="6.51053">
        <ele>2112</ele>
        <time>2022-02-19T11:56:25Z</time>
      </trkpt>
      <trkpt lat="45.9202" lon="6.51045">
        <ele>2116</ele>
        <time>2022-02-19T11:57:06Z</time>
      </trkpt>
      <trkpt lat="45.92017" lon="6.5104">
        <ele>2117</ele>
        <time>2022-02-19T11:57:11Z</time>
      </trkpt>
      <trkpt lat="45.92016" lon="6.51038">
        <ele>2118</ele>
        <time>2022-02-19T11:57:16Z</time>
      </trkpt>
      <trkpt lat="45.92014" lon="6.51035">
        <ele>2118</ele>
        <time>2022-02-19T11:57:19Z</time>
      </trkpt>
      <trkpt lat="45.92013" lon="6.51032">
        <ele>2118</ele>
        <time>2022-02-19T11:57:22Z</time>
      </trkpt>
      <trkpt lat="45.92012" lon="6.51029">
        <ele>2119</ele>
        <time>2022-02-19T11:57:27Z</time>
      </trkpt>
      <trkpt lat="45.92015" lon="6.5103">
        <ele>2119</ele>
        <time>2022-02-19T11:57:40Z</time>
      </trkpt>
      <trkpt lat="45.92014" lon="6.51027">
        <ele>2120</ele>
        <time>2022-02-19T11:57:54Z</time>
      </trkpt>
      <trkpt lat="45.92012" lon="6.51028">
        <ele>2121</ele>
        <time>2022-02-19T11:58:10Z</time>
      </trkpt>
      <trkpt lat="45.92011" lon="6.51031">
        <ele>2122</ele>
        <time>2022-02-19T11:58:13Z</time>
      </trkpt>
      <trkpt lat="45.9201" lon="6.51034">
        <ele>2122</ele>
        <time>2022-02-19T11:58:16Z</time>
      </trkpt>
      <trkpt lat="45.9201" lon="6.51037">
        <ele>2122</ele>
        <time>2022-02-19T11:58:19Z</time>
      </trkpt>
      <trkpt lat="45.92009" lon="6.5104">
        <ele>2123</ele>
        <time>2022-02-19T11:58:22Z</time>
      </trkpt>
      <trkpt lat="45.92008" lon="6.51043">
        <ele>2123</ele>
        <time>2022-02-19T11:58:25Z</time>
      </trkpt>
      <trkpt lat="45.92008" lon="6.51046">
        <ele>2124</ele>
        <time>2022-02-19T11:58:29Z</time>
      </trkpt>
      <trkpt lat="45.92008" lon="6.51049">
        <ele>2124</ele>
        <time>2022-02-19T11:58:33Z</time>
      </trkpt>
      <trkpt lat="45.92007" lon="6.51052">
        <ele>2125</ele>
        <time>2022-02-19T11:58:40Z</time>
      </trkpt>
      <trkpt lat="45.92006" lon="6.51054">
        <ele>2126</ele>
        <time>2022-02-19T11:58:48Z</time>
      </trkpt>
      <trkpt lat="45.92006" lon="6.51051">
        <ele>2126</ele>
        <time>2022-02-19T11:58:55Z</time>
      </trkpt>
      <trkpt lat="45.92005" lon="6.51049">
        <ele>2126</ele>
        <time>2022-02-19T11:58:59Z</time>
      </trkpt>
      <trkpt lat="45.92004" lon="6.51046">
        <ele>2126</ele>
        <time>2022-02-19T11:59:02Z</time>
      </trkpt>
      <trkpt lat="45.92004" lon="6.51044">
        <ele>2127</ele>
        <time>2022-02-19T11:59:05Z</time>
      </trkpt>
      <trkpt lat="45.92003" lon="6.51041">
        <ele>2127</ele>
        <time>2022-02-19T11:59:11Z</time>
      </trkpt>
      <trkpt lat="45.92008" lon="6.51037">
        <ele>2128</ele>
        <time>2022-02-19T11:59:26Z</time>
      </trkpt>
      <trkpt lat="45.92007" lon="6.51035">
        <ele>2128</ele>
        <time>2022-02-19T11:59:29Z</time>
      </trkpt>
      <trkpt lat="45.92005" lon="6.51034">
        <ele>2129</ele>
        <time>2022-02-19T11:59:46Z</time>
      </trkpt>
      <trkpt lat="45.92003" lon="6.51033">
        <ele>2130</ele>
        <time>2022-02-19T11:59:56Z</time>
      </trkpt>
      <trkpt lat="45.92002" lon="6.51036">
        <ele>2131</ele>
        <time>2022-02-19T12:00:01Z</time>
      </trkpt>
      <trkpt lat="45.92001" lon="6.51039">
        <ele>2131</ele>
        <time>2022-02-19T12:00:04Z</time>
      </trkpt>
      <trkpt lat="45.91999" lon="6.51041">
        <ele>2131</ele>
        <time>2022-02-19T12:00:07Z</time>
      </trkpt>
      <trkpt lat="45.91991" lon="6.51049">
        <ele>2133</ele>
        <time>2022-02-19T12:00:19Z</time>
      </trkpt>
      <trkpt lat="45.91993" lon="6.51052">
        <ele>2134</ele>
        <time>2022-02-19T12:00:26Z</time>
      </trkpt>
      <trkpt lat="45.91992" lon="6.51055">
        <ele>2135</ele>
        <time>2022-02-19T12:00:57Z</time>
      </trkpt>
      <trkpt lat="45.91991" lon="6.51058">
        <ele>2135</ele>
        <time>2022-02-19T12:01:04Z</time>
      </trkpt>
      <trkpt lat="45.91988" lon="6.51054">
        <ele>2135</ele>
        <time>2022-02-19T12:01:13Z</time>
      </trkpt>
      <trkpt lat="45.91988" lon="6.51051">
        <ele>2136</ele>
        <time>2022-02-19T12:01:27Z</time>
      </trkpt>
      <trkpt lat="45.91985" lon="6.51051">
        <ele>2137</ele>
        <time>2022-02-19T12:01:30Z</time>
      </trkpt>
      <trkpt lat="45.91984" lon="6.51049">
        <ele>2138</ele>
        <time>2022-02-19T12:01:38Z</time>
      </trkpt>
      <trkpt lat="45.91983" lon="6.51046">
        <ele>2140</ele>
        <time>2022-02-19T12:01:45Z</time>
      </trkpt>
      <trkpt lat="45.91982" lon="6.51043">
        <ele>2141</ele>
        <time>2022-02-19T12:01:56Z</time>
      </trkpt>
      <trkpt lat="45.91981" lon="6.5104">
        <ele>2141</ele>
        <time>2022-02-19T12:02:08Z</time>
      </trkpt>
      <trkpt lat="45.91983" lon="6.5104">
        <ele>2141</ele>
        <time>2022-02-19T12:02:24Z</time>
      </trkpt>
      <trkpt lat="45.91988" lon="6.51041">
        <ele>2141</ele>
        <time>2022-02-19T12:02:30Z</time>
      </trkpt>
      <trkpt lat="45.91986" lon="6.51039">
        <ele>2142</ele>
        <time>2022-02-19T12:02:56Z</time>
      </trkpt>
      <trkpt lat="45.91984" lon="6.51038">
        <ele>2142</ele>
        <time>2022-02-19T12:02:59Z</time>
      </trkpt>
      <trkpt lat="45.91983" lon="6.51039">
        <ele>2143</ele>
        <time>2022-02-19T12:03:04Z</time>
      </trkpt>
      <trkpt lat="45.9198" lon="6.5104">
        <ele>2144</ele>
        <time>2022-02-19T12:03:09Z</time>
      </trkpt>
      <trkpt lat="45.91979" lon="6.51042">
        <ele>2144</ele>
        <time>2022-02-19T12:03:15Z</time>
      </trkpt>
      <trkpt lat="45.91977" lon="6.51042">
        <ele>2146</ele>
        <time>2022-02-19T12:03:25Z</time>
      </trkpt>
      <trkpt lat="45.91975" lon="6.5104">
        <ele>2145</ele>
        <time>2022-02-19T12:03:30Z</time>
      </trkpt>
      <trkpt lat="45.91974" lon="6.51042">
        <ele>2146</ele>
        <time>2022-02-19T12:03:35Z</time>
      </trkpt>
      <trkpt lat="45.91972" lon="6.5104">
        <ele>2146</ele>
        <time>2022-02-19T12:03:42Z</time>
      </trkpt>
      <trkpt lat="45.91974" lon="6.51043">
        <ele>2146</ele>
        <time>2022-02-19T12:03:54Z</time>
      </trkpt>
      <trkpt lat="45.91976" lon="6.51047">
        <ele>2146</ele>
        <time>2022-02-19T12:03:55Z</time>
      </trkpt>
      <trkpt lat="45.91977" lon="6.5105">
        <ele>2146</ele>
        <time>2022-02-19T12:03:56Z</time>
      </trkpt>
      <trkpt lat="45.91978" lon="6.51052">
        <ele>2146</ele>
        <time>2022-02-19T12:03:57Z</time>
      </trkpt>
      <trkpt lat="45.91976" lon="6.51051">
        <ele>2146</ele>
        <time>2022-02-19T12:04:35Z</time>
      </trkpt>
      <trkpt lat="45.91975" lon="6.51046">
        <ele>2146</ele>
        <time>2022-02-19T12:04:49Z</time>
      </trkpt>
      <trkpt lat="45.91976" lon="6.51048">
        <ele>2146</ele>
        <time>2022-02-19T12:05:37Z</time>
      </trkpt>
      <trkpt lat="45.91977" lon="6.51045">
        <ele>2146</ele>
        <time>2022-02-19T12:06:32Z</time>
      </trkpt>
      <trkpt lat="45.91976" lon="6.51042">
        <ele>2146</ele>
        <time>2022-02-19T12:06:37Z</time>
      </trkpt>
      <trkpt lat="45.91975" lon="6.51039">
        <ele>2147</ele>
        <time>2022-02-19T12:06:40Z</time>
      </trkpt>
      <trkpt lat="45.91975" lon="6.51036">
        <ele>2147</ele>
        <time>2022-02-19T12:06:45Z</time>
      </trkpt>
      <trkpt lat="45.91976" lon="6.51034">
        <ele>2149</ele>
        <time>2022-02-19T12:06:53Z</time>
      </trkpt>
      <trkpt lat="45.91975" lon="6.51032">
        <ele>2149</ele>
        <time>2022-02-19T12:07:00Z</time>
      </trkpt>
      <trkpt lat="45.91974" lon="6.51029">
        <ele>2149</ele>
        <time>2022-02-19T12:07:12Z</time>
      </trkpt>
      <trkpt lat="45.91974" lon="6.51026">
        <ele>2150</ele>
        <time>2022-02-19T12:07:20Z</time>
      </trkpt>
      <trkpt lat="45.91976" lon="6.51024">
        <ele>2151</ele>
        <time>2022-02-19T12:07:26Z</time>
      </trkpt>
      <trkpt lat="45.91974" lon="6.51022">
        <ele>2151</ele>
        <time>2022-02-19T12:07:34Z</time>
      </trkpt>
      <trkpt lat="45.91971" lon="6.51017">
        <ele>2150</ele>
        <time>2022-02-19T12:07:38Z</time>
      </trkpt>
      <trkpt lat="45.91972" lon="6.51018">
        <ele>2150</ele>
        <time>2022-02-19T12:07:46Z</time>
      </trkpt>
      <trkpt lat="45.91972" lon="6.51015">
        <ele>2151</ele>
        <time>2022-02-19T12:08:04Z</time>
      </trkpt>
      <trkpt lat="45.91974" lon="6.51019">
        <ele>2151</ele>
        <time>2022-02-19T12:08:09Z</time>
      </trkpt>
      <trkpt lat="45.91977" lon="6.51026">
        <ele>2150</ele>
        <time>2022-02-19T12:08:24Z</time>
      </trkpt>
      <trkpt lat="45.91974" lon="6.51027">
        <ele>2150</ele>
        <time>2022-02-19T12:08:40Z</time>
      </trkpt>
      <trkpt lat="45.91979" lon="6.51025">
        <ele>2150</ele>
        <time>2022-02-19T12:09:16Z</time>
      </trkpt>
      <trkpt lat="45.9197" lon="6.51016">
        <ele>2150</ele>
        <time>2022-02-19T12:09:50Z</time>
      </trkpt>
      <trkpt lat="45.91979" lon="6.51021">
        <ele>2151</ele>
        <time>2022-02-19T12:10:09Z</time>
      </trkpt>
      <trkpt lat="45.91973" lon="6.5101">
        <ele>2152</ele>
        <time>2022-02-19T12:10:28Z</time>
      </trkpt>
      <trkpt lat="45.91975" lon="6.51013">
        <ele>2152</ele>
        <time>2022-02-19T12:10:31Z</time>
      </trkpt>
      <trkpt lat="45.91973" lon="6.51013">
        <ele>2152</ele>
        <time>2022-02-19T12:10:35Z</time>
      </trkpt>
      <trkpt lat="45.91966" lon="6.51014">
        <ele>2153</ele>
        <time>2022-02-19T12:10:43Z</time>
      </trkpt>
      <trkpt lat="45.91965" lon="6.51016">
        <ele>2153</ele>
        <time>2022-02-19T12:10:46Z</time>
      </trkpt>
      <trkpt lat="45.91963" lon="6.51017">
        <ele>2153</ele>
        <time>2022-02-19T12:10:49Z</time>
      </trkpt>
      <trkpt lat="45.91966" lon="6.51022">
        <ele>2154</ele>
        <time>2022-02-19T12:10:54Z</time>
      </trkpt>
      <trkpt lat="45.91967" lon="6.51025">
        <ele>2154</ele>
        <time>2022-02-19T12:10:56Z</time>
      </trkpt>
      <trkpt lat="45.91969" lon="6.51027">
        <ele>2155</ele>
        <time>2022-02-19T12:10:58Z</time>
      </trkpt>
      <trkpt lat="45.9197" lon="6.51031">
        <ele>2155</ele>
        <time>2022-02-19T12:11:01Z</time>
      </trkpt>
      <trkpt lat="45.91971" lon="6.51034">
        <ele>2154</ele>
        <time>2022-02-19T12:11:03Z</time>
      </trkpt>
      <trkpt lat="45.9197" lon="6.51037">
        <ele>2154</ele>
        <time>2022-02-19T12:11:09Z</time>
      </trkpt>
      <trkpt lat="45.91969" lon="6.5104">
        <ele>2155</ele>
        <time>2022-02-19T12:11:13Z</time>
      </trkpt>
      <trkpt lat="45.91968" lon="6.51042">
        <ele>2155</ele>
        <time>2022-02-19T12:11:16Z</time>
      </trkpt>
      <trkpt lat="45.91968" lon="6.51045">
        <ele>2155</ele>
        <time>2022-02-19T12:11:19Z</time>
      </trkpt>
      <trkpt lat="45.91967" lon="6.51048">
        <ele>2155</ele>
        <time>2022-02-19T12:11:22Z</time>
      </trkpt>
      <trkpt lat="45.91966" lon="6.5105">
        <ele>2155</ele>
        <time>2022-02-19T12:11:25Z</time>
      </trkpt>
      <trkpt lat="45.91965" lon="6.51052">
        <ele>2156</ele>
        <time>2022-02-19T12:11:28Z</time>
      </trkpt>
      <trkpt lat="45.91964" lon="6.51056">
        <ele>2156</ele>
        <time>2022-02-19T12:11:32Z</time>
      </trkpt>
      <trkpt lat="45.91964" lon="6.51059">
        <ele>2156</ele>
        <time>2022-02-19T12:11:36Z</time>
      </trkpt>
      <trkpt lat="45.91964" lon="6.51062">
        <ele>2156</ele>
        <time>2022-02-19T12:11:40Z</time>
      </trkpt>
      <trkpt lat="45.91964" lon="6.51065">
        <ele>2156</ele>
        <time>2022-02-19T12:11:46Z</time>
      </trkpt>
      <trkpt lat="45.91964" lon="6.51067">
        <ele>2156</ele>
        <time>2022-02-19T12:11:51Z</time>
      </trkpt>
      <trkpt lat="45.91966" lon="6.5107">
        <ele>2157</ele>
        <time>2022-02-19T12:12:02Z</time>
      </trkpt>
      <trkpt lat="45.91966" lon="6.51073">
        <ele>2157</ele>
        <time>2022-02-19T12:12:05Z</time>
      </trkpt>
      <trkpt lat="45.91966" lon="6.51076">
        <ele>2157</ele>
        <time>2022-02-19T12:12:08Z</time>
      </trkpt>
      <trkpt lat="45.91965" lon="6.51079">
        <ele>2157</ele>
        <time>2022-02-19T12:12:12Z</time>
      </trkpt>
      <trkpt lat="45.91964" lon="6.51082">
        <ele>2158</ele>
        <time>2022-02-19T12:12:15Z</time>
      </trkpt>
      <trkpt lat="45.91964" lon="6.51086">
        <ele>2159</ele>
        <time>2022-02-19T12:12:18Z</time>
      </trkpt>
      <trkpt lat="45.91965" lon="6.51089">
        <ele>2160</ele>
        <time>2022-02-19T12:12:21Z</time>
      </trkpt>
      <trkpt lat="45.91965" lon="6.51092">
        <ele>2160</ele>
        <time>2022-02-19T12:12:25Z</time>
      </trkpt>
      <trkpt lat="45.91966" lon="6.51095">
        <ele>2159</ele>
        <time>2022-02-19T12:12:28Z</time>
      </trkpt>
      <trkpt lat="45.91967" lon="6.51098">
        <ele>2159</ele>
        <time>2022-02-19T12:12:31Z</time>
      </trkpt>
      <trkpt lat="45.91967" lon="6.51101">
        <ele>2159</ele>
        <time>2022-02-19T12:12:34Z</time>
      </trkpt>
      <trkpt lat="45.91968" lon="6.51104">
        <ele>2159</ele>
        <time>2022-02-19T12:13:12Z</time>
      </trkpt>
      <trkpt lat="45.91967" lon="6.51106">
        <ele>2159</ele>
        <time>2022-02-19T12:13:45Z</time>
      </trkpt>
      <trkpt lat="45.91969" lon="6.51103">
        <ele>2160</ele>
        <time>2022-02-19T12:13:59Z</time>
      </trkpt>
      <trkpt lat="45.91968" lon="6.51106">
        <ele>2159</ele>
        <time>2022-02-19T12:14:04Z</time>
      </trkpt>
      <trkpt lat="45.91967" lon="6.51109">
        <ele>2160</ele>
        <time>2022-02-19T12:14:09Z</time>
      </trkpt>
      <trkpt lat="45.91967" lon="6.51112">
        <ele>2160</ele>
        <time>2022-02-19T12:14:13Z</time>
      </trkpt>
      <trkpt lat="45.91967" lon="6.51114">
        <ele>2160</ele>
        <time>2022-02-19T12:14:16Z</time>
      </trkpt>
      <trkpt lat="45.91967" lon="6.51117">
        <ele>2160</ele>
        <time>2022-02-19T12:14:20Z</time>
      </trkpt>
      <trkpt lat="45.91969" lon="6.51119">
        <ele>2160</ele>
        <time>2022-02-19T12:14:24Z</time>
      </trkpt>
      <trkpt lat="45.91969" lon="6.51125">
        <ele>2160</ele>
        <time>2022-02-19T12:14:28Z</time>
      </trkpt>
      <trkpt lat="45.91969" lon="6.51128">
        <ele>2160</ele>
        <time>2022-02-19T12:14:30Z</time>
      </trkpt>
      <trkpt lat="45.9197" lon="6.51131">
        <ele>2159</ele>
        <time>2022-02-19T12:14:33Z</time>
      </trkpt>
      <trkpt lat="45.91971" lon="6.51134">
        <ele>2159</ele>
        <time>2022-02-19T12:14:36Z</time>
      </trkpt>
      <trkpt lat="45.91971" lon="6.51138">
        <ele>2159</ele>
        <time>2022-02-19T12:14:40Z</time>
      </trkpt>
      <trkpt lat="45.91971" lon="6.51141">
        <ele>2159</ele>
        <time>2022-02-19T12:14:42Z</time>
      </trkpt>
      <trkpt lat="45.91972" lon="6.51144">
        <ele>2160</ele>
        <time>2022-02-19T12:14:45Z</time>
      </trkpt>
      <trkpt lat="45.91973" lon="6.51148">
        <ele>2160</ele>
        <time>2022-02-19T12:14:48Z</time>
      </trkpt>
      <trkpt lat="45.91973" lon="6.5115">
        <ele>2160</ele>
        <time>2022-02-19T12:14:50Z</time>
      </trkpt>
      <trkpt lat="45.91974" lon="6.51153">
        <ele>2160</ele>
        <time>2022-02-19T12:14:54Z</time>
      </trkpt>
      <trkpt lat="45.91973" lon="6.51156">
        <ele>2161</ele>
        <time>2022-02-19T12:14:57Z</time>
      </trkpt>
      <trkpt lat="45.91973" lon="6.51159">
        <ele>2161</ele>
        <time>2022-02-19T12:15:00Z</time>
      </trkpt>
      <trkpt lat="45.91972" lon="6.51162">
        <ele>2161</ele>
        <time>2022-02-19T12:15:04Z</time>
      </trkpt>
      <trkpt lat="45.91972" lon="6.51165">
        <ele>2161</ele>
        <time>2022-02-19T12:15:06Z</time>
      </trkpt>
      <trkpt lat="45.91971" lon="6.51168">
        <ele>2162</ele>
        <time>2022-02-19T12:15:11Z</time>
      </trkpt>
      <trkpt lat="45.91971" lon="6.51172">
        <ele>2162</ele>
        <time>2022-02-19T12:15:14Z</time>
      </trkpt>
      <trkpt lat="45.91971" lon="6.51174">
        <ele>2162</ele>
        <time>2022-02-19T12:15:17Z</time>
      </trkpt>
      <trkpt lat="45.91971" lon="6.51178">
        <ele>2163</ele>
        <time>2022-02-19T12:15:20Z</time>
      </trkpt>
      <trkpt lat="45.91971" lon="6.51181">
        <ele>2163</ele>
        <time>2022-02-19T12:15:23Z</time>
      </trkpt>
      <trkpt lat="45.91969" lon="6.51186">
        <ele>2163</ele>
        <time>2022-02-19T12:15:28Z</time>
      </trkpt>
      <trkpt lat="45.91967" lon="6.5118">
        <ele>2163</ele>
        <time>2022-02-19T12:15:49Z</time>
      </trkpt>
      <trkpt lat="45.91971" lon="6.51177">
        <ele>2162</ele>
        <time>2022-02-19T12:15:53Z</time>
      </trkpt>
      <trkpt lat="45.9197" lon="6.51187">
        <ele>2163</ele>
        <time>2022-02-19T12:16:12Z</time>
      </trkpt>
      <trkpt lat="45.91971" lon="6.51186">
        <ele>2163</ele>
        <time>2022-02-19T12:16:22Z</time>
      </trkpt>
      <trkpt lat="45.91973" lon="6.51183">
        <ele>2163</ele>
        <time>2022-02-19T12:16:38Z</time>
      </trkpt>
      <trkpt lat="45.91965" lon="6.51183">
        <ele>2163</ele>
        <time>2022-02-19T12:28:21Z</time>
      </trkpt>
      <trkpt lat="45.91965" lon="6.5119">
        <ele>2163</ele>
        <time>2022-02-19T12:28:58Z</time>
      </trkpt>
      <trkpt lat="45.91966" lon="6.51175">
        <ele>2161</ele>
        <time>2022-02-19T12:29:25Z</time>
      </trkpt>
      <trkpt lat="45.91959" lon="6.51166">
        <ele>2161</ele>
        <time>2022-02-19T12:29:43Z</time>
      </trkpt>
      <trkpt lat="45.91961" lon="6.51181">
        <ele>2162</ele>
        <time>2022-02-19T12:29:53Z</time>
      </trkpt>
      <trkpt lat="45.91963" lon="6.51194">
        <ele>2163</ele>
        <time>2022-02-19T12:30:23Z</time>
      </trkpt>
      <trkpt lat="45.9196" lon="6.51206">
        <ele>2164</ele>
        <time>2022-02-19T12:30:40Z</time>
      </trkpt>
      <trkpt lat="45.91954" lon="6.51217">
        <ele>2165</ele>
        <time>2022-02-19T12:30:50Z</time>
      </trkpt>
      <trkpt lat="45.91949" lon="6.51228">
        <ele>2166</ele>
        <time>2022-02-19T12:31:03Z</time>
      </trkpt>
      <trkpt lat="45.91942" lon="6.51237">
        <ele>2167</ele>
        <time>2022-02-19T12:31:20Z</time>
      </trkpt>
      <trkpt lat="45.91939" lon="6.5125">
        <ele>2168</ele>
        <time>2022-02-19T12:31:32Z</time>
      </trkpt>
      <trkpt lat="45.91934" lon="6.5126">
        <ele>2167</ele>
        <time>2022-02-19T12:31:46Z</time>
      </trkpt>
      <trkpt lat="45.91934" lon="6.51274">
        <ele>2166</ele>
        <time>2022-02-19T12:32:01Z</time>
      </trkpt>
      <trkpt lat="45.91931" lon="6.51287">
        <ele>2167</ele>
        <time>2022-02-19T12:32:16Z</time>
      </trkpt>
      <trkpt lat="45.91928" lon="6.51299">
        <ele>2171</ele>
        <time>2022-02-19T12:32:33Z</time>
      </trkpt>
      <trkpt lat="45.91925" lon="6.51312">
        <ele>2172</ele>
        <time>2022-02-19T12:32:48Z</time>
      </trkpt>
      <trkpt lat="45.91924" lon="6.51325">
        <ele>2173</ele>
        <time>2022-02-19T12:33:05Z</time>
      </trkpt>
      <trkpt lat="45.91923" lon="6.51338">
        <ele>2175</ele>
        <time>2022-02-19T12:33:28Z</time>
      </trkpt>
      <trkpt lat="45.91924" lon="6.51352">
        <ele>2177</ele>
        <time>2022-02-19T12:33:41Z</time>
      </trkpt>
      <trkpt lat="45.91923" lon="6.51365">
        <ele>2179</ele>
        <time>2022-02-19T12:33:57Z</time>
      </trkpt>
      <trkpt lat="45.91925" lon="6.51378">
        <ele>2183</ele>
        <time>2022-02-19T12:34:22Z</time>
      </trkpt>
      <trkpt lat="45.91929" lon="6.51388">
        <ele>2184</ele>
        <time>2022-02-19T12:35:26Z</time>
      </trkpt>
      <trkpt lat="45.9193" lon="6.5139">
        <ele>2184</ele>
        <time>2022-02-19T12:35:29Z</time>
      </trkpt>
      <trkpt lat="45.91931" lon="6.51392">
        <ele>2184</ele>
        <time>2022-02-19T12:35:31Z</time>
      </trkpt>
      <trkpt lat="45.91932" lon="6.51395">
        <ele>2186</ele>
        <time>2022-02-19T12:35:34Z</time>
      </trkpt>
      <trkpt lat="45.91931" lon="6.51398">
        <ele>2186</ele>
        <time>2022-02-19T12:35:38Z</time>
      </trkpt>
      <trkpt lat="45.91935" lon="6.5141">
        <ele>2189</ele>
        <time>2022-02-19T12:35:54Z</time>
      </trkpt>
      <trkpt lat="45.91944" lon="6.51416">
        <ele>2191</ele>
        <time>2022-02-19T12:36:58Z</time>
      </trkpt>
      <trkpt lat="45.91938" lon="6.51405">
        <ele>2190</ele>
        <time>2022-02-19T12:37:14Z</time>
      </trkpt>
      <trkpt lat="45.91943" lon="6.51417">
        <ele>2191</ele>
        <time>2022-02-19T12:37:29Z</time>
      </trkpt>
      <trkpt lat="45.91942" lon="6.51424">
        <ele>2191</ele>
        <time>2022-02-19T12:38:05Z</time>
      </trkpt>
      <trkpt lat="45.9195" lon="6.51438">
        <ele>2190</ele>
        <time>2022-02-19T12:39:18Z</time>
      </trkpt>
      <trkpt lat="45.91946" lon="6.51424">
        <ele>2191</ele>
        <time>2022-02-19T12:39:29Z</time>
      </trkpt>
      <trkpt lat="45.91951" lon="6.51435">
        <ele>2195</ele>
        <time>2022-02-19T12:40:46Z</time>
      </trkpt>
      <trkpt lat="45.91955" lon="6.51447">
        <ele>2198</ele>
        <time>2022-02-19T12:41:06Z</time>
      </trkpt>
      <trkpt lat="45.9196" lon="6.51458">
        <ele>2201</ele>
        <time>2022-02-19T12:41:27Z</time>
      </trkpt>
      <trkpt lat="45.91953" lon="6.51449">
        <ele>2201</ele>
        <time>2022-02-19T12:41:46Z</time>
      </trkpt>
      <trkpt lat="45.91959" lon="6.51459">
        <ele>2202</ele>
        <time>2022-02-19T12:42:00Z</time>
      </trkpt>
      <trkpt lat="45.91966" lon="6.51468">
        <ele>2204</ele>
        <time>2022-02-19T12:42:12Z</time>
      </trkpt>
      <trkpt lat="45.91975" lon="6.51473">
        <ele>2208</ele>
        <time>2022-02-19T12:42:31Z</time>
      </trkpt>
      <trkpt lat="45.91983" lon="6.51477">
        <ele>2210</ele>
        <time>2022-02-19T12:42:47Z</time>
      </trkpt>
      <trkpt lat="45.91992" lon="6.51481">
        <ele>2211</ele>
        <time>2022-02-19T12:43:03Z</time>
      </trkpt>
      <trkpt lat="45.92002" lon="6.51482">
        <ele>2212</ele>
        <time>2022-02-19T12:43:24Z</time>
      </trkpt>
      <trkpt lat="45.92011" lon="6.51483">
        <ele>2216</ele>
        <time>2022-02-19T12:43:48Z</time>
      </trkpt>
      <trkpt lat="45.92001" lon="6.51482">
        <ele>2216</ele>
        <time>2022-02-19T12:44:10Z</time>
      </trkpt>
      <trkpt lat="45.92001" lon="6.51495">
        <ele>2218</ele>
        <time>2022-02-19T12:44:29Z</time>
      </trkpt>
      <trkpt lat="45.91998" lon="6.51502">
        <ele>2220</ele>
        <time>2022-02-19T12:44:39Z</time>
      </trkpt>
      <trkpt lat="45.91996" lon="6.51502">
        <ele>2220</ele>
        <time>2022-02-19T12:44:42Z</time>
      </trkpt>
      <trkpt lat="45.91993" lon="6.51502">
        <ele>2220</ele>
        <time>2022-02-19T12:44:46Z</time>
      </trkpt>
      <trkpt lat="45.91991" lon="6.51503">
        <ele>2221</ele>
        <time>2022-02-19T12:44:51Z</time>
      </trkpt>
      <trkpt lat="45.91988" lon="6.51502">
        <ele>2221</ele>
        <time>2022-02-19T12:44:53Z</time>
      </trkpt>
      <trkpt lat="45.91989" lon="6.51504">
        <ele>2222</ele>
        <time>2022-02-19T12:45:09Z</time>
      </trkpt>
      <trkpt lat="45.91991" lon="6.51506">
        <ele>2222</ele>
        <time>2022-02-19T12:45:13Z</time>
      </trkpt>
      <trkpt lat="45.91993" lon="6.51507">
        <ele>2223</ele>
        <time>2022-02-19T12:45:17Z</time>
      </trkpt>
      <trkpt lat="45.91995" lon="6.51508">
        <ele>2223</ele>
        <time>2022-02-19T12:45:20Z</time>
      </trkpt>
      <trkpt lat="45.91997" lon="6.51509">
        <ele>2225</ele>
        <time>2022-02-19T12:45:24Z</time>
      </trkpt>
      <trkpt lat="45.91999" lon="6.51511">
        <ele>2225</ele>
        <time>2022-02-19T12:45:27Z</time>
      </trkpt>
      <trkpt lat="45.92001" lon="6.51512">
        <ele>2226</ele>
        <time>2022-02-19T12:45:30Z</time>
      </trkpt>
      <trkpt lat="45.92003" lon="6.51514">
        <ele>2227</ele>
        <time>2022-02-19T12:45:52Z</time>
      </trkpt>
      <trkpt lat="45.92005" lon="6.51515">
        <ele>2227</ele>
        <time>2022-02-19T12:45:56Z</time>
      </trkpt>
      <trkpt lat="45.92003" lon="6.51517">
        <ele>2228</ele>
        <time>2022-02-19T12:46:09Z</time>
      </trkpt>
      <trkpt lat="45.92002" lon="6.51518">
        <ele>2228</ele>
        <time>2022-02-19T12:46:13Z</time>
      </trkpt>
      <trkpt lat="45.91998" lon="6.51521">
        <ele>2231</ele>
        <time>2022-02-19T12:46:22Z</time>
      </trkpt>
      <trkpt lat="45.91996" lon="6.51522">
        <ele>2231</ele>
        <time>2022-02-19T12:46:27Z</time>
      </trkpt>
      <trkpt lat="45.91994" lon="6.51523">
        <ele>2231</ele>
        <time>2022-02-19T12:46:32Z</time>
      </trkpt>
      <trkpt lat="45.91993" lon="6.51524">
        <ele>2232</ele>
        <time>2022-02-19T12:46:36Z</time>
      </trkpt>
      <trkpt lat="45.91991" lon="6.51525">
        <ele>2232</ele>
        <time>2022-02-19T12:46:40Z</time>
      </trkpt>
      <trkpt lat="45.91989" lon="6.51525">
        <ele>2233</ele>
        <time>2022-02-19T12:46:44Z</time>
      </trkpt>
      <trkpt lat="45.91987" lon="6.51524">
        <ele>2232</ele>
        <time>2022-02-19T12:46:53Z</time>
      </trkpt>
      <trkpt lat="45.91988" lon="6.51526">
        <ele>2232</ele>
        <time>2022-02-19T12:47:07Z</time>
      </trkpt>
      <trkpt lat="45.9199" lon="6.51528">
        <ele>2232</ele>
        <time>2022-02-19T12:47:31Z</time>
      </trkpt>
      <trkpt lat="45.91991" lon="6.5153">
        <ele>2233</ele>
        <time>2022-02-19T12:47:37Z</time>
      </trkpt>
      <trkpt lat="45.91993" lon="6.51531">
        <ele>2233</ele>
        <time>2022-02-19T12:47:41Z</time>
      </trkpt>
      <trkpt lat="45.91995" lon="6.51533">
        <ele>2234</ele>
        <time>2022-02-19T12:47:45Z</time>
      </trkpt>
      <trkpt lat="45.91996" lon="6.51534">
        <ele>2235</ele>
        <time>2022-02-19T12:47:50Z</time>
      </trkpt>
      <trkpt lat="45.91998" lon="6.51536">
        <ele>2235</ele>
        <time>2022-02-19T12:47:55Z</time>
      </trkpt>
      <trkpt lat="45.92" lon="6.51537">
        <ele>2235</ele>
        <time>2022-02-19T12:48:01Z</time>
      </trkpt>
      <trkpt lat="45.92002" lon="6.51539">
        <ele>2236</ele>
        <time>2022-02-19T12:48:04Z</time>
      </trkpt>
      <trkpt lat="45.92003" lon="6.51541">
        <ele>2237</ele>
        <time>2022-02-19T12:48:14Z</time>
      </trkpt>
      <trkpt lat="45.92002" lon="6.51542">
        <ele>2238</ele>
        <time>2022-02-19T12:48:18Z</time>
      </trkpt>
      <trkpt lat="45.92" lon="6.51544">
        <ele>2238</ele>
        <time>2022-02-19T12:48:22Z</time>
      </trkpt>
      <trkpt lat="45.91998" lon="6.51546">
        <ele>2238</ele>
        <time>2022-02-19T12:48:26Z</time>
      </trkpt>
      <trkpt lat="45.91996" lon="6.51548">
        <ele>2239</ele>
        <time>2022-02-19T12:48:30Z</time>
      </trkpt>
      <trkpt lat="45.91995" lon="6.51549">
        <ele>2238</ele>
        <time>2022-02-19T12:48:34Z</time>
      </trkpt>
      <trkpt lat="45.91993" lon="6.5155">
        <ele>2240</ele>
        <time>2022-02-19T12:48:39Z</time>
      </trkpt>
      <trkpt lat="45.91991" lon="6.51552">
        <ele>2240</ele>
        <time>2022-02-19T12:48:43Z</time>
      </trkpt>
      <trkpt lat="45.91989" lon="6.51551">
        <ele>2241</ele>
        <time>2022-02-19T12:48:48Z</time>
      </trkpt>
      <trkpt lat="45.91986" lon="6.51551">
        <ele>2241</ele>
        <time>2022-02-19T12:48:51Z</time>
      </trkpt>
      <trkpt lat="45.91984" lon="6.51552">
        <ele>2241</ele>
        <time>2022-02-19T12:48:55Z</time>
      </trkpt>
      <trkpt lat="45.91983" lon="6.51554">
        <ele>2241</ele>
        <time>2022-02-19T12:48:58Z</time>
      </trkpt>
      <trkpt lat="45.91981" lon="6.51555">
        <ele>2242</ele>
        <time>2022-02-19T12:49:02Z</time>
      </trkpt>
      <trkpt lat="45.9198" lon="6.51558">
        <ele>2243</ele>
        <time>2022-02-19T12:49:06Z</time>
      </trkpt>
      <trkpt lat="45.91979" lon="6.5156">
        <ele>2243</ele>
        <time>2022-02-19T12:49:10Z</time>
      </trkpt>
      <trkpt lat="45.91976" lon="6.51567">
        <ele>2243</ele>
        <time>2022-02-19T12:49:26Z</time>
      </trkpt>
      <trkpt lat="45.91977" lon="6.51564">
        <ele>2243</ele>
        <time>2022-02-19T12:49:35Z</time>
      </trkpt>
      <trkpt lat="45.91978" lon="6.51559">
        <ele>2244</ele>
        <time>2022-02-19T12:49:50Z</time>
      </trkpt>
      <trkpt lat="45.91977" lon="6.51562">
        <ele>2243</ele>
        <time>2022-02-19T12:49:56Z</time>
      </trkpt>
      <trkpt lat="45.91975" lon="6.51564">
        <ele>2244</ele>
        <time>2022-02-19T12:50:00Z</time>
      </trkpt>
      <trkpt lat="45.91973" lon="6.51566">
        <ele>2244</ele>
        <time>2022-02-19T12:50:02Z</time>
      </trkpt>
      <trkpt lat="45.91972" lon="6.51568">
        <ele>2244</ele>
        <time>2022-02-19T12:50:05Z</time>
      </trkpt>
      <trkpt lat="45.91971" lon="6.51571">
        <ele>2245</ele>
        <time>2022-02-19T12:50:09Z</time>
      </trkpt>
      <trkpt lat="45.9197" lon="6.51573">
        <ele>2245</ele>
        <time>2022-02-19T12:50:14Z</time>
      </trkpt>
      <trkpt lat="45.91969" lon="6.51575">
        <ele>2245</ele>
        <time>2022-02-19T12:50:17Z</time>
      </trkpt>
      <trkpt lat="45.91967" lon="6.51577">
        <ele>2246</ele>
        <time>2022-02-19T12:50:20Z</time>
      </trkpt>
      <trkpt lat="45.91966" lon="6.5158">
        <ele>2246</ele>
        <time>2022-02-19T12:50:24Z</time>
      </trkpt>
      <trkpt lat="45.91965" lon="6.51582">
        <ele>2247</ele>
        <time>2022-02-19T12:50:28Z</time>
      </trkpt>
      <trkpt lat="45.91963" lon="6.51584">
        <ele>2248</ele>
        <time>2022-02-19T12:50:33Z</time>
      </trkpt>
      <trkpt lat="45.91962" lon="6.51585">
        <ele>2248</ele>
        <time>2022-02-19T12:50:36Z</time>
      </trkpt>
      <trkpt lat="45.9196" lon="6.51588">
        <ele>2249</ele>
        <time>2022-02-19T12:50:40Z</time>
      </trkpt>
      <trkpt lat="45.91958" lon="6.51588">
        <ele>2249</ele>
        <time>2022-02-19T12:50:46Z</time>
      </trkpt>
      <trkpt lat="45.91956" lon="6.51589">
        <ele>2249</ele>
        <time>2022-02-19T12:50:49Z</time>
      </trkpt>
      <trkpt lat="45.91954" lon="6.5159">
        <ele>2250</ele>
        <time>2022-02-19T12:50:54Z</time>
      </trkpt>
      <trkpt lat="45.91953" lon="6.51591">
        <ele>2251</ele>
        <time>2022-02-19T12:50:59Z</time>
      </trkpt>
      <trkpt lat="45.91951" lon="6.51591">
        <ele>2251</ele>
        <time>2022-02-19T12:51:03Z</time>
      </trkpt>
      <trkpt lat="45.91949" lon="6.51592">
        <ele>2252</ele>
        <time>2022-02-19T12:51:08Z</time>
      </trkpt>
      <trkpt lat="45.91947" lon="6.51592">
        <ele>2252</ele>
        <time>2022-02-19T12:51:12Z</time>
      </trkpt>
      <trkpt lat="45.91945" lon="6.51593">
        <ele>2253</ele>
        <time>2022-02-19T12:51:16Z</time>
      </trkpt>
      <trkpt lat="45.91943" lon="6.51593">
        <ele>2254</ele>
        <time>2022-02-19T12:51:21Z</time>
      </trkpt>
      <trkpt lat="45.91941" lon="6.51592">
        <ele>2254</ele>
        <time>2022-02-19T12:51:26Z</time>
      </trkpt>
      <trkpt lat="45.91939" lon="6.51593">
        <ele>2254</ele>
        <time>2022-02-19T12:51:30Z</time>
      </trkpt>
      <trkpt lat="45.91937" lon="6.51594">
        <ele>2255</ele>
        <time>2022-02-19T12:51:34Z</time>
      </trkpt>
      <trkpt lat="45.91935" lon="6.51594">
        <ele>2255</ele>
        <time>2022-02-19T12:51:39Z</time>
      </trkpt>
      <trkpt lat="45.91933" lon="6.51595">
        <ele>2256</ele>
        <time>2022-02-19T12:51:44Z</time>
      </trkpt>
      <trkpt lat="45.91931" lon="6.51595">
        <ele>2256</ele>
        <time>2022-02-19T12:51:47Z</time>
      </trkpt>
      <trkpt lat="45.91929" lon="6.51595">
        <ele>2257</ele>
        <time>2022-02-19T12:51:51Z</time>
      </trkpt>
      <trkpt lat="45.91927" lon="6.51595">
        <ele>2258</ele>
        <time>2022-02-19T12:51:58Z</time>
      </trkpt>
      <trkpt lat="45.91924" lon="6.51595">
        <ele>2257</ele>
        <time>2022-02-19T12:52:01Z</time>
      </trkpt>
      <trkpt lat="45.91922" lon="6.51595">
        <ele>2259</ele>
        <time>2022-02-19T12:52:04Z</time>
      </trkpt>
      <trkpt lat="45.9192" lon="6.51594">
        <ele>2258</ele>
        <time>2022-02-19T12:52:08Z</time>
      </trkpt>
      <trkpt lat="45.91918" lon="6.51593">
        <ele>2260</ele>
        <time>2022-02-19T12:52:12Z</time>
      </trkpt>
      <trkpt lat="45.91909" lon="6.51592">
        <ele>2261</ele>
        <time>2022-02-19T12:52:31Z</time>
      </trkpt>
      <trkpt lat="45.91904" lon="6.51599">
        <ele>2264</ele>
        <time>2022-02-19T12:52:49Z</time>
      </trkpt>
      <trkpt lat="45.91906" lon="6.51602">
        <ele>2264</ele>
        <time>2022-02-19T12:53:07Z</time>
      </trkpt>
      <trkpt lat="45.91907" lon="6.51605">
        <ele>2264</ele>
        <time>2022-02-19T12:53:14Z</time>
      </trkpt>
      <trkpt lat="45.91909" lon="6.51608">
        <ele>2265</ele>
        <time>2022-02-19T12:53:20Z</time>
      </trkpt>
      <trkpt lat="45.91911" lon="6.51608">
        <ele>2267</ele>
        <time>2022-02-19T12:53:27Z</time>
      </trkpt>
      <trkpt lat="45.91912" lon="6.5161">
        <ele>2267</ele>
        <time>2022-02-19T12:53:29Z</time>
      </trkpt>
      <trkpt lat="45.91913" lon="6.51613">
        <ele>2267</ele>
        <time>2022-02-19T12:53:32Z</time>
      </trkpt>
      <trkpt lat="45.91914" lon="6.51615">
        <ele>2267</ele>
        <time>2022-02-19T12:53:36Z</time>
      </trkpt>
      <trkpt lat="45.91915" lon="6.51617">
        <ele>2268</ele>
        <time>2022-02-19T12:53:39Z</time>
      </trkpt>
      <trkpt lat="45.91916" lon="6.5162">
        <ele>2269</ele>
        <time>2022-02-19T12:53:43Z</time>
      </trkpt>
      <trkpt lat="45.91917" lon="6.51623">
        <ele>2269</ele>
        <time>2022-02-19T12:53:51Z</time>
      </trkpt>
      <trkpt lat="45.91919" lon="6.51624">
        <ele>2271</ele>
        <time>2022-02-19T12:54:09Z</time>
      </trkpt>
      <trkpt lat="45.9192" lon="6.51626">
        <ele>2271</ele>
        <time>2022-02-19T12:54:12Z</time>
      </trkpt>
      <trkpt lat="45.91922" lon="6.51628">
        <ele>2271</ele>
        <time>2022-02-19T12:54:15Z</time>
      </trkpt>
      <trkpt lat="45.91923" lon="6.5163">
        <ele>2271</ele>
        <time>2022-02-19T12:54:18Z</time>
      </trkpt>
      <trkpt lat="45.91925" lon="6.51632">
        <ele>2272</ele>
        <time>2022-02-19T12:54:23Z</time>
      </trkpt>
      <trkpt lat="45.91923" lon="6.51633">
        <ele>2273</ele>
        <time>2022-02-19T12:54:37Z</time>
      </trkpt>
      <trkpt lat="45.91921" lon="6.51634">
        <ele>2275</ele>
        <time>2022-02-19T12:54:44Z</time>
      </trkpt>
      <trkpt lat="45.91918" lon="6.51634">
        <ele>2276</ele>
        <time>2022-02-19T12:54:48Z</time>
      </trkpt>
      <trkpt lat="45.91916" lon="6.51635">
        <ele>2276</ele>
        <time>2022-02-19T12:54:52Z</time>
      </trkpt>
      <trkpt lat="45.91914" lon="6.51636">
        <ele>2276</ele>
        <time>2022-02-19T12:54:56Z</time>
      </trkpt>
      <trkpt lat="45.91913" lon="6.51638">
        <ele>2277</ele>
        <time>2022-02-19T12:55:01Z</time>
      </trkpt>
      <trkpt lat="45.91911" lon="6.51639">
        <ele>2278</ele>
        <time>2022-02-19T12:55:05Z</time>
      </trkpt>
      <trkpt lat="45.91909" lon="6.51639">
        <ele>2278</ele>
        <time>2022-02-19T12:55:10Z</time>
      </trkpt>
      <trkpt lat="45.91907" lon="6.5164">
        <ele>2279</ele>
        <time>2022-02-19T12:55:13Z</time>
      </trkpt>
      <trkpt lat="45.91905" lon="6.5164">
        <ele>2280</ele>
        <time>2022-02-19T12:55:18Z</time>
      </trkpt>
      <trkpt lat="45.91903" lon="6.51641">
        <ele>2280</ele>
        <time>2022-02-19T12:55:35Z</time>
      </trkpt>
      <trkpt lat="45.91902" lon="6.51642">
        <ele>2280</ele>
        <time>2022-02-19T12:55:48Z</time>
      </trkpt>
      <trkpt lat="45.919" lon="6.51645">
        <ele>2280</ele>
        <time>2022-02-19T12:55:51Z</time>
      </trkpt>
      <trkpt lat="45.91898" lon="6.51646">
        <ele>2281</ele>
        <time>2022-02-19T12:55:54Z</time>
      </trkpt>
      <trkpt lat="45.91896" lon="6.51647">
        <ele>2281</ele>
        <time>2022-02-19T12:55:58Z</time>
      </trkpt>
      <trkpt lat="45.91894" lon="6.51648">
        <ele>2282</ele>
        <time>2022-02-19T12:56:02Z</time>
      </trkpt>
      <trkpt lat="45.91893" lon="6.5165">
        <ele>2283</ele>
        <time>2022-02-19T12:56:09Z</time>
      </trkpt>
      <trkpt lat="45.91892" lon="6.51652">
        <ele>2283</ele>
        <time>2022-02-19T12:56:13Z</time>
      </trkpt>
      <trkpt lat="45.9189" lon="6.51653">
        <ele>2284</ele>
        <time>2022-02-19T12:56:18Z</time>
      </trkpt>
      <trkpt lat="45.91888" lon="6.51654">
        <ele>2285</ele>
        <time>2022-02-19T12:56:23Z</time>
      </trkpt>
      <trkpt lat="45.91886" lon="6.51655">
        <ele>2286</ele>
        <time>2022-02-19T12:56:30Z</time>
      </trkpt>
      <trkpt lat="45.91884" lon="6.51655">
        <ele>2286</ele>
        <time>2022-02-19T12:56:36Z</time>
      </trkpt>
      <trkpt lat="45.91883" lon="6.51657">
        <ele>2287</ele>
        <time>2022-02-19T12:56:41Z</time>
      </trkpt>
      <trkpt lat="45.91881" lon="6.51658">
        <ele>2288</ele>
        <time>2022-02-19T12:56:46Z</time>
      </trkpt>
      <trkpt lat="45.91879" lon="6.51657">
        <ele>2289</ele>
        <time>2022-02-19T12:56:49Z</time>
      </trkpt>
      <trkpt lat="45.91877" lon="6.51658">
        <ele>2290</ele>
        <time>2022-02-19T12:56:54Z</time>
      </trkpt>
      <trkpt lat="45.91875" lon="6.51659">
        <ele>2291</ele>
        <time>2022-02-19T12:57:00Z</time>
      </trkpt>
      <trkpt lat="45.91875" lon="6.51662">
        <ele>2291</ele>
        <time>2022-02-19T12:57:11Z</time>
      </trkpt>
      <trkpt lat="45.91878" lon="6.51666">
        <ele>2291</ele>
        <time>2022-02-19T12:57:30Z</time>
      </trkpt>
      <trkpt lat="45.9188" lon="6.51672">
        <ele>2290</ele>
        <time>2022-02-19T12:57:47Z</time>
      </trkpt>
      <trkpt lat="45.91878" lon="6.5167">
        <ele>2290</ele>
        <time>2022-02-19T12:57:54Z</time>
      </trkpt>
      <trkpt lat="45.91878" lon="6.51668">
        <ele>2290</ele>
        <time>2022-02-19T12:58:00Z</time>
      </trkpt>
      <trkpt lat="45.91879" lon="6.5167">
        <ele>2291</ele>
        <time>2022-02-19T12:58:09Z</time>
      </trkpt>
      <trkpt lat="45.9188" lon="6.51673">
        <ele>2292</ele>
        <time>2022-02-19T12:58:15Z</time>
      </trkpt>
      <trkpt lat="45.91881" lon="6.51674">
        <ele>2294</ele>
        <time>2022-02-19T12:58:41Z</time>
      </trkpt>
      <trkpt lat="45.91883" lon="6.51675">
        <ele>2294</ele>
        <time>2022-02-19T12:58:47Z</time>
      </trkpt>
      <trkpt lat="45.91885" lon="6.51677">
        <ele>2296</ele>
        <time>2022-02-19T12:59:02Z</time>
      </trkpt>
      <trkpt lat="45.91886" lon="6.51678">
        <ele>2296</ele>
        <time>2022-02-19T12:59:06Z</time>
      </trkpt>
      <trkpt lat="45.91889" lon="6.5168">
        <ele>2296</ele>
        <time>2022-02-19T12:59:11Z</time>
      </trkpt>
      <trkpt lat="45.91891" lon="6.51681">
        <ele>2297</ele>
        <time>2022-02-19T12:59:15Z</time>
      </trkpt>
      <trkpt lat="45.91892" lon="6.51683">
        <ele>2297</ele>
        <time>2022-02-19T12:59:19Z</time>
      </trkpt>
      <trkpt lat="45.91894" lon="6.51684">
        <ele>2299</ele>
        <time>2022-02-19T12:59:30Z</time>
      </trkpt>
      <trkpt lat="45.91896" lon="6.51686">
        <ele>2299</ele>
        <time>2022-02-19T12:59:33Z</time>
      </trkpt>
      <trkpt lat="45.91898" lon="6.51687">
        <ele>2300</ele>
        <time>2022-02-19T12:59:37Z</time>
      </trkpt>
      <trkpt lat="45.91899" lon="6.51688">
        <ele>2300</ele>
        <time>2022-02-19T12:59:41Z</time>
      </trkpt>
      <trkpt lat="45.91901" lon="6.5169">
        <ele>2300</ele>
        <time>2022-02-19T12:59:44Z</time>
      </trkpt>
      <trkpt lat="45.91902" lon="6.51692">
        <ele>2301</ele>
        <time>2022-02-19T12:59:48Z</time>
      </trkpt>
      <trkpt lat="45.91904" lon="6.51693">
        <ele>2302</ele>
        <time>2022-02-19T12:59:52Z</time>
      </trkpt>
      <trkpt lat="45.91905" lon="6.51695">
        <ele>2303</ele>
        <time>2022-02-19T12:59:57Z</time>
      </trkpt>
      <trkpt lat="45.91903" lon="6.51696">
        <ele>2304</ele>
        <time>2022-02-19T13:00:12Z</time>
      </trkpt>
      <trkpt lat="45.91901" lon="6.51697">
        <ele>2305</ele>
        <time>2022-02-19T13:00:17Z</time>
      </trkpt>
      <trkpt lat="45.91899" lon="6.51697">
        <ele>2305</ele>
        <time>2022-02-19T13:00:23Z</time>
      </trkpt>
      <trkpt lat="45.91897" lon="6.51698">
        <ele>2306</ele>
        <time>2022-02-19T13:00:29Z</time>
      </trkpt>
      <trkpt lat="45.91896" lon="6.517">
        <ele>2306</ele>
        <time>2022-02-19T13:00:33Z</time>
      </trkpt>
      <trkpt lat="45.91894" lon="6.51702">
        <ele>2306</ele>
        <time>2022-02-19T13:00:45Z</time>
      </trkpt>
      <trkpt lat="45.91893" lon="6.51703">
        <ele>2307</ele>
        <time>2022-02-19T13:00:52Z</time>
      </trkpt>
      <trkpt lat="45.91891" lon="6.51704">
        <ele>2308</ele>
        <time>2022-02-19T13:00:58Z</time>
      </trkpt>
      <trkpt lat="45.91889" lon="6.51705">
        <ele>2308</ele>
        <time>2022-02-19T13:01:02Z</time>
      </trkpt>
      <trkpt lat="45.91887" lon="6.51706">
        <ele>2309</ele>
        <time>2022-02-19T13:01:07Z</time>
      </trkpt>
      <trkpt lat="45.91885" lon="6.51707">
        <ele>2309</ele>
        <time>2022-02-19T13:01:11Z</time>
      </trkpt>
      <trkpt lat="45.91883" lon="6.51708">
        <ele>2310</ele>
        <time>2022-02-19T13:01:16Z</time>
      </trkpt>
      <trkpt lat="45.91882" lon="6.5171">
        <ele>2311</ele>
        <time>2022-02-19T13:01:18Z</time>
      </trkpt>
      <trkpt lat="45.9188" lon="6.51711">
        <ele>2311</ele>
        <time>2022-02-19T13:01:23Z</time>
      </trkpt>
      <trkpt lat="45.91878" lon="6.51712">
        <ele>2312</ele>
        <time>2022-02-19T13:01:26Z</time>
      </trkpt>
      <trkpt lat="45.91876" lon="6.51712">
        <ele>2312</ele>
        <time>2022-02-19T13:01:31Z</time>
      </trkpt>
      <trkpt lat="45.91874" lon="6.51713">
        <ele>2312</ele>
        <time>2022-02-19T13:01:35Z</time>
      </trkpt>
      <trkpt lat="45.91873" lon="6.51714">
        <ele>2313</ele>
        <time>2022-02-19T13:01:49Z</time>
      </trkpt>
      <trkpt lat="45.91871" lon="6.51715">
        <ele>2314</ele>
        <time>2022-02-19T13:01:55Z</time>
      </trkpt>
      <trkpt lat="45.91869" lon="6.51716">
        <ele>2315</ele>
        <time>2022-02-19T13:01:59Z</time>
      </trkpt>
      <trkpt lat="45.91867" lon="6.51716">
        <ele>2316</ele>
        <time>2022-02-19T13:02:05Z</time>
      </trkpt>
      <trkpt lat="45.91865" lon="6.51716">
        <ele>2316</ele>
        <time>2022-02-19T13:02:09Z</time>
      </trkpt>
      <trkpt lat="45.91863" lon="6.51716">
        <ele>2316</ele>
        <time>2022-02-19T13:02:14Z</time>
      </trkpt>
      <trkpt lat="45.91861" lon="6.51716">
        <ele>2317</ele>
        <time>2022-02-19T13:02:21Z</time>
      </trkpt>
      <trkpt lat="45.91859" lon="6.51717">
        <ele>2318</ele>
        <time>2022-02-19T13:02:25Z</time>
      </trkpt>
      <trkpt lat="45.91857" lon="6.51717">
        <ele>2318</ele>
        <time>2022-02-19T13:02:28Z</time>
      </trkpt>
      <trkpt lat="45.91855" lon="6.51716">
        <ele>2318</ele>
        <time>2022-02-19T13:02:32Z</time>
      </trkpt>
      <trkpt lat="45.91853" lon="6.51716">
        <ele>2319</ele>
        <time>2022-02-19T13:02:47Z</time>
      </trkpt>
      <trkpt lat="45.91851" lon="6.51715">
        <ele>2320</ele>
        <time>2022-02-19T13:02:49Z</time>
      </trkpt>
      <trkpt lat="45.91849" lon="6.51715">
        <ele>2320</ele>
        <time>2022-02-19T13:02:53Z</time>
      </trkpt>
      <trkpt lat="45.91847" lon="6.51716">
        <ele>2321</ele>
        <time>2022-02-19T13:02:58Z</time>
      </trkpt>
      <trkpt lat="45.91845" lon="6.51715">
        <ele>2321</ele>
        <time>2022-02-19T13:03:03Z</time>
      </trkpt>
      <trkpt lat="45.91843" lon="6.51715">
        <ele>2321</ele>
        <time>2022-02-19T13:03:09Z</time>
      </trkpt>
      <trkpt lat="45.91841" lon="6.51714">
        <ele>2324</ele>
        <time>2022-02-19T13:03:15Z</time>
      </trkpt>
      <trkpt lat="45.91839" lon="6.51713">
        <ele>2324</ele>
        <time>2022-02-19T13:03:20Z</time>
      </trkpt>
      <trkpt lat="45.91837" lon="6.51711">
        <ele>2325</ele>
        <time>2022-02-19T13:03:25Z</time>
      </trkpt>
      <trkpt lat="45.91835" lon="6.51709">
        <ele>2326</ele>
        <time>2022-02-19T13:03:29Z</time>
      </trkpt>
      <trkpt lat="45.91833" lon="6.51707">
        <ele>2326</ele>
        <time>2022-02-19T13:03:56Z</time>
      </trkpt>
      <trkpt lat="45.91832" lon="6.51706">
        <ele>2326</ele>
        <time>2022-02-19T13:04:02Z</time>
      </trkpt>
      <trkpt lat="45.9183" lon="6.51704">
        <ele>2328</ele>
        <time>2022-02-19T13:04:05Z</time>
      </trkpt>
      <trkpt lat="45.91829" lon="6.51704">
        <ele>2329</ele>
        <time>2022-02-19T13:04:11Z</time>
      </trkpt>
      <trkpt lat="45.91828" lon="6.51707">
        <ele>2330</ele>
        <time>2022-02-19T13:04:15Z</time>
      </trkpt>
      <trkpt lat="45.91827" lon="6.51709">
        <ele>2330</ele>
        <time>2022-02-19T13:04:19Z</time>
      </trkpt>
      <trkpt lat="45.91826" lon="6.51712">
        <ele>2331</ele>
        <time>2022-02-19T13:04:23Z</time>
      </trkpt>
      <trkpt lat="45.91825" lon="6.51714">
        <ele>2331</ele>
        <time>2022-02-19T13:04:27Z</time>
      </trkpt>
      <trkpt lat="45.91824" lon="6.51717">
        <ele>2331</ele>
        <time>2022-02-19T13:04:31Z</time>
      </trkpt>
      <trkpt lat="45.91823" lon="6.51719">
        <ele>2333</ele>
        <time>2022-02-19T13:04:35Z</time>
      </trkpt>
      <trkpt lat="45.91822" lon="6.51722">
        <ele>2333</ele>
        <time>2022-02-19T13:04:40Z</time>
      </trkpt>
      <trkpt lat="45.91821" lon="6.51725">
        <ele>2333</ele>
        <time>2022-02-19T13:04:50Z</time>
      </trkpt>
      <trkpt lat="45.9182" lon="6.51728">
        <ele>2335</ele>
        <time>2022-02-19T13:04:55Z</time>
      </trkpt>
      <trkpt lat="45.9182" lon="6.5173">
        <ele>2335</ele>
        <time>2022-02-19T13:04:58Z</time>
      </trkpt>
      <trkpt lat="45.91819" lon="6.51733">
        <ele>2336</ele>
        <time>2022-02-19T13:05:02Z</time>
      </trkpt>
      <trkpt lat="45.91818" lon="6.51736">
        <ele>2336</ele>
        <time>2022-02-19T13:05:06Z</time>
      </trkpt>
      <trkpt lat="45.91817" lon="6.51738">
        <ele>2336</ele>
        <time>2022-02-19T13:05:10Z</time>
      </trkpt>
      <trkpt lat="45.91816" lon="6.5174">
        <ele>2337</ele>
        <time>2022-02-19T13:05:30Z</time>
      </trkpt>
      <trkpt lat="45.91815" lon="6.51743">
        <ele>2337</ele>
        <time>2022-02-19T13:05:36Z</time>
      </trkpt>
      <trkpt lat="45.91815" lon="6.51746">
        <ele>2337</ele>
        <time>2022-02-19T13:05:40Z</time>
      </trkpt>
      <trkpt lat="45.91814" lon="6.51749">
        <ele>2338</ele>
        <time>2022-02-19T13:05:44Z</time>
      </trkpt>
      <trkpt lat="45.91813" lon="6.51751">
        <ele>2339</ele>
        <time>2022-02-19T13:05:48Z</time>
      </trkpt>
      <trkpt lat="45.91812" lon="6.51754">
        <ele>2340</ele>
        <time>2022-02-19T13:05:52Z</time>
      </trkpt>
      <trkpt lat="45.91811" lon="6.51756">
        <ele>2342</ele>
        <time>2022-02-19T13:05:56Z</time>
      </trkpt>
      <trkpt lat="45.9181" lon="6.51758">
        <ele>2342</ele>
        <time>2022-02-19T13:06:00Z</time>
      </trkpt>
      <trkpt lat="45.91808" lon="6.5176">
        <ele>2342</ele>
        <time>2022-02-19T13:06:04Z</time>
      </trkpt>
      <trkpt lat="45.91807" lon="6.51763">
        <ele>2343</ele>
        <time>2022-02-19T13:06:09Z</time>
      </trkpt>
      <trkpt lat="45.91806" lon="6.51765">
        <ele>2344</ele>
        <time>2022-02-19T13:06:14Z</time>
      </trkpt>
      <trkpt lat="45.91804" lon="6.51766">
        <ele>2345</ele>
        <time>2022-02-19T13:06:21Z</time>
      </trkpt>
      <trkpt lat="45.91803" lon="6.51768">
        <ele>2345</ele>
        <time>2022-02-19T13:06:25Z</time>
      </trkpt>
      <trkpt lat="45.91801" lon="6.5177">
        <ele>2347</ele>
        <time>2022-02-19T13:06:31Z</time>
      </trkpt>
      <trkpt lat="45.918" lon="6.51772">
        <ele>2347</ele>
        <time>2022-02-19T13:06:35Z</time>
      </trkpt>
      <trkpt lat="45.91798" lon="6.51772">
        <ele>2348</ele>
        <time>2022-02-19T13:07:03Z</time>
      </trkpt>
      <trkpt lat="45.91796" lon="6.51775">
        <ele>2349</ele>
        <time>2022-02-19T13:07:08Z</time>
      </trkpt>
      <trkpt lat="45.91796" lon="6.51778">
        <ele>2350</ele>
        <time>2022-02-19T13:07:12Z</time>
      </trkpt>
      <trkpt lat="45.91795" lon="6.51781">
        <ele>2351</ele>
        <time>2022-02-19T13:07:16Z</time>
      </trkpt>
      <trkpt lat="45.91794" lon="6.51783">
        <ele>2352</ele>
        <time>2022-02-19T13:07:24Z</time>
      </trkpt>
      <trkpt lat="45.91793" lon="6.51785">
        <ele>2352</ele>
        <time>2022-02-19T13:07:34Z</time>
      </trkpt>
      <trkpt lat="45.91791" lon="6.51786">
        <ele>2352</ele>
        <time>2022-02-19T13:07:39Z</time>
      </trkpt>
      <trkpt lat="45.91789" lon="6.51786">
        <ele>2354</ele>
        <time>2022-02-19T13:07:47Z</time>
      </trkpt>
      <trkpt lat="45.91787" lon="6.51785">
        <ele>2355</ele>
        <time>2022-02-19T13:07:52Z</time>
      </trkpt>
      <trkpt lat="45.91786" lon="6.51783">
        <ele>2355</ele>
        <time>2022-02-19T13:07:58Z</time>
      </trkpt>
      <trkpt lat="45.91784" lon="6.5178">
        <ele>2356</ele>
        <time>2022-02-19T13:08:04Z</time>
      </trkpt>
      <trkpt lat="45.91783" lon="6.51777">
        <ele>2357</ele>
        <time>2022-02-19T13:08:08Z</time>
      </trkpt>
      <trkpt lat="45.91782" lon="6.51775">
        <ele>2357</ele>
        <time>2022-02-19T13:08:12Z</time>
      </trkpt>
      <trkpt lat="45.91781" lon="6.51773">
        <ele>2358</ele>
        <time>2022-02-19T13:08:17Z</time>
      </trkpt>
      <trkpt lat="45.9178" lon="6.5177">
        <ele>2359</ele>
        <time>2022-02-19T13:08:22Z</time>
      </trkpt>
      <trkpt lat="45.91779" lon="6.51767">
        <ele>2360</ele>
        <time>2022-02-19T13:08:41Z</time>
      </trkpt>
      <trkpt lat="45.91778" lon="6.51765">
        <ele>2361</ele>
        <time>2022-02-19T13:08:44Z</time>
      </trkpt>
      <trkpt lat="45.91776" lon="6.51763">
        <ele>2361</ele>
        <time>2022-02-19T13:08:47Z</time>
      </trkpt>
      <trkpt lat="45.91775" lon="6.51761">
        <ele>2361</ele>
        <time>2022-02-19T13:08:50Z</time>
      </trkpt>
      <trkpt lat="45.91774" lon="6.51758">
        <ele>2361</ele>
        <time>2022-02-19T13:08:53Z</time>
      </trkpt>
      <trkpt lat="45.91773" lon="6.51756">
        <ele>2362</ele>
        <time>2022-02-19T13:08:59Z</time>
      </trkpt>
      <trkpt lat="45.91772" lon="6.51753">
        <ele>2363</ele>
        <time>2022-02-19T13:09:02Z</time>
      </trkpt>
      <trkpt lat="45.91771" lon="6.51751">
        <ele>2364</ele>
        <time>2022-02-19T13:09:07Z</time>
      </trkpt>
      <trkpt lat="45.91769" lon="6.51749">
        <ele>2365</ele>
        <time>2022-02-19T13:09:11Z</time>
      </trkpt>
      <trkpt lat="45.91768" lon="6.51747">
        <ele>2365</ele>
        <time>2022-02-19T13:09:16Z</time>
      </trkpt>
      <trkpt lat="45.91767" lon="6.51745">
        <ele>2366</ele>
        <time>2022-02-19T13:09:21Z</time>
      </trkpt>
      <trkpt lat="45.91765" lon="6.51743">
        <ele>2366</ele>
        <time>2022-02-19T13:09:24Z</time>
      </trkpt>
      <trkpt lat="45.91765" lon="6.5174">
        <ele>2367</ele>
        <time>2022-02-19T13:09:40Z</time>
      </trkpt>
      <trkpt lat="45.91766" lon="6.51737">
        <ele>2367</ele>
        <time>2022-02-19T13:09:45Z</time>
      </trkpt>
      <trkpt lat="45.91766" lon="6.51735">
        <ele>2367</ele>
        <time>2022-02-19T13:09:50Z</time>
      </trkpt>
      <trkpt lat="45.91766" lon="6.51732">
        <ele>2367</ele>
        <time>2022-02-19T13:09:54Z</time>
      </trkpt>
      <trkpt lat="45.91765" lon="6.51729">
        <ele>2366</ele>
        <time>2022-02-19T13:09:58Z</time>
      </trkpt>
      <trkpt lat="45.91763" lon="6.51726">
        <ele>2366</ele>
        <time>2022-02-19T13:10:02Z</time>
      </trkpt>
      <trkpt lat="45.91762" lon="6.51724">
        <ele>2366</ele>
        <time>2022-02-19T13:10:07Z</time>
      </trkpt>
      <trkpt lat="45.9176" lon="6.51722">
        <ele>2365</ele>
        <time>2022-02-19T13:10:11Z</time>
      </trkpt>
      <trkpt lat="45.91759" lon="6.51719">
        <ele>2365</ele>
        <time>2022-02-19T13:10:14Z</time>
      </trkpt>
      <trkpt lat="45.91758" lon="6.51717">
        <ele>2365</ele>
        <time>2022-02-19T13:10:18Z</time>
      </trkpt>
      <trkpt lat="45.91756" lon="6.51714">
        <ele>2364</ele>
        <time>2022-02-19T13:10:30Z</time>
      </trkpt>
      <trkpt lat="45.91756" lon="6.51711">
        <ele>2364</ele>
        <time>2022-02-19T13:10:33Z</time>
      </trkpt>
      <trkpt lat="45.91754" lon="6.51709">
        <ele>2364</ele>
        <time>2022-02-19T13:10:37Z</time>
      </trkpt>
      <trkpt lat="45.91753" lon="6.51707">
        <ele>2363</ele>
        <time>2022-02-19T13:10:42Z</time>
      </trkpt>
      <trkpt lat="45.91752" lon="6.51705">
        <ele>2363</ele>
        <time>2022-02-19T13:10:48Z</time>
      </trkpt>
      <trkpt lat="45.9175" lon="6.51704">
        <ele>2363</ele>
        <time>2022-02-19T13:10:51Z</time>
      </trkpt>
      <trkpt lat="45.91748" lon="6.51702">
        <ele>2362</ele>
        <time>2022-02-19T13:10:55Z</time>
      </trkpt>
      <trkpt lat="45.91747" lon="6.517">
        <ele>2362</ele>
        <time>2022-02-19T13:10:58Z</time>
      </trkpt>
      <trkpt lat="45.91745" lon="6.51698">
        <ele>2362</ele>
        <time>2022-02-19T13:11:01Z</time>
      </trkpt>
      <trkpt lat="45.91743" lon="6.51696">
        <ele>2362</ele>
        <time>2022-02-19T13:11:05Z</time>
      </trkpt>
      <trkpt lat="45.91741" lon="6.51694">
        <ele>2361</ele>
        <time>2022-02-19T13:11:07Z</time>
      </trkpt>
      <trkpt lat="45.9174" lon="6.51692">
        <ele>2361</ele>
        <time>2022-02-19T13:11:10Z</time>
      </trkpt>
      <trkpt lat="45.91738" lon="6.51691">
        <ele>2361</ele>
        <time>2022-02-19T13:11:13Z</time>
      </trkpt>
      <trkpt lat="45.91736" lon="6.51689">
        <ele>2361</ele>
        <time>2022-02-19T13:11:17Z</time>
      </trkpt>
      <trkpt lat="45.91734" lon="6.51687">
        <ele>2361</ele>
        <time>2022-02-19T13:11:20Z</time>
      </trkpt>
      <trkpt lat="45.91733" lon="6.51686">
        <ele>2361</ele>
        <time>2022-02-19T13:11:24Z</time>
      </trkpt>
      <trkpt lat="45.91731" lon="6.51684">
        <ele>2361</ele>
        <time>2022-02-19T13:11:27Z</time>
      </trkpt>
      <trkpt lat="45.9173" lon="6.51682">
        <ele>2361</ele>
        <time>2022-02-19T13:11:31Z</time>
      </trkpt>
      <trkpt lat="45.91728" lon="6.5168">
        <ele>2361</ele>
        <time>2022-02-19T13:11:34Z</time>
      </trkpt>
      <trkpt lat="45.91726" lon="6.51678">
        <ele>2360</ele>
        <time>2022-02-19T13:11:37Z</time>
      </trkpt>
      <trkpt lat="45.91724" lon="6.51676">
        <ele>2360</ele>
        <time>2022-02-19T13:11:41Z</time>
      </trkpt>
      <trkpt lat="45.91722" lon="6.51675">
        <ele>2359</ele>
        <time>2022-02-19T13:11:46Z</time>
      </trkpt>
      <trkpt lat="45.91721" lon="6.51674">
        <ele>2359</ele>
        <time>2022-02-19T13:11:49Z</time>
      </trkpt>
      <trkpt lat="45.91719" lon="6.51673">
        <ele>2359</ele>
        <time>2022-02-19T13:11:53Z</time>
      </trkpt>
      <trkpt lat="45.91717" lon="6.51672">
        <ele>2359</ele>
        <time>2022-02-19T13:11:56Z</time>
      </trkpt>
      <trkpt lat="45.91715" lon="6.51672">
        <ele>2359</ele>
        <time>2022-02-19T13:12:02Z</time>
      </trkpt>
      <trkpt lat="45.91713" lon="6.51672">
        <ele>2359</ele>
        <time>2022-02-19T13:12:05Z</time>
      </trkpt>
      <trkpt lat="45.9171" lon="6.51673">
        <ele>2358</ele>
        <time>2022-02-19T13:12:09Z</time>
      </trkpt>
      <trkpt lat="45.91708" lon="6.51673">
        <ele>2358</ele>
        <time>2022-02-19T13:12:11Z</time>
      </trkpt>
      <trkpt lat="45.91706" lon="6.51673">
        <ele>2358</ele>
        <time>2022-02-19T13:12:14Z</time>
      </trkpt>
      <trkpt lat="45.91704" lon="6.51672">
        <ele>2358</ele>
        <time>2022-02-19T13:12:17Z</time>
      </trkpt>
      <trkpt lat="45.91701" lon="6.51672">
        <ele>2357</ele>
        <time>2022-02-19T13:12:21Z</time>
      </trkpt>
      <trkpt lat="45.917" lon="6.51671">
        <ele>2357</ele>
        <time>2022-02-19T13:12:23Z</time>
      </trkpt>
      <trkpt lat="45.91698" lon="6.51669">
        <ele>2357</ele>
        <time>2022-02-19T13:12:27Z</time>
      </trkpt>
      <trkpt lat="45.91696" lon="6.51667">
        <ele>2357</ele>
        <time>2022-02-19T13:12:33Z</time>
      </trkpt>
      <trkpt lat="45.91694" lon="6.51665">
        <ele>2356</ele>
        <time>2022-02-19T13:12:37Z</time>
      </trkpt>
      <trkpt lat="45.91692" lon="6.51663">
        <ele>2356</ele>
        <time>2022-02-19T13:12:40Z</time>
      </trkpt>
      <trkpt lat="45.91691" lon="6.51661">
        <ele>2356</ele>
        <time>2022-02-19T13:12:41Z</time>
      </trkpt>
      <trkpt lat="45.9169" lon="6.51659">
        <ele>2355</ele>
        <time>2022-02-19T13:12:45Z</time>
      </trkpt>
      <trkpt lat="45.91688" lon="6.51656">
        <ele>2355</ele>
        <time>2022-02-19T13:12:47Z</time>
      </trkpt>
      <trkpt lat="45.91686" lon="6.51653">
        <ele>2355</ele>
        <time>2022-02-19T13:12:50Z</time>
      </trkpt>
      <trkpt lat="45.91685" lon="6.51651">
        <ele>2355</ele>
        <time>2022-02-19T13:12:53Z</time>
      </trkpt>
      <trkpt lat="45.91683" lon="6.51648">
        <ele>2355</ele>
        <time>2022-02-19T13:12:57Z</time>
      </trkpt>
      <trkpt lat="45.91682" lon="6.51645">
        <ele>2355</ele>
        <time>2022-02-19T13:13:01Z</time>
      </trkpt>
      <trkpt lat="45.91681" lon="6.51642">
        <ele>2355</ele>
        <time>2022-02-19T13:13:04Z</time>
      </trkpt>
      <trkpt lat="45.9168" lon="6.51639">
        <ele>2354</ele>
        <time>2022-02-19T13:13:07Z</time>
      </trkpt>
      <trkpt lat="45.91679" lon="6.51636">
        <ele>2354</ele>
        <time>2022-02-19T13:13:10Z</time>
      </trkpt>
      <trkpt lat="45.91679" lon="6.51634">
        <ele>2354</ele>
        <time>2022-02-19T13:13:13Z</time>
      </trkpt>
      <trkpt lat="45.91678" lon="6.51631">
        <ele>2353</ele>
        <time>2022-02-19T13:13:16Z</time>
      </trkpt>
      <trkpt lat="45.91677" lon="6.51629">
        <ele>2353</ele>
        <time>2022-02-19T13:13:19Z</time>
      </trkpt>
      <trkpt lat="45.91675" lon="6.51626">
        <ele>2353</ele>
        <time>2022-02-19T13:13:21Z</time>
      </trkpt>
      <trkpt lat="45.91673" lon="6.51624">
        <ele>2353</ele>
        <time>2022-02-19T13:13:23Z</time>
      </trkpt>
      <trkpt lat="45.91672" lon="6.51623">
        <ele>2352</ele>
        <time>2022-02-19T13:13:25Z</time>
      </trkpt>
      <trkpt lat="45.9167" lon="6.51621">
        <ele>2351</ele>
        <time>2022-02-19T13:13:28Z</time>
      </trkpt>
      <trkpt lat="45.91668" lon="6.51619">
        <ele>2351</ele>
        <time>2022-02-19T13:13:31Z</time>
      </trkpt>
      <trkpt lat="45.91665" lon="6.51617">
        <ele>2351</ele>
        <time>2022-02-19T13:13:34Z</time>
      </trkpt>
      <trkpt lat="45.91664" lon="6.51615">
        <ele>2351</ele>
        <time>2022-02-19T13:13:36Z</time>
      </trkpt>
      <trkpt lat="45.91662" lon="6.51613">
        <ele>2351</ele>
        <time>2022-02-19T13:13:39Z</time>
      </trkpt>
      <trkpt lat="45.91661" lon="6.51611">
        <ele>2351</ele>
        <time>2022-02-19T13:13:43Z</time>
      </trkpt>
      <trkpt lat="45.91659" lon="6.51609">
        <ele>2351</ele>
        <time>2022-02-19T13:13:46Z</time>
      </trkpt>
      <trkpt lat="45.91657" lon="6.51607">
        <ele>2352</ele>
        <time>2022-02-19T13:13:50Z</time>
      </trkpt>
      <trkpt lat="45.91656" lon="6.51606">
        <ele>2352</ele>
        <time>2022-02-19T13:13:53Z</time>
      </trkpt>
      <trkpt lat="45.91654" lon="6.51603">
        <ele>2352</ele>
        <time>2022-02-19T13:13:57Z</time>
      </trkpt>
      <trkpt lat="45.91652" lon="6.51601">
        <ele>2352</ele>
        <time>2022-02-19T13:13:59Z</time>
      </trkpt>
      <trkpt lat="45.91651" lon="6.51599">
        <ele>2352</ele>
        <time>2022-02-19T13:14:03Z</time>
      </trkpt>
      <trkpt lat="45.91649" lon="6.51597">
        <ele>2353</ele>
        <time>2022-02-19T13:14:05Z</time>
      </trkpt>
      <trkpt lat="45.91647" lon="6.51595">
        <ele>2353</ele>
        <time>2022-02-19T13:14:08Z</time>
      </trkpt>
      <trkpt lat="45.91645" lon="6.51594">
        <ele>2353</ele>
        <time>2022-02-19T13:14:11Z</time>
      </trkpt>
      <trkpt lat="45.91643" lon="6.51592">
        <ele>2353</ele>
        <time>2022-02-19T13:14:14Z</time>
      </trkpt>
      <trkpt lat="45.91641" lon="6.5159">
        <ele>2353</ele>
        <time>2022-02-19T13:14:17Z</time>
      </trkpt>
      <trkpt lat="45.91639" lon="6.51588">
        <ele>2353</ele>
        <time>2022-02-19T13:14:21Z</time>
      </trkpt>
      <trkpt lat="45.91637" lon="6.51586">
        <ele>2353</ele>
        <time>2022-02-19T13:14:25Z</time>
      </trkpt>
      <trkpt lat="45.91636" lon="6.51585">
        <ele>2353</ele>
        <time>2022-02-19T13:14:27Z</time>
      </trkpt>
      <trkpt lat="45.91634" lon="6.51583">
        <ele>2353</ele>
        <time>2022-02-19T13:14:30Z</time>
      </trkpt>
      <trkpt lat="45.91632" lon="6.51581">
        <ele>2353</ele>
        <time>2022-02-19T13:14:33Z</time>
      </trkpt>
      <trkpt lat="45.9163" lon="6.5158">
        <ele>2353</ele>
        <time>2022-02-19T13:14:37Z</time>
      </trkpt>
      <trkpt lat="45.91628" lon="6.51579">
        <ele>2353</ele>
        <time>2022-02-19T13:14:40Z</time>
      </trkpt>
      <trkpt lat="45.91626" lon="6.51577">
        <ele>2354</ele>
        <time>2022-02-19T13:14:44Z</time>
      </trkpt>
      <trkpt lat="45.91624" lon="6.51577">
        <ele>2355</ele>
        <time>2022-02-19T13:14:48Z</time>
      </trkpt>
      <trkpt lat="45.91623" lon="6.51576">
        <ele>2355</ele>
        <time>2022-02-19T13:14:51Z</time>
      </trkpt>
      <trkpt lat="45.9162" lon="6.51576">
        <ele>2355</ele>
        <time>2022-02-19T13:14:55Z</time>
      </trkpt>
      <trkpt lat="45.91619" lon="6.51575">
        <ele>2356</ele>
        <time>2022-02-19T13:14:59Z</time>
      </trkpt>
      <trkpt lat="45.91616" lon="6.51574">
        <ele>2356</ele>
        <time>2022-02-19T13:15:03Z</time>
      </trkpt>
      <trkpt lat="45.91614" lon="6.51573">
        <ele>2357</ele>
        <time>2022-02-19T13:15:07Z</time>
      </trkpt>
      <trkpt lat="45.91612" lon="6.51571">
        <ele>2357</ele>
        <time>2022-02-19T13:15:11Z</time>
      </trkpt>
      <trkpt lat="45.9161" lon="6.5157">
        <ele>2357</ele>
        <time>2022-02-19T13:15:15Z</time>
      </trkpt>
      <trkpt lat="45.91608" lon="6.51568">
        <ele>2357</ele>
        <time>2022-02-19T13:15:18Z</time>
      </trkpt>
      <trkpt lat="45.91607" lon="6.51567">
        <ele>2356</ele>
        <time>2022-02-19T13:15:21Z</time>
      </trkpt>
      <trkpt lat="45.91605" lon="6.51566">
        <ele>2356</ele>
        <time>2022-02-19T13:15:25Z</time>
      </trkpt>
      <trkpt lat="45.91603" lon="6.51564">
        <ele>2356</ele>
        <time>2022-02-19T13:15:28Z</time>
      </trkpt>
      <trkpt lat="45.91601" lon="6.51563">
        <ele>2357</ele>
        <time>2022-02-19T13:15:32Z</time>
      </trkpt>
      <trkpt lat="45.91599" lon="6.51561">
        <ele>2357</ele>
        <time>2022-02-19T13:15:34Z</time>
      </trkpt>
      <trkpt lat="45.91598" lon="6.51559">
        <ele>2358</ele>
        <time>2022-02-19T13:15:37Z</time>
      </trkpt>
      <trkpt lat="45.91596" lon="6.51558">
        <ele>2358</ele>
        <time>2022-02-19T13:15:41Z</time>
      </trkpt>
      <trkpt lat="45.91594" lon="6.51556">
        <ele>2359</ele>
        <time>2022-02-19T13:15:46Z</time>
      </trkpt>
      <trkpt lat="45.91592" lon="6.51554">
        <ele>2359</ele>
        <time>2022-02-19T13:15:49Z</time>
      </trkpt>
      <trkpt lat="45.91591" lon="6.51552">
        <ele>2359</ele>
        <time>2022-02-19T13:15:52Z</time>
      </trkpt>
      <trkpt lat="45.9159" lon="6.5155">
        <ele>2359</ele>
        <time>2022-02-19T13:15:55Z</time>
      </trkpt>
      <trkpt lat="45.91588" lon="6.51548">
        <ele>2360</ele>
        <time>2022-02-19T13:15:59Z</time>
      </trkpt>
      <trkpt lat="45.91587" lon="6.51545">
        <ele>2360</ele>
        <time>2022-02-19T13:16:03Z</time>
      </trkpt>
      <trkpt lat="45.91585" lon="6.51543">
        <ele>2361</ele>
        <time>2022-02-19T13:16:08Z</time>
      </trkpt>
      <trkpt lat="45.91584" lon="6.51541">
        <ele>2361</ele>
        <time>2022-02-19T13:16:12Z</time>
      </trkpt>
      <trkpt lat="45.91584" lon="6.51538">
        <ele>2361</ele>
        <time>2022-02-19T13:16:16Z</time>
      </trkpt>
      <trkpt lat="45.91583" lon="6.51536">
        <ele>2362</ele>
        <time>2022-02-19T13:16:20Z</time>
      </trkpt>
      <trkpt lat="45.91582" lon="6.51533">
        <ele>2362</ele>
        <time>2022-02-19T13:16:25Z</time>
      </trkpt>
      <trkpt lat="45.91581" lon="6.5153">
        <ele>2362</ele>
        <time>2022-02-19T13:16:29Z</time>
      </trkpt>
      <trkpt lat="45.9158" lon="6.51528">
        <ele>2363</ele>
        <time>2022-02-19T13:16:33Z</time>
      </trkpt>
      <trkpt lat="45.91579" lon="6.51525">
        <ele>2364</ele>
        <time>2022-02-19T13:16:38Z</time>
      </trkpt>
      <trkpt lat="45.91579" lon="6.51522">
        <ele>2365</ele>
        <time>2022-02-19T13:16:42Z</time>
      </trkpt>
      <trkpt lat="45.91578" lon="6.51519">
        <ele>2365</ele>
        <time>2022-02-19T13:16:46Z</time>
      </trkpt>
      <trkpt lat="45.91577" lon="6.51516">
        <ele>2366</ele>
        <time>2022-02-19T13:16:52Z</time>
      </trkpt>
      <trkpt lat="45.91578" lon="6.51513">
        <ele>2367</ele>
        <time>2022-02-19T13:16:59Z</time>
      </trkpt>
      <trkpt lat="45.91577" lon="6.5151">
        <ele>2367</ele>
        <time>2022-02-19T13:17:07Z</time>
      </trkpt>
      <trkpt lat="45.91578" lon="6.51508">
        <ele>2368</ele>
        <time>2022-02-19T13:17:14Z</time>
      </trkpt>
      <trkpt lat="45.91579" lon="6.51505">
        <ele>2368</ele>
        <time>2022-02-19T13:17:23Z</time>
      </trkpt>
      <trkpt lat="45.91579" lon="6.51503">
        <ele>2369</ele>
        <time>2022-02-19T13:17:29Z</time>
      </trkpt>
      <trkpt lat="45.91578" lon="6.515">
        <ele>2370</ele>
        <time>2022-02-19T13:17:34Z</time>
      </trkpt>
      <trkpt lat="45.91578" lon="6.51497">
        <ele>2371</ele>
        <time>2022-02-19T13:17:38Z</time>
      </trkpt>
      <trkpt lat="45.91578" lon="6.51494">
        <ele>2371</ele>
        <time>2022-02-19T13:17:42Z</time>
      </trkpt>
      <trkpt lat="45.91578" lon="6.51491">
        <ele>2371</ele>
        <time>2022-02-19T13:17:45Z</time>
      </trkpt>
      <trkpt lat="45.91577" lon="6.51488">
        <ele>2371</ele>
        <time>2022-02-19T13:17:49Z</time>
      </trkpt>
      <trkpt lat="45.91576" lon="6.51485">
        <ele>2371</ele>
        <time>2022-02-19T13:17:56Z</time>
      </trkpt>
      <trkpt lat="45.91576" lon="6.51483">
        <ele>2371</ele>
        <time>2022-02-19T13:17:59Z</time>
      </trkpt>
      <trkpt lat="45.91575" lon="6.5148">
        <ele>2373</ele>
        <time>2022-02-19T13:18:03Z</time>
      </trkpt>
      <trkpt lat="45.91574" lon="6.51477">
        <ele>2373</ele>
        <time>2022-02-19T13:18:08Z</time>
      </trkpt>
      <trkpt lat="45.91573" lon="6.51474">
        <ele>2373</ele>
        <time>2022-02-19T13:18:11Z</time>
      </trkpt>
      <trkpt lat="45.91572" lon="6.51471">
        <ele>2373</ele>
        <time>2022-02-19T13:18:15Z</time>
      </trkpt>
      <trkpt lat="45.91571" lon="6.51468">
        <ele>2373</ele>
        <time>2022-02-19T13:18:19Z</time>
      </trkpt>
      <trkpt lat="45.9157" lon="6.51466">
        <ele>2374</ele>
        <time>2022-02-19T13:18:23Z</time>
      </trkpt>
      <trkpt lat="45.9157" lon="6.51463">
        <ele>2374</ele>
        <time>2022-02-19T13:18:25Z</time>
      </trkpt>
      <trkpt lat="45.9157" lon="6.5146">
        <ele>2374</ele>
        <time>2022-02-19T13:18:29Z</time>
      </trkpt>
      <trkpt lat="45.91569" lon="6.51459">
        <ele>2375</ele>
        <time>2022-02-19T13:18:49Z</time>
      </trkpt>
      <trkpt lat="45.91569" lon="6.51456">
        <ele>2374</ele>
        <time>2022-02-19T13:19:02Z</time>
      </trkpt>
      <trkpt lat="45.91571" lon="6.51456">
        <ele>2375</ele>
        <time>2022-02-19T13:19:07Z</time>
      </trkpt>
      <trkpt lat="45.91569" lon="6.51455">
        <ele>2375</ele>
        <time>2022-02-19T13:19:39Z</time>
      </trkpt>
      <trkpt lat="45.91569" lon="6.51458">
        <ele>2374</ele>
        <time>2022-02-19T13:20:21Z</time>
      </trkpt>
      <trkpt lat="45.91568" lon="6.51458">
        <ele>2374</ele>
        <time>2022-02-19T13:20:40Z</time>
      </trkpt>
      <trkpt lat="45.91569" lon="6.51456">
        <ele>2374</ele>
        <time>2022-02-19T13:20:58Z</time>
      </trkpt>
      <trkpt lat="45.91567" lon="6.51455">
        <ele>2372</ele>
        <time>2022-02-19T13:25:46Z</time>
      </trkpt>
      <trkpt lat="45.91569" lon="6.51454">
        <ele>2372</ele>
        <time>2022-02-19T13:26:55Z</time>
      </trkpt>
      <trkpt lat="45.91569" lon="6.51457">
        <ele>2372</ele>
        <time>2022-02-19T13:27:20Z</time>
      </trkpt>
      <trkpt lat="45.91568" lon="6.51456">
        <ele>2371</ele>
        <time>2022-02-19T13:28:12Z</time>
      </trkpt>
      <trkpt lat="45.91569" lon="6.51458">
        <ele>2372</ele>
        <time>2022-02-19T13:28:40Z</time>
      </trkpt>
      <trkpt lat="45.91567" lon="6.51457">
        <ele>2371</ele>
        <time>2022-02-19T13:29:16Z</time>
      </trkpt>
      <trkpt lat="45.91569" lon="6.51458">
        <ele>2372</ele>
        <time>2022-02-19T13:29:37Z</time>
      </trkpt>
      <trkpt lat="45.91568" lon="6.51456">
        <ele>2371</ele>
        <time>2022-02-19T13:30:25Z</time>
      </trkpt>
      <trkpt lat="45.91569" lon="6.51455">
        <ele>2371</ele>
        <time>2022-02-19T13:30:44Z</time>
      </trkpt>
      <trkpt lat="45.91569" lon="6.51452">
        <ele>2372</ele>
        <time>2022-02-19T13:30:52Z</time>
      </trkpt>
      <trkpt lat="45.9157" lon="6.51449">
        <ele>2372</ele>
        <time>2022-02-19T13:30:57Z</time>
      </trkpt>
      <trkpt lat="45.9157" lon="6.51446">
        <ele>2373</ele>
        <time>2022-02-19T13:31:01Z</time>
      </trkpt>
      <trkpt lat="45.91571" lon="6.51443">
        <ele>2373</ele>
        <time>2022-02-19T13:31:06Z</time>
      </trkpt>
      <trkpt lat="45.91572" lon="6.51441">
        <ele>2373</ele>
        <time>2022-02-19T13:31:09Z</time>
      </trkpt>
      <trkpt lat="45.91571" lon="6.51439">
        <ele>2374</ele>
        <time>2022-02-19T13:31:18Z</time>
      </trkpt>
      <trkpt lat="45.9157" lon="6.51436">
        <ele>2374</ele>
        <time>2022-02-19T13:31:24Z</time>
      </trkpt>
      <trkpt lat="45.91572" lon="6.51435">
        <ele>2376</ele>
        <time>2022-02-19T13:31:48Z</time>
      </trkpt>
      <trkpt lat="45.91574" lon="6.51434">
        <ele>2376</ele>
        <time>2022-02-19T13:32:03Z</time>
      </trkpt>
      <trkpt lat="45.91572" lon="6.51435">
        <ele>2376</ele>
        <time>2022-02-19T13:32:27Z</time>
      </trkpt>
      <trkpt lat="45.91571" lon="6.51432">
        <ele>2377</ele>
        <time>2022-02-19T13:32:50Z</time>
      </trkpt>
      <trkpt lat="45.91571" lon="6.5143">
        <ele>2377</ele>
        <time>2022-02-19T13:32:57Z</time>
      </trkpt>
      <trkpt lat="45.91573" lon="6.51428">
        <ele>2377</ele>
        <time>2022-02-19T13:33:10Z</time>
      </trkpt>
      <trkpt lat="45.91573" lon="6.51425">
        <ele>2378</ele>
        <time>2022-02-19T13:33:25Z</time>
      </trkpt>
      <trkpt lat="45.91573" lon="6.51423">
        <ele>2379</ele>
        <time>2022-02-19T13:33:43Z</time>
      </trkpt>
      <trkpt lat="45.91571" lon="6.51421">
        <ele>2380</ele>
        <time>2022-02-19T13:33:55Z</time>
      </trkpt>
      <trkpt lat="45.91569" lon="6.51418">
        <ele>2380</ele>
        <time>2022-02-19T13:34:00Z</time>
      </trkpt>
      <trkpt lat="45.91568" lon="6.51416">
        <ele>2380</ele>
        <time>2022-02-19T13:34:01Z</time>
      </trkpt>
      <trkpt lat="45.91569" lon="6.51418">
        <ele>2381</ele>
        <time>2022-02-19T13:34:13Z</time>
      </trkpt>
      <trkpt lat="45.91568" lon="6.51417">
        <ele>2381</ele>
        <time>2022-02-19T13:34:22Z</time>
      </trkpt>
      <trkpt lat="45.91566" lon="6.51414">
        <ele>2382</ele>
        <time>2022-02-19T13:34:37Z</time>
      </trkpt>
      <trkpt lat="45.91565" lon="6.51413">
        <ele>2382</ele>
        <time>2022-02-19T13:34:46Z</time>
      </trkpt>
      <trkpt lat="45.91565" lon="6.5141">
        <ele>2387</ele>
        <time>2022-02-19T13:36:16Z</time>
      </trkpt>
      <trkpt lat="45.91566" lon="6.51408">
        <ele>2390</ele>
        <time>2022-02-19T13:36:59Z</time>
      </trkpt>
      <trkpt lat="45.91565" lon="6.51405">
        <ele>2391</ele>
        <time>2022-02-19T13:37:18Z</time>
      </trkpt>
      <trkpt lat="45.91564" lon="6.51403">
        <ele>2391</ele>
        <time>2022-02-19T13:37:30Z</time>
      </trkpt>
      <trkpt lat="45.91564" lon="6.514">
        <ele>2394</ele>
        <time>2022-02-19T13:37:47Z</time>
      </trkpt>
      <trkpt lat="45.91564" lon="6.51397">
        <ele>2397</ele>
        <time>2022-02-19T13:38:29Z</time>
      </trkpt>
      <trkpt lat="45.91565" lon="6.51394">
        <ele>2398</ele>
        <time>2022-02-19T13:38:54Z</time>
      </trkpt>
      <trkpt lat="45.91564" lon="6.51391">
        <ele>2399</ele>
        <time>2022-02-19T13:39:24Z</time>
      </trkpt>
      <trkpt lat="45.91563" lon="6.51388">
        <ele>2401</ele>
        <time>2022-02-19T13:39:46Z</time>
      </trkpt>
      <trkpt lat="45.91562" lon="6.51386">
        <ele>2402</ele>
        <time>2022-02-19T13:39:51Z</time>
      </trkpt>
      <trkpt lat="45.91562" lon="6.51384">
        <ele>2402</ele>
        <time>2022-02-19T13:39:58Z</time>
      </trkpt>
      <trkpt lat="45.91562" lon="6.51381">
        <ele>2403</ele>
        <time>2022-02-19T13:40:14Z</time>
      </trkpt>
      <trkpt lat="45.91562" lon="6.51378">
        <ele>2403</ele>
        <time>2022-02-19T13:40:23Z</time>
      </trkpt>
      <trkpt lat="45.91562" lon="6.51375">
        <ele>2404</ele>
        <time>2022-02-19T13:40:31Z</time>
      </trkpt>
      <trkpt lat="45.91563" lon="6.51373">
        <ele>2405</ele>
        <time>2022-02-19T13:41:20Z</time>
      </trkpt>
      <trkpt lat="45.91565" lon="6.51372">
        <ele>2405</ele>
        <time>2022-02-19T13:41:26Z</time>
      </trkpt>
      <trkpt lat="45.91567" lon="6.51371">
        <ele>2405</ele>
        <time>2022-02-19T13:41:33Z</time>
      </trkpt>
      <trkpt lat="45.91567" lon="6.51368">
        <ele>2406</ele>
        <time>2022-02-19T13:41:36Z</time>
      </trkpt>
      <trkpt lat="45.91568" lon="6.51365">
        <ele>2410</ele>
        <time>2022-02-19T13:42:26Z</time>
      </trkpt>
      <trkpt lat="45.91569" lon="6.51363">
        <ele>2411</ele>
        <time>2022-02-19T13:42:33Z</time>
      </trkpt>
      <trkpt lat="45.91571" lon="6.51362">
        <ele>2413</ele>
        <time>2022-02-19T13:42:49Z</time>
      </trkpt>
      <trkpt lat="45.9157" lon="6.51365">
        <ele>2413</ele>
        <time>2022-02-19T13:43:01Z</time>
      </trkpt>
      <trkpt lat="45.91571" lon="6.51363">
        <ele>2414</ele>
        <time>2022-02-19T13:43:24Z</time>
      </trkpt>
      <trkpt lat="45.91572" lon="6.51361">
        <ele>2415</ele>
        <time>2022-02-19T13:44:13Z</time>
      </trkpt>
      <trkpt lat="45.91573" lon="6.51358">
        <ele>2417</ele>
        <time>2022-02-19T13:45:01Z</time>
      </trkpt>
      <trkpt lat="45.91574" lon="6.51359">
        <ele>2418</ele>
        <time>2022-02-19T13:45:34Z</time>
      </trkpt>
      <trkpt lat="45.91575" lon="6.51356">
        <ele>2418</ele>
        <time>2022-02-19T13:46:06Z</time>
      </trkpt>
      <trkpt lat="45.91577" lon="6.51355">
        <ele>2421</ele>
        <time>2022-02-19T13:46:21Z</time>
      </trkpt>
      <trkpt lat="45.91577" lon="6.51352">
        <ele>2423</ele>
        <time>2022-02-19T13:46:48Z</time>
      </trkpt>
      <trkpt lat="45.91576" lon="6.51349">
        <ele>2425</ele>
        <time>2022-02-19T13:47:04Z</time>
      </trkpt>
      <trkpt lat="45.91575" lon="6.51347">
        <ele>2424</ele>
        <time>2022-02-19T13:47:18Z</time>
      </trkpt>
      <trkpt lat="45.91573" lon="6.51345">
        <ele>2424</ele>
        <time>2022-02-19T13:47:29Z</time>
      </trkpt>
      <trkpt lat="45.91571" lon="6.51343">
        <ele>2425</ele>
        <time>2022-02-19T13:47:52Z</time>
      </trkpt>
      <trkpt lat="45.9157" lon="6.51341">
        <ele>2424</ele>
        <time>2022-02-19T13:48:04Z</time>
      </trkpt>
      <trkpt lat="45.9157" lon="6.51343">
        <ele>2424</ele>
        <time>2022-02-19T13:49:57Z</time>
      </trkpt>
      <trkpt lat="45.91571" lon="6.51345">
        <ele>2425</ele>
        <time>2022-02-19T13:50:40Z</time>
      </trkpt>
      <trkpt lat="45.91571" lon="6.51348">
        <ele>2423</ele>
        <time>2022-02-19T13:52:52Z</time>
      </trkpt>
      <trkpt lat="45.91573" lon="6.51348">
        <ele>2423</ele>
        <time>2022-02-19T13:53:38Z</time>
      </trkpt>
      <trkpt lat="45.91575" lon="6.51347">
        <ele>2423</ele>
        <time>2022-02-19T13:54:44Z</time>
      </trkpt>
      <trkpt lat="45.91574" lon="6.51345">
        <ele>2423</ele>
        <time>2022-02-19T13:55:07Z</time>
      </trkpt>
      <trkpt lat="45.91574" lon="6.51343">
        <ele>2423</ele>
        <time>2022-02-19T13:56:05Z</time>
      </trkpt>
      <trkpt lat="45.91576" lon="6.51342">
        <ele>2423</ele>
        <time>2022-02-19T13:56:36Z</time>
      </trkpt>
      <trkpt lat="45.91576" lon="6.51339">
        <ele>2424</ele>
        <time>2022-02-19T13:56:51Z</time>
      </trkpt>
      <trkpt lat="45.91576" lon="6.51336">
        <ele>2425</ele>
        <time>2022-02-19T13:57:03Z</time>
      </trkpt>
      <trkpt lat="45.91576" lon="6.51333">
        <ele>2426</ele>
        <time>2022-02-19T13:57:10Z</time>
      </trkpt>
      <trkpt lat="45.91576" lon="6.51331">
        <ele>2427</ele>
        <time>2022-02-19T13:57:18Z</time>
      </trkpt>
      <trkpt lat="45.91576" lon="6.51328">
        <ele>2430</ele>
        <time>2022-02-19T13:57:24Z</time>
      </trkpt>
      <trkpt lat="45.91576" lon="6.51325">
        <ele>2431</ele>
        <time>2022-02-19T13:57:31Z</time>
      </trkpt>
      <trkpt lat="45.91576" lon="6.51323">
        <ele>2432</ele>
        <time>2022-02-19T13:57:39Z</time>
      </trkpt>
      <trkpt lat="45.91577" lon="6.5132">
        <ele>2432</ele>
        <time>2022-02-19T13:57:45Z</time>
      </trkpt>
      <trkpt lat="45.91578" lon="6.51318">
        <ele>2433</ele>
        <time>2022-02-19T13:58:01Z</time>
      </trkpt>
      <trkpt lat="45.91579" lon="6.51315">
        <ele>2433</ele>
        <time>2022-02-19T13:58:11Z</time>
      </trkpt>
      <trkpt lat="45.91579" lon="6.51312">
        <ele>2433</ele>
        <time>2022-02-19T13:58:17Z</time>
      </trkpt>
      <trkpt lat="45.91582" lon="6.513">
        <ele>2435</ele>
        <time>2022-02-19T13:58:44Z</time>
      </trkpt>
      <trkpt lat="45.91585" lon="6.51294">
        <ele>2436</ele>
        <time>2022-02-19T13:58:55Z</time>
      </trkpt>
      <trkpt lat="45.9159" lon="6.51289">
        <ele>2431.6</ele>
        <time>2022-02-19T13:59:14Z</time>
      </trkpt>
      <trkpt lat="45.91589" lon="6.51285">
        <ele>2438</ele>
        <time>2022-02-19T13:59:56Z</time>
      </trkpt>
      <trkpt lat="45.9159" lon="6.51282">
        <ele>2438</ele>
        <time>2022-02-19T13:59:59Z</time>
      </trkpt>
      <trkpt lat="45.9159" lon="6.51279">
        <ele>2438</ele>
        <time>2022-02-19T14:00:04Z</time>
      </trkpt>
      <trkpt lat="45.9159" lon="6.51277">
        <ele>2440</ele>
        <time>2022-02-19T14:00:08Z</time>
      </trkpt>
      <trkpt lat="45.91589" lon="6.51273">
        <ele>2440</ele>
        <time>2022-02-19T14:00:11Z</time>
      </trkpt>
      <trkpt lat="45.91588" lon="6.51271">
        <ele>2442</ele>
        <time>2022-02-19T14:00:17Z</time>
      </trkpt>
      <trkpt lat="45.91586" lon="6.51269">
        <ele>2443</ele>
        <time>2022-02-19T14:00:20Z</time>
      </trkpt>
      <trkpt lat="45.91584" lon="6.51269">
        <ele>2444</ele>
        <time>2022-02-19T14:00:25Z</time>
      </trkpt>
      <trkpt lat="45.91588" lon="6.51266">
        <ele>2444</ele>
        <time>2022-02-19T14:01:10Z</time>
      </trkpt>
      <trkpt lat="45.91587" lon="6.51269">
        <ele>2444</ele>
        <time>2022-02-19T14:01:23Z</time>
      </trkpt>
      <trkpt lat="45.91585" lon="6.5127">
        <ele>2444</ele>
        <time>2022-02-19T14:01:29Z</time>
      </trkpt>
      <trkpt lat="45.91586" lon="6.51268">
        <ele>2443</ele>
        <time>2022-02-19T14:01:34Z</time>
      </trkpt>
      <trkpt lat="45.91587" lon="6.5127">
        <ele>2443</ele>
        <time>2022-02-19T14:02:19Z</time>
      </trkpt>
      <trkpt lat="45.91588" lon="6.51264">
        <ele>2443</ele>
        <time>2022-02-19T14:02:46Z</time>
      </trkpt>
      <trkpt lat="45.91586" lon="6.51264">
        <ele>2444</ele>
        <time>2022-02-19T14:05:17Z</time>
      </trkpt>
      <trkpt lat="45.91587" lon="6.51266">
        <ele>2443</ele>
        <time>2022-02-19T14:06:34Z</time>
      </trkpt>
      <trkpt lat="45.91587" lon="6.51269">
        <ele>2443</ele>
        <time>2022-02-19T14:07:06Z</time>
      </trkpt>
      <trkpt lat="45.91586" lon="6.51271">
        <ele>2443</ele>
        <time>2022-02-19T14:07:15Z</time>
      </trkpt>
      <trkpt lat="45.91583" lon="6.51272">
        <ele>2442</ele>
        <time>2022-02-19T14:07:34Z</time>
      </trkpt>
      <trkpt lat="45.91584" lon="6.51266">
        <ele>2443</ele>
        <time>2022-02-19T14:07:54Z</time>
      </trkpt>
      <trkpt lat="45.91585" lon="6.51266">
        <ele>2443</ele>
        <time>2022-02-19T14:08:00Z</time>
      </trkpt>
      <trkpt lat="45.91587" lon="6.51264">
        <ele>2443</ele>
        <time>2022-02-19T14:08:28Z</time>
      </trkpt>
      <trkpt lat="45.91588" lon="6.51261">
        <ele>2442</ele>
        <time>2022-02-19T14:08:33Z</time>
      </trkpt>
      <trkpt lat="45.91579" lon="6.51263">
        <ele>2442</ele>
        <time>2022-02-19T14:08:59Z</time>
      </trkpt>
      <trkpt lat="45.91582" lon="6.51265">
        <ele>2442</ele>
        <time>2022-02-19T14:09:03Z</time>
      </trkpt>
      <trkpt lat="45.91584" lon="6.51266">
        <ele>2442</ele>
        <time>2022-02-19T14:09:14Z</time>
      </trkpt>
      <trkpt lat="45.91585" lon="6.51268">
        <ele>2443</ele>
        <time>2022-02-19T14:09:34Z</time>
      </trkpt>
      <trkpt lat="45.91587" lon="6.51267">
        <ele>2443</ele>
        <time>2022-02-19T14:10:06Z</time>
      </trkpt>
      <trkpt lat="45.91587" lon="6.5127">
        <ele>2443</ele>
        <time>2022-02-19T14:10:32Z</time>
      </trkpt>
      <trkpt lat="45.91585" lon="6.51282">
        <ele>2442</ele>
        <time>2022-02-19T14:11:38Z</time>
      </trkpt>
      <trkpt lat="45.91591" lon="6.51272">
        <ele>2442</ele>
        <time>2022-02-19T14:11:54Z</time>
      </trkpt>
      <trkpt lat="45.91586" lon="6.5126">
        <ele>2442</ele>
        <time>2022-02-19T14:12:11Z</time>
      </trkpt>
      <trkpt lat="45.91587" lon="6.51264">
        <ele>2442</ele>
        <time>2022-02-19T14:13:34Z</time>
      </trkpt>
      <trkpt lat="45.91588" lon="6.51262">
        <ele>2443</ele>
        <time>2022-02-19T14:13:40Z</time>
      </trkpt>
      <trkpt lat="45.91585" lon="6.51267">
        <ele>2443</ele>
        <time>2022-02-19T14:15:10Z</time>
      </trkpt>
      <trkpt lat="45.91583" lon="6.51264">
        <ele>2443</ele>
        <time>2022-02-19T14:15:48Z</time>
      </trkpt>
      <trkpt lat="45.91576" lon="6.51271">
        <ele>2440</ele>
        <time>2022-02-19T14:17:02Z</time>
      </trkpt>
      <trkpt lat="45.91585" lon="6.51266">
        <ele>2444</ele>
        <time>2022-02-19T14:17:57Z</time>
      </trkpt>
      <trkpt lat="45.91587" lon="6.51266">
        <ele>2443</ele>
        <time>2022-02-19T14:18:17Z</time>
      </trkpt>
      <trkpt lat="45.91589" lon="6.51266">
        <ele>2444</ele>
        <time>2022-02-19T14:19:10Z</time>
      </trkpt>
      <trkpt lat="45.91587" lon="6.51266">
        <ele>2443</ele>
        <time>2022-02-19T14:20:02Z</time>
      </trkpt>
      <trkpt lat="45.91589" lon="6.51268">
        <ele>2444</ele>
        <time>2022-02-19T14:20:07Z</time>
      </trkpt>
      <trkpt lat="45.9159" lon="6.51268">
        <ele>2443</ele>
        <time>2022-02-19T14:20:16Z</time>
      </trkpt>
      <trkpt lat="45.91593" lon="6.51268">
        <ele>2443</ele>
        <time>2022-02-19T14:20:18Z</time>
      </trkpt>
      <trkpt lat="45.91595" lon="6.51268">
        <ele>2443</ele>
        <time>2022-02-19T14:20:25Z</time>
      </trkpt>
      <trkpt lat="45.91589" lon="6.51266">
        <ele>2444</ele>
        <time>2022-02-19T14:20:38Z</time>
      </trkpt>
      <trkpt lat="45.91588" lon="6.51263">
        <ele>2444</ele>
        <time>2022-02-19T14:20:45Z</time>
      </trkpt>
      <trkpt lat="45.9159" lon="6.51264">
        <ele>2444</ele>
        <time>2022-02-19T14:20:55Z</time>
      </trkpt>
      <trkpt lat="45.91588" lon="6.51265">
        <ele>2444</ele>
        <time>2022-02-19T14:21:08Z</time>
      </trkpt>
      <trkpt lat="45.91589" lon="6.51263">
        <ele>2445</ele>
        <time>2022-02-19T14:21:16Z</time>
      </trkpt>
      <trkpt lat="45.91588" lon="6.5126">
        <ele>2443</ele>
        <time>2022-02-19T14:21:53Z</time>
      </trkpt>
      <trkpt lat="45.91586" lon="6.51262">
        <ele>2444</ele>
        <time>2022-02-19T14:22:07Z</time>
      </trkpt>
      <trkpt lat="45.91583" lon="6.51261">
        <ele>2444</ele>
        <time>2022-02-19T14:23:02Z</time>
      </trkpt>
      <trkpt lat="45.91581" lon="6.5126">
        <ele>2445</ele>
        <time>2022-02-19T14:23:15Z</time>
      </trkpt>
      <trkpt lat="45.91578" lon="6.51261">
        <ele>2445</ele>
        <time>2022-02-19T14:23:41Z</time>
      </trkpt>
      <trkpt lat="45.9158" lon="6.51262">
        <ele>2445</ele>
        <time>2022-02-19T14:23:54Z</time>
      </trkpt>
      <trkpt lat="45.91579" lon="6.51267">
        <ele>2445</ele>
        <time>2022-02-19T14:25:07Z</time>
      </trkpt>
      <trkpt lat="45.91581" lon="6.51269">
        <ele>2446</ele>
        <time>2022-02-19T14:25:16Z</time>
      </trkpt>
      <trkpt lat="45.91583" lon="6.5127">
        <ele>2445</ele>
        <time>2022-02-19T14:25:28Z</time>
      </trkpt>
      <trkpt lat="45.91584" lon="6.51267">
        <ele>2445</ele>
        <time>2022-02-19T14:26:02Z</time>
      </trkpt>
      <trkpt lat="45.91585" lon="6.51264">
        <ele>2445</ele>
        <time>2022-02-19T14:27:19Z</time>
      </trkpt>
      <trkpt lat="45.91585" lon="6.5126">
        <ele>2445</ele>
        <time>2022-02-19T14:27:21Z</time>
      </trkpt>
      <trkpt lat="45.91584" lon="6.51257">
        <ele>2445</ele>
        <time>2022-02-19T14:27:23Z</time>
      </trkpt>
      <trkpt lat="45.91583" lon="6.51253">
        <ele>2444</ele>
        <time>2022-02-19T14:27:25Z</time>
      </trkpt>
      <trkpt lat="45.91582" lon="6.51249">
        <ele>2443</ele>
        <time>2022-02-19T14:27:27Z</time>
      </trkpt>
      <trkpt lat="45.91582" lon="6.51245">
        <ele>2439</ele>
        <time>2022-02-19T14:27:30Z</time>
      </trkpt>
      <trkpt lat="45.91582" lon="6.5124">
        <ele>2438</ele>
        <time>2022-02-19T14:27:33Z</time>
      </trkpt>
      <trkpt lat="45.9158" lon="6.51237">
        <ele>2437</ele>
        <time>2022-02-19T14:27:35Z</time>
      </trkpt>
      <trkpt lat="45.91579" lon="6.51234">
        <ele>2435</ele>
        <time>2022-02-19T14:27:36Z</time>
      </trkpt>
      <trkpt lat="45.91578" lon="6.5123">
        <ele>2434</ele>
        <time>2022-02-19T14:27:38Z</time>
      </trkpt>
      <trkpt lat="45.91576" lon="6.51223">
        <ele>2433</ele>
        <time>2022-02-19T14:27:39Z</time>
      </trkpt>
      <trkpt lat="45.91574" lon="6.5122">
        <ele>2431</ele>
        <time>2022-02-19T14:27:40Z</time>
      </trkpt>
      <trkpt lat="45.91568" lon="6.51213">
        <ele>2428</ele>
        <time>2022-02-19T14:27:42Z</time>
      </trkpt>
      <trkpt lat="45.91566" lon="6.51203">
        <ele>2426</ele>
        <time>2022-02-19T14:27:44Z</time>
      </trkpt>
      <trkpt lat="45.91566" lon="6.51198">
        <ele>2425</ele>
        <time>2022-02-19T14:27:45Z</time>
      </trkpt>
      <trkpt lat="45.91566" lon="6.51194">
        <ele>2425</ele>
        <time>2022-02-19T14:27:46Z</time>
      </trkpt>
      <trkpt lat="45.91566" lon="6.51185">
        <ele>2418</ele>
        <time>2022-02-19T14:27:48Z</time>
      </trkpt>
      <trkpt lat="45.91566" lon="6.51181">
        <ele>2417</ele>
        <time>2022-02-19T14:27:49Z</time>
      </trkpt>
      <trkpt lat="45.9157" lon="6.51176">
        <ele>2414</ele>
        <time>2022-02-19T14:27:51Z</time>
      </trkpt>
      <trkpt lat="45.91571" lon="6.51172">
        <ele>2412</ele>
        <time>2022-02-19T14:27:52Z</time>
      </trkpt>
      <trkpt lat="45.91572" lon="6.5117">
        <ele>2410</ele>
        <time>2022-02-19T14:27:53Z</time>
      </trkpt>
      <trkpt lat="45.91573" lon="6.51167">
        <ele>2410</ele>
        <time>2022-02-19T14:27:54Z</time>
      </trkpt>
      <trkpt lat="45.91573" lon="6.51161">
        <ele>2405</ele>
        <time>2022-02-19T14:27:56Z</time>
      </trkpt>
      <trkpt lat="45.91572" lon="6.51157">
        <ele>2401</ele>
        <time>2022-02-19T14:27:58Z</time>
      </trkpt>
      <trkpt lat="45.91572" lon="6.51154">
        <ele>2398</ele>
        <time>2022-02-19T14:28:00Z</time>
      </trkpt>
      <trkpt lat="45.91572" lon="6.51151">
        <ele>2398</ele>
        <time>2022-02-19T14:28:01Z</time>
      </trkpt>
      <trkpt lat="45.91572" lon="6.51148">
        <ele>2397</ele>
        <time>2022-02-19T14:28:04Z</time>
      </trkpt>
      <trkpt lat="45.91572" lon="6.51146">
        <ele>2396</ele>
        <time>2022-02-19T14:28:05Z</time>
      </trkpt>
      <trkpt lat="45.91569" lon="6.51136">
        <ele>2395</ele>
        <time>2022-02-19T14:28:07Z</time>
      </trkpt>
      <trkpt lat="45.91569" lon="6.51131">
        <ele>2392</ele>
        <time>2022-02-19T14:28:08Z</time>
      </trkpt>
      <trkpt lat="45.91571" lon="6.51128">
        <ele>2390</ele>
        <time>2022-02-19T14:28:09Z</time>
      </trkpt>
      <trkpt lat="45.91575" lon="6.51126">
        <ele>2387</ele>
        <time>2022-02-19T14:28:12Z</time>
      </trkpt>
      <trkpt lat="45.9158" lon="6.51126">
        <ele>2386</ele>
        <time>2022-02-19T14:28:14Z</time>
      </trkpt>
      <trkpt lat="45.91585" lon="6.51121">
        <ele>2383</ele>
        <time>2022-02-19T14:28:17Z</time>
      </trkpt>
      <trkpt lat="45.91587" lon="6.5112">
        <ele>2380</ele>
        <time>2022-02-19T14:28:19Z</time>
      </trkpt>
      <trkpt lat="45.91588" lon="6.51118">
        <ele>2380</ele>
        <time>2022-02-19T14:28:20Z</time>
      </trkpt>
      <trkpt lat="45.91589" lon="6.51115">
        <ele>2379</ele>
        <time>2022-02-19T14:28:21Z</time>
      </trkpt>
      <trkpt lat="45.91592" lon="6.51111">
        <ele>2377</ele>
        <time>2022-02-19T14:28:22Z</time>
      </trkpt>
      <trkpt lat="45.91594" lon="6.51105">
        <ele>2376</ele>
        <time>2022-02-19T14:28:24Z</time>
      </trkpt>
      <trkpt lat="45.91592" lon="6.51099">
        <ele>2372</ele>
        <time>2022-02-19T14:28:27Z</time>
      </trkpt>
      <trkpt lat="45.91587" lon="6.51083">
        <ele>2365</ele>
        <time>2022-02-19T14:28:33Z</time>
      </trkpt>
      <trkpt lat="45.91587" lon="6.51066">
        <ele>2362</ele>
        <time>2022-02-19T14:28:35Z</time>
      </trkpt>
      <trkpt lat="45.91587" lon="6.51051">
        <ele>2354</ele>
        <time>2022-02-19T14:28:39Z</time>
      </trkpt>
      <trkpt lat="45.91581" lon="6.51039">
        <ele>2348</ele>
        <time>2022-02-19T14:28:45Z</time>
      </trkpt>
      <trkpt lat="45.91579" lon="6.51025">
        <ele>2340</ele>
        <time>2022-02-19T14:29:00Z</time>
      </trkpt>
      <trkpt lat="45.91572" lon="6.51034">
        <ele>2333</ele>
        <time>2022-02-19T14:29:09Z</time>
      </trkpt>
      <trkpt lat="45.91563" lon="6.51029">
        <ele>2305.9</ele>
        <time>2022-02-19T14:29:15Z</time>
      </trkpt>
      <trkpt lat="45.91555" lon="6.51022">
        <ele>2321</ele>
        <time>2022-02-19T14:29:19Z</time>
      </trkpt>
      <trkpt lat="45.91545" lon="6.51018">
        <ele>2315</ele>
        <time>2022-02-19T14:29:25Z</time>
      </trkpt>
      <trkpt lat="45.91542" lon="6.51003">
        <ele>2310</ele>
        <time>2022-02-19T14:29:29Z</time>
      </trkpt>
      <trkpt lat="45.91541" lon="6.50988">
        <ele>2304</ele>
        <time>2022-02-19T14:29:32Z</time>
      </trkpt>
      <trkpt lat="45.91536" lon="6.50972">
        <ele>2295</ele>
        <time>2022-02-19T14:29:37Z</time>
      </trkpt>
      <trkpt lat="45.9153" lon="6.5096">
        <ele>2291</ele>
        <time>2022-02-19T14:29:40Z</time>
      </trkpt>
      <trkpt lat="45.91521" lon="6.50947">
        <ele>2282</ele>
        <time>2022-02-19T14:29:44Z</time>
      </trkpt>
      <trkpt lat="45.91514" lon="6.50931">
        <ele>2274</ele>
        <time>2022-02-19T14:29:47Z</time>
      </trkpt>
      <trkpt lat="45.91518" lon="6.50943">
        <ele>2263</ele>
        <time>2022-02-19T14:30:28Z</time>
      </trkpt>
      <trkpt lat="45.91517" lon="6.50946">
        <ele>2264</ele>
        <time>2022-02-19T14:30:39Z</time>
      </trkpt>
      <trkpt lat="45.91523" lon="6.50934">
        <ele>2263</ele>
        <time>2022-02-19T14:30:45Z</time>
      </trkpt>
      <trkpt lat="45.91528" lon="6.50921">
        <ele>2260</ele>
        <time>2022-02-19T14:30:48Z</time>
      </trkpt>
      <trkpt lat="45.91532" lon="6.50909">
        <ele>2257</ele>
        <time>2022-02-19T14:30:51Z</time>
      </trkpt>
      <trkpt lat="45.91539" lon="6.50895">
        <ele>2254</ele>
        <time>2022-02-19T14:30:54Z</time>
      </trkpt>
      <trkpt lat="45.91543" lon="6.50883">
        <ele>2247</ele>
        <time>2022-02-19T14:30:58Z</time>
      </trkpt>
      <trkpt lat="45.91537" lon="6.5087">
        <ele>2242</ele>
        <time>2022-02-19T14:31:01Z</time>
      </trkpt>
      <trkpt lat="45.9153" lon="6.50857">
        <ele>2239</ele>
        <time>2022-02-19T14:31:02Z</time>
      </trkpt>
      <trkpt lat="45.91527" lon="6.50844">
        <ele>2233</ele>
        <time>2022-02-19T14:31:04Z</time>
      </trkpt>
      <trkpt lat="45.91518" lon="6.50837">
        <ele>2227</ele>
        <time>2022-02-19T14:31:07Z</time>
      </trkpt>
      <trkpt lat="45.9151" lon="6.50848">
        <ele>2222</ele>
        <time>2022-02-19T14:31:09Z</time>
      </trkpt>
      <trkpt lat="45.91506" lon="6.50856">
        <ele>2213</ele>
        <time>2022-02-19T14:31:21Z</time>
      </trkpt>
      <trkpt lat="45.91509" lon="6.50847">
        <ele>2211</ele>
        <time>2022-02-19T14:31:40Z</time>
      </trkpt>
      <trkpt lat="45.91511" lon="6.50842">
        <ele>2211</ele>
        <time>2022-02-19T14:31:41Z</time>
      </trkpt>
      <trkpt lat="45.91514" lon="6.50834">
        <ele>2210</ele>
        <time>2022-02-19T14:31:43Z</time>
      </trkpt>
      <trkpt lat="45.91512" lon="6.50821">
        <ele>2206</ele>
        <time>2022-02-19T14:31:45Z</time>
      </trkpt>
      <trkpt lat="45.9151" lon="6.50814">
        <ele>2204</ele>
        <time>2022-02-19T14:31:47Z</time>
      </trkpt>
      <trkpt lat="45.91509" lon="6.50807">
        <ele>2203</ele>
        <time>2022-02-19T14:31:48Z</time>
      </trkpt>
      <trkpt lat="45.9151" lon="6.50793">
        <ele>2201</ele>
        <time>2022-02-19T14:31:49Z</time>
      </trkpt>
      <trkpt lat="45.91508" lon="6.50778">
        <ele>2198</ele>
        <time>2022-02-19T14:31:51Z</time>
      </trkpt>
      <trkpt lat="45.91507" lon="6.50762">
        <ele>2195</ele>
        <time>2022-02-19T14:31:53Z</time>
      </trkpt>
      <trkpt lat="45.91508" lon="6.50754">
        <ele>2185</ele>
        <time>2022-02-19T14:31:55Z</time>
      </trkpt>
      <trkpt lat="45.91504" lon="6.50735">
        <ele>2180</ele>
        <time>2022-02-19T14:31:57Z</time>
      </trkpt>
      <trkpt lat="45.91503" lon="6.50719">
        <ele>2173</ele>
        <time>2022-02-19T14:31:59Z</time>
      </trkpt>
      <trkpt lat="45.91501" lon="6.50706">
        <ele>2168</ele>
        <time>2022-02-19T14:32:01Z</time>
      </trkpt>
      <trkpt lat="45.91502" lon="6.50687">
        <ele>2166</ele>
        <time>2022-02-19T14:32:02Z</time>
      </trkpt>
      <trkpt lat="45.91498" lon="6.50671">
        <ele>2162</ele>
        <time>2022-02-19T14:32:04Z</time>
      </trkpt>
      <trkpt lat="45.91506" lon="6.50682">
        <ele>2155</ele>
        <time>2022-02-19T14:32:07Z</time>
      </trkpt>
      <trkpt lat="45.91512" lon="6.50692">
        <ele>2150</ele>
        <time>2022-02-19T14:32:14Z</time>
      </trkpt>
      <trkpt lat="45.91514" lon="6.50688">
        <ele>2149</ele>
        <time>2022-02-19T14:33:14Z</time>
      </trkpt>
      <trkpt lat="45.91513" lon="6.50682">
        <ele>2149</ele>
        <time>2022-02-19T14:33:15Z</time>
      </trkpt>
      <trkpt lat="45.91512" lon="6.50667">
        <ele>2147</ele>
        <time>2022-02-19T14:33:16Z</time>
      </trkpt>
      <trkpt lat="45.91508" lon="6.50656">
        <ele>2141</ele>
        <time>2022-02-19T14:33:18Z</time>
      </trkpt>
      <trkpt lat="45.91508" lon="6.50646">
        <ele>2138</ele>
        <time>2022-02-19T14:33:19Z</time>
      </trkpt>
      <trkpt lat="45.9151" lon="6.50637">
        <ele>2137</ele>
        <time>2022-02-19T14:33:20Z</time>
      </trkpt>
      <trkpt lat="45.91511" lon="6.50627">
        <ele>2134</ele>
        <time>2022-02-19T14:33:21Z</time>
      </trkpt>
      <trkpt lat="45.91509" lon="6.50615">
        <ele>2132</ele>
        <time>2022-02-19T14:33:22Z</time>
      </trkpt>
      <trkpt lat="45.91511" lon="6.50595">
        <ele>2132</ele>
        <time>2022-02-19T14:33:23Z</time>
      </trkpt>
      <trkpt lat="45.91514" lon="6.50579">
        <ele>2129</ele>
        <time>2022-02-19T14:33:25Z</time>
      </trkpt>
      <trkpt lat="45.91515" lon="6.5057">
        <ele>2127</ele>
        <time>2022-02-19T14:33:26Z</time>
      </trkpt>
      <trkpt lat="45.91516" lon="6.50561">
        <ele>2124</ele>
        <time>2022-02-19T14:33:28Z</time>
      </trkpt>
      <trkpt lat="45.91517" lon="6.50551">
        <ele>2122</ele>
        <time>2022-02-19T14:33:29Z</time>
      </trkpt>
      <trkpt lat="45.91518" lon="6.50541">
        <ele>2119</ele>
        <time>2022-02-19T14:33:30Z</time>
      </trkpt>
      <trkpt lat="45.91519" lon="6.50524">
        <ele>2118</ele>
        <time>2022-02-19T14:33:31Z</time>
      </trkpt>
      <trkpt lat="45.91519" lon="6.50518">
        <ele>2117</ele>
        <time>2022-02-19T14:33:32Z</time>
      </trkpt>
      <trkpt lat="45.91519" lon="6.50511">
        <ele>2116</ele>
        <time>2022-02-19T14:33:33Z</time>
      </trkpt>
      <trkpt lat="45.91519" lon="6.50505">
        <ele>2116</ele>
        <time>2022-02-19T14:33:34Z</time>
      </trkpt>
      <trkpt lat="45.91518" lon="6.505">
        <ele>2115</ele>
        <time>2022-02-19T14:33:36Z</time>
      </trkpt>
      <trkpt lat="45.91518" lon="6.50495">
        <ele>2115</ele>
        <time>2022-02-19T14:33:37Z</time>
      </trkpt>
      <trkpt lat="45.91518" lon="6.50486">
        <ele>2114</ele>
        <time>2022-02-19T14:33:38Z</time>
      </trkpt>
      <trkpt lat="45.91519" lon="6.50491">
        <ele>2113</ele>
        <time>2022-02-19T14:33:39Z</time>
      </trkpt>
      <trkpt lat="45.91527" lon="6.505">
        <ele>2111</ele>
        <time>2022-02-19T14:33:42Z</time>
      </trkpt>
      <trkpt lat="45.91533" lon="6.50503">
        <ele>2111</ele>
        <time>2022-02-19T14:33:44Z</time>
      </trkpt>
      <trkpt lat="45.91535" lon="6.50503">
        <ele>2111</ele>
        <time>2022-02-19T14:33:46Z</time>
      </trkpt>
      <trkpt lat="45.91536" lon="6.50499">
        <ele>2110</ele>
        <time>2022-02-19T14:33:52Z</time>
      </trkpt>
      <trkpt lat="45.91533" lon="6.50491">
        <ele>2110</ele>
        <time>2022-02-19T14:33:55Z</time>
      </trkpt>
      <trkpt lat="45.91532" lon="6.5048">
        <ele>2108</ele>
        <time>2022-02-19T14:33:57Z</time>
      </trkpt>
      <trkpt lat="45.9153" lon="6.50469">
        <ele>2108</ele>
        <time>2022-02-19T14:33:59Z</time>
      </trkpt>
      <trkpt lat="45.9153" lon="6.50463">
        <ele>2106</ele>
        <time>2022-02-19T14:34:00Z</time>
      </trkpt>
      <trkpt lat="45.9153" lon="6.50452">
        <ele>2102</ele>
        <time>2022-02-19T14:34:02Z</time>
      </trkpt>
      <trkpt lat="45.91531" lon="6.5044">
        <ele>2099</ele>
        <time>2022-02-19T14:34:04Z</time>
      </trkpt>
      <trkpt lat="45.91531" lon="6.50434">
        <ele>2098</ele>
        <time>2022-02-19T14:34:05Z</time>
      </trkpt>
      <trkpt lat="45.9153" lon="6.50426">
        <ele>2098</ele>
        <time>2022-02-19T14:34:06Z</time>
      </trkpt>
      <trkpt lat="45.9153" lon="6.50422">
        <ele>2092</ele>
        <time>2022-02-19T14:34:08Z</time>
      </trkpt>
      <trkpt lat="45.9153" lon="6.50408">
        <ele>2086</ele>
        <time>2022-02-19T14:34:11Z</time>
      </trkpt>
      <trkpt lat="45.91531" lon="6.50392">
        <ele>2080</ele>
        <time>2022-02-19T14:34:14Z</time>
      </trkpt>
      <trkpt lat="45.91538" lon="6.50384">
        <ele>2077</ele>
        <time>2022-02-19T14:34:17Z</time>
      </trkpt>
      <trkpt lat="45.91548" lon="6.50369">
        <ele>2069</ele>
        <time>2022-02-19T14:34:21Z</time>
      </trkpt>
      <trkpt lat="45.91554" lon="6.50354">
        <ele>2066</ele>
        <time>2022-02-19T14:34:23Z</time>
      </trkpt>
      <trkpt lat="45.9156" lon="6.50337">
        <ele>2065</ele>
        <time>2022-02-19T14:34:24Z</time>
      </trkpt>
      <trkpt lat="45.91566" lon="6.50324">
        <ele>2061</ele>
        <time>2022-02-19T14:34:27Z</time>
      </trkpt>
      <trkpt lat="45.91574" lon="6.50305">
        <ele>2059</ele>
        <time>2022-02-19T14:34:28Z</time>
      </trkpt>
      <trkpt lat="45.91583" lon="6.50286">
        <ele>2057</ele>
        <time>2022-02-19T14:34:31Z</time>
      </trkpt>
      <trkpt lat="45.91589" lon="6.50271">
        <ele>2055</ele>
        <time>2022-02-19T14:34:33Z</time>
      </trkpt>
      <trkpt lat="45.91597" lon="6.50266">
        <ele>2052</ele>
        <time>2022-02-19T14:34:35Z</time>
      </trkpt>
      <trkpt lat="45.91599" lon="6.5027">
        <ele>2052</ele>
        <time>2022-02-19T14:34:36Z</time>
      </trkpt>
      <trkpt lat="45.91604" lon="6.50272">
        <ele>2050</ele>
        <time>2022-02-19T14:34:41Z</time>
      </trkpt>
      <trkpt lat="45.91604" lon="6.50276">
        <ele>2049</ele>
        <time>2022-02-19T14:34:49Z</time>
      </trkpt>
      <trkpt lat="45.91604" lon="6.50279">
        <ele>2049</ele>
        <time>2022-02-19T14:35:33Z</time>
      </trkpt>
      <trkpt lat="45.91604" lon="6.50273">
        <ele>2048</ele>
        <time>2022-02-19T14:35:45Z</time>
      </trkpt>
      <trkpt lat="45.91605" lon="6.50271">
        <ele>2048</ele>
        <time>2022-02-19T14:35:47Z</time>
      </trkpt>
      <trkpt lat="45.91607" lon="6.50269">
        <ele>2048</ele>
        <time>2022-02-19T14:35:49Z</time>
      </trkpt>
      <trkpt lat="45.9161" lon="6.50267">
        <ele>2047</ele>
        <time>2022-02-19T14:35:51Z</time>
      </trkpt>
      <trkpt lat="45.91612" lon="6.50267">
        <ele>2045</ele>
        <time>2022-02-19T14:35:53Z</time>
      </trkpt>
      <trkpt lat="45.91615" lon="6.50265">
        <ele>2045</ele>
        <time>2022-02-19T14:35:54Z</time>
      </trkpt>
      <trkpt lat="45.91616" lon="6.50261">
        <ele>2044</ele>
        <time>2022-02-19T14:35:56Z</time>
      </trkpt>
      <trkpt lat="45.91616" lon="6.50256">
        <ele>2043</ele>
        <time>2022-02-19T14:35:57Z</time>
      </trkpt>
      <trkpt lat="45.91621" lon="6.5025">
        <ele>2039</ele>
        <time>2022-02-19T14:35:58Z</time>
      </trkpt>
      <trkpt lat="45.91622" lon="6.50245">
        <ele>2037</ele>
        <time>2022-02-19T14:35:59Z</time>
      </trkpt>
      <trkpt lat="45.91623" lon="6.50239">
        <ele>2032</ele>
        <time>2022-02-19T14:36:01Z</time>
      </trkpt>
      <trkpt lat="45.9163" lon="6.50229">
        <ele>2024</ele>
        <time>2022-02-19T14:36:04Z</time>
      </trkpt>
      <trkpt lat="45.91636" lon="6.50217">
        <ele>2018</ele>
        <time>2022-02-19T14:36:09Z</time>
      </trkpt>
      <trkpt lat="45.91644" lon="6.50201">
        <ele>2014</ele>
        <time>2022-02-19T14:36:11Z</time>
      </trkpt>
      <trkpt lat="45.91651" lon="6.50189">
        <ele>2004</ele>
        <time>2022-02-19T14:36:15Z</time>
      </trkpt>
      <trkpt lat="45.91654" lon="6.50176">
        <ele>1999</ele>
        <time>2022-02-19T14:36:17Z</time>
      </trkpt>
      <trkpt lat="45.91658" lon="6.50159">
        <ele>1991</ele>
        <time>2022-02-19T14:36:21Z</time>
      </trkpt>
      <trkpt lat="45.9166" lon="6.50163">
        <ele>1988</ele>
        <time>2022-02-19T14:36:22Z</time>
      </trkpt>
      <trkpt lat="45.91663" lon="6.50163">
        <ele>1983</ele>
        <time>2022-02-19T14:36:25Z</time>
      </trkpt>
      <trkpt lat="45.91667" lon="6.50165">
        <ele>1981</ele>
        <time>2022-02-19T14:36:30Z</time>
      </trkpt>
      <trkpt lat="45.91665" lon="6.50163">
        <ele>1980</ele>
        <time>2022-02-19T14:36:32Z</time>
      </trkpt>
      <trkpt lat="45.91666" lon="6.5016">
        <ele>1979</ele>
        <time>2022-02-19T14:36:33Z</time>
      </trkpt>
      <trkpt lat="45.91663" lon="6.50149">
        <ele>1977</ele>
        <time>2022-02-19T14:36:36Z</time>
      </trkpt>
      <trkpt lat="45.91661" lon="6.5014">
        <ele>1977</ele>
        <time>2022-02-19T14:36:38Z</time>
      </trkpt>
      <trkpt lat="45.9166" lon="6.50135">
        <ele>1976</ele>
        <time>2022-02-19T14:36:39Z</time>
      </trkpt>
      <trkpt lat="45.9166" lon="6.50131">
        <ele>1975</ele>
        <time>2022-02-19T14:36:40Z</time>
      </trkpt>
      <trkpt lat="45.91663" lon="6.50123">
        <ele>1973</ele>
        <time>2022-02-19T14:36:42Z</time>
      </trkpt>
      <trkpt lat="45.91663" lon="6.5012">
        <ele>1968</ele>
        <time>2022-02-19T14:36:45Z</time>
      </trkpt>
      <trkpt lat="45.91661" lon="6.50111">
        <ele>1966</ele>
        <time>2022-02-19T14:36:47Z</time>
      </trkpt>
      <trkpt lat="45.91664" lon="6.50101">
        <ele>1961</ele>
        <time>2022-02-19T14:36:49Z</time>
      </trkpt>
      <trkpt lat="45.91664" lon="6.50096">
        <ele>1958</ele>
        <time>2022-02-19T14:36:51Z</time>
      </trkpt>
      <trkpt lat="45.91659" lon="6.50084">
        <ele>1954</ele>
        <time>2022-02-19T14:36:54Z</time>
      </trkpt>
      <trkpt lat="45.91658" lon="6.50066">
        <ele>1945</ele>
        <time>2022-02-19T14:36:58Z</time>
      </trkpt>
      <trkpt lat="45.91668" lon="6.50054">
        <ele>1940</ele>
        <time>2022-02-19T14:37:01Z</time>
      </trkpt>
      <trkpt lat="45.91673" lon="6.50041">
        <ele>1932</ele>
        <time>2022-02-19T14:37:06Z</time>
      </trkpt>
      <trkpt lat="45.91674" lon="6.50027">
        <ele>1929</ele>
        <time>2022-02-19T14:37:09Z</time>
      </trkpt>
      <trkpt lat="45.91671" lon="6.50014">
        <ele>1926</ele>
        <time>2022-02-19T14:37:11Z</time>
      </trkpt>
      <trkpt lat="45.91668" lon="6.49999">
        <ele>1922</ele>
        <time>2022-02-19T14:37:16Z</time>
      </trkpt>
      <trkpt lat="45.9167" lon="6.49981">
        <ele>1913</ele>
        <time>2022-02-19T14:37:21Z</time>
      </trkpt>
      <trkpt lat="45.91673" lon="6.49965">
        <ele>1902</ele>
        <time>2022-02-19T14:37:26Z</time>
      </trkpt>
      <trkpt lat="45.91672" lon="6.49951">
        <ele>1901</ele>
        <time>2022-02-19T14:37:27Z</time>
      </trkpt>
      <trkpt lat="45.91673" lon="6.49938">
        <ele>1897</ele>
        <time>2022-02-19T14:37:31Z</time>
      </trkpt>
      <trkpt lat="45.91681" lon="6.49945">
        <ele>1892</ele>
        <time>2022-02-19T14:37:48Z</time>
      </trkpt>
      <trkpt lat="45.91691" lon="6.49948">
        <ele>1890</ele>
        <time>2022-02-19T14:37:56Z</time>
      </trkpt>
      <trkpt lat="45.91701" lon="6.49936">
        <ele>1885</ele>
        <time>2022-02-19T14:37:58Z</time>
      </trkpt>
      <trkpt lat="45.91711" lon="6.49925">
        <ele>1883</ele>
        <time>2022-02-19T14:38:00Z</time>
      </trkpt>
      <trkpt lat="45.91718" lon="6.4991">
        <ele>1877</ele>
        <time>2022-02-19T14:38:02Z</time>
      </trkpt>
      <trkpt lat="45.91723" lon="6.49896">
        <ele>1873</ele>
        <time>2022-02-19T14:38:04Z</time>
      </trkpt>
      <trkpt lat="45.91727" lon="6.49879">
        <ele>1865</ele>
        <time>2022-02-19T14:38:07Z</time>
      </trkpt>
      <trkpt lat="45.91729" lon="6.49865">
        <ele>1858</ele>
        <time>2022-02-19T14:38:10Z</time>
      </trkpt>
      <trkpt lat="45.91736" lon="6.49854">
        <ele>1853</ele>
        <time>2022-02-19T14:38:12Z</time>
      </trkpt>
      <trkpt lat="45.91738" lon="6.4984">
        <ele>1850</ele>
        <time>2022-02-19T14:38:13Z</time>
      </trkpt>
      <trkpt lat="45.91747" lon="6.4984">
        <ele>1841</ele>
        <time>2022-02-19T14:38:21Z</time>
      </trkpt>
      <trkpt lat="45.91748" lon="6.49837">
        <ele>1840</ele>
        <time>2022-02-19T14:38:22Z</time>
      </trkpt>
      <trkpt lat="45.91748" lon="6.49832">
        <ele>1840</ele>
        <time>2022-02-19T14:38:23Z</time>
      </trkpt>
      <trkpt lat="45.91752" lon="6.49823">
        <ele>1837</ele>
        <time>2022-02-19T14:38:25Z</time>
      </trkpt>
      <trkpt lat="45.91754" lon="6.49817">
        <ele>1835</ele>
        <time>2022-02-19T14:38:27Z</time>
      </trkpt>
      <trkpt lat="45.9176" lon="6.49802">
        <ele>1832</ele>
        <time>2022-02-19T14:38:28Z</time>
      </trkpt>
      <trkpt lat="45.91764" lon="6.49788">
        <ele>1827</ele>
        <time>2022-02-19T14:38:30Z</time>
      </trkpt>
      <trkpt lat="45.91777" lon="6.49793">
        <ele>1822</ele>
        <time>2022-02-19T14:38:34Z</time>
      </trkpt>
      <trkpt lat="45.91782" lon="6.49798">
        <ele>1820</ele>
        <time>2022-02-19T14:38:37Z</time>
      </trkpt>
      <trkpt lat="45.91786" lon="6.49795">
        <ele>1818</ele>
        <time>2022-02-19T14:39:45Z</time>
      </trkpt>
      <trkpt lat="45.9179" lon="6.49791">
        <ele>1818</ele>
        <time>2022-02-19T14:39:46Z</time>
      </trkpt>
      <trkpt lat="45.91792" lon="6.49784">
        <ele>1816</ele>
        <time>2022-02-19T14:39:48Z</time>
      </trkpt>
      <trkpt lat="45.91797" lon="6.49772">
        <ele>1814</ele>
        <time>2022-02-19T14:39:50Z</time>
      </trkpt>
      <trkpt lat="45.91798" lon="6.49761">
        <ele>1808</ele>
        <time>2022-02-19T14:39:53Z</time>
      </trkpt>
      <trkpt lat="45.91799" lon="6.49757">
        <ele>1804</ele>
        <time>2022-02-19T14:39:55Z</time>
      </trkpt>
      <trkpt lat="45.91802" lon="6.49757">
        <ele>1803</ele>
        <time>2022-02-19T14:39:56Z</time>
      </trkpt>
      <trkpt lat="45.91808" lon="6.49758">
        <ele>1799</ele>
        <time>2022-02-19T14:39:58Z</time>
      </trkpt>
      <trkpt lat="45.9181" lon="6.49758">
        <ele>1798</ele>
        <time>2022-02-19T14:39:59Z</time>
      </trkpt>
      <trkpt lat="45.91812" lon="6.49758">
        <ele>1797</ele>
        <time>2022-02-19T14:40:01Z</time>
      </trkpt>
      <trkpt lat="45.91815" lon="6.49759">
        <ele>1796</ele>
        <time>2022-02-19T14:40:02Z</time>
      </trkpt>
      <trkpt lat="45.91819" lon="6.49761">
        <ele>1795</ele>
        <time>2022-02-19T14:40:03Z</time>
      </trkpt>
      <trkpt lat="45.91821" lon="6.49761">
        <ele>1795</ele>
        <time>2022-02-19T14:40:04Z</time>
      </trkpt>
      <trkpt lat="45.91824" lon="6.49762">
        <ele>1793</ele>
        <time>2022-02-19T14:40:06Z</time>
      </trkpt>
      <trkpt lat="45.91827" lon="6.49763">
        <ele>1793</ele>
        <time>2022-02-19T14:40:07Z</time>
      </trkpt>
      <trkpt lat="45.9183" lon="6.49763">
        <ele>1792</ele>
        <time>2022-02-19T14:40:08Z</time>
      </trkpt>
      <trkpt lat="45.91832" lon="6.49762">
        <ele>1790</ele>
        <time>2022-02-19T14:40:09Z</time>
      </trkpt>
      <trkpt lat="45.91835" lon="6.49759">
        <ele>1788</ele>
        <time>2022-02-19T14:40:12Z</time>
      </trkpt>
      <trkpt lat="45.91838" lon="6.49756">
        <ele>1785</ele>
        <time>2022-02-19T14:40:14Z</time>
      </trkpt>
      <trkpt lat="45.91841" lon="6.49751">
        <ele>1783</ele>
        <time>2022-02-19T14:40:16Z</time>
      </trkpt>
      <trkpt lat="45.91843" lon="6.49749">
        <ele>1779</ele>
        <time>2022-02-19T14:40:19Z</time>
      </trkpt>
      <trkpt lat="45.91844" lon="6.49746">
        <ele>1776</ele>
        <time>2022-02-19T14:40:21Z</time>
      </trkpt>
      <trkpt lat="45.91842" lon="6.49746">
        <ele>1774</ele>
        <time>2022-02-19T14:40:32Z</time>
      </trkpt>
      <trkpt lat="45.9184" lon="6.49748">
        <ele>1774</ele>
        <time>2022-02-19T14:40:39Z</time>
      </trkpt>
      <trkpt lat="45.91841" lon="6.49743">
        <ele>1775</ele>
        <time>2022-02-19T14:40:45Z</time>
      </trkpt>
      <trkpt lat="45.91841" lon="6.4974">
        <ele>1773</ele>
        <time>2022-02-19T14:40:48Z</time>
      </trkpt>
      <trkpt lat="45.91843" lon="6.49738">
        <ele>1772</ele>
        <time>2022-02-19T14:40:50Z</time>
      </trkpt>
      <trkpt lat="45.91845" lon="6.49738">
        <ele>1771</ele>
        <time>2022-02-19T14:40:52Z</time>
      </trkpt>
      <trkpt lat="45.91849" lon="6.49738">
        <ele>1767</ele>
        <time>2022-02-19T14:40:56Z</time>
      </trkpt>
      <trkpt lat="45.91852" lon="6.49738">
        <ele>1767</ele>
        <time>2022-02-19T14:40:57Z</time>
      </trkpt>
      <trkpt lat="45.91855" lon="6.49738">
        <ele>1765</ele>
        <time>2022-02-19T14:41:00Z</time>
      </trkpt>
      <trkpt lat="45.9186" lon="6.49739">
        <ele>1764</ele>
        <time>2022-02-19T14:41:02Z</time>
      </trkpt>
      <trkpt lat="45.91863" lon="6.49739">
        <ele>1763</ele>
        <time>2022-02-19T14:41:04Z</time>
      </trkpt>
      <trkpt lat="45.91866" lon="6.49738">
        <ele>1761</ele>
        <time>2022-02-19T14:41:06Z</time>
      </trkpt>
      <trkpt lat="45.91869" lon="6.49737">
        <ele>1760</ele>
        <time>2022-02-19T14:41:08Z</time>
      </trkpt>
      <trkpt lat="45.91872" lon="6.49736">
        <ele>1757</ele>
        <time>2022-02-19T14:41:10Z</time>
      </trkpt>
      <trkpt lat="45.91874" lon="6.49737">
        <ele>1755</ele>
        <time>2022-02-19T14:41:13Z</time>
      </trkpt>
      <trkpt lat="45.91877" lon="6.49737">
        <ele>1752</ele>
        <time>2022-02-19T14:41:15Z</time>
      </trkpt>
      <trkpt lat="45.91885" lon="6.49735">
        <ele>1747</ele>
        <time>2022-02-19T14:41:28Z</time>
      </trkpt>
      <trkpt lat="45.91883" lon="6.49736">
        <ele>1745</ele>
        <time>2022-02-19T14:41:37Z</time>
      </trkpt>
      <trkpt lat="45.91881" lon="6.49736">
        <ele>1744</ele>
        <time>2022-02-19T14:41:40Z</time>
      </trkpt>
      <trkpt lat="45.91879" lon="6.49736">
        <ele>1743</ele>
        <time>2022-02-19T14:41:47Z</time>
      </trkpt>
      <trkpt lat="45.9188" lon="6.49738">
        <ele>1745</ele>
        <time>2022-02-19T14:41:56Z</time>
      </trkpt>
      <trkpt lat="45.91882" lon="6.49738">
        <ele>1745</ele>
        <time>2022-02-19T14:42:14Z</time>
      </trkpt>
      <trkpt lat="45.9188" lon="6.49737">
        <ele>1744</ele>
        <time>2022-02-19T14:42:23Z</time>
      </trkpt>
      <trkpt lat="45.9188" lon="6.49739">
        <ele>1743</ele>
        <time>2022-02-19T14:42:37Z</time>
      </trkpt>
      <trkpt lat="45.91878" lon="6.4974">
        <ele>1744</ele>
        <time>2022-02-19T14:42:58Z</time>
      </trkpt>
      <trkpt lat="45.91881" lon="6.4974">
        <ele>1742</ele>
        <time>2022-02-19T14:43:15Z</time>
      </trkpt>
      <trkpt lat="45.91879" lon="6.49742">
        <ele>1742</ele>
        <time>2022-02-19T14:43:19Z</time>
      </trkpt>
      <trkpt lat="45.91888" lon="6.49735">
        <ele>1737</ele>
        <time>2022-02-19T14:43:54Z</time>
      </trkpt>
      <trkpt lat="45.91885" lon="6.49735">
        <ele>1737</ele>
        <time>2022-02-19T14:44:03Z</time>
      </trkpt>
      <trkpt lat="45.91887" lon="6.49737">
        <ele>1737</ele>
        <time>2022-02-19T14:44:20Z</time>
      </trkpt>
      <trkpt lat="45.91894" lon="6.49726">
        <ele>1729</ele>
        <time>2022-02-19T14:44:28Z</time>
      </trkpt>
      <trkpt lat="45.91899" lon="6.49714">
        <ele>1745.3</ele>
        <time>2022-02-19T14:44:34Z</time>
      </trkpt>
      <trkpt lat="45.91911" lon="6.49704">
        <ele>1715</ele>
        <time>2022-02-19T14:44:37Z</time>
      </trkpt>
      <trkpt lat="45.91923" lon="6.49705">
        <ele>1708</ele>
        <time>2022-02-19T14:44:39Z</time>
      </trkpt>
      <trkpt lat="45.91935" lon="6.49708">
        <ele>1705</ele>
        <time>2022-02-19T14:44:41Z</time>
      </trkpt>
      <trkpt lat="45.9194" lon="6.49709">
        <ele>1702</ele>
        <time>2022-02-19T14:44:44Z</time>
      </trkpt>
      <trkpt lat="45.91938" lon="6.4971">
        <ele>1701</ele>
        <time>2022-02-19T14:44:56Z</time>
      </trkpt>
      <trkpt lat="45.91935" lon="6.49711">
        <ele>1701</ele>
        <time>2022-02-19T14:45:07Z</time>
      </trkpt>
      <trkpt lat="45.91934" lon="6.49707">
        <ele>1701</ele>
        <time>2022-02-19T14:45:31Z</time>
      </trkpt>
      <trkpt lat="45.91932" lon="6.49699">
        <ele>1701</ele>
        <time>2022-02-19T14:45:33Z</time>
      </trkpt>
      <trkpt lat="45.91932" lon="6.49684">
        <ele>1700</ele>
        <time>2022-02-19T14:45:34Z</time>
      </trkpt>
      <trkpt lat="45.91931" lon="6.49671">
        <ele>1694</ele>
        <time>2022-02-19T14:45:37Z</time>
      </trkpt>
      <trkpt lat="45.91933" lon="6.49655">
        <ele>1690</ele>
        <time>2022-02-19T14:45:39Z</time>
      </trkpt>
      <trkpt lat="45.91934" lon="6.49635">
        <ele>1688</ele>
        <time>2022-02-19T14:45:40Z</time>
      </trkpt>
      <trkpt lat="45.91929" lon="6.49614">
        <ele>1682</ele>
        <time>2022-02-19T14:45:42Z</time>
      </trkpt>
      <trkpt lat="45.91921" lon="6.49582">
        <ele>1675</ele>
        <time>2022-02-19T14:45:45Z</time>
      </trkpt>
      <trkpt lat="45.9192" lon="6.49558">
        <ele>1670</ele>
        <time>2022-02-19T14:45:47Z</time>
      </trkpt>
      <trkpt lat="45.91931" lon="6.49553">
        <ele>1665</ele>
        <time>2022-02-19T14:45:50Z</time>
      </trkpt>
      <trkpt lat="45.91939" lon="6.49556">
        <ele>1659</ele>
        <time>2022-02-19T14:45:57Z</time>
      </trkpt>
      <trkpt lat="45.91936" lon="6.49559">
        <ele>1659</ele>
        <time>2022-02-19T14:46:00Z</time>
      </trkpt>
      <trkpt lat="45.91933" lon="6.49561">
        <ele>1658</ele>
        <time>2022-02-19T14:46:09Z</time>
      </trkpt>
      <trkpt lat="45.91931" lon="6.49563">
        <ele>1659</ele>
        <time>2022-02-19T14:46:24Z</time>
      </trkpt>
      <trkpt lat="45.9194" lon="6.49567">
        <ele>1656</ele>
        <time>2022-02-19T14:46:36Z</time>
      </trkpt>
      <trkpt lat="45.91943" lon="6.49567">
        <ele>1656</ele>
        <time>2022-02-19T14:46:38Z</time>
      </trkpt>
      <trkpt lat="45.91945" lon="6.49556">
        <ele>1654</ele>
        <time>2022-02-19T14:46:41Z</time>
      </trkpt>
      <trkpt lat="45.91954" lon="6.4955">
        <ele>1647</ele>
        <time>2022-02-19T14:46:45Z</time>
      </trkpt>
      <trkpt lat="45.91956" lon="6.49546">
        <ele>1644</ele>
        <time>2022-02-19T14:46:46Z</time>
      </trkpt>
      <trkpt lat="45.91967" lon="6.49534">
        <ele>1640</ele>
        <time>2022-02-19T14:46:49Z</time>
      </trkpt>
      <trkpt lat="45.91976" lon="6.49523">
        <ele>1638</ele>
        <time>2022-02-19T14:46:51Z</time>
      </trkpt>
      <trkpt lat="45.91984" lon="6.49511">
        <ele>1635</ele>
        <time>2022-02-19T14:46:52Z</time>
      </trkpt>
      <trkpt lat="45.91991" lon="6.49498">
        <ele>1629</ele>
        <time>2022-02-19T14:46:54Z</time>
      </trkpt>
      <trkpt lat="45.91995" lon="6.49484">
        <ele>1621</ele>
        <time>2022-02-19T14:46:57Z</time>
      </trkpt>
      <trkpt lat="45.91999" lon="6.4947">
        <ele>1618</ele>
        <time>2022-02-19T14:46:59Z</time>
      </trkpt>
      <trkpt lat="45.92002" lon="6.49463">
        <ele>1615</ele>
        <time>2022-02-19T14:47:00Z</time>
      </trkpt>
      <trkpt lat="45.92009" lon="6.49452">
        <ele>1610</ele>
        <time>2022-02-19T14:47:02Z</time>
      </trkpt>
      <trkpt lat="45.9201" lon="6.49445">
        <ele>1609</ele>
        <time>2022-02-19T14:47:03Z</time>
      </trkpt>
      <trkpt lat="45.92019" lon="6.4944">
        <ele>1600</ele>
        <time>2022-02-19T14:47:09Z</time>
      </trkpt>
      <trkpt lat="45.92027" lon="6.49429">
        <ele>1599</ele>
        <time>2022-02-19T14:47:11Z</time>
      </trkpt>
      <trkpt lat="45.92032" lon="6.49417">
        <ele>1592</ele>
        <time>2022-02-19T14:47:14Z</time>
      </trkpt>
      <trkpt lat="45.92044" lon="6.49417">
        <ele>1584</ele>
        <time>2022-02-19T14:47:19Z</time>
      </trkpt>
      <trkpt lat="45.92058" lon="6.49423">
        <ele>1578</ele>
        <time>2022-02-19T14:47:22Z</time>
      </trkpt>
      <trkpt lat="45.92069" lon="6.49433">
        <ele>1578</ele>
        <time>2022-02-19T14:47:23Z</time>
      </trkpt>
      <trkpt lat="45.92075" lon="6.49422">
        <ele>1575</ele>
        <time>2022-02-19T14:47:31Z</time>
      </trkpt>
      <trkpt lat="45.92082" lon="6.49423">
        <ele>1573</ele>
        <time>2022-02-19T14:47:35Z</time>
      </trkpt>
      <trkpt lat="45.92092" lon="6.49425">
        <ele>1571</ele>
        <time>2022-02-19T14:47:37Z</time>
      </trkpt>
      <trkpt lat="45.92102" lon="6.49425">
        <ele>1566</ele>
        <time>2022-02-19T14:47:41Z</time>
      </trkpt>
      <trkpt lat="45.9211" lon="6.49418">
        <ele>1561</ele>
        <time>2022-02-19T14:47:45Z</time>
      </trkpt>
      <trkpt lat="45.92114" lon="6.49405">
        <ele>1551</ele>
        <time>2022-02-19T14:47:51Z</time>
      </trkpt>
      <trkpt lat="45.92124" lon="6.49404">
        <ele>1546</ele>
        <time>2022-02-19T14:47:56Z</time>
      </trkpt>
      <trkpt lat="45.92121" lon="6.49389">
        <ele>1542</ele>
        <time>2022-02-19T14:47:59Z</time>
      </trkpt>
      <trkpt lat="45.92133" lon="6.4939">
        <ele>1538</ele>
        <time>2022-02-19T14:48:02Z</time>
      </trkpt>
      <trkpt lat="45.92142" lon="6.49391">
        <ele>1532</ele>
        <time>2022-02-19T14:48:10Z</time>
      </trkpt>
      <trkpt lat="45.92143" lon="6.49383">
        <ele>1529</ele>
        <time>2022-02-19T14:48:12Z</time>
      </trkpt>
      <trkpt lat="45.9215" lon="6.49363">
        <ele>1526</ele>
        <time>2022-02-19T14:48:14Z</time>
      </trkpt>
      <trkpt lat="45.92161" lon="6.49345">
        <ele>1518</ele>
        <time>2022-02-19T14:48:17Z</time>
      </trkpt>
      <trkpt lat="45.92165" lon="6.49328">
        <ele>1515</ele>
        <time>2022-02-19T14:48:18Z</time>
      </trkpt>
      <trkpt lat="45.92172" lon="6.49303">
        <ele>1513</ele>
        <time>2022-02-19T14:48:19Z</time>
      </trkpt>
      <trkpt lat="45.92171" lon="6.49286">
        <ele>1506</ele>
        <time>2022-02-19T14:48:22Z</time>
      </trkpt>
      <trkpt lat="45.92178" lon="6.49314">
        <ele>1501</ele>
        <time>2022-02-19T14:48:25Z</time>
      </trkpt>
      <trkpt lat="45.92186" lon="6.49321">
        <ele>1500</ele>
        <time>2022-02-19T14:48:30Z</time>
      </trkpt>
      <trkpt lat="45.92186" lon="6.49327">
        <ele>1496</ele>
        <time>2022-02-19T14:48:38Z</time>
      </trkpt>
      <trkpt lat="45.92187" lon="6.49329">
        <ele>1496</ele>
        <time>2022-02-19T14:48:51Z</time>
      </trkpt>
      <trkpt lat="45.92189" lon="6.49325">
        <ele>1497</ele>
        <time>2022-02-19T14:49:02Z</time>
      </trkpt>
      <trkpt lat="45.92197" lon="6.49317">
        <ele>1497</ele>
        <time>2022-02-19T14:49:03Z</time>
      </trkpt>
      <trkpt lat="45.92202" lon="6.49312">
        <ele>1495</ele>
        <time>2022-02-19T14:49:05Z</time>
      </trkpt>
      <trkpt lat="45.92209" lon="6.49297">
        <ele>1494</ele>
        <time>2022-02-19T14:49:06Z</time>
      </trkpt>
      <trkpt lat="45.92212" lon="6.49288">
        <ele>1489</ele>
        <time>2022-02-19T14:49:08Z</time>
      </trkpt>
      <trkpt lat="45.92215" lon="6.49267">
        <ele>1487</ele>
        <time>2022-02-19T14:49:09Z</time>
      </trkpt>
      <trkpt lat="45.92215" lon="6.49257">
        <ele>1486</ele>
        <time>2022-02-19T14:49:10Z</time>
      </trkpt>
      <trkpt lat="45.92213" lon="6.49235">
        <ele>1483</ele>
        <time>2022-02-19T14:49:12Z</time>
      </trkpt>
      <trkpt lat="45.92214" lon="6.49213">
        <ele>1480</ele>
        <time>2022-02-19T14:49:14Z</time>
      </trkpt>
      <trkpt lat="45.92215" lon="6.49203">
        <ele>1478</ele>
        <time>2022-02-19T14:49:15Z</time>
      </trkpt>
      <trkpt lat="45.92216" lon="6.49193">
        <ele>1478</ele>
        <time>2022-02-19T14:49:16Z</time>
      </trkpt>
      <trkpt lat="45.92219" lon="6.49184">
        <ele>1475</ele>
        <time>2022-02-19T14:49:18Z</time>
      </trkpt>
      <trkpt lat="45.92221" lon="6.49175">
        <ele>1471</ele>
        <time>2022-02-19T14:49:19Z</time>
      </trkpt>
      <trkpt lat="45.92223" lon="6.49154">
        <ele>1469</ele>
        <time>2022-02-19T14:49:20Z</time>
      </trkpt>
      <trkpt lat="45.92224" lon="6.49144">
        <ele>1465</ele>
        <time>2022-02-19T14:49:22Z</time>
      </trkpt>
      <trkpt lat="45.92222" lon="6.49133">
        <ele>1462</ele>
        <time>2022-02-19T14:49:23Z</time>
      </trkpt>
      <trkpt lat="45.9222" lon="6.49121">
        <ele>1461</ele>
        <time>2022-02-19T14:49:24Z</time>
      </trkpt>
      <trkpt lat="45.92216" lon="6.49097">
        <ele>1460</ele>
        <time>2022-02-19T14:49:25Z</time>
      </trkpt>
      <trkpt lat="45.92213" lon="6.49085">
        <ele>1458</ele>
        <time>2022-02-19T14:49:26Z</time>
      </trkpt>
      <trkpt lat="45.92203" lon="6.49048">
        <ele>1450</ele>
        <time>2022-02-19T14:49:29Z</time>
      </trkpt>
      <trkpt lat="45.92199" lon="6.49034">
        <ele>1447</ele>
        <time>2022-02-19T14:49:31Z</time>
      </trkpt>
      <trkpt lat="45.92191" lon="6.49009">
        <ele>1445</ele>
        <time>2022-02-19T14:49:32Z</time>
      </trkpt>
      <trkpt lat="45.92187" lon="6.48996">
        <ele>1443</ele>
        <time>2022-02-19T14:49:33Z</time>
      </trkpt>
      <trkpt lat="45.92179" lon="6.48978">
        <ele>1440</ele>
        <time>2022-02-19T14:49:35Z</time>
      </trkpt>
      <trkpt lat="45.92176" lon="6.48958">
        <ele>1432</ele>
        <time>2022-02-19T14:49:39Z</time>
      </trkpt>
      <trkpt lat="45.92171" lon="6.48944">
        <ele>1431</ele>
        <time>2022-02-19T14:49:41Z</time>
      </trkpt>
      <trkpt lat="45.92168" lon="6.48927">
        <ele>1428</ele>
        <time>2022-02-19T14:49:43Z</time>
      </trkpt>
      <trkpt lat="45.92165" lon="6.48901">
        <ele>1426</ele>
        <time>2022-02-19T14:49:45Z</time>
      </trkpt>
      <trkpt lat="45.92164" lon="6.48883">
        <ele>1425</ele>
        <time>2022-02-19T14:49:47Z</time>
      </trkpt>
      <trkpt lat="45.92163" lon="6.48864">
        <ele>1424</ele>
        <time>2022-02-19T14:49:49Z</time>
      </trkpt>
      <trkpt lat="45.92161" lon="6.48846">
        <ele>1421</ele>
        <time>2022-02-19T14:49:51Z</time>
      </trkpt>
      <trkpt lat="45.92162" lon="6.48832">
        <ele>1420</ele>
        <time>2022-02-19T14:49:54Z</time>
      </trkpt>
      <trkpt lat="45.92163" lon="6.48837">
        <ele>1420</ele>
        <time>2022-02-19T14:49:58Z</time>
      </trkpt>
      <trkpt lat="45.92164" lon="6.4884">
        <ele>1420</ele>
        <time>2022-02-19T14:50:00Z</time>
      </trkpt>
      <trkpt lat="45.92165" lon="6.48843">
        <ele>1421</ele>
        <time>2022-02-19T14:50:04Z</time>
      </trkpt>
      <trkpt lat="45.92167" lon="6.48846">
        <ele>1421</ele>
        <time>2022-02-19T14:50:08Z</time>
      </trkpt>
      <trkpt lat="45.92168" lon="6.48845">
        <ele>1421</ele>
        <time>2022-02-19T14:50:11Z</time>
      </trkpt>
      <trkpt lat="45.9217" lon="6.48842">
        <ele>1421</ele>
        <time>2022-02-19T14:50:16Z</time>
      </trkpt>
      <trkpt lat="45.92171" lon="6.4884">
        <ele>1421</ele>
        <time>2022-02-19T14:50:18Z</time>
      </trkpt>
      <trkpt lat="45.92172" lon="6.48837">
        <ele>1421</ele>
        <time>2022-02-19T14:50:21Z</time>
      </trkpt>
      <trkpt lat="45.92173" lon="6.48835">
        <ele>1421</ele>
        <time>2022-02-19T14:50:22Z</time>
      </trkpt>
      <trkpt lat="45.92174" lon="6.48832">
        <ele>1421</ele>
        <time>2022-02-19T14:50:25Z</time>
      </trkpt>
      <trkpt lat="45.92175" lon="6.48829">
        <ele>1422</ele>
        <time>2022-02-19T14:50:26Z</time>
      </trkpt>
      <trkpt lat="45.92176" lon="6.48827">
        <ele>1422</ele>
        <time>2022-02-19T14:50:30Z</time>
      </trkpt>
      <trkpt lat="45.92176" lon="6.48825">
        <ele>1422</ele>
        <time>2022-02-19T14:50:32Z</time>
      </trkpt>
      <trkpt lat="45.92177" lon="6.48822">
        <ele>1423</ele>
        <time>2022-02-19T14:50:37Z</time>
      </trkpt>
      <trkpt lat="45.92178" lon="6.4882">
        <ele>1423</ele>
        <time>2022-02-19T14:50:39Z</time>
      </trkpt>
      <trkpt lat="45.92178" lon="6.48817">
        <ele>1423</ele>
        <time>2022-02-19T14:50:41Z</time>
      </trkpt>
      <trkpt lat="45.92178" lon="6.48814">
        <ele>1424</ele>
        <time>2022-02-19T14:50:45Z</time>
      </trkpt>
      <trkpt lat="45.92178" lon="6.4881">
        <ele>1424</ele>
        <time>2022-02-19T14:50:48Z</time>
      </trkpt>
      <trkpt lat="45.92178" lon="6.48806">
        <ele>1425</ele>
        <time>2022-02-19T14:50:51Z</time>
      </trkpt>
      <trkpt lat="45.92177" lon="6.48803">
        <ele>1425</ele>
        <time>2022-02-19T14:50:53Z</time>
      </trkpt>
      <trkpt lat="45.92177" lon="6.488">
        <ele>1425</ele>
        <time>2022-02-19T14:50:57Z</time>
      </trkpt>
      <trkpt lat="45.92177" lon="6.48797">
        <ele>1425</ele>
        <time>2022-02-19T14:50:59Z</time>
      </trkpt>
      <trkpt lat="45.92176" lon="6.48793">
        <ele>1426</ele>
        <time>2022-02-19T14:51:03Z</time>
      </trkpt>
      <trkpt lat="45.92174" lon="6.4879">
        <ele>1426</ele>
        <time>2022-02-19T14:51:06Z</time>
      </trkpt>
      <trkpt lat="45.92174" lon="6.48788">
        <ele>1426</ele>
        <time>2022-02-19T14:51:12Z</time>
      </trkpt>
      <trkpt lat="45.92173" lon="6.48783">
        <ele>1426</ele>
        <time>2022-02-19T14:51:16Z</time>
      </trkpt>
      <trkpt lat="45.92173" lon="6.48781">
        <ele>1426</ele>
        <time>2022-02-19T14:51:17Z</time>
      </trkpt>
      <trkpt lat="45.92172" lon="6.48778">
        <ele>1427</ele>
        <time>2022-02-19T14:51:20Z</time>
      </trkpt>
      <trkpt lat="45.92171" lon="6.48775">
        <ele>1427</ele>
        <time>2022-02-19T14:51:22Z</time>
      </trkpt>
      <trkpt lat="45.9217" lon="6.48771">
        <ele>1426</ele>
        <time>2022-02-19T14:51:25Z</time>
      </trkpt>
      <trkpt lat="45.9217" lon="6.48769">
        <ele>1427</ele>
        <time>2022-02-19T14:51:26Z</time>
      </trkpt>
      <trkpt lat="45.92169" lon="6.48766">
        <ele>1427</ele>
        <time>2022-02-19T14:51:29Z</time>
      </trkpt>
      <trkpt lat="45.92168" lon="6.48763">
        <ele>1427</ele>
        <time>2022-02-19T14:51:31Z</time>
      </trkpt>
      <trkpt lat="45.92167" lon="6.4876">
        <ele>1427</ele>
        <time>2022-02-19T14:51:33Z</time>
      </trkpt>
      <trkpt lat="45.92166" lon="6.48756">
        <ele>1428</ele>
        <time>2022-02-19T14:51:37Z</time>
      </trkpt>
      <trkpt lat="45.92165" lon="6.48753">
        <ele>1428</ele>
        <time>2022-02-19T14:51:39Z</time>
      </trkpt>
      <trkpt lat="45.92164" lon="6.4875">
        <ele>1428</ele>
        <time>2022-02-19T14:51:43Z</time>
      </trkpt>
      <trkpt lat="45.92163" lon="6.48747">
        <ele>1429</ele>
        <time>2022-02-19T14:51:55Z</time>
      </trkpt>
      <trkpt lat="45.92161" lon="6.48742">
        <ele>1429</ele>
        <time>2022-02-19T14:51:59Z</time>
      </trkpt>
      <trkpt lat="45.92161" lon="6.48739">
        <ele>1429</ele>
        <time>2022-02-19T14:52:00Z</time>
      </trkpt>
      <trkpt lat="45.9216" lon="6.48736">
        <ele>1430</ele>
        <time>2022-02-19T14:52:04Z</time>
      </trkpt>
      <trkpt lat="45.92159" lon="6.48733">
        <ele>1430</ele>
        <time>2022-02-19T14:52:10Z</time>
      </trkpt>
      <trkpt lat="45.92158" lon="6.48731">
        <ele>1430</ele>
        <time>2022-02-19T14:52:12Z</time>
      </trkpt>
      <trkpt lat="45.92157" lon="6.48729">
        <ele>1430</ele>
        <time>2022-02-19T14:52:14Z</time>
      </trkpt>
      <trkpt lat="45.92156" lon="6.48726">
        <ele>1430</ele>
        <time>2022-02-19T14:52:15Z</time>
      </trkpt>
      <trkpt lat="45.92155" lon="6.48724">
        <ele>1431</ele>
        <time>2022-02-19T14:52:17Z</time>
      </trkpt>
      <trkpt lat="45.92155" lon="6.48721">
        <ele>1431</ele>
        <time>2022-02-19T14:52:19Z</time>
      </trkpt>
      <trkpt lat="45.92154" lon="6.48718">
        <ele>1431</ele>
        <time>2022-02-19T14:52:21Z</time>
      </trkpt>
      <trkpt lat="45.92153" lon="6.48715">
        <ele>1431</ele>
        <time>2022-02-19T14:52:24Z</time>
      </trkpt>
      <trkpt lat="45.92153" lon="6.48713">
        <ele>1431</ele>
        <time>2022-02-19T14:52:26Z</time>
      </trkpt>
      <trkpt lat="45.92152" lon="6.4871">
        <ele>1431</ele>
        <time>2022-02-19T14:52:27Z</time>
      </trkpt>
      <trkpt lat="45.92151" lon="6.48707">
        <ele>1431</ele>
        <time>2022-02-19T14:52:30Z</time>
      </trkpt>
      <trkpt lat="45.92149" lon="6.48705">
        <ele>1431</ele>
        <time>2022-02-19T14:52:32Z</time>
      </trkpt>
      <trkpt lat="45.92148" lon="6.48703">
        <ele>1431</ele>
        <time>2022-02-19T14:52:33Z</time>
      </trkpt>
      <trkpt lat="45.92147" lon="6.487">
        <ele>1431</ele>
        <time>2022-02-19T14:52:35Z</time>
      </trkpt>
      <trkpt lat="45.92145" lon="6.48699">
        <ele>1431</ele>
        <time>2022-02-19T14:52:37Z</time>
      </trkpt>
      <trkpt lat="45.92143" lon="6.48696">
        <ele>1432</ele>
        <time>2022-02-19T14:52:40Z</time>
      </trkpt>
      <trkpt lat="45.92142" lon="6.48694">
        <ele>1432</ele>
        <time>2022-02-19T14:52:42Z</time>
      </trkpt>
      <trkpt lat="45.9214" lon="6.48691">
        <ele>1432</ele>
        <time>2022-02-19T14:52:43Z</time>
      </trkpt>
      <trkpt lat="45.92138" lon="6.4869">
        <ele>1432</ele>
        <time>2022-02-19T14:52:45Z</time>
      </trkpt>
      <trkpt lat="45.92136" lon="6.48688">
        <ele>1431</ele>
        <time>2022-02-19T14:52:47Z</time>
      </trkpt>
      <trkpt lat="45.92134" lon="6.48685">
        <ele>1432</ele>
        <time>2022-02-19T14:52:49Z</time>
      </trkpt>
      <trkpt lat="45.92132" lon="6.48684">
        <ele>1431</ele>
        <time>2022-02-19T14:52:52Z</time>
      </trkpt>
      <trkpt lat="45.9213" lon="6.48681">
        <ele>1431</ele>
        <time>2022-02-19T14:52:54Z</time>
      </trkpt>
      <trkpt lat="45.92129" lon="6.48678">
        <ele>1431</ele>
        <time>2022-02-19T14:52:55Z</time>
      </trkpt>
      <trkpt lat="45.92128" lon="6.48675">
        <ele>1431</ele>
        <time>2022-02-19T14:52:57Z</time>
      </trkpt>
      <trkpt lat="45.92126" lon="6.48673">
        <ele>1432</ele>
        <time>2022-02-19T14:53:00Z</time>
      </trkpt>
      <trkpt lat="45.92124" lon="6.48671">
        <ele>1432</ele>
        <time>2022-02-19T14:53:02Z</time>
      </trkpt>
      <trkpt lat="45.92123" lon="6.48668">
        <ele>1432</ele>
        <time>2022-02-19T14:53:04Z</time>
      </trkpt>
      <trkpt lat="45.92122" lon="6.48666">
        <ele>1432</ele>
        <time>2022-02-19T14:53:05Z</time>
      </trkpt>
      <trkpt lat="45.9212" lon="6.48663">
        <ele>1432</ele>
        <time>2022-02-19T14:53:07Z</time>
      </trkpt>
      <trkpt lat="45.9212" lon="6.4866">
        <ele>1432</ele>
        <time>2022-02-19T14:53:10Z</time>
      </trkpt>
      <trkpt lat="45.92119" lon="6.48657">
        <ele>1432</ele>
        <time>2022-02-19T14:53:11Z</time>
      </trkpt>
      <trkpt lat="45.92117" lon="6.48647">
        <ele>1433</ele>
        <time>2022-02-19T14:53:18Z</time>
      </trkpt>
      <trkpt lat="45.92117" lon="6.48644">
        <ele>1434</ele>
        <time>2022-02-19T14:53:20Z</time>
      </trkpt>
      <trkpt lat="45.92118" lon="6.48641">
        <ele>1434</ele>
        <time>2022-02-19T14:53:21Z</time>
      </trkpt>
      <trkpt lat="45.92119" lon="6.48638">
        <ele>1434</ele>
        <time>2022-02-19T14:53:23Z</time>
      </trkpt>
      <trkpt lat="45.92119" lon="6.48635">
        <ele>1434</ele>
        <time>2022-02-19T14:53:26Z</time>
      </trkpt>
      <trkpt lat="45.9212" lon="6.48632">
        <ele>1434</ele>
        <time>2022-02-19T14:53:28Z</time>
      </trkpt>
      <trkpt lat="45.92121" lon="6.48628">
        <ele>1434</ele>
        <time>2022-02-19T14:53:29Z</time>
      </trkpt>
      <trkpt lat="45.92122" lon="6.48626">
        <ele>1434</ele>
        <time>2022-02-19T14:53:32Z</time>
      </trkpt>
      <trkpt lat="45.92123" lon="6.48623">
        <ele>1433</ele>
        <time>2022-02-19T14:53:34Z</time>
      </trkpt>
      <trkpt lat="45.92124" lon="6.4862">
        <ele>1434</ele>
        <time>2022-02-19T14:53:36Z</time>
      </trkpt>
      <trkpt lat="45.92125" lon="6.48617">
        <ele>1433</ele>
        <time>2022-02-19T14:53:38Z</time>
      </trkpt>
      <trkpt lat="45.92126" lon="6.48613">
        <ele>1433</ele>
        <time>2022-02-19T14:53:39Z</time>
      </trkpt>
      <trkpt lat="45.92128" lon="6.48608">
        <ele>1433</ele>
        <time>2022-02-19T14:53:44Z</time>
      </trkpt>
      <trkpt lat="45.92129" lon="6.48605">
        <ele>1434</ele>
        <time>2022-02-19T14:53:46Z</time>
      </trkpt>
      <trkpt lat="45.92131" lon="6.48602">
        <ele>1434</ele>
        <time>2022-02-19T14:53:48Z</time>
      </trkpt>
      <trkpt lat="45.92131" lon="6.48599">
        <ele>1434</ele>
        <time>2022-02-19T14:53:50Z</time>
      </trkpt>
      <trkpt lat="45.92133" lon="6.48595">
        <ele>1434</ele>
        <time>2022-02-19T14:53:53Z</time>
      </trkpt>
      <trkpt lat="45.92134" lon="6.48592">
        <ele>1434</ele>
        <time>2022-02-19T14:53:54Z</time>
      </trkpt>
      <trkpt lat="45.92135" lon="6.48589">
        <ele>1434</ele>
        <time>2022-02-19T14:53:57Z</time>
      </trkpt>
      <trkpt lat="45.92136" lon="6.48585">
        <ele>1434</ele>
        <time>2022-02-19T14:53:59Z</time>
      </trkpt>
      <trkpt lat="45.92137" lon="6.48582">
        <ele>1434</ele>
        <time>2022-02-19T14:54:01Z</time>
      </trkpt>
      <trkpt lat="45.92138" lon="6.48579">
        <ele>1434</ele>
        <time>2022-02-19T14:54:04Z</time>
      </trkpt>
      <trkpt lat="45.92139" lon="6.48576">
        <ele>1434</ele>
        <time>2022-02-19T14:54:06Z</time>
      </trkpt>
      <trkpt lat="45.92141" lon="6.48574">
        <ele>1434</ele>
        <time>2022-02-19T14:54:09Z</time>
      </trkpt>
      <trkpt lat="45.92143" lon="6.48572">
        <ele>1433</ele>
        <time>2022-02-19T14:54:15Z</time>
      </trkpt>
      <trkpt lat="45.92141" lon="6.48575">
        <ele>1433</ele>
        <time>2022-02-19T14:54:55Z</time>
      </trkpt>
      <trkpt lat="45.92145" lon="6.48573">
        <ele>1433</ele>
        <time>2022-02-19T14:55:20Z</time>
      </trkpt>
      <trkpt lat="45.92147" lon="6.48574">
        <ele>1433</ele>
        <time>2022-02-19T14:55:22Z</time>
      </trkpt>
      <trkpt lat="45.92145" lon="6.48575">
        <ele>1434</ele>
        <time>2022-02-19T14:55:29Z</time>
      </trkpt>
      <trkpt lat="45.92149" lon="6.48573">
        <ele>1434</ele>
        <time>2022-02-19T14:55:31Z</time>
      </trkpt>
      <trkpt lat="45.92152" lon="6.48568">
        <ele>1434</ele>
        <time>2022-02-19T14:55:32Z</time>
      </trkpt>
      <trkpt lat="45.92152" lon="6.48565">
        <ele>1435</ele>
        <time>2022-02-19T14:55:34Z</time>
      </trkpt>
      <trkpt lat="45.92154" lon="6.48561">
        <ele>1434</ele>
        <time>2022-02-19T14:55:35Z</time>
      </trkpt>
      <trkpt lat="45.9216" lon="6.48548">
        <ele>1434</ele>
        <time>2022-02-19T14:55:38Z</time>
      </trkpt>
      <trkpt lat="45.92162" lon="6.48543">
        <ele>1433</ele>
        <time>2022-02-19T14:55:39Z</time>
      </trkpt>
      <trkpt lat="45.92164" lon="6.48538">
        <ele>1432</ele>
        <time>2022-02-19T14:55:40Z</time>
      </trkpt>
      <trkpt lat="45.92166" lon="6.48533">
        <ele>1430</ele>
        <time>2022-02-19T14:55:41Z</time>
      </trkpt>
      <trkpt lat="45.92168" lon="6.48526">
        <ele>1429</ele>
        <time>2022-02-19T14:55:42Z</time>
      </trkpt>
      <trkpt lat="45.92171" lon="6.48518">
        <ele>1427</ele>
        <time>2022-02-19T14:55:43Z</time>
      </trkpt>
      <trkpt lat="45.92175" lon="6.48509">
        <ele>1426</ele>
        <time>2022-02-19T14:55:44Z</time>
      </trkpt>
      <trkpt lat="45.92182" lon="6.48495">
        <ele>1426</ele>
        <time>2022-02-19T14:55:45Z</time>
      </trkpt>
      <trkpt lat="45.92186" lon="6.48488">
        <ele>1424</ele>
        <time>2022-02-19T14:55:47Z</time>
      </trkpt>
      <trkpt lat="45.92191" lon="6.48481">
        <ele>1422</ele>
        <time>2022-02-19T14:55:48Z</time>
      </trkpt>
      <trkpt lat="45.92195" lon="6.48476">
        <ele>1421</ele>
        <time>2022-02-19T14:55:49Z</time>
      </trkpt>
      <trkpt lat="45.922" lon="6.4847">
        <ele>1420</ele>
        <time>2022-02-19T14:55:50Z</time>
      </trkpt>
      <trkpt lat="45.92205" lon="6.48466">
        <ele>1419</ele>
        <time>2022-02-19T14:55:51Z</time>
      </trkpt>
      <trkpt lat="45.92209" lon="6.48463">
        <ele>1419</ele>
        <time>2022-02-19T14:55:52Z</time>
      </trkpt>
      <trkpt lat="45.92214" lon="6.48459">
        <ele>1419</ele>
        <time>2022-02-19T14:55:53Z</time>
      </trkpt>
      <trkpt lat="45.92219" lon="6.48454">
        <ele>1418</ele>
        <time>2022-02-19T14:55:54Z</time>
      </trkpt>
      <trkpt lat="45.92223" lon="6.48449">
        <ele>1417</ele>
        <time>2022-02-19T14:55:55Z</time>
      </trkpt>
      <trkpt lat="45.92228" lon="6.48444">
        <ele>1416</ele>
        <time>2022-02-19T14:55:56Z</time>
      </trkpt>
      <trkpt lat="45.92233" lon="6.4844">
        <ele>1416</ele>
        <time>2022-02-19T14:55:57Z</time>
      </trkpt>
      <trkpt lat="45.92237" lon="6.48439">
        <ele>1415</ele>
        <time>2022-02-19T14:55:58Z</time>
      </trkpt>
      <trkpt lat="45.9224" lon="6.48437">
        <ele>1415</ele>
        <time>2022-02-19T14:55:59Z</time>
      </trkpt>
      <trkpt lat="45.92243" lon="6.48435">
        <ele>1415</ele>
        <time>2022-02-19T14:56:00Z</time>
      </trkpt>
      <trkpt lat="45.92244" lon="6.48433">
        <ele>1415</ele>
        <time>2022-02-19T14:56:01Z</time>
      </trkpt>
      <trkpt lat="45.92247" lon="6.48431">
        <ele>1415</ele>
        <time>2022-02-19T14:56:02Z</time>
      </trkpt>
      <trkpt lat="45.9225" lon="6.48429">
        <ele>1415</ele>
        <time>2022-02-19T14:56:05Z</time>
      </trkpt>
      <trkpt lat="45.92252" lon="6.48428">
        <ele>1415</ele>
        <time>2022-02-19T14:56:06Z</time>
      </trkpt>
      <trkpt lat="45.92254" lon="6.48427">
        <ele>1415</ele>
        <time>2022-02-19T14:56:07Z</time>
      </trkpt>
      <trkpt lat="45.92257" lon="6.48426">
        <ele>1414</ele>
        <time>2022-02-19T14:56:08Z</time>
      </trkpt>
      <trkpt lat="45.9226" lon="6.48425">
        <ele>1414</ele>
        <time>2022-02-19T14:56:09Z</time>
      </trkpt>
      <trkpt lat="45.92264" lon="6.48423">
        <ele>1414</ele>
        <time>2022-02-19T14:56:10Z</time>
      </trkpt>
      <trkpt lat="45.92267" lon="6.48422">
        <ele>1413</ele>
        <time>2022-02-19T14:56:11Z</time>
      </trkpt>
      <trkpt lat="45.92271" lon="6.48421">
        <ele>1412</ele>
        <time>2022-02-19T14:56:12Z</time>
      </trkpt>
      <trkpt lat="45.92275" lon="6.48419">
        <ele>1412</ele>
        <time>2022-02-19T14:56:13Z</time>
      </trkpt>
      <trkpt lat="45.92283" lon="6.48415">
        <ele>1412</ele>
        <time>2022-02-19T14:56:14Z</time>
      </trkpt>
      <trkpt lat="45.92288" lon="6.48413">
        <ele>1412</ele>
        <time>2022-02-19T14:56:16Z</time>
      </trkpt>
      <trkpt lat="45.92293" lon="6.48411">
        <ele>1411</ele>
        <time>2022-02-19T14:56:17Z</time>
      </trkpt>
      <trkpt lat="45.92298" lon="6.48408">
        <ele>1411</ele>
        <time>2022-02-19T14:56:18Z</time>
      </trkpt>
      <trkpt lat="45.92303" lon="6.48406">
        <ele>1411</ele>
        <time>2022-02-19T14:56:19Z</time>
      </trkpt>
      <trkpt lat="45.92308" lon="6.48403">
        <ele>1410</ele>
        <time>2022-02-19T14:56:20Z</time>
      </trkpt>
      <trkpt lat="45.92313" lon="6.48401">
        <ele>1409</ele>
        <time>2022-02-19T14:56:21Z</time>
      </trkpt>
      <trkpt lat="45.92318" lon="6.48399">
        <ele>1409</ele>
        <time>2022-02-19T14:56:22Z</time>
      </trkpt>
      <trkpt lat="45.92323" lon="6.48397">
        <ele>1409</ele>
        <time>2022-02-19T14:56:23Z</time>
      </trkpt>
      <trkpt lat="45.92327" lon="6.48395">
        <ele>1409</ele>
        <time>2022-02-19T14:56:24Z</time>
      </trkpt>
      <trkpt lat="45.92331" lon="6.48393">
        <ele>1409</ele>
        <time>2022-02-19T14:56:25Z</time>
      </trkpt>
      <trkpt lat="45.92334" lon="6.48391">
        <ele>1409</ele>
        <time>2022-02-19T14:56:26Z</time>
      </trkpt>
      <trkpt lat="45.92338" lon="6.48389">
        <ele>1409</ele>
        <time>2022-02-19T14:56:27Z</time>
      </trkpt>
      <trkpt lat="45.9234" lon="6.48388">
        <ele>1408</ele>
        <time>2022-02-19T14:56:28Z</time>
      </trkpt>
      <trkpt lat="45.92343" lon="6.48387">
        <ele>1408</ele>
        <time>2022-02-19T14:56:29Z</time>
      </trkpt>
      <trkpt lat="45.92345" lon="6.48386">
        <ele>1406</ele>
        <time>2022-02-19T14:56:30Z</time>
      </trkpt>
      <trkpt lat="45.92347" lon="6.48386">
        <ele>1407</ele>
        <time>2022-02-19T14:56:31Z</time>
      </trkpt>
      <trkpt lat="45.92349" lon="6.48385">
        <ele>1407</ele>
        <time>2022-02-19T14:56:32Z</time>
      </trkpt>
      <trkpt lat="45.92351" lon="6.48384">
        <ele>1407</ele>
        <time>2022-02-19T14:56:33Z</time>
      </trkpt>
      <trkpt lat="45.92353" lon="6.48383">
        <ele>1407</ele>
        <time>2022-02-19T14:56:36Z</time>
      </trkpt>
      <trkpt lat="45.92355" lon="6.48381">
        <ele>1407</ele>
        <time>2022-02-19T14:56:39Z</time>
      </trkpt>
      <trkpt lat="45.92357" lon="6.4838">
        <ele>1406</ele>
        <time>2022-02-19T14:56:43Z</time>
      </trkpt>
      <trkpt lat="45.92359" lon="6.4838">
        <ele>1408</ele>
        <time>2022-02-19T14:56:45Z</time>
      </trkpt>
      <trkpt lat="45.92362" lon="6.4838">
        <ele>1408</ele>
        <time>2022-02-19T14:56:47Z</time>
      </trkpt>
      <trkpt lat="45.92364" lon="6.48379">
        <ele>1408</ele>
        <time>2022-02-19T14:56:49Z</time>
      </trkpt>
      <trkpt lat="45.92366" lon="6.48377">
        <ele>1409</ele>
        <time>2022-02-19T14:56:51Z</time>
      </trkpt>
      <trkpt lat="45.92367" lon="6.48375">
        <ele>1409</ele>
        <time>2022-02-19T14:56:52Z</time>
      </trkpt>
      <trkpt lat="45.92368" lon="6.48373">
        <ele>1409</ele>
        <time>2022-02-19T14:56:55Z</time>
      </trkpt>
      <trkpt lat="45.9237" lon="6.48372">
        <ele>1410</ele>
        <time>2022-02-19T14:57:00Z</time>
      </trkpt>
      <trkpt lat="45.92373" lon="6.48371">
        <ele>1411</ele>
        <time>2022-02-19T14:57:04Z</time>
      </trkpt>
      <trkpt lat="45.92374" lon="6.48368">
        <ele>1411</ele>
        <time>2022-02-19T14:57:08Z</time>
      </trkpt>
      <trkpt lat="45.92375" lon="6.48366">
        <ele>1412</ele>
        <time>2022-02-19T14:57:12Z</time>
      </trkpt>
      <trkpt lat="45.92377" lon="6.48365">
        <ele>1412</ele>
        <time>2022-02-19T14:57:15Z</time>
      </trkpt>
      <trkpt lat="45.9238" lon="6.48365">
        <ele>1413</ele>
        <time>2022-02-19T14:57:18Z</time>
      </trkpt>
      <trkpt lat="45.92381" lon="6.48363">
        <ele>1413</ele>
        <time>2022-02-19T14:57:20Z</time>
      </trkpt>
      <trkpt lat="45.92384" lon="6.48362">
        <ele>1414</ele>
        <time>2022-02-19T14:57:23Z</time>
      </trkpt>
      <trkpt lat="45.92385" lon="6.48362">
        <ele>1414</ele>
        <time>2022-02-19T14:57:25Z</time>
      </trkpt>
      <trkpt lat="45.92388" lon="6.48361">
        <ele>1414</ele>
        <time>2022-02-19T14:57:28Z</time>
      </trkpt>
      <trkpt lat="45.9239" lon="6.4836">
        <ele>1414</ele>
        <time>2022-02-19T14:57:30Z</time>
      </trkpt>
      <trkpt lat="45.92392" lon="6.4836">
        <ele>1414</ele>
        <time>2022-02-19T14:57:32Z</time>
      </trkpt>
      <trkpt lat="45.92393" lon="6.48359">
        <ele>1414</ele>
        <time>2022-02-19T14:57:34Z</time>
      </trkpt>
      <trkpt lat="45.92395" lon="6.48357">
        <ele>1414</ele>
        <time>2022-02-19T14:57:36Z</time>
      </trkpt>
      <trkpt lat="45.92397" lon="6.48355">
        <ele>1414</ele>
        <time>2022-02-19T14:57:38Z</time>
      </trkpt>
      <trkpt lat="45.92398" lon="6.48353">
        <ele>1414</ele>
        <time>2022-02-19T14:57:40Z</time>
      </trkpt>
      <trkpt lat="45.924" lon="6.48351">
        <ele>1414</ele>
        <time>2022-02-19T14:57:43Z</time>
      </trkpt>
      <trkpt lat="45.924" lon="6.48348">
        <ele>1415</ele>
        <time>2022-02-19T14:57:49Z</time>
      </trkpt>
      <trkpt lat="45.924" lon="6.48348">
        <ele>1415</ele>
        <time>2022-02-19T14:57:57Z</time>
      </trkpt>
    </trkseg>
  </trk>
</gpx>